<?xml version="1.0" encoding="UTF-8" standalone="no" ?>
<gpx xmlns="http://www.topografix.com/GPX/1/1" xmlns:xsi="http://www.w3.org/2001/XMLSchema-instance" xsi:schemaLocation="http://www.topografix.com/GPX/1/1 http://www.topografix.com/GPX/1/1/gpx.xsd" version="1.1" creator="VisuGPX - https://www.visugpx.com">
  <metadata>
    <name>Sortie entre Paulhiac et Lacapelle</name>
    <desc><![CDATA[Sortie entre Paulhiac et Lacapelle]]></desc>
  </metadata>
  <trk>
    <name><![CDATA[Sortie entre Paulhiac et Lacapelle_1]]></name>
    <trkseg>
      <trkpt lat="44.58575" lon="0.82474">
        <ele>141</ele>
        <time>2012-11-11T07:55:02Z</time>
      </trkpt>
      <trkpt lat="44.5856" lon="0.82509">
        <ele>144</ele>
        <time>2012-11-11T07:55:28Z</time>
      </trkpt>
      <trkpt lat="44.58555" lon="0.82514">
        <ele>144</ele>
        <time>2012-11-11T07:55:30Z</time>
      </trkpt>
      <trkpt lat="44.5855" lon="0.82519">
        <ele>144</ele>
        <time>2012-11-11T07:55:32Z</time>
      </trkpt>
      <trkpt lat="44.58545" lon="0.82524">
        <ele>144</ele>
        <time>2012-11-11T07:55:34Z</time>
      </trkpt>
      <trkpt lat="44.58539" lon="0.8253">
        <ele>144</ele>
        <time>2012-11-11T07:55:36Z</time>
      </trkpt>
      <trkpt lat="44.58533" lon="0.82537">
        <ele>144</ele>
        <time>2012-11-11T07:55:38Z</time>
      </trkpt>
      <trkpt lat="44.58526" lon="0.82544">
        <ele>144</ele>
        <time>2012-11-11T07:55:40Z</time>
      </trkpt>
      <trkpt lat="44.5852" lon="0.8255">
        <ele>144</ele>
        <time>2012-11-11T07:55:42Z</time>
      </trkpt>
      <trkpt lat="44.58514" lon="0.82556">
        <ele>144</ele>
        <time>2012-11-11T07:55:44Z</time>
      </trkpt>
      <trkpt lat="44.58509" lon="0.82562">
        <ele>144</ele>
        <time>2012-11-11T07:55:46Z</time>
      </trkpt>
      <trkpt lat="44.58502" lon="0.82568">
        <ele>144</ele>
        <time>2012-11-11T07:55:48Z</time>
      </trkpt>
      <trkpt lat="44.58496" lon="0.82575">
        <ele>144</ele>
        <time>2012-11-11T07:55:50Z</time>
      </trkpt>
      <trkpt lat="44.58489" lon="0.82581">
        <ele>144</ele>
        <time>2012-11-11T07:55:52Z</time>
      </trkpt>
      <trkpt lat="44.58482" lon="0.82587">
        <ele>144</ele>
        <time>2012-11-11T07:55:54Z</time>
      </trkpt>
      <trkpt lat="44.58475" lon="0.82594">
        <ele>144</ele>
        <time>2012-11-11T07:55:56Z</time>
      </trkpt>
      <trkpt lat="44.58469" lon="0.826">
        <ele>144</ele>
        <time>2012-11-11T07:55:58Z</time>
      </trkpt>
      <trkpt lat="44.58463" lon="0.82607">
        <ele>144</ele>
        <time>2012-11-11T07:56:00Z</time>
      </trkpt>
      <trkpt lat="44.58456" lon="0.82613">
        <ele>144</ele>
        <time>2012-11-11T07:56:02Z</time>
      </trkpt>
      <trkpt lat="44.58449" lon="0.8262">
        <ele>144</ele>
        <time>2012-11-11T07:56:04Z</time>
      </trkpt>
      <trkpt lat="44.58443" lon="0.82626">
        <ele>144</ele>
        <time>2012-11-11T07:56:06Z</time>
      </trkpt>
      <trkpt lat="44.58435" lon="0.82633">
        <ele>144</ele>
        <time>2012-11-11T07:56:08Z</time>
      </trkpt>
      <trkpt lat="44.58428" lon="0.82639">
        <ele>144</ele>
        <time>2012-11-11T07:56:10Z</time>
      </trkpt>
      <trkpt lat="44.58421" lon="0.82645">
        <ele>144</ele>
        <time>2012-11-11T07:56:12Z</time>
      </trkpt>
      <trkpt lat="44.58413" lon="0.82652">
        <ele>144</ele>
        <time>2012-11-11T07:56:14Z</time>
      </trkpt>
      <trkpt lat="44.58405" lon="0.82657">
        <ele>144</ele>
        <time>2012-11-11T07:56:16Z</time>
      </trkpt>
      <trkpt lat="44.58397" lon="0.82662">
        <ele>144</ele>
        <time>2012-11-11T07:56:18Z</time>
      </trkpt>
      <trkpt lat="44.58388" lon="0.82668">
        <ele>144</ele>
        <time>2012-11-11T07:56:20Z</time>
      </trkpt>
      <trkpt lat="44.5838" lon="0.82674">
        <ele>144</ele>
        <time>2012-11-11T07:56:22Z</time>
      </trkpt>
      <trkpt lat="44.58371" lon="0.82679">
        <ele>144</ele>
        <time>2012-11-11T07:56:24Z</time>
      </trkpt>
      <trkpt lat="44.58363" lon="0.82685">
        <ele>144</ele>
        <time>2012-11-11T07:56:26Z</time>
      </trkpt>
      <trkpt lat="44.58354" lon="0.8269">
        <ele>144</ele>
        <time>2012-11-11T07:56:28Z</time>
      </trkpt>
      <trkpt lat="44.58346" lon="0.82695">
        <ele>144</ele>
        <time>2012-11-11T07:56:30Z</time>
      </trkpt>
      <trkpt lat="44.58337" lon="0.827">
        <ele>144</ele>
        <time>2012-11-11T07:56:32Z</time>
      </trkpt>
      <trkpt lat="44.58329" lon="0.82703">
        <ele>144</ele>
        <time>2012-11-11T07:56:34Z</time>
      </trkpt>
      <trkpt lat="44.5832" lon="0.82706">
        <ele>144</ele>
        <time>2012-11-11T07:56:36Z</time>
      </trkpt>
      <trkpt lat="44.58311" lon="0.82709">
        <ele>144</ele>
        <time>2012-11-11T07:56:38Z</time>
      </trkpt>
      <trkpt lat="44.58303" lon="0.82711">
        <ele>144</ele>
        <time>2012-11-11T07:56:40Z</time>
      </trkpt>
      <trkpt lat="44.58294" lon="0.82713">
        <ele>144</ele>
        <time>2012-11-11T07:56:42Z</time>
      </trkpt>
      <trkpt lat="44.58286" lon="0.82716">
        <ele>144</ele>
        <time>2012-11-11T07:56:44Z</time>
      </trkpt>
      <trkpt lat="44.58276" lon="0.82719">
        <ele>144</ele>
        <time>2012-11-11T07:56:46Z</time>
      </trkpt>
      <trkpt lat="44.58268" lon="0.82723">
        <ele>144</ele>
        <time>2012-11-11T07:56:48Z</time>
      </trkpt>
      <trkpt lat="44.58259" lon="0.82727">
        <ele>144</ele>
        <time>2012-11-11T07:56:50Z</time>
      </trkpt>
      <trkpt lat="44.5825" lon="0.82732">
        <ele>144</ele>
        <time>2012-11-11T07:56:52Z</time>
      </trkpt>
      <trkpt lat="44.58242" lon="0.82737">
        <ele>144</ele>
        <time>2012-11-11T07:56:54Z</time>
      </trkpt>
      <trkpt lat="44.58233" lon="0.82742">
        <ele>144</ele>
        <time>2012-11-11T07:56:56Z</time>
      </trkpt>
      <trkpt lat="44.58225" lon="0.82747">
        <ele>144</ele>
        <time>2012-11-11T07:56:58Z</time>
      </trkpt>
      <trkpt lat="44.58217" lon="0.82752">
        <ele>144</ele>
        <time>2012-11-11T07:57:00Z</time>
      </trkpt>
      <trkpt lat="44.58209" lon="0.82757">
        <ele>144</ele>
        <time>2012-11-11T07:57:02Z</time>
      </trkpt>
      <trkpt lat="44.58201" lon="0.82762">
        <ele>144</ele>
        <time>2012-11-11T07:57:04Z</time>
      </trkpt>
      <trkpt lat="44.58194" lon="0.82766">
        <ele>144</ele>
        <time>2012-11-11T07:57:06Z</time>
      </trkpt>
      <trkpt lat="44.58186" lon="0.82771">
        <ele>144</ele>
        <time>2012-11-11T07:57:08Z</time>
      </trkpt>
      <trkpt lat="44.58178" lon="0.82776">
        <ele>144</ele>
        <time>2012-11-11T07:57:10Z</time>
      </trkpt>
      <trkpt lat="44.58171" lon="0.8278">
        <ele>144</ele>
        <time>2012-11-11T07:57:12Z</time>
      </trkpt>
      <trkpt lat="44.58164" lon="0.82785">
        <ele>144</ele>
        <time>2012-11-11T07:57:14Z</time>
      </trkpt>
      <trkpt lat="44.58155" lon="0.82792">
        <ele>144</ele>
        <time>2012-11-11T07:57:17Z</time>
      </trkpt>
      <trkpt lat="44.58148" lon="0.82796">
        <ele>144</ele>
        <time>2012-11-11T07:57:19Z</time>
      </trkpt>
      <trkpt lat="44.58141" lon="0.82801">
        <ele>144</ele>
        <time>2012-11-11T07:57:21Z</time>
      </trkpt>
      <trkpt lat="44.58135" lon="0.82806">
        <ele>144</ele>
        <time>2012-11-11T07:57:23Z</time>
      </trkpt>
      <trkpt lat="44.58128" lon="0.82811">
        <ele>144</ele>
        <time>2012-11-11T07:57:25Z</time>
      </trkpt>
      <trkpt lat="44.58122" lon="0.82817">
        <ele>144</ele>
        <time>2012-11-11T07:57:27Z</time>
      </trkpt>
      <trkpt lat="44.58115" lon="0.82823">
        <ele>144</ele>
        <time>2012-11-11T07:57:29Z</time>
      </trkpt>
      <trkpt lat="44.58109" lon="0.82829">
        <ele>144</ele>
        <time>2012-11-11T07:57:31Z</time>
      </trkpt>
      <trkpt lat="44.58103" lon="0.82834">
        <ele>144</ele>
        <time>2012-11-11T07:57:33Z</time>
      </trkpt>
      <trkpt lat="44.58096" lon="0.8284">
        <ele>144</ele>
        <time>2012-11-11T07:57:35Z</time>
      </trkpt>
      <trkpt lat="44.5809" lon="0.82845">
        <ele>144</ele>
        <time>2012-11-11T07:57:37Z</time>
      </trkpt>
      <trkpt lat="44.58084" lon="0.82851">
        <ele>144</ele>
        <time>2012-11-11T07:57:39Z</time>
      </trkpt>
      <trkpt lat="44.58077" lon="0.82857">
        <ele>144</ele>
        <time>2012-11-11T07:57:41Z</time>
      </trkpt>
      <trkpt lat="44.58071" lon="0.82862">
        <ele>144</ele>
        <time>2012-11-11T07:57:43Z</time>
      </trkpt>
      <trkpt lat="44.58062" lon="0.82871">
        <ele>144</ele>
        <time>2012-11-11T07:57:46Z</time>
      </trkpt>
      <trkpt lat="44.58055" lon="0.82876">
        <ele>144</ele>
        <time>2012-11-11T07:57:48Z</time>
      </trkpt>
      <trkpt lat="44.58049" lon="0.82882">
        <ele>144</ele>
        <time>2012-11-11T07:57:50Z</time>
      </trkpt>
      <trkpt lat="44.58043" lon="0.82887">
        <ele>144</ele>
        <time>2012-11-11T07:57:52Z</time>
      </trkpt>
      <trkpt lat="44.58037" lon="0.82893">
        <ele>145</ele>
        <time>2012-11-11T07:57:54Z</time>
      </trkpt>
      <trkpt lat="44.58032" lon="0.82898">
        <ele>145</ele>
        <time>2012-11-11T07:57:56Z</time>
      </trkpt>
      <trkpt lat="44.58029" lon="0.82906">
        <ele>145</ele>
        <time>2012-11-11T07:57:58Z</time>
      </trkpt>
      <trkpt lat="44.58028" lon="0.82914">
        <ele>145</ele>
        <time>2012-11-11T07:58:00Z</time>
      </trkpt>
      <trkpt lat="44.5803" lon="0.82921">
        <ele>145</ele>
        <time>2012-11-11T07:58:02Z</time>
      </trkpt>
      <trkpt lat="44.58033" lon="0.82928">
        <ele>145</ele>
        <time>2012-11-11T07:58:04Z</time>
      </trkpt>
      <trkpt lat="44.58035" lon="0.82935">
        <ele>145</ele>
        <time>2012-11-11T07:58:06Z</time>
      </trkpt>
      <trkpt lat="44.58038" lon="0.82943">
        <ele>145</ele>
        <time>2012-11-11T07:58:08Z</time>
      </trkpt>
      <trkpt lat="44.58039" lon="0.82951">
        <ele>145</ele>
        <time>2012-11-11T07:58:10Z</time>
      </trkpt>
      <trkpt lat="44.5804" lon="0.82958">
        <ele>145</ele>
        <time>2012-11-11T07:58:12Z</time>
      </trkpt>
      <trkpt lat="44.58041" lon="0.82965">
        <ele>145</ele>
        <time>2012-11-11T07:58:14Z</time>
      </trkpt>
      <trkpt lat="44.58043" lon="0.82973">
        <ele>144</ele>
        <time>2012-11-11T07:58:16Z</time>
      </trkpt>
      <trkpt lat="44.58046" lon="0.82981">
        <ele>143</ele>
        <time>2012-11-11T07:58:18Z</time>
      </trkpt>
      <trkpt lat="44.58049" lon="0.8299">
        <ele>143</ele>
        <time>2012-11-11T07:58:20Z</time>
      </trkpt>
      <trkpt lat="44.58051" lon="0.82998">
        <ele>143</ele>
        <time>2012-11-11T07:58:22Z</time>
      </trkpt>
      <trkpt lat="44.58053" lon="0.83006">
        <ele>143</ele>
        <time>2012-11-11T07:58:24Z</time>
      </trkpt>
      <trkpt lat="44.58055" lon="0.83013">
        <ele>143</ele>
        <time>2012-11-11T07:58:26Z</time>
      </trkpt>
      <trkpt lat="44.58058" lon="0.83021">
        <ele>143</ele>
        <time>2012-11-11T07:58:28Z</time>
      </trkpt>
      <trkpt lat="44.5806" lon="0.8303">
        <ele>143</ele>
        <time>2012-11-11T07:58:30Z</time>
      </trkpt>
      <trkpt lat="44.58063" lon="0.83039">
        <ele>143</ele>
        <time>2012-11-11T07:58:32Z</time>
      </trkpt>
      <trkpt lat="44.58066" lon="0.83048">
        <ele>143</ele>
        <time>2012-11-11T07:58:34Z</time>
      </trkpt>
      <trkpt lat="44.58069" lon="0.83058">
        <ele>143</ele>
        <time>2012-11-11T07:58:36Z</time>
      </trkpt>
      <trkpt lat="44.58072" lon="0.83068">
        <ele>143</ele>
        <time>2012-11-11T07:58:38Z</time>
      </trkpt>
      <trkpt lat="44.58075" lon="0.83077">
        <ele>143</ele>
        <time>2012-11-11T07:58:40Z</time>
      </trkpt>
      <trkpt lat="44.58078" lon="0.83087">
        <ele>142</ele>
        <time>2012-11-11T07:58:42Z</time>
      </trkpt>
      <trkpt lat="44.58081" lon="0.83096">
        <ele>142</ele>
        <time>2012-11-11T07:58:44Z</time>
      </trkpt>
      <trkpt lat="44.58083" lon="0.83106">
        <ele>141</ele>
        <time>2012-11-11T07:58:46Z</time>
      </trkpt>
      <trkpt lat="44.58086" lon="0.83116">
        <ele>140</ele>
        <time>2012-11-11T07:58:48Z</time>
      </trkpt>
      <trkpt lat="44.58089" lon="0.83126">
        <ele>140</ele>
        <time>2012-11-11T07:58:50Z</time>
      </trkpt>
      <trkpt lat="44.58092" lon="0.83136">
        <ele>140</ele>
        <time>2012-11-11T07:58:52Z</time>
      </trkpt>
      <trkpt lat="44.58096" lon="0.83145">
        <ele>140</ele>
        <time>2012-11-11T07:58:54Z</time>
      </trkpt>
      <trkpt lat="44.58099" lon="0.83155">
        <ele>140</ele>
        <time>2012-11-11T07:58:56Z</time>
      </trkpt>
      <trkpt lat="44.58102" lon="0.83164">
        <ele>139</ele>
        <time>2012-11-11T07:58:58Z</time>
      </trkpt>
      <trkpt lat="44.58105" lon="0.83174">
        <ele>138</ele>
        <time>2012-11-11T07:59:00Z</time>
      </trkpt>
      <trkpt lat="44.58107" lon="0.83183">
        <ele>138</ele>
        <time>2012-11-11T07:59:02Z</time>
      </trkpt>
      <trkpt lat="44.5811" lon="0.83191">
        <ele>137</ele>
        <time>2012-11-11T07:59:04Z</time>
      </trkpt>
      <trkpt lat="44.58113" lon="0.83199">
        <ele>137</ele>
        <time>2012-11-11T07:59:06Z</time>
      </trkpt>
      <trkpt lat="44.58113" lon="0.83207">
        <ele>137</ele>
        <time>2012-11-11T07:59:08Z</time>
      </trkpt>
      <trkpt lat="44.58113" lon="0.83214">
        <ele>139</ele>
        <time>2012-11-11T07:59:10Z</time>
      </trkpt>
      <trkpt lat="44.58112" lon="0.83223">
        <ele>140</ele>
        <time>2012-11-11T07:59:12Z</time>
      </trkpt>
      <trkpt lat="44.58112" lon="0.83232">
        <ele>141</ele>
        <time>2012-11-11T07:59:14Z</time>
      </trkpt>
      <trkpt lat="44.58111" lon="0.83239">
        <ele>142</ele>
        <time>2012-11-11T07:59:16Z</time>
      </trkpt>
      <trkpt lat="44.5811" lon="0.83247">
        <ele>142</ele>
        <time>2012-11-11T07:59:18Z</time>
      </trkpt>
      <trkpt lat="44.58108" lon="0.83256">
        <ele>142</ele>
        <time>2012-11-11T07:59:20Z</time>
      </trkpt>
      <trkpt lat="44.58106" lon="0.83262">
        <ele>142</ele>
        <time>2012-11-11T07:59:22Z</time>
      </trkpt>
      <trkpt lat="44.58107" lon="0.83268">
        <ele>142</ele>
        <time>2012-11-11T07:59:24Z</time>
      </trkpt>
      <trkpt lat="44.58106" lon="0.83274">
        <ele>142</ele>
        <time>2012-11-11T07:59:26Z</time>
      </trkpt>
      <trkpt lat="44.58105" lon="0.83281">
        <ele>142</ele>
        <time>2012-11-11T07:59:28Z</time>
      </trkpt>
      <trkpt lat="44.58103" lon="0.83288">
        <ele>142</ele>
        <time>2012-11-11T07:59:30Z</time>
      </trkpt>
      <trkpt lat="44.58102" lon="0.83296">
        <ele>140</ele>
        <time>2012-11-11T07:59:32Z</time>
      </trkpt>
      <trkpt lat="44.58101" lon="0.83304">
        <ele>138</ele>
        <time>2012-11-11T07:59:34Z</time>
      </trkpt>
      <trkpt lat="44.58099" lon="0.83316">
        <ele>137</ele>
        <time>2012-11-11T07:59:36Z</time>
      </trkpt>
      <trkpt lat="44.58097" lon="0.83327">
        <ele>137</ele>
        <time>2012-11-11T07:59:38Z</time>
      </trkpt>
      <trkpt lat="44.58096" lon="0.83338">
        <ele>137</ele>
        <time>2012-11-11T07:59:40Z</time>
      </trkpt>
      <trkpt lat="44.58094" lon="0.83349">
        <ele>137</ele>
        <time>2012-11-11T07:59:42Z</time>
      </trkpt>
      <trkpt lat="44.58093" lon="0.8336">
        <ele>137</ele>
        <time>2012-11-11T07:59:44Z</time>
      </trkpt>
      <trkpt lat="44.58091" lon="0.83371">
        <ele>138</ele>
        <time>2012-11-11T07:59:46Z</time>
      </trkpt>
      <trkpt lat="44.5809" lon="0.83382">
        <ele>139</ele>
        <time>2012-11-11T07:59:48Z</time>
      </trkpt>
      <trkpt lat="44.58089" lon="0.8339">
        <ele>139</ele>
        <time>2012-11-11T07:59:50Z</time>
      </trkpt>
      <trkpt lat="44.58087" lon="0.83397">
        <ele>139</ele>
        <time>2012-11-11T07:59:52Z</time>
      </trkpt>
      <trkpt lat="44.58086" lon="0.83404">
        <ele>139</ele>
        <time>2012-11-11T07:59:54Z</time>
      </trkpt>
      <trkpt lat="44.58083" lon="0.8341">
        <ele>139</ele>
        <time>2012-11-11T07:59:56Z</time>
      </trkpt>
      <trkpt lat="44.58078" lon="0.83415">
        <ele>139</ele>
        <time>2012-11-11T07:59:58Z</time>
      </trkpt>
      <trkpt lat="44.58076" lon="0.83419">
        <ele>140</ele>
        <time>2012-11-11T08:00:00Z</time>
      </trkpt>
      <trkpt lat="44.58078" lon="0.83425">
        <ele>142</ele>
        <time>2012-11-11T08:00:02Z</time>
      </trkpt>
      <trkpt lat="44.5808" lon="0.8343">
        <ele>143</ele>
        <time>2012-11-11T08:00:04Z</time>
      </trkpt>
      <trkpt lat="44.58081" lon="0.83437">
        <ele>145</ele>
        <time>2012-11-11T08:00:06Z</time>
      </trkpt>
      <trkpt lat="44.5808" lon="0.83444">
        <ele>146</ele>
        <time>2012-11-11T08:00:08Z</time>
      </trkpt>
      <trkpt lat="44.5808" lon="0.83452">
        <ele>148</ele>
        <time>2012-11-11T08:00:10Z</time>
      </trkpt>
      <trkpt lat="44.58078" lon="0.83461">
        <ele>149</ele>
        <time>2012-11-11T08:00:12Z</time>
      </trkpt>
      <trkpt lat="44.58077" lon="0.8347">
        <ele>149</ele>
        <time>2012-11-11T08:00:14Z</time>
      </trkpt>
      <trkpt lat="44.58075" lon="0.83478">
        <ele>150</ele>
        <time>2012-11-11T08:00:16Z</time>
      </trkpt>
      <trkpt lat="44.58073" lon="0.83486">
        <ele>151</ele>
        <time>2012-11-11T08:00:18Z</time>
      </trkpt>
      <trkpt lat="44.58071" lon="0.83494">
        <ele>151</ele>
        <time>2012-11-11T08:00:20Z</time>
      </trkpt>
      <trkpt lat="44.5807" lon="0.83501">
        <ele>151</ele>
        <time>2012-11-11T08:00:22Z</time>
      </trkpt>
      <trkpt lat="44.58069" lon="0.83508">
        <ele>151</ele>
        <time>2012-11-11T08:00:24Z</time>
      </trkpt>
      <trkpt lat="44.58068" lon="0.83515">
        <ele>151</ele>
        <time>2012-11-11T08:00:26Z</time>
      </trkpt>
      <trkpt lat="44.58067" lon="0.83522">
        <ele>151</ele>
        <time>2012-11-11T08:00:28Z</time>
      </trkpt>
      <trkpt lat="44.58065" lon="0.83529">
        <ele>151</ele>
        <time>2012-11-11T08:00:30Z</time>
      </trkpt>
      <trkpt lat="44.58063" lon="0.83536">
        <ele>151</ele>
        <time>2012-11-11T08:00:32Z</time>
      </trkpt>
      <trkpt lat="44.58062" lon="0.83543">
        <ele>151</ele>
        <time>2012-11-11T08:00:34Z</time>
      </trkpt>
      <trkpt lat="44.58059" lon="0.83549">
        <ele>151</ele>
        <time>2012-11-11T08:00:36Z</time>
      </trkpt>
      <trkpt lat="44.58057" lon="0.83556">
        <ele>151</ele>
        <time>2012-11-11T08:00:38Z</time>
      </trkpt>
      <trkpt lat="44.58053" lon="0.83562">
        <ele>151</ele>
        <time>2012-11-11T08:00:40Z</time>
      </trkpt>
      <trkpt lat="44.5805" lon="0.8357">
        <ele>149</ele>
        <time>2012-11-11T08:00:42Z</time>
      </trkpt>
      <trkpt lat="44.58047" lon="0.83576">
        <ele>148</ele>
        <time>2012-11-11T08:00:44Z</time>
      </trkpt>
      <trkpt lat="44.58045" lon="0.83583">
        <ele>148</ele>
        <time>2012-11-11T08:00:46Z</time>
      </trkpt>
      <trkpt lat="44.58044" lon="0.8359">
        <ele>147</ele>
        <time>2012-11-11T08:00:48Z</time>
      </trkpt>
      <trkpt lat="44.58043" lon="0.83595">
        <ele>146</ele>
        <time>2012-11-11T08:00:50Z</time>
      </trkpt>
      <trkpt lat="44.58041" lon="0.836">
        <ele>145</ele>
        <time>2012-11-11T08:00:52Z</time>
      </trkpt>
      <trkpt lat="44.58039" lon="0.83606">
        <ele>145</ele>
        <time>2012-11-11T08:00:54Z</time>
      </trkpt>
      <trkpt lat="44.58038" lon="0.83614">
        <ele>145</ele>
        <time>2012-11-11T08:00:56Z</time>
      </trkpt>
      <trkpt lat="44.58038" lon="0.8362">
        <ele>145</ele>
        <time>2012-11-11T08:00:58Z</time>
      </trkpt>
      <trkpt lat="44.58038" lon="0.83627">
        <ele>145</ele>
        <time>2012-11-11T08:01:00Z</time>
      </trkpt>
      <trkpt lat="44.58037" lon="0.83633">
        <ele>145</ele>
        <time>2012-11-11T08:01:02Z</time>
      </trkpt>
      <trkpt lat="44.58035" lon="0.83641">
        <ele>145</ele>
        <time>2012-11-11T08:01:04Z</time>
      </trkpt>
      <trkpt lat="44.58035" lon="0.83647">
        <ele>145</ele>
        <time>2012-11-11T08:01:06Z</time>
      </trkpt>
      <trkpt lat="44.58033" lon="0.83652">
        <ele>143</ele>
        <time>2012-11-11T08:01:08Z</time>
      </trkpt>
      <trkpt lat="44.58032" lon="0.83658">
        <ele>142</ele>
        <time>2012-11-11T08:01:10Z</time>
      </trkpt>
      <trkpt lat="44.58033" lon="0.83665">
        <ele>140</ele>
        <time>2012-11-11T08:01:12Z</time>
      </trkpt>
      <trkpt lat="44.58031" lon="0.83672">
        <ele>138</ele>
        <time>2012-11-11T08:01:14Z</time>
      </trkpt>
      <trkpt lat="44.58028" lon="0.83683">
        <ele>136</ele>
        <time>2012-11-11T08:01:16Z</time>
      </trkpt>
      <trkpt lat="44.58027" lon="0.83691">
        <ele>134</ele>
        <time>2012-11-11T08:01:18Z</time>
      </trkpt>
      <trkpt lat="44.58025" lon="0.83698">
        <ele>132</ele>
        <time>2012-11-11T08:01:20Z</time>
      </trkpt>
      <trkpt lat="44.58022" lon="0.83701">
        <ele>130</ele>
        <time>2012-11-11T08:01:22Z</time>
      </trkpt>
      <trkpt lat="44.58016" lon="0.83705">
        <ele>128</ele>
        <time>2012-11-11T08:01:24Z</time>
      </trkpt>
      <trkpt lat="44.58012" lon="0.83707">
        <ele>126</ele>
        <time>2012-11-11T08:01:26Z</time>
      </trkpt>
      <trkpt lat="44.58007" lon="0.83707">
        <ele>124</ele>
        <time>2012-11-11T08:01:28Z</time>
      </trkpt>
      <trkpt lat="44.58002" lon="0.83706">
        <ele>122</ele>
        <time>2012-11-11T08:01:30Z</time>
      </trkpt>
      <trkpt lat="44.57996" lon="0.83705">
        <ele>120</ele>
        <time>2012-11-11T08:01:32Z</time>
      </trkpt>
      <trkpt lat="44.5799" lon="0.83704">
        <ele>118</ele>
        <time>2012-11-11T08:01:34Z</time>
      </trkpt>
      <trkpt lat="44.57984" lon="0.83704">
        <ele>117</ele>
        <time>2012-11-11T08:01:36Z</time>
      </trkpt>
      <trkpt lat="44.57979" lon="0.83704">
        <ele>117</ele>
        <time>2012-11-11T08:01:38Z</time>
      </trkpt>
      <trkpt lat="44.57975" lon="0.83705">
        <ele>117</ele>
        <time>2012-11-11T08:01:40Z</time>
      </trkpt>
      <trkpt lat="44.57969" lon="0.83704">
        <ele>117</ele>
        <time>2012-11-11T08:01:42Z</time>
      </trkpt>
      <trkpt lat="44.57964" lon="0.83705">
        <ele>119</ele>
        <time>2012-11-11T08:01:44Z</time>
      </trkpt>
      <trkpt lat="44.57956" lon="0.83704">
        <ele>122</ele>
        <time>2012-11-11T08:01:47Z</time>
      </trkpt>
      <trkpt lat="44.57951" lon="0.83702">
        <ele>123</ele>
        <time>2012-11-11T08:01:49Z</time>
      </trkpt>
      <trkpt lat="44.57946" lon="0.83702">
        <ele>123</ele>
        <time>2012-11-11T08:01:51Z</time>
      </trkpt>
      <trkpt lat="44.5794" lon="0.83702">
        <ele>123</ele>
        <time>2012-11-11T08:01:53Z</time>
      </trkpt>
      <trkpt lat="44.57934" lon="0.83704">
        <ele>123</ele>
        <time>2012-11-11T08:01:55Z</time>
      </trkpt>
      <trkpt lat="44.5793" lon="0.83706">
        <ele>123</ele>
        <time>2012-11-11T08:01:57Z</time>
      </trkpt>
      <trkpt lat="44.57923" lon="0.83706">
        <ele>123</ele>
        <time>2012-11-11T08:01:59Z</time>
      </trkpt>
      <trkpt lat="44.57917" lon="0.83706">
        <ele>123</ele>
        <time>2012-11-11T08:02:01Z</time>
      </trkpt>
      <trkpt lat="44.5791" lon="0.83702">
        <ele>123</ele>
        <time>2012-11-11T08:02:03Z</time>
      </trkpt>
      <trkpt lat="44.57905" lon="0.83701">
        <ele>124</ele>
        <time>2012-11-11T08:02:05Z</time>
      </trkpt>
      <trkpt lat="44.57901" lon="0.83699">
        <ele>125</ele>
        <time>2012-11-11T08:02:07Z</time>
      </trkpt>
      <trkpt lat="44.57896" lon="0.83696">
        <ele>126</ele>
        <time>2012-11-11T08:02:09Z</time>
      </trkpt>
      <trkpt lat="44.5789" lon="0.83694">
        <ele>127</ele>
        <time>2012-11-11T08:02:11Z</time>
      </trkpt>
      <trkpt lat="44.57883" lon="0.83695">
        <ele>129</ele>
        <time>2012-11-11T08:02:13Z</time>
      </trkpt>
      <trkpt lat="44.57876" lon="0.83697">
        <ele>131</ele>
        <time>2012-11-11T08:02:15Z</time>
      </trkpt>
      <trkpt lat="44.5787" lon="0.837">
        <ele>133</ele>
        <time>2012-11-11T08:02:17Z</time>
      </trkpt>
      <trkpt lat="44.57863" lon="0.83701">
        <ele>136</ele>
        <time>2012-11-11T08:02:19Z</time>
      </trkpt>
      <trkpt lat="44.57856" lon="0.83704">
        <ele>138</ele>
        <time>2012-11-11T08:02:21Z</time>
      </trkpt>
      <trkpt lat="44.5785" lon="0.83708">
        <ele>140</ele>
        <time>2012-11-11T08:02:23Z</time>
      </trkpt>
      <trkpt lat="44.57844" lon="0.83717">
        <ele>142</ele>
        <time>2012-11-11T08:02:25Z</time>
      </trkpt>
      <trkpt lat="44.57839" lon="0.83726">
        <ele>143</ele>
        <time>2012-11-11T08:02:27Z</time>
      </trkpt>
      <trkpt lat="44.57834" lon="0.83731">
        <ele>144</ele>
        <time>2012-11-11T08:02:29Z</time>
      </trkpt>
      <trkpt lat="44.57829" lon="0.83736">
        <ele>144</ele>
        <time>2012-11-11T08:02:31Z</time>
      </trkpt>
      <trkpt lat="44.57823" lon="0.83741">
        <ele>144</ele>
        <time>2012-11-11T08:02:33Z</time>
      </trkpt>
      <trkpt lat="44.57818" lon="0.83742">
        <ele>144</ele>
        <time>2012-11-11T08:02:35Z</time>
      </trkpt>
      <trkpt lat="44.57814" lon="0.83736">
        <ele>144</ele>
        <time>2012-11-11T08:02:37Z</time>
      </trkpt>
      <trkpt lat="44.5781" lon="0.83731">
        <ele>145</ele>
        <time>2012-11-11T08:02:39Z</time>
      </trkpt>
      <trkpt lat="44.57804" lon="0.83727">
        <ele>145</ele>
        <time>2012-11-11T08:02:41Z</time>
      </trkpt>
      <trkpt lat="44.57798" lon="0.83723">
        <ele>145</ele>
        <time>2012-11-11T08:02:43Z</time>
      </trkpt>
      <trkpt lat="44.57792" lon="0.83724">
        <ele>145</ele>
        <time>2012-11-11T08:02:45Z</time>
      </trkpt>
      <trkpt lat="44.57783" lon="0.83726">
        <ele>145</ele>
        <time>2012-11-11T08:02:47Z</time>
      </trkpt>
      <trkpt lat="44.57776" lon="0.83728">
        <ele>145</ele>
        <time>2012-11-11T08:02:49Z</time>
      </trkpt>
      <trkpt lat="44.57769" lon="0.83728">
        <ele>145</ele>
        <time>2012-11-11T08:02:51Z</time>
      </trkpt>
      <trkpt lat="44.57763" lon="0.8373">
        <ele>145</ele>
        <time>2012-11-11T08:02:53Z</time>
      </trkpt>
      <trkpt lat="44.57755" lon="0.83731">
        <ele>145</ele>
        <time>2012-11-11T08:02:55Z</time>
      </trkpt>
      <trkpt lat="44.57747" lon="0.83732">
        <ele>145</ele>
        <time>2012-11-11T08:02:57Z</time>
      </trkpt>
      <trkpt lat="44.57738" lon="0.83733">
        <ele>146</ele>
        <time>2012-11-11T08:02:59Z</time>
      </trkpt>
      <trkpt lat="44.57732" lon="0.83731">
        <ele>148</ele>
        <time>2012-11-11T08:03:01Z</time>
      </trkpt>
      <trkpt lat="44.57724" lon="0.83729">
        <ele>149</ele>
        <time>2012-11-11T08:03:03Z</time>
      </trkpt>
      <trkpt lat="44.57715" lon="0.83728">
        <ele>149</ele>
        <time>2012-11-11T08:03:05Z</time>
      </trkpt>
      <trkpt lat="44.57705" lon="0.83726">
        <ele>149</ele>
        <time>2012-11-11T08:03:07Z</time>
      </trkpt>
      <trkpt lat="44.57695" lon="0.83724">
        <ele>149</ele>
        <time>2012-11-11T08:03:09Z</time>
      </trkpt>
      <trkpt lat="44.57684" lon="0.83722">
        <ele>149</ele>
        <time>2012-11-11T08:03:11Z</time>
      </trkpt>
      <trkpt lat="44.57674" lon="0.8372">
        <ele>149</ele>
        <time>2012-11-11T08:03:13Z</time>
      </trkpt>
      <trkpt lat="44.57664" lon="0.8372">
        <ele>149</ele>
        <time>2012-11-11T08:03:15Z</time>
      </trkpt>
      <trkpt lat="44.57652" lon="0.83719">
        <ele>148</ele>
        <time>2012-11-11T08:03:17Z</time>
      </trkpt>
      <trkpt lat="44.57641" lon="0.83718">
        <ele>147</ele>
        <time>2012-11-11T08:03:19Z</time>
      </trkpt>
      <trkpt lat="44.57628" lon="0.83716">
        <ele>145</ele>
        <time>2012-11-11T08:03:21Z</time>
      </trkpt>
      <trkpt lat="44.57614" lon="0.83714">
        <ele>145</ele>
        <time>2012-11-11T08:03:23Z</time>
      </trkpt>
      <trkpt lat="44.57602" lon="0.83714">
        <ele>145</ele>
        <time>2012-11-11T08:03:25Z</time>
      </trkpt>
      <trkpt lat="44.5759" lon="0.83722">
        <ele>143</ele>
        <time>2012-11-11T08:03:27Z</time>
      </trkpt>
      <trkpt lat="44.57577" lon="0.83729">
        <ele>142</ele>
        <time>2012-11-11T08:03:29Z</time>
      </trkpt>
      <trkpt lat="44.57563" lon="0.83733">
        <ele>141</ele>
        <time>2012-11-11T08:03:31Z</time>
      </trkpt>
      <trkpt lat="44.5755" lon="0.83739">
        <ele>141</ele>
        <time>2012-11-11T08:03:33Z</time>
      </trkpt>
      <trkpt lat="44.57534" lon="0.83745">
        <ele>141</ele>
        <time>2012-11-11T08:03:35Z</time>
      </trkpt>
      <trkpt lat="44.5752" lon="0.83752">
        <ele>141</ele>
        <time>2012-11-11T08:03:37Z</time>
      </trkpt>
      <trkpt lat="44.5751" lon="0.83763">
        <ele>141</ele>
        <time>2012-11-11T08:03:39Z</time>
      </trkpt>
      <trkpt lat="44.57498" lon="0.83773">
        <ele>141</ele>
        <time>2012-11-11T08:03:41Z</time>
      </trkpt>
      <trkpt lat="44.57486" lon="0.8378">
        <ele>140</ele>
        <time>2012-11-11T08:03:43Z</time>
      </trkpt>
      <trkpt lat="44.57476" lon="0.83786">
        <ele>138</ele>
        <time>2012-11-11T08:03:45Z</time>
      </trkpt>
      <trkpt lat="44.57469" lon="0.83797">
        <ele>135</ele>
        <time>2012-11-11T08:03:47Z</time>
      </trkpt>
      <trkpt lat="44.57463" lon="0.83812">
        <ele>131</ele>
        <time>2012-11-11T08:03:49Z</time>
      </trkpt>
      <trkpt lat="44.57458" lon="0.83834">
        <ele>128</ele>
        <time>2012-11-11T08:03:51Z</time>
      </trkpt>
      <trkpt lat="44.5745" lon="0.83852">
        <ele>126</ele>
        <time>2012-11-11T08:03:53Z</time>
      </trkpt>
      <trkpt lat="44.5744" lon="0.83865">
        <ele>122</ele>
        <time>2012-11-11T08:03:55Z</time>
      </trkpt>
      <trkpt lat="44.57429" lon="0.83873">
        <ele>118</ele>
        <time>2012-11-11T08:03:57Z</time>
      </trkpt>
      <trkpt lat="44.57423" lon="0.83877">
        <ele>114</ele>
        <time>2012-11-11T08:03:59Z</time>
      </trkpt>
      <trkpt lat="44.57419" lon="0.8388">
        <ele>110</ele>
        <time>2012-11-11T08:04:01Z</time>
      </trkpt>
      <trkpt lat="44.57416" lon="0.83884">
        <ele>108</ele>
        <time>2012-11-11T08:04:03Z</time>
      </trkpt>
      <trkpt lat="44.57413" lon="0.83889">
        <ele>106</ele>
        <time>2012-11-11T08:04:05Z</time>
      </trkpt>
      <trkpt lat="44.5741" lon="0.83896">
        <ele>106</ele>
        <time>2012-11-11T08:04:07Z</time>
      </trkpt>
      <trkpt lat="44.57409" lon="0.83905">
        <ele>106</ele>
        <time>2012-11-11T08:04:09Z</time>
      </trkpt>
      <trkpt lat="44.57407" lon="0.83912">
        <ele>108</ele>
        <time>2012-11-11T08:04:11Z</time>
      </trkpt>
      <trkpt lat="44.57406" lon="0.83919">
        <ele>110</ele>
        <time>2012-11-11T08:04:13Z</time>
      </trkpt>
      <trkpt lat="44.57406" lon="0.83925">
        <ele>113</ele>
        <time>2012-11-11T08:04:15Z</time>
      </trkpt>
      <trkpt lat="44.57404" lon="0.83931">
        <ele>116</ele>
        <time>2012-11-11T08:04:17Z</time>
      </trkpt>
      <trkpt lat="44.57402" lon="0.83937">
        <ele>119</ele>
        <time>2012-11-11T08:04:19Z</time>
      </trkpt>
      <trkpt lat="44.57399" lon="0.83943">
        <ele>122</ele>
        <time>2012-11-11T08:04:21Z</time>
      </trkpt>
      <trkpt lat="44.57397" lon="0.83949">
        <ele>124</ele>
        <time>2012-11-11T08:04:23Z</time>
      </trkpt>
      <trkpt lat="44.57394" lon="0.83955">
        <ele>126</ele>
        <time>2012-11-11T08:04:25Z</time>
      </trkpt>
      <trkpt lat="44.57391" lon="0.83961">
        <ele>128</ele>
        <time>2012-11-11T08:04:27Z</time>
      </trkpt>
      <trkpt lat="44.57389" lon="0.8397">
        <ele>130</ele>
        <time>2012-11-11T08:04:29Z</time>
      </trkpt>
      <trkpt lat="44.57387" lon="0.83978">
        <ele>132</ele>
        <time>2012-11-11T08:04:31Z</time>
      </trkpt>
      <trkpt lat="44.57386" lon="0.83988">
        <ele>134</ele>
        <time>2012-11-11T08:04:33Z</time>
      </trkpt>
      <trkpt lat="44.57385" lon="0.83998">
        <ele>136</ele>
        <time>2012-11-11T08:04:35Z</time>
      </trkpt>
      <trkpt lat="44.57384" lon="0.84008">
        <ele>138</ele>
        <time>2012-11-11T08:04:37Z</time>
      </trkpt>
      <trkpt lat="44.57383" lon="0.84018">
        <ele>140</ele>
        <time>2012-11-11T08:04:39Z</time>
      </trkpt>
      <trkpt lat="44.57382" lon="0.84026">
        <ele>141</ele>
        <time>2012-11-11T08:04:41Z</time>
      </trkpt>
      <trkpt lat="44.57381" lon="0.84031">
        <ele>141</ele>
        <time>2012-11-11T08:04:43Z</time>
      </trkpt>
      <trkpt lat="44.5738" lon="0.84035">
        <ele>142</ele>
        <time>2012-11-11T08:04:45Z</time>
      </trkpt>
      <trkpt lat="44.57378" lon="0.84039">
        <ele>142</ele>
        <time>2012-11-11T08:04:47Z</time>
      </trkpt>
      <trkpt lat="44.57375" lon="0.84042">
        <ele>142</ele>
        <time>2012-11-11T08:04:49Z</time>
      </trkpt>
      <trkpt lat="44.57372" lon="0.84045">
        <ele>142</ele>
        <time>2012-11-11T08:04:51Z</time>
      </trkpt>
      <trkpt lat="44.5737" lon="0.84048">
        <ele>142</ele>
        <time>2012-11-11T08:04:53Z</time>
      </trkpt>
      <trkpt lat="44.57367" lon="0.84051">
        <ele>142</ele>
        <time>2012-11-11T08:04:55Z</time>
      </trkpt>
      <trkpt lat="44.57364" lon="0.84054">
        <ele>142</ele>
        <time>2012-11-11T08:04:57Z</time>
      </trkpt>
      <trkpt lat="44.57361" lon="0.84057">
        <ele>142</ele>
        <time>2012-11-11T08:04:59Z</time>
      </trkpt>
      <trkpt lat="44.57357" lon="0.84061">
        <ele>142</ele>
        <time>2012-11-11T08:05:01Z</time>
      </trkpt>
      <trkpt lat="44.57354" lon="0.84064">
        <ele>142</ele>
        <time>2012-11-11T08:05:03Z</time>
      </trkpt>
      <trkpt lat="44.5735" lon="0.84067">
        <ele>142</ele>
        <time>2012-11-11T08:05:05Z</time>
      </trkpt>
      <trkpt lat="44.57347" lon="0.8407">
        <ele>142</ele>
        <time>2012-11-11T08:05:07Z</time>
      </trkpt>
      <trkpt lat="44.57344" lon="0.84075">
        <ele>142</ele>
        <time>2012-11-11T08:05:09Z</time>
      </trkpt>
      <trkpt lat="44.57343" lon="0.8408">
        <ele>142</ele>
        <time>2012-11-11T08:05:11Z</time>
      </trkpt>
      <trkpt lat="44.57343" lon="0.84085">
        <ele>143</ele>
        <time>2012-11-11T08:05:13Z</time>
      </trkpt>
      <trkpt lat="44.57341" lon="0.84091">
        <ele>144</ele>
        <time>2012-11-11T08:05:15Z</time>
      </trkpt>
      <trkpt lat="44.57339" lon="0.84098">
        <ele>144</ele>
        <time>2012-11-11T08:05:17Z</time>
      </trkpt>
      <trkpt lat="44.57337" lon="0.84105">
        <ele>144</ele>
        <time>2012-11-11T08:05:19Z</time>
      </trkpt>
      <trkpt lat="44.57336" lon="0.84112">
        <ele>144</ele>
        <time>2012-11-11T08:05:21Z</time>
      </trkpt>
      <trkpt lat="44.57333" lon="0.8412">
        <ele>144</ele>
        <time>2012-11-11T08:05:23Z</time>
      </trkpt>
      <trkpt lat="44.5733" lon="0.84127">
        <ele>144</ele>
        <time>2012-11-11T08:05:25Z</time>
      </trkpt>
      <trkpt lat="44.57325" lon="0.84132">
        <ele>144</ele>
        <time>2012-11-11T08:05:27Z</time>
      </trkpt>
      <trkpt lat="44.5732" lon="0.84137">
        <ele>144</ele>
        <time>2012-11-11T08:05:29Z</time>
      </trkpt>
      <trkpt lat="44.57316" lon="0.84141">
        <ele>144</ele>
        <time>2012-11-11T08:05:31Z</time>
      </trkpt>
      <trkpt lat="44.57311" lon="0.84147">
        <ele>144</ele>
        <time>2012-11-11T08:05:33Z</time>
      </trkpt>
      <trkpt lat="44.57307" lon="0.84152">
        <ele>144</ele>
        <time>2012-11-11T08:05:35Z</time>
      </trkpt>
      <trkpt lat="44.57303" lon="0.84156">
        <ele>144</ele>
        <time>2012-11-11T08:05:37Z</time>
      </trkpt>
      <trkpt lat="44.57299" lon="0.84161">
        <ele>144</ele>
        <time>2012-11-11T08:05:39Z</time>
      </trkpt>
      <trkpt lat="44.57294" lon="0.84165">
        <ele>143</ele>
        <time>2012-11-11T08:05:41Z</time>
      </trkpt>
      <trkpt lat="44.5729" lon="0.84171">
        <ele>142</ele>
        <time>2012-11-11T08:05:43Z</time>
      </trkpt>
      <trkpt lat="44.57284" lon="0.84176">
        <ele>142</ele>
        <time>2012-11-11T08:05:45Z</time>
      </trkpt>
      <trkpt lat="44.5728" lon="0.84181">
        <ele>142</ele>
        <time>2012-11-11T08:05:47Z</time>
      </trkpt>
      <trkpt lat="44.57277" lon="0.84188">
        <ele>141</ele>
        <time>2012-11-11T08:05:49Z</time>
      </trkpt>
      <trkpt lat="44.57274" lon="0.84195">
        <ele>140</ele>
        <time>2012-11-11T08:05:51Z</time>
      </trkpt>
      <trkpt lat="44.57271" lon="0.84203">
        <ele>140</ele>
        <time>2012-11-11T08:05:53Z</time>
      </trkpt>
      <trkpt lat="44.5727" lon="0.84209">
        <ele>140</ele>
        <time>2012-11-11T08:05:55Z</time>
      </trkpt>
      <trkpt lat="44.5727" lon="0.84217">
        <ele>140</ele>
        <time>2012-11-11T08:05:57Z</time>
      </trkpt>
      <trkpt lat="44.5727" lon="0.84225">
        <ele>140</ele>
        <time>2012-11-11T08:05:59Z</time>
      </trkpt>
      <trkpt lat="44.57268" lon="0.84231">
        <ele>141</ele>
        <time>2012-11-11T08:06:01Z</time>
      </trkpt>
      <trkpt lat="44.57264" lon="0.84237">
        <ele>142</ele>
        <time>2012-11-11T08:06:03Z</time>
      </trkpt>
      <trkpt lat="44.57259" lon="0.84243">
        <ele>142</ele>
        <time>2012-11-11T08:06:05Z</time>
      </trkpt>
      <trkpt lat="44.57254" lon="0.84248">
        <ele>142</ele>
        <time>2012-11-11T08:06:07Z</time>
      </trkpt>
      <trkpt lat="44.5725" lon="0.84254">
        <ele>142</ele>
        <time>2012-11-11T08:06:09Z</time>
      </trkpt>
      <trkpt lat="44.57247" lon="0.84263">
        <ele>142</ele>
        <time>2012-11-11T08:06:11Z</time>
      </trkpt>
      <trkpt lat="44.57244" lon="0.84272">
        <ele>142</ele>
        <time>2012-11-11T08:06:13Z</time>
      </trkpt>
      <trkpt lat="44.57243" lon="0.84281">
        <ele>143</ele>
        <time>2012-11-11T08:06:15Z</time>
      </trkpt>
      <trkpt lat="44.57241" lon="0.84289">
        <ele>143</ele>
        <time>2012-11-11T08:06:17Z</time>
      </trkpt>
      <trkpt lat="44.57242" lon="0.84295">
        <ele>144</ele>
        <time>2012-11-11T08:06:19Z</time>
      </trkpt>
      <trkpt lat="44.57242" lon="0.84303">
        <ele>146</ele>
        <time>2012-11-11T08:06:21Z</time>
      </trkpt>
      <trkpt lat="44.57241" lon="0.84311">
        <ele>148</ele>
        <time>2012-11-11T08:06:23Z</time>
      </trkpt>
      <trkpt lat="44.5724" lon="0.84318">
        <ele>150</ele>
        <time>2012-11-11T08:06:25Z</time>
      </trkpt>
      <trkpt lat="44.57238" lon="0.84327">
        <ele>150</ele>
        <time>2012-11-11T08:06:27Z</time>
      </trkpt>
      <trkpt lat="44.57234" lon="0.84335">
        <ele>150</ele>
        <time>2012-11-11T08:06:29Z</time>
      </trkpt>
      <trkpt lat="44.57233" lon="0.84342">
        <ele>150</ele>
        <time>2012-11-11T08:06:31Z</time>
      </trkpt>
      <trkpt lat="44.57231" lon="0.84349">
        <ele>150</ele>
        <time>2012-11-11T08:06:33Z</time>
      </trkpt>
      <trkpt lat="44.57229" lon="0.84355">
        <ele>149</ele>
        <time>2012-11-11T08:06:35Z</time>
      </trkpt>
      <trkpt lat="44.57226" lon="0.84363">
        <ele>147</ele>
        <time>2012-11-11T08:06:37Z</time>
      </trkpt>
      <trkpt lat="44.57223" lon="0.84369">
        <ele>145</ele>
        <time>2012-11-11T08:06:39Z</time>
      </trkpt>
      <trkpt lat="44.57219" lon="0.84378">
        <ele>143</ele>
        <time>2012-11-11T08:06:41Z</time>
      </trkpt>
      <trkpt lat="44.57215" lon="0.84386">
        <ele>142</ele>
        <time>2012-11-11T08:06:43Z</time>
      </trkpt>
      <trkpt lat="44.57213" lon="0.84394">
        <ele>142</ele>
        <time>2012-11-11T08:06:45Z</time>
      </trkpt>
      <trkpt lat="44.57212" lon="0.84401">
        <ele>140</ele>
        <time>2012-11-11T08:06:47Z</time>
      </trkpt>
      <trkpt lat="44.5721" lon="0.8441">
        <ele>138</ele>
        <time>2012-11-11T08:06:49Z</time>
      </trkpt>
      <trkpt lat="44.57207" lon="0.84419">
        <ele>138</ele>
        <time>2012-11-11T08:06:51Z</time>
      </trkpt>
      <trkpt lat="44.57206" lon="0.84426">
        <ele>138</ele>
        <time>2012-11-11T08:06:53Z</time>
      </trkpt>
      <trkpt lat="44.57206" lon="0.84434">
        <ele>138</ele>
        <time>2012-11-11T08:06:55Z</time>
      </trkpt>
      <trkpt lat="44.57206" lon="0.84441">
        <ele>138</ele>
        <time>2012-11-11T08:06:57Z</time>
      </trkpt>
      <trkpt lat="44.57206" lon="0.84448">
        <ele>138</ele>
        <time>2012-11-11T08:06:59Z</time>
      </trkpt>
      <trkpt lat="44.57208" lon="0.84457">
        <ele>138</ele>
        <time>2012-11-11T08:07:01Z</time>
      </trkpt>
      <trkpt lat="44.57208" lon="0.84465">
        <ele>138</ele>
        <time>2012-11-11T08:07:03Z</time>
      </trkpt>
      <trkpt lat="44.57207" lon="0.8447">
        <ele>138</ele>
        <time>2012-11-11T08:07:05Z</time>
      </trkpt>
      <trkpt lat="44.57208" lon="0.84477">
        <ele>138</ele>
        <time>2012-11-11T08:07:07Z</time>
      </trkpt>
      <trkpt lat="44.57209" lon="0.84484">
        <ele>138</ele>
        <time>2012-11-11T08:07:09Z</time>
      </trkpt>
      <trkpt lat="44.57209" lon="0.84491">
        <ele>138</ele>
        <time>2012-11-11T08:07:11Z</time>
      </trkpt>
      <trkpt lat="44.5721" lon="0.84498">
        <ele>138</ele>
        <time>2012-11-11T08:07:13Z</time>
      </trkpt>
      <trkpt lat="44.57212" lon="0.84506">
        <ele>138</ele>
        <time>2012-11-11T08:07:15Z</time>
      </trkpt>
      <trkpt lat="44.57212" lon="0.84514">
        <ele>138</ele>
        <time>2012-11-11T08:07:17Z</time>
      </trkpt>
      <trkpt lat="44.57213" lon="0.84524">
        <ele>138</ele>
        <time>2012-11-11T08:07:19Z</time>
      </trkpt>
      <trkpt lat="44.57214" lon="0.84535">
        <ele>139</ele>
        <time>2012-11-11T08:07:21Z</time>
      </trkpt>
      <trkpt lat="44.57215" lon="0.84545">
        <ele>141</ele>
        <time>2012-11-11T08:07:23Z</time>
      </trkpt>
      <trkpt lat="44.57216" lon="0.84556">
        <ele>143</ele>
        <time>2012-11-11T08:07:25Z</time>
      </trkpt>
      <trkpt lat="44.57218" lon="0.84567">
        <ele>145</ele>
        <time>2012-11-11T08:07:27Z</time>
      </trkpt>
      <trkpt lat="44.57218" lon="0.84578">
        <ele>147</ele>
        <time>2012-11-11T08:07:29Z</time>
      </trkpt>
      <trkpt lat="44.57219" lon="0.84588">
        <ele>149</ele>
        <time>2012-11-11T08:07:31Z</time>
      </trkpt>
      <trkpt lat="44.57219" lon="0.84598">
        <ele>151</ele>
        <time>2012-11-11T08:07:33Z</time>
      </trkpt>
      <trkpt lat="44.57219" lon="0.84608">
        <ele>153</ele>
        <time>2012-11-11T08:07:35Z</time>
      </trkpt>
      <trkpt lat="44.5722" lon="0.84618">
        <ele>155</ele>
        <time>2012-11-11T08:07:37Z</time>
      </trkpt>
      <trkpt lat="44.57221" lon="0.84627">
        <ele>157</ele>
        <time>2012-11-11T08:07:39Z</time>
      </trkpt>
      <trkpt lat="44.57221" lon="0.84637">
        <ele>159</ele>
        <time>2012-11-11T08:07:41Z</time>
      </trkpt>
      <trkpt lat="44.57221" lon="0.84647">
        <ele>161</ele>
        <time>2012-11-11T08:07:43Z</time>
      </trkpt>
      <trkpt lat="44.57221" lon="0.84657">
        <ele>163</ele>
        <time>2012-11-11T08:07:45Z</time>
      </trkpt>
      <trkpt lat="44.57221" lon="0.84666">
        <ele>165</ele>
        <time>2012-11-11T08:07:47Z</time>
      </trkpt>
      <trkpt lat="44.57222" lon="0.84677">
        <ele>167</ele>
        <time>2012-11-11T08:07:49Z</time>
      </trkpt>
      <trkpt lat="44.57222" lon="0.84688">
        <ele>169</ele>
        <time>2012-11-11T08:07:51Z</time>
      </trkpt>
      <trkpt lat="44.5722" lon="0.84699">
        <ele>171</ele>
        <time>2012-11-11T08:07:53Z</time>
      </trkpt>
      <trkpt lat="44.57222" lon="0.8471">
        <ele>173</ele>
        <time>2012-11-11T08:07:55Z</time>
      </trkpt>
      <trkpt lat="44.57222" lon="0.8472">
        <ele>174</ele>
        <time>2012-11-11T08:07:57Z</time>
      </trkpt>
      <trkpt lat="44.57224" lon="0.84731">
        <ele>175</ele>
        <time>2012-11-11T08:07:59Z</time>
      </trkpt>
      <trkpt lat="44.57223" lon="0.84741">
        <ele>175</ele>
        <time>2012-11-11T08:08:01Z</time>
      </trkpt>
      <trkpt lat="44.57223" lon="0.84751">
        <ele>175</ele>
        <time>2012-11-11T08:08:03Z</time>
      </trkpt>
      <trkpt lat="44.57225" lon="0.84763">
        <ele>175</ele>
        <time>2012-11-11T08:08:05Z</time>
      </trkpt>
      <trkpt lat="44.57226" lon="0.84778">
        <ele>175</ele>
        <time>2012-11-11T08:08:07Z</time>
      </trkpt>
      <trkpt lat="44.57226" lon="0.84789">
        <ele>175</ele>
        <time>2012-11-11T08:08:09Z</time>
      </trkpt>
      <trkpt lat="44.57227" lon="0.84801">
        <ele>175</ele>
        <time>2012-11-11T08:08:11Z</time>
      </trkpt>
      <trkpt lat="44.57227" lon="0.84814">
        <ele>175</ele>
        <time>2012-11-11T08:08:13Z</time>
      </trkpt>
      <trkpt lat="44.57229" lon="0.84827">
        <ele>175</ele>
        <time>2012-11-11T08:08:15Z</time>
      </trkpt>
      <trkpt lat="44.57232" lon="0.84839">
        <ele>175</ele>
        <time>2012-11-11T08:08:17Z</time>
      </trkpt>
      <trkpt lat="44.57235" lon="0.8485">
        <ele>176</ele>
        <time>2012-11-11T08:08:19Z</time>
      </trkpt>
      <trkpt lat="44.57237" lon="0.8486">
        <ele>176</ele>
        <time>2012-11-11T08:08:21Z</time>
      </trkpt>
      <trkpt lat="44.5724" lon="0.84869">
        <ele>177</ele>
        <time>2012-11-11T08:08:23Z</time>
      </trkpt>
      <trkpt lat="44.57242" lon="0.84881">
        <ele>177</ele>
        <time>2012-11-11T08:08:25Z</time>
      </trkpt>
      <trkpt lat="44.57244" lon="0.84893">
        <ele>177</ele>
        <time>2012-11-11T08:08:27Z</time>
      </trkpt>
      <trkpt lat="44.57246" lon="0.84903">
        <ele>177</ele>
        <time>2012-11-11T08:08:29Z</time>
      </trkpt>
      <trkpt lat="44.57246" lon="0.8491">
        <ele>176</ele>
        <time>2012-11-11T08:08:31Z</time>
      </trkpt>
      <trkpt lat="44.57246" lon="0.84915">
        <ele>174</ele>
        <time>2012-11-11T08:08:33Z</time>
      </trkpt>
      <trkpt lat="44.57244" lon="0.84918">
        <ele>173</ele>
        <time>2012-11-11T08:08:36Z</time>
      </trkpt>
      <trkpt lat="44.5724" lon="0.84918">
        <ele>173</ele>
        <time>2012-11-11T08:08:38Z</time>
      </trkpt>
      <trkpt lat="44.57236" lon="0.84915">
        <ele>172</ele>
        <time>2012-11-11T08:08:40Z</time>
      </trkpt>
      <trkpt lat="44.57231" lon="0.84912">
        <ele>172</ele>
        <time>2012-11-11T08:08:42Z</time>
      </trkpt>
      <trkpt lat="44.57228" lon="0.84915">
        <ele>171</ele>
        <time>2012-11-11T08:08:44Z</time>
      </trkpt>
      <trkpt lat="44.57227" lon="0.84921">
        <ele>171</ele>
        <time>2012-11-11T08:08:46Z</time>
      </trkpt>
      <trkpt lat="44.57225" lon="0.84928">
        <ele>171</ele>
        <time>2012-11-11T08:08:48Z</time>
      </trkpt>
      <trkpt lat="44.57223" lon="0.84933">
        <ele>171</ele>
        <time>2012-11-11T08:08:50Z</time>
      </trkpt>
      <trkpt lat="44.5722" lon="0.84939">
        <ele>171</ele>
        <time>2012-11-11T08:08:52Z</time>
      </trkpt>
      <trkpt lat="44.57217" lon="0.84947">
        <ele>171</ele>
        <time>2012-11-11T08:08:54Z</time>
      </trkpt>
      <trkpt lat="44.57214" lon="0.84956">
        <ele>171</ele>
        <time>2012-11-11T08:08:56Z</time>
      </trkpt>
      <trkpt lat="44.5721" lon="0.84967">
        <ele>171</ele>
        <time>2012-11-11T08:08:58Z</time>
      </trkpt>
      <trkpt lat="44.57205" lon="0.84981">
        <ele>171</ele>
        <time>2012-11-11T08:09:00Z</time>
      </trkpt>
      <trkpt lat="44.57201" lon="0.84994">
        <ele>171</ele>
        <time>2012-11-11T08:09:02Z</time>
      </trkpt>
      <trkpt lat="44.57195" lon="0.85009">
        <ele>171</ele>
        <time>2012-11-11T08:09:04Z</time>
      </trkpt>
      <trkpt lat="44.57188" lon="0.85024">
        <ele>169</ele>
        <time>2012-11-11T08:09:06Z</time>
      </trkpt>
      <trkpt lat="44.57181" lon="0.85041">
        <ele>167</ele>
        <time>2012-11-11T08:09:08Z</time>
      </trkpt>
      <trkpt lat="44.57175" lon="0.85058">
        <ele>165</ele>
        <time>2012-11-11T08:09:10Z</time>
      </trkpt>
      <trkpt lat="44.57171" lon="0.85073">
        <ele>163</ele>
        <time>2012-11-11T08:09:12Z</time>
      </trkpt>
      <trkpt lat="44.57168" lon="0.85089">
        <ele>161</ele>
        <time>2012-11-11T08:09:14Z</time>
      </trkpt>
      <trkpt lat="44.57162" lon="0.85109">
        <ele>159</ele>
        <time>2012-11-11T08:09:16Z</time>
      </trkpt>
      <trkpt lat="44.57161" lon="0.85126">
        <ele>158</ele>
        <time>2012-11-11T08:09:18Z</time>
      </trkpt>
      <trkpt lat="44.57161" lon="0.85145">
        <ele>158</ele>
        <time>2012-11-11T08:09:20Z</time>
      </trkpt>
      <trkpt lat="44.5716" lon="0.85166">
        <ele>158</ele>
        <time>2012-11-11T08:09:22Z</time>
      </trkpt>
      <trkpt lat="44.57161" lon="0.85186">
        <ele>158</ele>
        <time>2012-11-11T08:09:24Z</time>
      </trkpt>
      <trkpt lat="44.57161" lon="0.85202">
        <ele>158</ele>
        <time>2012-11-11T08:09:26Z</time>
      </trkpt>
      <trkpt lat="44.5716" lon="0.85215">
        <ele>158</ele>
        <time>2012-11-11T08:09:28Z</time>
      </trkpt>
      <trkpt lat="44.57157" lon="0.85224">
        <ele>158</ele>
        <time>2012-11-11T08:09:30Z</time>
      </trkpt>
      <trkpt lat="44.57157" lon="0.85232">
        <ele>157</ele>
        <time>2012-11-11T08:09:32Z</time>
      </trkpt>
      <trkpt lat="44.57156" lon="0.8524">
        <ele>157</ele>
        <time>2012-11-11T08:09:34Z</time>
      </trkpt>
      <trkpt lat="44.57155" lon="0.8525">
        <ele>157</ele>
        <time>2012-11-11T08:09:36Z</time>
      </trkpt>
      <trkpt lat="44.57151" lon="0.85258">
        <ele>157</ele>
        <time>2012-11-11T08:09:38Z</time>
      </trkpt>
      <trkpt lat="44.57146" lon="0.85263">
        <ele>157</ele>
        <time>2012-11-11T08:09:40Z</time>
      </trkpt>
      <trkpt lat="44.57142" lon="0.85266">
        <ele>157</ele>
        <time>2012-11-11T08:09:42Z</time>
      </trkpt>
      <trkpt lat="44.57137" lon="0.85268">
        <ele>155</ele>
        <time>2012-11-11T08:09:44Z</time>
      </trkpt>
      <trkpt lat="44.5713" lon="0.85272">
        <ele>155</ele>
        <time>2012-11-11T08:09:46Z</time>
      </trkpt>
      <trkpt lat="44.57125" lon="0.85277">
        <ele>154</ele>
        <time>2012-11-11T08:09:48Z</time>
      </trkpt>
      <trkpt lat="44.57122" lon="0.85285">
        <ele>153</ele>
        <time>2012-11-11T08:09:50Z</time>
      </trkpt>
      <trkpt lat="44.57121" lon="0.85292">
        <ele>152</ele>
        <time>2012-11-11T08:09:52Z</time>
      </trkpt>
      <trkpt lat="44.57118" lon="0.85299">
        <ele>152</ele>
        <time>2012-11-11T08:09:54Z</time>
      </trkpt>
      <trkpt lat="44.57114" lon="0.85302">
        <ele>152</ele>
        <time>2012-11-11T08:09:56Z</time>
      </trkpt>
      <trkpt lat="44.57109" lon="0.85302">
        <ele>152</ele>
        <time>2012-11-11T08:09:58Z</time>
      </trkpt>
      <trkpt lat="44.57105" lon="0.85302">
        <ele>152</ele>
        <time>2012-11-11T08:10:00Z</time>
      </trkpt>
      <trkpt lat="44.571" lon="0.85302">
        <ele>152</ele>
        <time>2012-11-11T08:10:02Z</time>
      </trkpt>
      <trkpt lat="44.57095" lon="0.85302">
        <ele>151</ele>
        <time>2012-11-11T08:10:04Z</time>
      </trkpt>
      <trkpt lat="44.57089" lon="0.85305">
        <ele>150</ele>
        <time>2012-11-11T08:10:06Z</time>
      </trkpt>
      <trkpt lat="44.57083" lon="0.85307">
        <ele>150</ele>
        <time>2012-11-11T08:10:08Z</time>
      </trkpt>
      <trkpt lat="44.57076" lon="0.85307">
        <ele>149</ele>
        <time>2012-11-11T08:10:10Z</time>
      </trkpt>
      <trkpt lat="44.57069" lon="0.85308">
        <ele>149</ele>
        <time>2012-11-11T08:10:12Z</time>
      </trkpt>
      <trkpt lat="44.57063" lon="0.85312">
        <ele>149</ele>
        <time>2012-11-11T08:10:14Z</time>
      </trkpt>
      <trkpt lat="44.57056" lon="0.85317">
        <ele>149</ele>
        <time>2012-11-11T08:10:16Z</time>
      </trkpt>
      <trkpt lat="44.5705" lon="0.85324">
        <ele>149</ele>
        <time>2012-11-11T08:10:18Z</time>
      </trkpt>
      <trkpt lat="44.57046" lon="0.85332">
        <ele>148</ele>
        <time>2012-11-11T08:10:20Z</time>
      </trkpt>
      <trkpt lat="44.57046" lon="0.85337">
        <ele>147</ele>
        <time>2012-11-11T08:10:22Z</time>
      </trkpt>
      <trkpt lat="44.57047" lon="0.85345">
        <ele>147</ele>
        <time>2012-11-11T08:10:24Z</time>
      </trkpt>
      <trkpt lat="44.57048" lon="0.85355">
        <ele>148</ele>
        <time>2012-11-11T08:10:26Z</time>
      </trkpt>
      <trkpt lat="44.5705" lon="0.85364">
        <ele>150</ele>
        <time>2012-11-11T08:10:28Z</time>
      </trkpt>
      <trkpt lat="44.57051" lon="0.85374">
        <ele>152</ele>
        <time>2012-11-11T08:10:30Z</time>
      </trkpt>
      <trkpt lat="44.57052" lon="0.85382">
        <ele>155</ele>
        <time>2012-11-11T08:10:32Z</time>
      </trkpt>
      <trkpt lat="44.57054" lon="0.85391">
        <ele>158</ele>
        <time>2012-11-11T08:10:34Z</time>
      </trkpt>
      <trkpt lat="44.57056" lon="0.854">
        <ele>161</ele>
        <time>2012-11-11T08:10:36Z</time>
      </trkpt>
      <trkpt lat="44.57057" lon="0.85411">
        <ele>164</ele>
        <time>2012-11-11T08:10:38Z</time>
      </trkpt>
      <trkpt lat="44.57054" lon="0.85419">
        <ele>166</ele>
        <time>2012-11-11T08:10:40Z</time>
      </trkpt>
      <trkpt lat="44.5705" lon="0.85423">
        <ele>168</ele>
        <time>2012-11-11T08:10:42Z</time>
      </trkpt>
      <trkpt lat="44.57048" lon="0.85428">
        <ele>171</ele>
        <time>2012-11-11T08:10:45Z</time>
      </trkpt>
      <trkpt lat="44.57045" lon="0.8543">
        <ele>171</ele>
        <time>2012-11-11T08:10:48Z</time>
      </trkpt>
      <trkpt lat="44.57043" lon="0.85433">
        <ele>171</ele>
        <time>2012-11-11T08:10:50Z</time>
      </trkpt>
      <trkpt lat="44.57041" lon="0.85434">
        <ele>171</ele>
        <time>2012-11-11T08:10:53Z</time>
      </trkpt>
      <trkpt lat="44.57038" lon="0.85436">
        <ele>171</ele>
        <time>2012-11-11T08:10:56Z</time>
      </trkpt>
      <trkpt lat="44.57036" lon="0.85437">
        <ele>171</ele>
        <time>2012-11-11T08:10:58Z</time>
      </trkpt>
      <trkpt lat="44.57034" lon="0.85439">
        <ele>169</ele>
        <time>2012-11-11T08:11:00Z</time>
      </trkpt>
      <trkpt lat="44.57033" lon="0.8544">
        <ele>166</ele>
        <time>2012-11-11T08:11:03Z</time>
      </trkpt>
      <trkpt lat="44.57032" lon="0.85441">
        <ele>163</ele>
        <time>2012-11-11T08:11:06Z</time>
      </trkpt>
      <trkpt lat="44.57033" lon="0.85441">
        <ele>163</ele>
        <time>2012-11-11T08:11:10Z</time>
      </trkpt>
      <trkpt lat="44.57033" lon="0.85443">
        <ele>164</ele>
        <time>2012-11-11T08:11:14Z</time>
      </trkpt>
      <trkpt lat="44.57035" lon="0.85442">
        <ele>164</ele>
        <time>2012-11-11T08:11:17Z</time>
      </trkpt>
      <trkpt lat="44.57032" lon="0.85441">
        <ele>169</ele>
        <time>2012-11-11T08:11:27Z</time>
      </trkpt>
      <trkpt lat="44.57032" lon="0.85442">
        <ele>172</ele>
        <time>2012-11-11T08:11:32Z</time>
      </trkpt>
      <trkpt lat="44.57034" lon="0.85444">
        <ele>172</ele>
        <time>2012-11-11T08:11:40Z</time>
      </trkpt>
      <trkpt lat="44.57034" lon="0.85445">
        <ele>172</ele>
        <time>2012-11-11T08:11:45Z</time>
      </trkpt>
      <trkpt lat="44.57035" lon="0.85444">
        <ele>172</ele>
        <time>2012-11-11T08:11:48Z</time>
      </trkpt>
      <trkpt lat="44.57036" lon="0.85445">
        <ele>177</ele>
        <time>2012-11-11T08:11:58Z</time>
      </trkpt>
      <trkpt lat="44.57038" lon="0.85445">
        <ele>178</ele>
        <time>2012-11-11T08:12:00Z</time>
      </trkpt>
      <trkpt lat="44.5704" lon="0.85446">
        <ele>179</ele>
        <time>2012-11-11T08:12:02Z</time>
      </trkpt>
      <trkpt lat="44.57038" lon="0.85444">
        <ele>180</ele>
        <time>2012-11-11T08:12:06Z</time>
      </trkpt>
      <trkpt lat="44.57037" lon="0.85443">
        <ele>181</ele>
        <time>2012-11-11T08:12:08Z</time>
      </trkpt>
      <trkpt lat="44.57035" lon="0.85443">
        <ele>181</ele>
        <time>2012-11-11T08:12:10Z</time>
      </trkpt>
      <trkpt lat="44.57033" lon="0.85442">
        <ele>181</ele>
        <time>2012-11-11T08:12:12Z</time>
      </trkpt>
      <trkpt lat="44.57033" lon="0.8544">
        <ele>181</ele>
        <time>2012-11-11T08:12:19Z</time>
      </trkpt>
      <trkpt lat="44.57035" lon="0.8544">
        <ele>181</ele>
        <time>2012-11-11T08:12:22Z</time>
      </trkpt>
      <trkpt lat="44.57036" lon="0.8544">
        <ele>181</ele>
        <time>2012-11-11T08:12:26Z</time>
      </trkpt>
      <trkpt lat="44.57035" lon="0.85442">
        <ele>176</ele>
        <time>2012-11-11T08:12:34Z</time>
      </trkpt>
      <trkpt lat="44.57034" lon="0.85441">
        <ele>175</ele>
        <time>2012-11-11T08:12:37Z</time>
      </trkpt>
      <trkpt lat="44.57032" lon="0.85442">
        <ele>174</ele>
        <time>2012-11-11T08:12:40Z</time>
      </trkpt>
      <trkpt lat="44.57028" lon="0.85443">
        <ele>173</ele>
        <time>2012-11-11T08:12:42Z</time>
      </trkpt>
      <trkpt lat="44.57023" lon="0.85444">
        <ele>173</ele>
        <time>2012-11-11T08:12:44Z</time>
      </trkpt>
      <trkpt lat="44.57016" lon="0.85444">
        <ele>173</ele>
        <time>2012-11-11T08:12:46Z</time>
      </trkpt>
      <trkpt lat="44.57011" lon="0.85444">
        <ele>172</ele>
        <time>2012-11-11T08:12:48Z</time>
      </trkpt>
      <trkpt lat="44.57006" lon="0.85444">
        <ele>171</ele>
        <time>2012-11-11T08:12:50Z</time>
      </trkpt>
      <trkpt lat="44.56999" lon="0.85445">
        <ele>170</ele>
        <time>2012-11-11T08:12:52Z</time>
      </trkpt>
      <trkpt lat="44.56991" lon="0.85445">
        <ele>169</ele>
        <time>2012-11-11T08:12:54Z</time>
      </trkpt>
      <trkpt lat="44.56984" lon="0.85444">
        <ele>168</ele>
        <time>2012-11-11T08:12:56Z</time>
      </trkpt>
      <trkpt lat="44.56977" lon="0.85442">
        <ele>168</ele>
        <time>2012-11-11T08:12:58Z</time>
      </trkpt>
      <trkpt lat="44.56969" lon="0.85442">
        <ele>167</ele>
        <time>2012-11-11T08:13:00Z</time>
      </trkpt>
      <trkpt lat="44.56961" lon="0.85441">
        <ele>167</ele>
        <time>2012-11-11T08:13:02Z</time>
      </trkpt>
      <trkpt lat="44.56953" lon="0.8544">
        <ele>166</ele>
        <time>2012-11-11T08:13:04Z</time>
      </trkpt>
      <trkpt lat="44.56942" lon="0.85439">
        <ele>166</ele>
        <time>2012-11-11T08:13:06Z</time>
      </trkpt>
      <trkpt lat="44.56934" lon="0.85438">
        <ele>165</ele>
        <time>2012-11-11T08:13:08Z</time>
      </trkpt>
      <trkpt lat="44.56924" lon="0.85436">
        <ele>164</ele>
        <time>2012-11-11T08:13:10Z</time>
      </trkpt>
      <trkpt lat="44.56916" lon="0.85435">
        <ele>164</ele>
        <time>2012-11-11T08:13:12Z</time>
      </trkpt>
      <trkpt lat="44.56908" lon="0.85435">
        <ele>164</ele>
        <time>2012-11-11T08:13:14Z</time>
      </trkpt>
      <trkpt lat="44.56899" lon="0.85436">
        <ele>164</ele>
        <time>2012-11-11T08:13:16Z</time>
      </trkpt>
      <trkpt lat="44.5689" lon="0.85437">
        <ele>164</ele>
        <time>2012-11-11T08:13:18Z</time>
      </trkpt>
      <trkpt lat="44.56881" lon="0.85437">
        <ele>164</ele>
        <time>2012-11-11T08:13:20Z</time>
      </trkpt>
      <trkpt lat="44.56872" lon="0.85439">
        <ele>164</ele>
        <time>2012-11-11T08:13:22Z</time>
      </trkpt>
      <trkpt lat="44.56865" lon="0.85441">
        <ele>164</ele>
        <time>2012-11-11T08:13:24Z</time>
      </trkpt>
      <trkpt lat="44.56859" lon="0.85441">
        <ele>164</ele>
        <time>2012-11-11T08:13:26Z</time>
      </trkpt>
      <trkpt lat="44.5685" lon="0.85441">
        <ele>164</ele>
        <time>2012-11-11T08:13:28Z</time>
      </trkpt>
      <trkpt lat="44.56842" lon="0.85441">
        <ele>164</ele>
        <time>2012-11-11T08:13:30Z</time>
      </trkpt>
      <trkpt lat="44.56833" lon="0.85437">
        <ele>164</ele>
        <time>2012-11-11T08:13:32Z</time>
      </trkpt>
      <trkpt lat="44.56825" lon="0.85433">
        <ele>164</ele>
        <time>2012-11-11T08:13:34Z</time>
      </trkpt>
      <trkpt lat="44.56816" lon="0.85434">
        <ele>164</ele>
        <time>2012-11-11T08:13:36Z</time>
      </trkpt>
      <trkpt lat="44.56807" lon="0.85435">
        <ele>164</ele>
        <time>2012-11-11T08:13:38Z</time>
      </trkpt>
      <trkpt lat="44.56797" lon="0.85438">
        <ele>164</ele>
        <time>2012-11-11T08:13:40Z</time>
      </trkpt>
      <trkpt lat="44.56787" lon="0.8544">
        <ele>164</ele>
        <time>2012-11-11T08:13:42Z</time>
      </trkpt>
      <trkpt lat="44.56777" lon="0.85444">
        <ele>164</ele>
        <time>2012-11-11T08:13:44Z</time>
      </trkpt>
      <trkpt lat="44.56767" lon="0.85451">
        <ele>164</ele>
        <time>2012-11-11T08:13:46Z</time>
      </trkpt>
      <trkpt lat="44.56756" lon="0.85456">
        <ele>164</ele>
        <time>2012-11-11T08:13:48Z</time>
      </trkpt>
      <trkpt lat="44.56745" lon="0.85461">
        <ele>164</ele>
        <time>2012-11-11T08:13:50Z</time>
      </trkpt>
      <trkpt lat="44.56733" lon="0.85467">
        <ele>163</ele>
        <time>2012-11-11T08:13:52Z</time>
      </trkpt>
      <trkpt lat="44.56723" lon="0.85473">
        <ele>162</ele>
        <time>2012-11-11T08:13:54Z</time>
      </trkpt>
      <trkpt lat="44.56713" lon="0.85479">
        <ele>161</ele>
        <time>2012-11-11T08:13:56Z</time>
      </trkpt>
      <trkpt lat="44.56705" lon="0.85487">
        <ele>159</ele>
        <time>2012-11-11T08:13:58Z</time>
      </trkpt>
      <trkpt lat="44.56696" lon="0.85493">
        <ele>157</ele>
        <time>2012-11-11T08:14:00Z</time>
      </trkpt>
      <trkpt lat="44.56689" lon="0.85497">
        <ele>155</ele>
        <time>2012-11-11T08:14:02Z</time>
      </trkpt>
      <trkpt lat="44.5668" lon="0.85502">
        <ele>153</ele>
        <time>2012-11-11T08:14:04Z</time>
      </trkpt>
      <trkpt lat="44.56674" lon="0.85506">
        <ele>151</ele>
        <time>2012-11-11T08:14:06Z</time>
      </trkpt>
      <trkpt lat="44.56669" lon="0.8551">
        <ele>149</ele>
        <time>2012-11-11T08:14:08Z</time>
      </trkpt>
      <trkpt lat="44.56665" lon="0.85513">
        <ele>147</ele>
        <time>2012-11-11T08:14:10Z</time>
      </trkpt>
      <trkpt lat="44.56662" lon="0.8552">
        <ele>146</ele>
        <time>2012-11-11T08:14:12Z</time>
      </trkpt>
      <trkpt lat="44.5666" lon="0.8553">
        <ele>146</ele>
        <time>2012-11-11T08:14:14Z</time>
      </trkpt>
      <trkpt lat="44.56658" lon="0.85541">
        <ele>146</ele>
        <time>2012-11-11T08:14:16Z</time>
      </trkpt>
      <trkpt lat="44.56656" lon="0.85554">
        <ele>146</ele>
        <time>2012-11-11T08:14:18Z</time>
      </trkpt>
      <trkpt lat="44.56653" lon="0.85567">
        <ele>146</ele>
        <time>2012-11-11T08:14:20Z</time>
      </trkpt>
      <trkpt lat="44.56649" lon="0.85584">
        <ele>146</ele>
        <time>2012-11-11T08:14:22Z</time>
      </trkpt>
      <trkpt lat="44.56646" lon="0.85598">
        <ele>148</ele>
        <time>2012-11-11T08:14:24Z</time>
      </trkpt>
      <trkpt lat="44.56643" lon="0.85613">
        <ele>149</ele>
        <time>2012-11-11T08:14:26Z</time>
      </trkpt>
      <trkpt lat="44.5664" lon="0.85628">
        <ele>150</ele>
        <time>2012-11-11T08:14:28Z</time>
      </trkpt>
      <trkpt lat="44.56636" lon="0.85643">
        <ele>150</ele>
        <time>2012-11-11T08:14:30Z</time>
      </trkpt>
      <trkpt lat="44.56633" lon="0.85655">
        <ele>151</ele>
        <time>2012-11-11T08:14:32Z</time>
      </trkpt>
      <trkpt lat="44.5663" lon="0.85668">
        <ele>151</ele>
        <time>2012-11-11T08:14:34Z</time>
      </trkpt>
      <trkpt lat="44.56627" lon="0.85684">
        <ele>151</ele>
        <time>2012-11-11T08:14:36Z</time>
      </trkpt>
      <trkpt lat="44.56625" lon="0.857">
        <ele>151</ele>
        <time>2012-11-11T08:14:38Z</time>
      </trkpt>
      <trkpt lat="44.56622" lon="0.8572">
        <ele>151</ele>
        <time>2012-11-11T08:14:40Z</time>
      </trkpt>
      <trkpt lat="44.5662" lon="0.85737">
        <ele>152</ele>
        <time>2012-11-11T08:14:42Z</time>
      </trkpt>
      <trkpt lat="44.56619" lon="0.85754">
        <ele>154</ele>
        <time>2012-11-11T08:14:44Z</time>
      </trkpt>
      <trkpt lat="44.56618" lon="0.85771">
        <ele>156</ele>
        <time>2012-11-11T08:14:46Z</time>
      </trkpt>
      <trkpt lat="44.5662" lon="0.85786">
        <ele>158</ele>
        <time>2012-11-11T08:14:48Z</time>
      </trkpt>
      <trkpt lat="44.56622" lon="0.85803">
        <ele>160</ele>
        <time>2012-11-11T08:14:50Z</time>
      </trkpt>
      <trkpt lat="44.56624" lon="0.85822">
        <ele>162</ele>
        <time>2012-11-11T08:14:52Z</time>
      </trkpt>
      <trkpt lat="44.56625" lon="0.85844">
        <ele>162</ele>
        <time>2012-11-11T08:14:54Z</time>
      </trkpt>
      <trkpt lat="44.56625" lon="0.85864">
        <ele>162</ele>
        <time>2012-11-11T08:14:56Z</time>
      </trkpt>
      <trkpt lat="44.56624" lon="0.85887">
        <ele>162</ele>
        <time>2012-11-11T08:14:58Z</time>
      </trkpt>
      <trkpt lat="44.56622" lon="0.85909">
        <ele>162</ele>
        <time>2012-11-11T08:15:00Z</time>
      </trkpt>
      <trkpt lat="44.56621" lon="0.85933">
        <ele>163</ele>
        <time>2012-11-11T08:15:02Z</time>
      </trkpt>
      <trkpt lat="44.56619" lon="0.85957">
        <ele>164</ele>
        <time>2012-11-11T08:15:04Z</time>
      </trkpt>
      <trkpt lat="44.56617" lon="0.85982">
        <ele>164</ele>
        <time>2012-11-11T08:15:06Z</time>
      </trkpt>
      <trkpt lat="44.56612" lon="0.86006">
        <ele>164</ele>
        <time>2012-11-11T08:15:08Z</time>
      </trkpt>
      <trkpt lat="44.56606" lon="0.86028">
        <ele>164</ele>
        <time>2012-11-11T08:15:10Z</time>
      </trkpt>
      <trkpt lat="44.56601" lon="0.86047">
        <ele>164</ele>
        <time>2012-11-11T08:15:12Z</time>
      </trkpt>
      <trkpt lat="44.56592" lon="0.86065">
        <ele>164</ele>
        <time>2012-11-11T08:15:14Z</time>
      </trkpt>
      <trkpt lat="44.56583" lon="0.86079">
        <ele>162</ele>
        <time>2012-11-11T08:15:16Z</time>
      </trkpt>
      <trkpt lat="44.56572" lon="0.86091">
        <ele>160</ele>
        <time>2012-11-11T08:15:18Z</time>
      </trkpt>
      <trkpt lat="44.56561" lon="0.86101">
        <ele>158</ele>
        <time>2012-11-11T08:15:20Z</time>
      </trkpt>
      <trkpt lat="44.56549" lon="0.86108">
        <ele>156</ele>
        <time>2012-11-11T08:15:22Z</time>
      </trkpt>
      <trkpt lat="44.56537" lon="0.86113">
        <ele>154</ele>
        <time>2012-11-11T08:15:24Z</time>
      </trkpt>
      <trkpt lat="44.56522" lon="0.86116">
        <ele>152</ele>
        <time>2012-11-11T08:15:26Z</time>
      </trkpt>
      <trkpt lat="44.56506" lon="0.86119">
        <ele>150</ele>
        <time>2012-11-11T08:15:28Z</time>
      </trkpt>
      <trkpt lat="44.56491" lon="0.86119">
        <ele>150</ele>
        <time>2012-11-11T08:15:30Z</time>
      </trkpt>
      <trkpt lat="44.56477" lon="0.8612">
        <ele>150</ele>
        <time>2012-11-11T08:15:32Z</time>
      </trkpt>
      <trkpt lat="44.56461" lon="0.86124">
        <ele>150</ele>
        <time>2012-11-11T08:15:34Z</time>
      </trkpt>
      <trkpt lat="44.56446" lon="0.86125">
        <ele>150</ele>
        <time>2012-11-11T08:15:36Z</time>
      </trkpt>
      <trkpt lat="44.56432" lon="0.86128">
        <ele>148</ele>
        <time>2012-11-11T08:15:38Z</time>
      </trkpt>
      <trkpt lat="44.56416" lon="0.8613">
        <ele>146</ele>
        <time>2012-11-11T08:15:40Z</time>
      </trkpt>
      <trkpt lat="44.56395" lon="0.86132">
        <ele>143</ele>
        <time>2012-11-11T08:15:43Z</time>
      </trkpt>
      <trkpt lat="44.56381" lon="0.86134">
        <ele>141</ele>
        <time>2012-11-11T08:15:45Z</time>
      </trkpt>
      <trkpt lat="44.56367" lon="0.86137">
        <ele>139</ele>
        <time>2012-11-11T08:15:47Z</time>
      </trkpt>
      <trkpt lat="44.56353" lon="0.86138">
        <ele>137</ele>
        <time>2012-11-11T08:15:49Z</time>
      </trkpt>
      <trkpt lat="44.56337" lon="0.8614">
        <ele>135</ele>
        <time>2012-11-11T08:15:51Z</time>
      </trkpt>
      <trkpt lat="44.56323" lon="0.86142">
        <ele>133</ele>
        <time>2012-11-11T08:15:53Z</time>
      </trkpt>
      <trkpt lat="44.5631" lon="0.86144">
        <ele>132</ele>
        <time>2012-11-11T08:15:55Z</time>
      </trkpt>
      <trkpt lat="44.56298" lon="0.86146">
        <ele>132</ele>
        <time>2012-11-11T08:15:57Z</time>
      </trkpt>
      <trkpt lat="44.56288" lon="0.86146">
        <ele>132</ele>
        <time>2012-11-11T08:15:59Z</time>
      </trkpt>
      <trkpt lat="44.56281" lon="0.86147">
        <ele>132</ele>
        <time>2012-11-11T08:16:01Z</time>
      </trkpt>
      <trkpt lat="44.56279" lon="0.86152">
        <ele>132</ele>
        <time>2012-11-11T08:16:03Z</time>
      </trkpt>
      <trkpt lat="44.5628" lon="0.86156">
        <ele>132</ele>
        <time>2012-11-11T08:16:05Z</time>
      </trkpt>
      <trkpt lat="44.56284" lon="0.86158">
        <ele>132</ele>
        <time>2012-11-11T08:16:07Z</time>
      </trkpt>
      <trkpt lat="44.56288" lon="0.8616">
        <ele>133</ele>
        <time>2012-11-11T08:16:09Z</time>
      </trkpt>
      <trkpt lat="44.56294" lon="0.86164">
        <ele>135</ele>
        <time>2012-11-11T08:16:11Z</time>
      </trkpt>
      <trkpt lat="44.56299" lon="0.86168">
        <ele>137</ele>
        <time>2012-11-11T08:16:13Z</time>
      </trkpt>
      <trkpt lat="44.56305" lon="0.86173">
        <ele>139</ele>
        <time>2012-11-11T08:16:15Z</time>
      </trkpt>
      <trkpt lat="44.5631" lon="0.86177">
        <ele>141</ele>
        <time>2012-11-11T08:16:17Z</time>
      </trkpt>
      <trkpt lat="44.56316" lon="0.86182">
        <ele>142</ele>
        <time>2012-11-11T08:16:19Z</time>
      </trkpt>
      <trkpt lat="44.56321" lon="0.86186">
        <ele>143</ele>
        <time>2012-11-11T08:16:21Z</time>
      </trkpt>
      <trkpt lat="44.56326" lon="0.86191">
        <ele>145</ele>
        <time>2012-11-11T08:16:23Z</time>
      </trkpt>
      <trkpt lat="44.5633" lon="0.86195">
        <ele>147</ele>
        <time>2012-11-11T08:16:25Z</time>
      </trkpt>
      <trkpt lat="44.56334" lon="0.86202">
        <ele>149</ele>
        <time>2012-11-11T08:16:27Z</time>
      </trkpt>
      <trkpt lat="44.56339" lon="0.8621">
        <ele>151</ele>
        <time>2012-11-11T08:16:29Z</time>
      </trkpt>
      <trkpt lat="44.56343" lon="0.86218">
        <ele>153</ele>
        <time>2012-11-11T08:16:31Z</time>
      </trkpt>
      <trkpt lat="44.56347" lon="0.86228">
        <ele>155</ele>
        <time>2012-11-11T08:16:33Z</time>
      </trkpt>
      <trkpt lat="44.56349" lon="0.86238">
        <ele>157</ele>
        <time>2012-11-11T08:16:35Z</time>
      </trkpt>
      <trkpt lat="44.5635" lon="0.86248">
        <ele>159</ele>
        <time>2012-11-11T08:16:37Z</time>
      </trkpt>
      <trkpt lat="44.5635" lon="0.86257">
        <ele>161</ele>
        <time>2012-11-11T08:16:39Z</time>
      </trkpt>
      <trkpt lat="44.5635" lon="0.86265">
        <ele>163</ele>
        <time>2012-11-11T08:16:41Z</time>
      </trkpt>
      <trkpt lat="44.56349" lon="0.86273">
        <ele>165</ele>
        <time>2012-11-11T08:16:43Z</time>
      </trkpt>
      <trkpt lat="44.56349" lon="0.86281">
        <ele>166</ele>
        <time>2012-11-11T08:16:45Z</time>
      </trkpt>
      <trkpt lat="44.56351" lon="0.86289">
        <ele>168</ele>
        <time>2012-11-11T08:16:47Z</time>
      </trkpt>
      <trkpt lat="44.56352" lon="0.86296">
        <ele>170</ele>
        <time>2012-11-11T08:16:49Z</time>
      </trkpt>
      <trkpt lat="44.56355" lon="0.86304">
        <ele>172</ele>
        <time>2012-11-11T08:16:51Z</time>
      </trkpt>
      <trkpt lat="44.56358" lon="0.86312">
        <ele>174</ele>
        <time>2012-11-11T08:16:53Z</time>
      </trkpt>
      <trkpt lat="44.5636" lon="0.8632">
        <ele>176</ele>
        <time>2012-11-11T08:16:55Z</time>
      </trkpt>
      <trkpt lat="44.5636" lon="0.86326">
        <ele>178</ele>
        <time>2012-11-11T08:16:57Z</time>
      </trkpt>
      <trkpt lat="44.56363" lon="0.86334">
        <ele>180</ele>
        <time>2012-11-11T08:16:59Z</time>
      </trkpt>
      <trkpt lat="44.56366" lon="0.86343">
        <ele>182</ele>
        <time>2012-11-11T08:17:01Z</time>
      </trkpt>
      <trkpt lat="44.5637" lon="0.86353">
        <ele>184</ele>
        <time>2012-11-11T08:17:03Z</time>
      </trkpt>
      <trkpt lat="44.56374" lon="0.86362">
        <ele>186</ele>
        <time>2012-11-11T08:17:05Z</time>
      </trkpt>
      <trkpt lat="44.56377" lon="0.8637">
        <ele>188</ele>
        <time>2012-11-11T08:17:07Z</time>
      </trkpt>
      <trkpt lat="44.56381" lon="0.86378">
        <ele>189</ele>
        <time>2012-11-11T08:17:09Z</time>
      </trkpt>
      <trkpt lat="44.56384" lon="0.86385">
        <ele>189</ele>
        <time>2012-11-11T08:17:11Z</time>
      </trkpt>
      <trkpt lat="44.56387" lon="0.86394">
        <ele>190</ele>
        <time>2012-11-11T08:17:13Z</time>
      </trkpt>
      <trkpt lat="44.56388" lon="0.86403">
        <ele>190</ele>
        <time>2012-11-11T08:17:15Z</time>
      </trkpt>
      <trkpt lat="44.5639" lon="0.86412">
        <ele>190</ele>
        <time>2012-11-11T08:17:17Z</time>
      </trkpt>
      <trkpt lat="44.56392" lon="0.8642">
        <ele>191</ele>
        <time>2012-11-11T08:17:19Z</time>
      </trkpt>
      <trkpt lat="44.56392" lon="0.86428">
        <ele>191</ele>
        <time>2012-11-11T08:17:21Z</time>
      </trkpt>
      <trkpt lat="44.5639" lon="0.86437">
        <ele>191</ele>
        <time>2012-11-11T08:17:23Z</time>
      </trkpt>
      <trkpt lat="44.56387" lon="0.86447">
        <ele>190</ele>
        <time>2012-11-11T08:17:25Z</time>
      </trkpt>
      <trkpt lat="44.56385" lon="0.86454">
        <ele>188</ele>
        <time>2012-11-11T08:17:27Z</time>
      </trkpt>
      <trkpt lat="44.56383" lon="0.86461">
        <ele>186</ele>
        <time>2012-11-11T08:17:29Z</time>
      </trkpt>
      <trkpt lat="44.56381" lon="0.86469">
        <ele>184</ele>
        <time>2012-11-11T08:17:31Z</time>
      </trkpt>
      <trkpt lat="44.56376" lon="0.86479">
        <ele>182</ele>
        <time>2012-11-11T08:17:33Z</time>
      </trkpt>
      <trkpt lat="44.5637" lon="0.86488">
        <ele>182</ele>
        <time>2012-11-11T08:17:35Z</time>
      </trkpt>
      <trkpt lat="44.56365" lon="0.86495">
        <ele>182</ele>
        <time>2012-11-11T08:17:37Z</time>
      </trkpt>
      <trkpt lat="44.56362" lon="0.865">
        <ele>180</ele>
        <time>2012-11-11T08:17:39Z</time>
      </trkpt>
      <trkpt lat="44.56358" lon="0.86506">
        <ele>178</ele>
        <time>2012-11-11T08:17:41Z</time>
      </trkpt>
      <trkpt lat="44.56354" lon="0.86514">
        <ele>175</ele>
        <time>2012-11-11T08:17:43Z</time>
      </trkpt>
      <trkpt lat="44.5635" lon="0.8652">
        <ele>173</ele>
        <time>2012-11-11T08:17:45Z</time>
      </trkpt>
      <trkpt lat="44.56347" lon="0.86527">
        <ele>171</ele>
        <time>2012-11-11T08:17:47Z</time>
      </trkpt>
      <trkpt lat="44.56343" lon="0.86532">
        <ele>168</ele>
        <time>2012-11-11T08:17:49Z</time>
      </trkpt>
      <trkpt lat="44.5634" lon="0.86537">
        <ele>165</ele>
        <time>2012-11-11T08:17:51Z</time>
      </trkpt>
      <trkpt lat="44.56337" lon="0.86544">
        <ele>161</ele>
        <time>2012-11-11T08:17:53Z</time>
      </trkpt>
      <trkpt lat="44.56332" lon="0.8655">
        <ele>157</ele>
        <time>2012-11-11T08:17:55Z</time>
      </trkpt>
      <trkpt lat="44.56328" lon="0.86556">
        <ele>153</ele>
        <time>2012-11-11T08:17:57Z</time>
      </trkpt>
      <trkpt lat="44.56323" lon="0.86563">
        <ele>149</ele>
        <time>2012-11-11T08:17:59Z</time>
      </trkpt>
      <trkpt lat="44.56318" lon="0.86569">
        <ele>145</ele>
        <time>2012-11-11T08:18:01Z</time>
      </trkpt>
      <trkpt lat="44.56314" lon="0.86574">
        <ele>142</ele>
        <time>2012-11-11T08:18:03Z</time>
      </trkpt>
      <trkpt lat="44.56311" lon="0.8658">
        <ele>140</ele>
        <time>2012-11-11T08:18:05Z</time>
      </trkpt>
      <trkpt lat="44.56307" lon="0.86586">
        <ele>138</ele>
        <time>2012-11-11T08:18:07Z</time>
      </trkpt>
      <trkpt lat="44.56303" lon="0.86591">
        <ele>136</ele>
        <time>2012-11-11T08:18:09Z</time>
      </trkpt>
      <trkpt lat="44.56301" lon="0.86598">
        <ele>134</ele>
        <time>2012-11-11T08:18:11Z</time>
      </trkpt>
      <trkpt lat="44.563" lon="0.86605">
        <ele>132</ele>
        <time>2012-11-11T08:18:13Z</time>
      </trkpt>
      <trkpt lat="44.56299" lon="0.86611">
        <ele>130</ele>
        <time>2012-11-11T08:18:15Z</time>
      </trkpt>
      <trkpt lat="44.56299" lon="0.86616">
        <ele>130</ele>
        <time>2012-11-11T08:18:17Z</time>
      </trkpt>
      <trkpt lat="44.563" lon="0.86622">
        <ele>130</ele>
        <time>2012-11-11T08:18:19Z</time>
      </trkpt>
      <trkpt lat="44.56301" lon="0.86629">
        <ele>130</ele>
        <time>2012-11-11T08:18:21Z</time>
      </trkpt>
      <trkpt lat="44.56303" lon="0.86634">
        <ele>132</ele>
        <time>2012-11-11T08:18:23Z</time>
      </trkpt>
      <trkpt lat="44.56304" lon="0.86639">
        <ele>134</ele>
        <time>2012-11-11T08:18:25Z</time>
      </trkpt>
      <trkpt lat="44.56306" lon="0.86644">
        <ele>137</ele>
        <time>2012-11-11T08:18:28Z</time>
      </trkpt>
      <trkpt lat="44.56309" lon="0.86647">
        <ele>140</ele>
        <time>2012-11-11T08:18:31Z</time>
      </trkpt>
      <trkpt lat="44.5631" lon="0.8665">
        <ele>142</ele>
        <time>2012-11-11T08:18:33Z</time>
      </trkpt>
      <trkpt lat="44.56312" lon="0.86656">
        <ele>144</ele>
        <time>2012-11-11T08:18:35Z</time>
      </trkpt>
      <trkpt lat="44.56313" lon="0.86663">
        <ele>146</ele>
        <time>2012-11-11T08:18:37Z</time>
      </trkpt>
      <trkpt lat="44.56314" lon="0.86668">
        <ele>148</ele>
        <time>2012-11-11T08:18:39Z</time>
      </trkpt>
      <trkpt lat="44.56316" lon="0.86672">
        <ele>151</ele>
        <time>2012-11-11T08:18:41Z</time>
      </trkpt>
      <trkpt lat="44.56319" lon="0.86679">
        <ele>153</ele>
        <time>2012-11-11T08:18:43Z</time>
      </trkpt>
      <trkpt lat="44.56322" lon="0.86686">
        <ele>155</ele>
        <time>2012-11-11T08:18:45Z</time>
      </trkpt>
      <trkpt lat="44.56323" lon="0.86695">
        <ele>158</ele>
        <time>2012-11-11T08:18:47Z</time>
      </trkpt>
      <trkpt lat="44.56326" lon="0.86703">
        <ele>160</ele>
        <time>2012-11-11T08:18:49Z</time>
      </trkpt>
      <trkpt lat="44.56329" lon="0.86711">
        <ele>162</ele>
        <time>2012-11-11T08:18:51Z</time>
      </trkpt>
      <trkpt lat="44.5633" lon="0.86718">
        <ele>164</ele>
        <time>2012-11-11T08:18:53Z</time>
      </trkpt>
      <trkpt lat="44.56332" lon="0.86722">
        <ele>166</ele>
        <time>2012-11-11T08:18:55Z</time>
      </trkpt>
      <trkpt lat="44.56333" lon="0.86728">
        <ele>168</ele>
        <time>2012-11-11T08:18:57Z</time>
      </trkpt>
      <trkpt lat="44.56334" lon="0.86735">
        <ele>170</ele>
        <time>2012-11-11T08:18:59Z</time>
      </trkpt>
      <trkpt lat="44.56336" lon="0.86742">
        <ele>172</ele>
        <time>2012-11-11T08:19:01Z</time>
      </trkpt>
      <trkpt lat="44.56338" lon="0.86748">
        <ele>174</ele>
        <time>2012-11-11T08:19:03Z</time>
      </trkpt>
      <trkpt lat="44.56342" lon="0.86756">
        <ele>175</ele>
        <time>2012-11-11T08:19:05Z</time>
      </trkpt>
      <trkpt lat="44.56345" lon="0.86764">
        <ele>176</ele>
        <time>2012-11-11T08:19:07Z</time>
      </trkpt>
      <trkpt lat="44.56347" lon="0.86772">
        <ele>177</ele>
        <time>2012-11-11T08:19:09Z</time>
      </trkpt>
      <trkpt lat="44.56348" lon="0.86778">
        <ele>179</ele>
        <time>2012-11-11T08:19:11Z</time>
      </trkpt>
      <trkpt lat="44.56346" lon="0.86784">
        <ele>179</ele>
        <time>2012-11-11T08:19:13Z</time>
      </trkpt>
      <trkpt lat="44.56344" lon="0.86791">
        <ele>180</ele>
        <time>2012-11-11T08:19:15Z</time>
      </trkpt>
      <trkpt lat="44.56343" lon="0.86797">
        <ele>180</ele>
        <time>2012-11-11T08:19:17Z</time>
      </trkpt>
      <trkpt lat="44.56339" lon="0.86801">
        <ele>180</ele>
        <time>2012-11-11T08:19:19Z</time>
      </trkpt>
      <trkpt lat="44.56335" lon="0.86803">
        <ele>180</ele>
        <time>2012-11-11T08:19:21Z</time>
      </trkpt>
      <trkpt lat="44.56332" lon="0.86808">
        <ele>180</ele>
        <time>2012-11-11T08:19:23Z</time>
      </trkpt>
      <trkpt lat="44.56328" lon="0.86815">
        <ele>179</ele>
        <time>2012-11-11T08:19:25Z</time>
      </trkpt>
      <trkpt lat="44.56324" lon="0.86823">
        <ele>177</ele>
        <time>2012-11-11T08:19:27Z</time>
      </trkpt>
      <trkpt lat="44.56321" lon="0.86832">
        <ele>175</ele>
        <time>2012-11-11T08:19:29Z</time>
      </trkpt>
      <trkpt lat="44.56319" lon="0.86838">
        <ele>173</ele>
        <time>2012-11-11T08:19:31Z</time>
      </trkpt>
      <trkpt lat="44.5632" lon="0.86844">
        <ele>172</ele>
        <time>2012-11-11T08:19:33Z</time>
      </trkpt>
      <trkpt lat="44.56317" lon="0.8685">
        <ele>171</ele>
        <time>2012-11-11T08:19:36Z</time>
      </trkpt>
      <trkpt lat="44.56315" lon="0.86854">
        <ele>170</ele>
        <time>2012-11-11T08:19:38Z</time>
      </trkpt>
      <trkpt lat="44.56312" lon="0.86855">
        <ele>169</ele>
        <time>2012-11-11T08:19:40Z</time>
      </trkpt>
      <trkpt lat="44.56308" lon="0.86854">
        <ele>168</ele>
        <time>2012-11-11T08:19:42Z</time>
      </trkpt>
      <trkpt lat="44.56304" lon="0.86854">
        <ele>167</ele>
        <time>2012-11-11T08:19:44Z</time>
      </trkpt>
      <trkpt lat="44.563" lon="0.86856">
        <ele>166</ele>
        <time>2012-11-11T08:19:46Z</time>
      </trkpt>
      <trkpt lat="44.56296" lon="0.86859">
        <ele>165</ele>
        <time>2012-11-11T08:19:48Z</time>
      </trkpt>
      <trkpt lat="44.56292" lon="0.86861">
        <ele>165</ele>
        <time>2012-11-11T08:19:50Z</time>
      </trkpt>
      <trkpt lat="44.56289" lon="0.86864">
        <ele>165</ele>
        <time>2012-11-11T08:19:52Z</time>
      </trkpt>
      <trkpt lat="44.56284" lon="0.86865">
        <ele>165</ele>
        <time>2012-11-11T08:19:54Z</time>
      </trkpt>
      <trkpt lat="44.5628" lon="0.86866">
        <ele>165</ele>
        <time>2012-11-11T08:19:56Z</time>
      </trkpt>
      <trkpt lat="44.56277" lon="0.86869">
        <ele>165</ele>
        <time>2012-11-11T08:19:58Z</time>
      </trkpt>
      <trkpt lat="44.56275" lon="0.86875">
        <ele>165</ele>
        <time>2012-11-11T08:20:00Z</time>
      </trkpt>
      <trkpt lat="44.56275" lon="0.86881">
        <ele>165</ele>
        <time>2012-11-11T08:20:02Z</time>
      </trkpt>
      <trkpt lat="44.56275" lon="0.86887">
        <ele>165</ele>
        <time>2012-11-11T08:20:04Z</time>
      </trkpt>
      <trkpt lat="44.56274" lon="0.86893">
        <ele>167</ele>
        <time>2012-11-11T08:20:06Z</time>
      </trkpt>
      <trkpt lat="44.56273" lon="0.869">
        <ele>168</ele>
        <time>2012-11-11T08:20:08Z</time>
      </trkpt>
      <trkpt lat="44.56274" lon="0.86904">
        <ele>170</ele>
        <time>2012-11-11T08:20:10Z</time>
      </trkpt>
      <trkpt lat="44.56277" lon="0.8691">
        <ele>171</ele>
        <time>2012-11-11T08:20:12Z</time>
      </trkpt>
      <trkpt lat="44.56278" lon="0.86915">
        <ele>172</ele>
        <time>2012-11-11T08:20:14Z</time>
      </trkpt>
      <trkpt lat="44.56279" lon="0.86921">
        <ele>173</ele>
        <time>2012-11-11T08:20:16Z</time>
      </trkpt>
      <trkpt lat="44.56279" lon="0.8693">
        <ele>174</ele>
        <time>2012-11-11T08:20:18Z</time>
      </trkpt>
      <trkpt lat="44.56279" lon="0.86938">
        <ele>174</ele>
        <time>2012-11-11T08:20:20Z</time>
      </trkpt>
      <trkpt lat="44.56279" lon="0.86945">
        <ele>174</ele>
        <time>2012-11-11T08:20:22Z</time>
      </trkpt>
      <trkpt lat="44.56279" lon="0.86951">
        <ele>174</ele>
        <time>2012-11-11T08:20:24Z</time>
      </trkpt>
      <trkpt lat="44.56278" lon="0.86959">
        <ele>174</ele>
        <time>2012-11-11T08:20:26Z</time>
      </trkpt>
      <trkpt lat="44.56277" lon="0.86968">
        <ele>175</ele>
        <time>2012-11-11T08:20:28Z</time>
      </trkpt>
      <trkpt lat="44.56277" lon="0.86976">
        <ele>177</ele>
        <time>2012-11-11T08:20:30Z</time>
      </trkpt>
      <trkpt lat="44.56278" lon="0.86986">
        <ele>179</ele>
        <time>2012-11-11T08:20:32Z</time>
      </trkpt>
      <trkpt lat="44.56279" lon="0.86994">
        <ele>181</ele>
        <time>2012-11-11T08:20:34Z</time>
      </trkpt>
      <trkpt lat="44.56279" lon="0.87002">
        <ele>183</ele>
        <time>2012-11-11T08:20:36Z</time>
      </trkpt>
      <trkpt lat="44.56276" lon="0.8701">
        <ele>185</ele>
        <time>2012-11-11T08:20:38Z</time>
      </trkpt>
      <trkpt lat="44.56276" lon="0.87017">
        <ele>186</ele>
        <time>2012-11-11T08:20:40Z</time>
      </trkpt>
      <trkpt lat="44.5628" lon="0.87022">
        <ele>186</ele>
        <time>2012-11-11T08:20:42Z</time>
      </trkpt>
      <trkpt lat="44.56282" lon="0.87024">
        <ele>186</ele>
        <time>2012-11-11T08:20:44Z</time>
      </trkpt>
      <trkpt lat="44.56285" lon="0.87028">
        <ele>189</ele>
        <time>2012-11-11T08:20:47Z</time>
      </trkpt>
      <trkpt lat="44.56286" lon="0.87029">
        <ele>190</ele>
        <time>2012-11-11T08:20:49Z</time>
      </trkpt>
      <trkpt lat="44.56286" lon="0.87031">
        <ele>190</ele>
        <time>2012-11-11T08:20:54Z</time>
      </trkpt>
      <trkpt lat="44.56287" lon="0.87033">
        <ele>190</ele>
        <time>2012-11-11T08:21:00Z</time>
      </trkpt>
      <trkpt lat="44.5629" lon="0.87036">
        <ele>190</ele>
        <time>2012-11-11T08:21:03Z</time>
      </trkpt>
      <trkpt lat="44.56292" lon="0.87038">
        <ele>190</ele>
        <time>2012-11-11T08:21:05Z</time>
      </trkpt>
      <trkpt lat="44.56295" lon="0.87039">
        <ele>190</ele>
        <time>2012-11-11T08:21:10Z</time>
      </trkpt>
      <trkpt lat="44.56293" lon="0.87043">
        <ele>188</ele>
        <time>2012-11-11T08:21:14Z</time>
      </trkpt>
      <trkpt lat="44.56293" lon="0.87049">
        <ele>188</ele>
        <time>2012-11-11T08:21:16Z</time>
      </trkpt>
      <trkpt lat="44.56293" lon="0.87055">
        <ele>187</ele>
        <time>2012-11-11T08:21:18Z</time>
      </trkpt>
      <trkpt lat="44.56293" lon="0.87061">
        <ele>187</ele>
        <time>2012-11-11T08:21:20Z</time>
      </trkpt>
      <trkpt lat="44.56293" lon="0.87068">
        <ele>186</ele>
        <time>2012-11-11T08:21:22Z</time>
      </trkpt>
      <trkpt lat="44.56295" lon="0.87077">
        <ele>185</ele>
        <time>2012-11-11T08:21:24Z</time>
      </trkpt>
      <trkpt lat="44.56296" lon="0.87086">
        <ele>185</ele>
        <time>2012-11-11T08:21:26Z</time>
      </trkpt>
      <trkpt lat="44.56296" lon="0.87096">
        <ele>185</ele>
        <time>2012-11-11T08:21:28Z</time>
      </trkpt>
      <trkpt lat="44.56296" lon="0.87104">
        <ele>185</ele>
        <time>2012-11-11T08:21:30Z</time>
      </trkpt>
      <trkpt lat="44.56296" lon="0.87113">
        <ele>185</ele>
        <time>2012-11-11T08:21:32Z</time>
      </trkpt>
      <trkpt lat="44.56296" lon="0.87121">
        <ele>185</ele>
        <time>2012-11-11T08:21:34Z</time>
      </trkpt>
      <trkpt lat="44.56297" lon="0.8713">
        <ele>185</ele>
        <time>2012-11-11T08:21:36Z</time>
      </trkpt>
      <trkpt lat="44.56298" lon="0.87135">
        <ele>185</ele>
        <time>2012-11-11T08:21:38Z</time>
      </trkpt>
      <trkpt lat="44.563" lon="0.87141">
        <ele>185</ele>
        <time>2012-11-11T08:21:40Z</time>
      </trkpt>
      <trkpt lat="44.56302" lon="0.87146">
        <ele>185</ele>
        <time>2012-11-11T08:21:42Z</time>
      </trkpt>
      <trkpt lat="44.56304" lon="0.87148">
        <ele>186</ele>
        <time>2012-11-11T08:21:44Z</time>
      </trkpt>
      <trkpt lat="44.56306" lon="0.87149">
        <ele>187</ele>
        <time>2012-11-11T08:21:46Z</time>
      </trkpt>
      <trkpt lat="44.5631" lon="0.8715">
        <ele>187</ele>
        <time>2012-11-11T08:21:48Z</time>
      </trkpt>
      <trkpt lat="44.56313" lon="0.8715">
        <ele>187</ele>
        <time>2012-11-11T08:21:50Z</time>
      </trkpt>
      <trkpt lat="44.56317" lon="0.8715">
        <ele>187</ele>
        <time>2012-11-11T08:21:52Z</time>
      </trkpt>
      <trkpt lat="44.5632" lon="0.87151">
        <ele>187</ele>
        <time>2012-11-11T08:21:54Z</time>
      </trkpt>
      <trkpt lat="44.56324" lon="0.87151">
        <ele>187</ele>
        <time>2012-11-11T08:21:56Z</time>
      </trkpt>
      <trkpt lat="44.56327" lon="0.87151">
        <ele>187</ele>
        <time>2012-11-11T08:21:58Z</time>
      </trkpt>
      <trkpt lat="44.56331" lon="0.87151">
        <ele>187</ele>
        <time>2012-11-11T08:22:00Z</time>
      </trkpt>
      <trkpt lat="44.56335" lon="0.8715">
        <ele>187</ele>
        <time>2012-11-11T08:22:02Z</time>
      </trkpt>
      <trkpt lat="44.56339" lon="0.8715">
        <ele>187</ele>
        <time>2012-11-11T08:22:04Z</time>
      </trkpt>
      <trkpt lat="44.56342" lon="0.87153">
        <ele>187</ele>
        <time>2012-11-11T08:22:06Z</time>
      </trkpt>
      <trkpt lat="44.56346" lon="0.87156">
        <ele>188</ele>
        <time>2012-11-11T08:22:08Z</time>
      </trkpt>
      <trkpt lat="44.5635" lon="0.87159">
        <ele>190</ele>
        <time>2012-11-11T08:22:10Z</time>
      </trkpt>
      <trkpt lat="44.56354" lon="0.8716">
        <ele>192</ele>
        <time>2012-11-11T08:22:12Z</time>
      </trkpt>
      <trkpt lat="44.56358" lon="0.87163">
        <ele>194</ele>
        <time>2012-11-11T08:22:14Z</time>
      </trkpt>
      <trkpt lat="44.56363" lon="0.87168">
        <ele>196</ele>
        <time>2012-11-11T08:22:16Z</time>
      </trkpt>
      <trkpt lat="44.56367" lon="0.87173">
        <ele>198</ele>
        <time>2012-11-11T08:22:18Z</time>
      </trkpt>
      <trkpt lat="44.56369" lon="0.87177">
        <ele>200</ele>
        <time>2012-11-11T08:22:20Z</time>
      </trkpt>
      <trkpt lat="44.56372" lon="0.87183">
        <ele>201</ele>
        <time>2012-11-11T08:22:22Z</time>
      </trkpt>
      <trkpt lat="44.56376" lon="0.87189">
        <ele>202</ele>
        <time>2012-11-11T08:22:24Z</time>
      </trkpt>
      <trkpt lat="44.56378" lon="0.87194">
        <ele>202</ele>
        <time>2012-11-11T08:22:26Z</time>
      </trkpt>
      <trkpt lat="44.5638" lon="0.87199">
        <ele>202</ele>
        <time>2012-11-11T08:22:28Z</time>
      </trkpt>
      <trkpt lat="44.5638" lon="0.87204">
        <ele>202</ele>
        <time>2012-11-11T08:22:30Z</time>
      </trkpt>
      <trkpt lat="44.5638" lon="0.87208">
        <ele>202</ele>
        <time>2012-11-11T08:22:32Z</time>
      </trkpt>
      <trkpt lat="44.56378" lon="0.87213">
        <ele>202</ele>
        <time>2012-11-11T08:22:34Z</time>
      </trkpt>
      <trkpt lat="44.56376" lon="0.87216">
        <ele>201</ele>
        <time>2012-11-11T08:22:36Z</time>
      </trkpt>
      <trkpt lat="44.56376" lon="0.87218">
        <ele>199</ele>
        <time>2012-11-11T08:22:38Z</time>
      </trkpt>
      <trkpt lat="44.56376" lon="0.8722">
        <ele>198</ele>
        <time>2012-11-11T08:22:40Z</time>
      </trkpt>
      <trkpt lat="44.56375" lon="0.87221">
        <ele>198</ele>
        <time>2012-11-11T08:22:43Z</time>
      </trkpt>
      <trkpt lat="44.56374" lon="0.87223">
        <ele>196</ele>
        <time>2012-11-11T08:22:46Z</time>
      </trkpt>
      <trkpt lat="44.56375" lon="0.87223">
        <ele>185</ele>
        <time>2012-11-11T08:22:58Z</time>
      </trkpt>
      <trkpt lat="44.56376" lon="0.87222">
        <ele>178</ele>
        <time>2012-11-11T08:23:05Z</time>
      </trkpt>
      <trkpt lat="44.56376" lon="0.87224">
        <ele>177</ele>
        <time>2012-11-11T08:23:10Z</time>
      </trkpt>
      <trkpt lat="44.56374" lon="0.87224">
        <ele>176</ele>
        <time>2012-11-11T08:23:19Z</time>
      </trkpt>
      <trkpt lat="44.56374" lon="0.87226">
        <ele>176</ele>
        <time>2012-11-11T08:23:27Z</time>
      </trkpt>
      <trkpt lat="44.56373" lon="0.87227">
        <ele>178</ele>
        <time>2012-11-11T08:23:35Z</time>
      </trkpt>
      <trkpt lat="44.56374" lon="0.87227">
        <ele>180</ele>
        <time>2012-11-11T08:23:39Z</time>
      </trkpt>
      <trkpt lat="44.56375" lon="0.87225">
        <ele>180</ele>
        <time>2012-11-11T08:24:01Z</time>
      </trkpt>
      <trkpt lat="44.56376" lon="0.87224">
        <ele>175</ele>
        <time>2012-11-11T08:24:16Z</time>
      </trkpt>
      <trkpt lat="44.56374" lon="0.87223">
        <ele>173</ele>
        <time>2012-11-11T08:24:20Z</time>
      </trkpt>
      <trkpt lat="44.56369" lon="0.87225">
        <ele>173</ele>
        <time>2012-11-11T08:24:22Z</time>
      </trkpt>
      <trkpt lat="44.56364" lon="0.87226">
        <ele>171</ele>
        <time>2012-11-11T08:24:24Z</time>
      </trkpt>
      <trkpt lat="44.56359" lon="0.87227">
        <ele>170</ele>
        <time>2012-11-11T08:24:26Z</time>
      </trkpt>
      <trkpt lat="44.56352" lon="0.87231">
        <ele>170</ele>
        <time>2012-11-11T08:24:28Z</time>
      </trkpt>
      <trkpt lat="44.56345" lon="0.87235">
        <ele>169</ele>
        <time>2012-11-11T08:24:30Z</time>
      </trkpt>
      <trkpt lat="44.56337" lon="0.87238">
        <ele>167</ele>
        <time>2012-11-11T08:24:32Z</time>
      </trkpt>
      <trkpt lat="44.56329" lon="0.87242">
        <ele>165</ele>
        <time>2012-11-11T08:24:34Z</time>
      </trkpt>
      <trkpt lat="44.56321" lon="0.87247">
        <ele>163</ele>
        <time>2012-11-11T08:24:36Z</time>
      </trkpt>
      <trkpt lat="44.56313" lon="0.87251">
        <ele>161</ele>
        <time>2012-11-11T08:24:38Z</time>
      </trkpt>
      <trkpt lat="44.56305" lon="0.87258">
        <ele>159</ele>
        <time>2012-11-11T08:24:40Z</time>
      </trkpt>
      <trkpt lat="44.56296" lon="0.87262">
        <ele>158</ele>
        <time>2012-11-11T08:24:42Z</time>
      </trkpt>
      <trkpt lat="44.56286" lon="0.87267">
        <ele>158</ele>
        <time>2012-11-11T08:24:44Z</time>
      </trkpt>
      <trkpt lat="44.56278" lon="0.8727">
        <ele>159</ele>
        <time>2012-11-11T08:24:46Z</time>
      </trkpt>
      <trkpt lat="44.56269" lon="0.87271">
        <ele>161</ele>
        <time>2012-11-11T08:24:48Z</time>
      </trkpt>
      <trkpt lat="44.5626" lon="0.87273">
        <ele>163</ele>
        <time>2012-11-11T08:24:50Z</time>
      </trkpt>
      <trkpt lat="44.56251" lon="0.87274">
        <ele>165</ele>
        <time>2012-11-11T08:24:52Z</time>
      </trkpt>
      <trkpt lat="44.56242" lon="0.87276">
        <ele>167</ele>
        <time>2012-11-11T08:24:54Z</time>
      </trkpt>
      <trkpt lat="44.56232" lon="0.87278">
        <ele>169</ele>
        <time>2012-11-11T08:24:56Z</time>
      </trkpt>
      <trkpt lat="44.56223" lon="0.87279">
        <ele>171</ele>
        <time>2012-11-11T08:24:58Z</time>
      </trkpt>
      <trkpt lat="44.56213" lon="0.8728">
        <ele>172</ele>
        <time>2012-11-11T08:25:00Z</time>
      </trkpt>
      <trkpt lat="44.56203" lon="0.87281">
        <ele>174</ele>
        <time>2012-11-11T08:25:02Z</time>
      </trkpt>
      <trkpt lat="44.56193" lon="0.87279">
        <ele>176</ele>
        <time>2012-11-11T08:25:04Z</time>
      </trkpt>
      <trkpt lat="44.56182" lon="0.87278">
        <ele>177</ele>
        <time>2012-11-11T08:25:06Z</time>
      </trkpt>
      <trkpt lat="44.56172" lon="0.87277">
        <ele>177</ele>
        <time>2012-11-11T08:25:08Z</time>
      </trkpt>
      <trkpt lat="44.56161" lon="0.87276">
        <ele>178</ele>
        <time>2012-11-11T08:25:10Z</time>
      </trkpt>
      <trkpt lat="44.56151" lon="0.87274">
        <ele>178</ele>
        <time>2012-11-11T08:25:12Z</time>
      </trkpt>
      <trkpt lat="44.56141" lon="0.87273">
        <ele>178</ele>
        <time>2012-11-11T08:25:14Z</time>
      </trkpt>
      <trkpt lat="44.5613" lon="0.87271">
        <ele>178</ele>
        <time>2012-11-11T08:25:16Z</time>
      </trkpt>
      <trkpt lat="44.5612" lon="0.87269">
        <ele>178</ele>
        <time>2012-11-11T08:25:18Z</time>
      </trkpt>
      <trkpt lat="44.56109" lon="0.87267">
        <ele>178</ele>
        <time>2012-11-11T08:25:20Z</time>
      </trkpt>
      <trkpt lat="44.56098" lon="0.87266">
        <ele>178</ele>
        <time>2012-11-11T08:25:22Z</time>
      </trkpt>
      <trkpt lat="44.56087" lon="0.87266">
        <ele>178</ele>
        <time>2012-11-11T08:25:24Z</time>
      </trkpt>
      <trkpt lat="44.56076" lon="0.87266">
        <ele>178</ele>
        <time>2012-11-11T08:25:26Z</time>
      </trkpt>
      <trkpt lat="44.56065" lon="0.87266">
        <ele>178</ele>
        <time>2012-11-11T08:25:28Z</time>
      </trkpt>
      <trkpt lat="44.56054" lon="0.87267">
        <ele>178</ele>
        <time>2012-11-11T08:25:30Z</time>
      </trkpt>
      <trkpt lat="44.56042" lon="0.87267">
        <ele>178</ele>
        <time>2012-11-11T08:25:32Z</time>
      </trkpt>
      <trkpt lat="44.5603" lon="0.87267">
        <ele>178</ele>
        <time>2012-11-11T08:25:34Z</time>
      </trkpt>
      <trkpt lat="44.56017" lon="0.87267">
        <ele>178</ele>
        <time>2012-11-11T08:25:36Z</time>
      </trkpt>
      <trkpt lat="44.56004" lon="0.87267">
        <ele>178</ele>
        <time>2012-11-11T08:25:38Z</time>
      </trkpt>
      <trkpt lat="44.55991" lon="0.87267">
        <ele>178</ele>
        <time>2012-11-11T08:25:40Z</time>
      </trkpt>
      <trkpt lat="44.55977" lon="0.87267">
        <ele>178</ele>
        <time>2012-11-11T08:25:42Z</time>
      </trkpt>
      <trkpt lat="44.55963" lon="0.87267">
        <ele>178</ele>
        <time>2012-11-11T08:25:44Z</time>
      </trkpt>
      <trkpt lat="44.55948" lon="0.87266">
        <ele>178</ele>
        <time>2012-11-11T08:25:46Z</time>
      </trkpt>
      <trkpt lat="44.55932" lon="0.87267">
        <ele>177</ele>
        <time>2012-11-11T08:25:48Z</time>
      </trkpt>
      <trkpt lat="44.55915" lon="0.87269">
        <ele>176</ele>
        <time>2012-11-11T08:25:50Z</time>
      </trkpt>
      <trkpt lat="44.55897" lon="0.87271">
        <ele>174</ele>
        <time>2012-11-11T08:25:52Z</time>
      </trkpt>
      <trkpt lat="44.55879" lon="0.87274">
        <ele>173</ele>
        <time>2012-11-11T08:25:54Z</time>
      </trkpt>
      <trkpt lat="44.55849" lon="0.87279">
        <ele>170</ele>
        <time>2012-11-11T08:25:57Z</time>
      </trkpt>
      <trkpt lat="44.55816" lon="0.87285">
        <ele>167</ele>
        <time>2012-11-11T08:25:59Z</time>
      </trkpt>
      <trkpt lat="44.55795" lon="0.87293">
        <ele>165</ele>
        <time>2012-11-11T08:26:02Z</time>
      </trkpt>
      <trkpt lat="44.55767" lon="0.87318">
        <ele>162</ele>
        <time>2012-11-11T08:26:04Z</time>
      </trkpt>
      <trkpt lat="44.5575" lon="0.87335">
        <ele>160</ele>
        <time>2012-11-11T08:26:07Z</time>
      </trkpt>
      <trkpt lat="44.55734" lon="0.87351">
        <ele>158</ele>
        <time>2012-11-11T08:26:09Z</time>
      </trkpt>
      <trkpt lat="44.55719" lon="0.87366">
        <ele>157</ele>
        <time>2012-11-11T08:26:11Z</time>
      </trkpt>
      <trkpt lat="44.55706" lon="0.87382">
        <ele>157</ele>
        <time>2012-11-11T08:26:13Z</time>
      </trkpt>
      <trkpt lat="44.55694" lon="0.87396">
        <ele>157</ele>
        <time>2012-11-11T08:26:15Z</time>
      </trkpt>
      <trkpt lat="44.55683" lon="0.87409">
        <ele>157</ele>
        <time>2012-11-11T08:26:17Z</time>
      </trkpt>
      <trkpt lat="44.55672" lon="0.87419">
        <ele>157</ele>
        <time>2012-11-11T08:26:19Z</time>
      </trkpt>
      <trkpt lat="44.55662" lon="0.87429">
        <ele>157</ele>
        <time>2012-11-11T08:26:21Z</time>
      </trkpt>
      <trkpt lat="44.55653" lon="0.87438">
        <ele>157</ele>
        <time>2012-11-11T08:26:23Z</time>
      </trkpt>
      <trkpt lat="44.55646" lon="0.87445">
        <ele>157</ele>
        <time>2012-11-11T08:26:25Z</time>
      </trkpt>
      <trkpt lat="44.55647" lon="0.8745">
        <ele>157</ele>
        <time>2012-11-11T08:26:27Z</time>
      </trkpt>
      <trkpt lat="44.55653" lon="0.87455">
        <ele>156</ele>
        <time>2012-11-11T08:26:29Z</time>
      </trkpt>
      <trkpt lat="44.55659" lon="0.87461">
        <ele>156</ele>
        <time>2012-11-11T08:26:31Z</time>
      </trkpt>
      <trkpt lat="44.55664" lon="0.87468">
        <ele>156</ele>
        <time>2012-11-11T08:26:33Z</time>
      </trkpt>
      <trkpt lat="44.5567" lon="0.87473">
        <ele>156</ele>
        <time>2012-11-11T08:26:35Z</time>
      </trkpt>
      <trkpt lat="44.55678" lon="0.87479">
        <ele>156</ele>
        <time>2012-11-11T08:26:37Z</time>
      </trkpt>
      <trkpt lat="44.55685" lon="0.87486">
        <ele>157</ele>
        <time>2012-11-11T08:26:39Z</time>
      </trkpt>
      <trkpt lat="44.55691" lon="0.87493">
        <ele>159</ele>
        <time>2012-11-11T08:26:41Z</time>
      </trkpt>
      <trkpt lat="44.55699" lon="0.875">
        <ele>161</ele>
        <time>2012-11-11T08:26:43Z</time>
      </trkpt>
      <trkpt lat="44.55704" lon="0.87508">
        <ele>162</ele>
        <time>2012-11-11T08:26:45Z</time>
      </trkpt>
      <trkpt lat="44.55704" lon="0.8752">
        <ele>163</ele>
        <time>2012-11-11T08:26:47Z</time>
      </trkpt>
      <trkpt lat="44.55702" lon="0.8754">
        <ele>163</ele>
        <time>2012-11-11T08:26:49Z</time>
      </trkpt>
      <trkpt lat="44.55699" lon="0.8756">
        <ele>163</ele>
        <time>2012-11-11T08:26:51Z</time>
      </trkpt>
      <trkpt lat="44.55697" lon="0.87582">
        <ele>163</ele>
        <time>2012-11-11T08:26:53Z</time>
      </trkpt>
      <trkpt lat="44.55695" lon="0.876">
        <ele>163</ele>
        <time>2012-11-11T08:26:55Z</time>
      </trkpt>
      <trkpt lat="44.55691" lon="0.87616">
        <ele>163</ele>
        <time>2012-11-11T08:26:57Z</time>
      </trkpt>
      <trkpt lat="44.55689" lon="0.8763">
        <ele>163</ele>
        <time>2012-11-11T08:26:59Z</time>
      </trkpt>
      <trkpt lat="44.55686" lon="0.87643">
        <ele>163</ele>
        <time>2012-11-11T08:27:01Z</time>
      </trkpt>
      <trkpt lat="44.55683" lon="0.87655">
        <ele>163</ele>
        <time>2012-11-11T08:27:03Z</time>
      </trkpt>
      <trkpt lat="44.55681" lon="0.87666">
        <ele>163</ele>
        <time>2012-11-11T08:27:05Z</time>
      </trkpt>
      <trkpt lat="44.55681" lon="0.87675">
        <ele>163</ele>
        <time>2012-11-11T08:27:07Z</time>
      </trkpt>
      <trkpt lat="44.55684" lon="0.87681">
        <ele>163</ele>
        <time>2012-11-11T08:27:09Z</time>
      </trkpt>
      <trkpt lat="44.5569" lon="0.87684">
        <ele>163</ele>
        <time>2012-11-11T08:27:11Z</time>
      </trkpt>
      <trkpt lat="44.55697" lon="0.87687">
        <ele>163</ele>
        <time>2012-11-11T08:27:13Z</time>
      </trkpt>
      <trkpt lat="44.55702" lon="0.87693">
        <ele>164</ele>
        <time>2012-11-11T08:27:15Z</time>
      </trkpt>
      <trkpt lat="44.55706" lon="0.87699">
        <ele>165</ele>
        <time>2012-11-11T08:27:17Z</time>
      </trkpt>
      <trkpt lat="44.55712" lon="0.87705">
        <ele>165</ele>
        <time>2012-11-11T08:27:19Z</time>
      </trkpt>
      <trkpt lat="44.55719" lon="0.87712">
        <ele>166</ele>
        <time>2012-11-11T08:27:21Z</time>
      </trkpt>
      <trkpt lat="44.55726" lon="0.87717">
        <ele>166</ele>
        <time>2012-11-11T08:27:23Z</time>
      </trkpt>
      <trkpt lat="44.55733" lon="0.87725">
        <ele>166</ele>
        <time>2012-11-11T08:27:25Z</time>
      </trkpt>
      <trkpt lat="44.5574" lon="0.87733">
        <ele>167</ele>
        <time>2012-11-11T08:27:27Z</time>
      </trkpt>
      <trkpt lat="44.55747" lon="0.8774">
        <ele>167</ele>
        <time>2012-11-11T08:27:29Z</time>
      </trkpt>
      <trkpt lat="44.55753" lon="0.87746">
        <ele>168</ele>
        <time>2012-11-11T08:27:31Z</time>
      </trkpt>
      <trkpt lat="44.55759" lon="0.87752">
        <ele>168</ele>
        <time>2012-11-11T08:27:33Z</time>
      </trkpt>
      <trkpt lat="44.55764" lon="0.87758">
        <ele>169</ele>
        <time>2012-11-11T08:27:35Z</time>
      </trkpt>
      <trkpt lat="44.55769" lon="0.87764">
        <ele>169</ele>
        <time>2012-11-11T08:27:37Z</time>
      </trkpt>
      <trkpt lat="44.55775" lon="0.87769">
        <ele>170</ele>
        <time>2012-11-11T08:27:39Z</time>
      </trkpt>
      <trkpt lat="44.55781" lon="0.87775">
        <ele>170</ele>
        <time>2012-11-11T08:27:41Z</time>
      </trkpt>
      <trkpt lat="44.55786" lon="0.87779">
        <ele>170</ele>
        <time>2012-11-11T08:27:43Z</time>
      </trkpt>
      <trkpt lat="44.55792" lon="0.87785">
        <ele>171</ele>
        <time>2012-11-11T08:27:45Z</time>
      </trkpt>
      <trkpt lat="44.55797" lon="0.8779">
        <ele>172</ele>
        <time>2012-11-11T08:27:47Z</time>
      </trkpt>
      <trkpt lat="44.55803" lon="0.87795">
        <ele>172</ele>
        <time>2012-11-11T08:27:49Z</time>
      </trkpt>
      <trkpt lat="44.55809" lon="0.87801">
        <ele>173</ele>
        <time>2012-11-11T08:27:51Z</time>
      </trkpt>
      <trkpt lat="44.55814" lon="0.87806">
        <ele>173</ele>
        <time>2012-11-11T08:27:53Z</time>
      </trkpt>
      <trkpt lat="44.55819" lon="0.87812">
        <ele>174</ele>
        <time>2012-11-11T08:27:55Z</time>
      </trkpt>
      <trkpt lat="44.55821" lon="0.87819">
        <ele>174</ele>
        <time>2012-11-11T08:27:57Z</time>
      </trkpt>
      <trkpt lat="44.55824" lon="0.87824">
        <ele>175</ele>
        <time>2012-11-11T08:27:59Z</time>
      </trkpt>
      <trkpt lat="44.55825" lon="0.87828">
        <ele>175</ele>
        <time>2012-11-11T08:28:01Z</time>
      </trkpt>
      <trkpt lat="44.55827" lon="0.87834">
        <ele>175</ele>
        <time>2012-11-11T08:28:03Z</time>
      </trkpt>
      <trkpt lat="44.55832" lon="0.87842">
        <ele>175</ele>
        <time>2012-11-11T08:28:05Z</time>
      </trkpt>
      <trkpt lat="44.55837" lon="0.87851">
        <ele>175</ele>
        <time>2012-11-11T08:28:07Z</time>
      </trkpt>
      <trkpt lat="44.55841" lon="0.87858">
        <ele>175</ele>
        <time>2012-11-11T08:28:09Z</time>
      </trkpt>
      <trkpt lat="44.55844" lon="0.87863">
        <ele>175</ele>
        <time>2012-11-11T08:28:11Z</time>
      </trkpt>
      <trkpt lat="44.55846" lon="0.87866">
        <ele>175</ele>
        <time>2012-11-11T08:28:13Z</time>
      </trkpt>
      <trkpt lat="44.55848" lon="0.8787">
        <ele>175</ele>
        <time>2012-11-11T08:28:15Z</time>
      </trkpt>
      <trkpt lat="44.55851" lon="0.87875">
        <ele>175</ele>
        <time>2012-11-11T08:28:18Z</time>
      </trkpt>
      <trkpt lat="44.55853" lon="0.87879">
        <ele>175</ele>
        <time>2012-11-11T08:28:20Z</time>
      </trkpt>
      <trkpt lat="44.55856" lon="0.87885">
        <ele>175</ele>
        <time>2012-11-11T08:28:22Z</time>
      </trkpt>
      <trkpt lat="44.55857" lon="0.87894">
        <ele>175</ele>
        <time>2012-11-11T08:28:24Z</time>
      </trkpt>
      <trkpt lat="44.5586" lon="0.87902">
        <ele>175</ele>
        <time>2012-11-11T08:28:26Z</time>
      </trkpt>
      <trkpt lat="44.55862" lon="0.87907">
        <ele>175</ele>
        <time>2012-11-11T08:28:28Z</time>
      </trkpt>
      <trkpt lat="44.55862" lon="0.87911">
        <ele>174</ele>
        <time>2012-11-11T08:28:30Z</time>
      </trkpt>
      <trkpt lat="44.55863" lon="0.87914">
        <ele>173</ele>
        <time>2012-11-11T08:28:32Z</time>
      </trkpt>
      <trkpt lat="44.55864" lon="0.87918">
        <ele>172</ele>
        <time>2012-11-11T08:28:34Z</time>
      </trkpt>
      <trkpt lat="44.55864" lon="0.8792">
        <ele>171</ele>
        <time>2012-11-11T08:28:36Z</time>
      </trkpt>
      <trkpt lat="44.55864" lon="0.87923">
        <ele>170</ele>
        <time>2012-11-11T08:28:38Z</time>
      </trkpt>
      <trkpt lat="44.55864" lon="0.87927">
        <ele>170</ele>
        <time>2012-11-11T08:28:40Z</time>
      </trkpt>
      <trkpt lat="44.55864" lon="0.87928">
        <ele>170</ele>
        <time>2012-11-11T08:28:42Z</time>
      </trkpt>
      <trkpt lat="44.55864" lon="0.87933">
        <ele>170</ele>
        <time>2012-11-11T08:28:44Z</time>
      </trkpt>
      <trkpt lat="44.55865" lon="0.8794">
        <ele>170</ele>
        <time>2012-11-11T08:28:46Z</time>
      </trkpt>
      <trkpt lat="44.55866" lon="0.87949">
        <ele>170</ele>
        <time>2012-11-11T08:28:48Z</time>
      </trkpt>
      <trkpt lat="44.55864" lon="0.8796">
        <ele>170</ele>
        <time>2012-11-11T08:28:50Z</time>
      </trkpt>
      <trkpt lat="44.55861" lon="0.8797">
        <ele>170</ele>
        <time>2012-11-11T08:28:52Z</time>
      </trkpt>
      <trkpt lat="44.55857" lon="0.87982">
        <ele>170</ele>
        <time>2012-11-11T08:28:54Z</time>
      </trkpt>
      <trkpt lat="44.55854" lon="0.87994">
        <ele>170</ele>
        <time>2012-11-11T08:28:56Z</time>
      </trkpt>
      <trkpt lat="44.5585" lon="0.88003">
        <ele>168</ele>
        <time>2012-11-11T08:28:58Z</time>
      </trkpt>
      <trkpt lat="44.55846" lon="0.88011">
        <ele>166</ele>
        <time>2012-11-11T08:29:00Z</time>
      </trkpt>
      <trkpt lat="44.55842" lon="0.88022">
        <ele>164</ele>
        <time>2012-11-11T08:29:02Z</time>
      </trkpt>
      <trkpt lat="44.55841" lon="0.88039">
        <ele>162</ele>
        <time>2012-11-11T08:29:04Z</time>
      </trkpt>
      <trkpt lat="44.55837" lon="0.88055">
        <ele>160</ele>
        <time>2012-11-11T08:29:06Z</time>
      </trkpt>
      <trkpt lat="44.55833" lon="0.88071">
        <ele>158</ele>
        <time>2012-11-11T08:29:08Z</time>
      </trkpt>
      <trkpt lat="44.55823" lon="0.88082">
        <ele>156</ele>
        <time>2012-11-11T08:29:10Z</time>
      </trkpt>
      <trkpt lat="44.55813" lon="0.88095">
        <ele>152</ele>
        <time>2012-11-11T08:29:12Z</time>
      </trkpt>
      <trkpt lat="44.55806" lon="0.88108">
        <ele>149</ele>
        <time>2012-11-11T08:29:14Z</time>
      </trkpt>
      <trkpt lat="44.55799" lon="0.88121">
        <ele>146</ele>
        <time>2012-11-11T08:29:16Z</time>
      </trkpt>
      <trkpt lat="44.55792" lon="0.88136">
        <ele>143</ele>
        <time>2012-11-11T08:29:18Z</time>
      </trkpt>
      <trkpt lat="44.55785" lon="0.88151">
        <ele>141</ele>
        <time>2012-11-11T08:29:20Z</time>
      </trkpt>
      <trkpt lat="44.5578" lon="0.88167">
        <ele>138</ele>
        <time>2012-11-11T08:29:22Z</time>
      </trkpt>
      <trkpt lat="44.55775" lon="0.88182">
        <ele>136</ele>
        <time>2012-11-11T08:29:24Z</time>
      </trkpt>
      <trkpt lat="44.55771" lon="0.88197">
        <ele>134</ele>
        <time>2012-11-11T08:29:26Z</time>
      </trkpt>
      <trkpt lat="44.55766" lon="0.88213">
        <ele>132</ele>
        <time>2012-11-11T08:29:28Z</time>
      </trkpt>
      <trkpt lat="44.55761" lon="0.88226">
        <ele>130</ele>
        <time>2012-11-11T08:29:30Z</time>
      </trkpt>
      <trkpt lat="44.55756" lon="0.88237">
        <ele>128</ele>
        <time>2012-11-11T08:29:32Z</time>
      </trkpt>
      <trkpt lat="44.5575" lon="0.88249">
        <ele>126</ele>
        <time>2012-11-11T08:29:34Z</time>
      </trkpt>
      <trkpt lat="44.55745" lon="0.88262">
        <ele>125</ele>
        <time>2012-11-11T08:29:36Z</time>
      </trkpt>
      <trkpt lat="44.5574" lon="0.88276">
        <ele>125</ele>
        <time>2012-11-11T08:29:38Z</time>
      </trkpt>
      <trkpt lat="44.55735" lon="0.88288">
        <ele>125</ele>
        <time>2012-11-11T08:29:40Z</time>
      </trkpt>
      <trkpt lat="44.55729" lon="0.88301">
        <ele>125</ele>
        <time>2012-11-11T08:29:42Z</time>
      </trkpt>
      <trkpt lat="44.55724" lon="0.88312">
        <ele>125</ele>
        <time>2012-11-11T08:29:44Z</time>
      </trkpt>
      <trkpt lat="44.55719" lon="0.88323">
        <ele>125</ele>
        <time>2012-11-11T08:29:46Z</time>
      </trkpt>
      <trkpt lat="44.55715" lon="0.88335">
        <ele>125</ele>
        <time>2012-11-11T08:29:48Z</time>
      </trkpt>
      <trkpt lat="44.5571" lon="0.88341">
        <ele>125</ele>
        <time>2012-11-11T08:29:50Z</time>
      </trkpt>
      <trkpt lat="44.55704" lon="0.88348">
        <ele>125</ele>
        <time>2012-11-11T08:29:52Z</time>
      </trkpt>
      <trkpt lat="44.55699" lon="0.88355">
        <ele>125</ele>
        <time>2012-11-11T08:29:54Z</time>
      </trkpt>
      <trkpt lat="44.55694" lon="0.88361">
        <ele>125</ele>
        <time>2012-11-11T08:29:56Z</time>
      </trkpt>
      <trkpt lat="44.55687" lon="0.88366">
        <ele>125</ele>
        <time>2012-11-11T08:29:58Z</time>
      </trkpt>
      <trkpt lat="44.55681" lon="0.88371">
        <ele>125</ele>
        <time>2012-11-11T08:30:00Z</time>
      </trkpt>
      <trkpt lat="44.55675" lon="0.88378">
        <ele>124</ele>
        <time>2012-11-11T08:30:02Z</time>
      </trkpt>
      <trkpt lat="44.55669" lon="0.88383">
        <ele>123</ele>
        <time>2012-11-11T08:30:04Z</time>
      </trkpt>
      <trkpt lat="44.55665" lon="0.88389">
        <ele>121</ele>
        <time>2012-11-11T08:30:06Z</time>
      </trkpt>
      <trkpt lat="44.55661" lon="0.88394">
        <ele>119</ele>
        <time>2012-11-11T08:30:08Z</time>
      </trkpt>
      <trkpt lat="44.55659" lon="0.884">
        <ele>119</ele>
        <time>2012-11-11T08:30:10Z</time>
      </trkpt>
      <trkpt lat="44.5566" lon="0.88406">
        <ele>119</ele>
        <time>2012-11-11T08:30:12Z</time>
      </trkpt>
      <trkpt lat="44.55664" lon="0.88412">
        <ele>119</ele>
        <time>2012-11-11T08:30:14Z</time>
      </trkpt>
      <trkpt lat="44.5567" lon="0.88418">
        <ele>119</ele>
        <time>2012-11-11T08:30:16Z</time>
      </trkpt>
      <trkpt lat="44.55675" lon="0.88422">
        <ele>119</ele>
        <time>2012-11-11T08:30:18Z</time>
      </trkpt>
      <trkpt lat="44.55681" lon="0.88425">
        <ele>119</ele>
        <time>2012-11-11T08:30:20Z</time>
      </trkpt>
      <trkpt lat="44.55685" lon="0.88428">
        <ele>119</ele>
        <time>2012-11-11T08:30:22Z</time>
      </trkpt>
      <trkpt lat="44.55688" lon="0.88431">
        <ele>119</ele>
        <time>2012-11-11T08:30:24Z</time>
      </trkpt>
      <trkpt lat="44.55692" lon="0.88431">
        <ele>119</ele>
        <time>2012-11-11T08:30:26Z</time>
      </trkpt>
      <trkpt lat="44.55698" lon="0.88431">
        <ele>119</ele>
        <time>2012-11-11T08:30:28Z</time>
      </trkpt>
      <trkpt lat="44.55703" lon="0.88429">
        <ele>119</ele>
        <time>2012-11-11T08:30:30Z</time>
      </trkpt>
      <trkpt lat="44.55709" lon="0.88427">
        <ele>119</ele>
        <time>2012-11-11T08:30:32Z</time>
      </trkpt>
      <trkpt lat="44.55714" lon="0.88424">
        <ele>119</ele>
        <time>2012-11-11T08:30:34Z</time>
      </trkpt>
      <trkpt lat="44.55719" lon="0.88418">
        <ele>118</ele>
        <time>2012-11-11T08:30:36Z</time>
      </trkpt>
      <trkpt lat="44.55724" lon="0.88413">
        <ele>117</ele>
        <time>2012-11-11T08:30:38Z</time>
      </trkpt>
      <trkpt lat="44.55726" lon="0.8841">
        <ele>117</ele>
        <time>2012-11-11T08:30:40Z</time>
      </trkpt>
      <trkpt lat="44.5573" lon="0.88406">
        <ele>117</ele>
        <time>2012-11-11T08:30:42Z</time>
      </trkpt>
      <trkpt lat="44.55735" lon="0.884">
        <ele>117</ele>
        <time>2012-11-11T08:30:44Z</time>
      </trkpt>
      <trkpt lat="44.5574" lon="0.88394">
        <ele>115</ele>
        <time>2012-11-11T08:30:46Z</time>
      </trkpt>
      <trkpt lat="44.55748" lon="0.88387">
        <ele>113</ele>
        <time>2012-11-11T08:30:48Z</time>
      </trkpt>
      <trkpt lat="44.55754" lon="0.88379">
        <ele>111</ele>
        <time>2012-11-11T08:30:50Z</time>
      </trkpt>
      <trkpt lat="44.5576" lon="0.88371">
        <ele>109</ele>
        <time>2012-11-11T08:30:52Z</time>
      </trkpt>
      <trkpt lat="44.55769" lon="0.88362">
        <ele>107</ele>
        <time>2012-11-11T08:30:54Z</time>
      </trkpt>
      <trkpt lat="44.55776" lon="0.88353">
        <ele>105</ele>
        <time>2012-11-11T08:30:56Z</time>
      </trkpt>
      <trkpt lat="44.55782" lon="0.88346">
        <ele>103</ele>
        <time>2012-11-11T08:30:58Z</time>
      </trkpt>
      <trkpt lat="44.55788" lon="0.88345">
        <ele>102</ele>
        <time>2012-11-11T08:31:00Z</time>
      </trkpt>
      <trkpt lat="44.55794" lon="0.88348">
        <ele>103</ele>
        <time>2012-11-11T08:31:02Z</time>
      </trkpt>
      <trkpt lat="44.55799" lon="0.88355">
        <ele>105</ele>
        <time>2012-11-11T08:31:04Z</time>
      </trkpt>
      <trkpt lat="44.55801" lon="0.88361">
        <ele>107</ele>
        <time>2012-11-11T08:31:06Z</time>
      </trkpt>
      <trkpt lat="44.55806" lon="0.88366">
        <ele>108</ele>
        <time>2012-11-11T08:31:08Z</time>
      </trkpt>
      <trkpt lat="44.55815" lon="0.88369">
        <ele>108</ele>
        <time>2012-11-11T08:31:10Z</time>
      </trkpt>
      <trkpt lat="44.55823" lon="0.88371">
        <ele>108</ele>
        <time>2012-11-11T08:31:12Z</time>
      </trkpt>
      <trkpt lat="44.55825" lon="0.8837">
        <ele>108</ele>
        <time>2012-11-11T08:31:17Z</time>
      </trkpt>
      <trkpt lat="44.55826" lon="0.88369">
        <ele>108</ele>
        <time>2012-11-11T08:31:21Z</time>
      </trkpt>
      <trkpt lat="44.55829" lon="0.88367">
        <ele>108</ele>
        <time>2012-11-11T08:31:24Z</time>
      </trkpt>
      <trkpt lat="44.5583" lon="0.88366">
        <ele>108</ele>
        <time>2012-11-11T08:31:27Z</time>
      </trkpt>
      <trkpt lat="44.55829" lon="0.88366">
        <ele>108</ele>
        <time>2012-11-11T08:31:36Z</time>
      </trkpt>
      <trkpt lat="44.55829" lon="0.88367">
        <ele>108</ele>
        <time>2012-11-11T08:31:40Z</time>
      </trkpt>
      <trkpt lat="44.5583" lon="0.88369">
        <ele>108</ele>
        <time>2012-11-11T08:31:46Z</time>
      </trkpt>
      <trkpt lat="44.55831" lon="0.88371">
        <ele>105</ele>
        <time>2012-11-11T08:32:03Z</time>
      </trkpt>
      <trkpt lat="44.55831" lon="0.88372">
        <ele>104</ele>
        <time>2012-11-11T08:32:08Z</time>
      </trkpt>
      <trkpt lat="44.5583" lon="0.88374">
        <ele>104</ele>
        <time>2012-11-11T08:32:12Z</time>
      </trkpt>
      <trkpt lat="44.55829" lon="0.88373">
        <ele>104</ele>
        <time>2012-11-11T08:32:16Z</time>
      </trkpt>
      <trkpt lat="44.55828" lon="0.88372">
        <ele>103</ele>
        <time>2012-11-11T08:32:23Z</time>
      </trkpt>
      <trkpt lat="44.55827" lon="0.88371">
        <ele>100</ele>
        <time>2012-11-11T08:32:26Z</time>
      </trkpt>
      <trkpt lat="44.55828" lon="0.88371">
        <ele>92</ele>
        <time>2012-11-11T08:32:40Z</time>
      </trkpt>
      <trkpt lat="44.55829" lon="0.8837">
        <ele>88</ele>
        <time>2012-11-11T08:32:46Z</time>
      </trkpt>
      <trkpt lat="44.55828" lon="0.88372">
        <ele>86</ele>
        <time>2012-11-11T08:32:57Z</time>
      </trkpt>
      <trkpt lat="44.55827" lon="0.88373">
        <ele>86</ele>
        <time>2012-11-11T08:33:03Z</time>
      </trkpt>
      <trkpt lat="44.55826" lon="0.88375">
        <ele>83</ele>
        <time>2012-11-11T08:33:16Z</time>
      </trkpt>
      <trkpt lat="44.55825" lon="0.88377">
        <ele>85</ele>
        <time>2012-11-11T08:33:20Z</time>
      </trkpt>
      <trkpt lat="44.55826" lon="0.88378">
        <ele>107</ele>
        <time>2012-11-11T08:33:49Z</time>
      </trkpt>
      <trkpt lat="44.55827" lon="0.88376">
        <ele>107</ele>
        <time>2012-11-11T08:33:56Z</time>
      </trkpt>
      <trkpt lat="44.55827" lon="0.88375">
        <ele>107</ele>
        <time>2012-11-11T08:33:58Z</time>
      </trkpt>
      <trkpt lat="44.55826" lon="0.88373">
        <ele>107</ele>
        <time>2012-11-11T08:34:03Z</time>
      </trkpt>
      <trkpt lat="44.55825" lon="0.8837">
        <ele>107</ele>
        <time>2012-11-11T08:34:09Z</time>
      </trkpt>
      <trkpt lat="44.55827" lon="0.88369">
        <ele>108</ele>
        <time>2012-11-11T08:34:14Z</time>
      </trkpt>
      <trkpt lat="44.55828" lon="0.88369">
        <ele>111</ele>
        <time>2012-11-11T08:34:17Z</time>
      </trkpt>
      <trkpt lat="44.55828" lon="0.88367">
        <ele>112</ele>
        <time>2012-11-11T08:34:26Z</time>
      </trkpt>
      <trkpt lat="44.5583" lon="0.88366">
        <ele>112</ele>
        <time>2012-11-11T08:34:33Z</time>
      </trkpt>
      <trkpt lat="44.55835" lon="0.88366">
        <ele>111</ele>
        <time>2012-11-11T08:34:35Z</time>
      </trkpt>
      <trkpt lat="44.5584" lon="0.88364">
        <ele>110</ele>
        <time>2012-11-11T08:34:37Z</time>
      </trkpt>
      <trkpt lat="44.55844" lon="0.88362">
        <ele>110</ele>
        <time>2012-11-11T08:34:39Z</time>
      </trkpt>
      <trkpt lat="44.5585" lon="0.8836">
        <ele>110</ele>
        <time>2012-11-11T08:34:41Z</time>
      </trkpt>
      <trkpt lat="44.55856" lon="0.88359">
        <ele>110</ele>
        <time>2012-11-11T08:34:43Z</time>
      </trkpt>
      <trkpt lat="44.55863" lon="0.8836">
        <ele>110</ele>
        <time>2012-11-11T08:34:45Z</time>
      </trkpt>
      <trkpt lat="44.5587" lon="0.88362">
        <ele>110</ele>
        <time>2012-11-11T08:34:47Z</time>
      </trkpt>
      <trkpt lat="44.55878" lon="0.88366">
        <ele>110</ele>
        <time>2012-11-11T08:34:49Z</time>
      </trkpt>
      <trkpt lat="44.55885" lon="0.88371">
        <ele>110</ele>
        <time>2012-11-11T08:34:51Z</time>
      </trkpt>
      <trkpt lat="44.55892" lon="0.88378">
        <ele>110</ele>
        <time>2012-11-11T08:34:53Z</time>
      </trkpt>
      <trkpt lat="44.559" lon="0.88386">
        <ele>110</ele>
        <time>2012-11-11T08:34:55Z</time>
      </trkpt>
      <trkpt lat="44.55907" lon="0.88394">
        <ele>110</ele>
        <time>2012-11-11T08:34:57Z</time>
      </trkpt>
      <trkpt lat="44.55915" lon="0.88402">
        <ele>111</ele>
        <time>2012-11-11T08:34:59Z</time>
      </trkpt>
      <trkpt lat="44.55922" lon="0.88411">
        <ele>112</ele>
        <time>2012-11-11T08:35:01Z</time>
      </trkpt>
      <trkpt lat="44.55928" lon="0.88419">
        <ele>113</ele>
        <time>2012-11-11T08:35:03Z</time>
      </trkpt>
      <trkpt lat="44.55938" lon="0.88433">
        <ele>114</ele>
        <time>2012-11-11T08:35:05Z</time>
      </trkpt>
      <trkpt lat="44.55945" lon="0.88441">
        <ele>115</ele>
        <time>2012-11-11T08:35:07Z</time>
      </trkpt>
      <trkpt lat="44.55952" lon="0.88452">
        <ele>116</ele>
        <time>2012-11-11T08:35:09Z</time>
      </trkpt>
      <trkpt lat="44.55958" lon="0.88461">
        <ele>116</ele>
        <time>2012-11-11T08:35:11Z</time>
      </trkpt>
      <trkpt lat="44.55964" lon="0.8847">
        <ele>117</ele>
        <time>2012-11-11T08:35:13Z</time>
      </trkpt>
      <trkpt lat="44.5597" lon="0.8848">
        <ele>117</ele>
        <time>2012-11-11T08:35:15Z</time>
      </trkpt>
      <trkpt lat="44.55975" lon="0.8849">
        <ele>118</ele>
        <time>2012-11-11T08:35:17Z</time>
      </trkpt>
      <trkpt lat="44.5598" lon="0.88501">
        <ele>118</ele>
        <time>2012-11-11T08:35:20Z</time>
      </trkpt>
      <trkpt lat="44.55988" lon="0.88517">
        <ele>118</ele>
        <time>2012-11-11T08:35:23Z</time>
      </trkpt>
      <trkpt lat="44.55994" lon="0.88528">
        <ele>118</ele>
        <time>2012-11-11T08:35:25Z</time>
      </trkpt>
      <trkpt lat="44.56002" lon="0.88547">
        <ele>118</ele>
        <time>2012-11-11T08:35:27Z</time>
      </trkpt>
      <trkpt lat="44.56008" lon="0.8856">
        <ele>118</ele>
        <time>2012-11-11T08:35:30Z</time>
      </trkpt>
      <trkpt lat="44.56014" lon="0.88575">
        <ele>118</ele>
        <time>2012-11-11T08:35:32Z</time>
      </trkpt>
      <trkpt lat="44.5602" lon="0.88587">
        <ele>118</ele>
        <time>2012-11-11T08:35:35Z</time>
      </trkpt>
      <trkpt lat="44.56024" lon="0.88598">
        <ele>118</ele>
        <time>2012-11-11T08:35:37Z</time>
      </trkpt>
      <trkpt lat="44.56029" lon="0.88609">
        <ele>118</ele>
        <time>2012-11-11T08:35:39Z</time>
      </trkpt>
      <trkpt lat="44.56034" lon="0.8862">
        <ele>117</ele>
        <time>2012-11-11T08:35:41Z</time>
      </trkpt>
      <trkpt lat="44.56041" lon="0.88636">
        <ele>117</ele>
        <time>2012-11-11T08:35:44Z</time>
      </trkpt>
      <trkpt lat="44.56044" lon="0.88647">
        <ele>116</ele>
        <time>2012-11-11T08:35:46Z</time>
      </trkpt>
      <trkpt lat="44.56048" lon="0.88662">
        <ele>116</ele>
        <time>2012-11-11T08:35:48Z</time>
      </trkpt>
      <trkpt lat="44.56049" lon="0.88672">
        <ele>116</ele>
        <time>2012-11-11T08:35:51Z</time>
      </trkpt>
      <trkpt lat="44.56049" lon="0.88683">
        <ele>116</ele>
        <time>2012-11-11T08:35:53Z</time>
      </trkpt>
      <trkpt lat="44.56048" lon="0.88694">
        <ele>116</ele>
        <time>2012-11-11T08:35:55Z</time>
      </trkpt>
      <trkpt lat="44.56044" lon="0.88706">
        <ele>116</ele>
        <time>2012-11-11T08:35:57Z</time>
      </trkpt>
      <trkpt lat="44.56037" lon="0.88717">
        <ele>116</ele>
        <time>2012-11-11T08:35:59Z</time>
      </trkpt>
      <trkpt lat="44.56031" lon="0.8872">
        <ele>116</ele>
        <time>2012-11-11T08:36:02Z</time>
      </trkpt>
      <trkpt lat="44.56023" lon="0.8873">
        <ele>116</ele>
        <time>2012-11-11T08:36:04Z</time>
      </trkpt>
      <trkpt lat="44.56018" lon="0.8874">
        <ele>116</ele>
        <time>2012-11-11T08:36:07Z</time>
      </trkpt>
      <trkpt lat="44.56012" lon="0.88752">
        <ele>116</ele>
        <time>2012-11-11T08:36:09Z</time>
      </trkpt>
      <trkpt lat="44.56007" lon="0.8876">
        <ele>116</ele>
        <time>2012-11-11T08:36:12Z</time>
      </trkpt>
      <trkpt lat="44.56002" lon="0.88775">
        <ele>116</ele>
        <time>2012-11-11T08:36:14Z</time>
      </trkpt>
      <trkpt lat="44.55999" lon="0.88784">
        <ele>116</ele>
        <time>2012-11-11T08:36:17Z</time>
      </trkpt>
      <trkpt lat="44.55997" lon="0.88791">
        <ele>116</ele>
        <time>2012-11-11T08:36:19Z</time>
      </trkpt>
      <trkpt lat="44.55996" lon="0.88797">
        <ele>116</ele>
        <time>2012-11-11T08:36:21Z</time>
      </trkpt>
      <trkpt lat="44.55993" lon="0.88802">
        <ele>116</ele>
        <time>2012-11-11T08:36:23Z</time>
      </trkpt>
      <trkpt lat="44.5599" lon="0.8881">
        <ele>116</ele>
        <time>2012-11-11T08:36:25Z</time>
      </trkpt>
      <trkpt lat="44.55986" lon="0.88816">
        <ele>114</ele>
        <time>2012-11-11T08:36:28Z</time>
      </trkpt>
      <trkpt lat="44.55984" lon="0.88823">
        <ele>114</ele>
        <time>2012-11-11T08:36:30Z</time>
      </trkpt>
      <trkpt lat="44.55986" lon="0.88834">
        <ele>114</ele>
        <time>2012-11-11T08:36:33Z</time>
      </trkpt>
      <trkpt lat="44.55988" lon="0.88838">
        <ele>114</ele>
        <time>2012-11-11T08:36:35Z</time>
      </trkpt>
      <trkpt lat="44.55993" lon="0.88845">
        <ele>115</ele>
        <time>2012-11-11T08:36:38Z</time>
      </trkpt>
      <trkpt lat="44.55997" lon="0.88851">
        <ele>118</ele>
        <time>2012-11-11T08:36:41Z</time>
      </trkpt>
      <trkpt lat="44.56001" lon="0.88857">
        <ele>120</ele>
        <time>2012-11-11T08:36:43Z</time>
      </trkpt>
      <trkpt lat="44.56005" lon="0.88862">
        <ele>122</ele>
        <time>2012-11-11T08:36:45Z</time>
      </trkpt>
      <trkpt lat="44.5601" lon="0.88869">
        <ele>125</ele>
        <time>2012-11-11T08:36:47Z</time>
      </trkpt>
      <trkpt lat="44.56014" lon="0.88873">
        <ele>127</ele>
        <time>2012-11-11T08:36:50Z</time>
      </trkpt>
      <trkpt lat="44.56019" lon="0.88878">
        <ele>130</ele>
        <time>2012-11-11T08:36:53Z</time>
      </trkpt>
      <trkpt lat="44.56022" lon="0.88881">
        <ele>132</ele>
        <time>2012-11-11T08:36:55Z</time>
      </trkpt>
      <trkpt lat="44.56028" lon="0.88886">
        <ele>135</ele>
        <time>2012-11-11T08:36:58Z</time>
      </trkpt>
      <trkpt lat="44.56033" lon="0.88888">
        <ele>137</ele>
        <time>2012-11-11T08:37:00Z</time>
      </trkpt>
      <trkpt lat="44.56038" lon="0.88892">
        <ele>141</ele>
        <time>2012-11-11T08:37:02Z</time>
      </trkpt>
      <trkpt lat="44.56042" lon="0.88897">
        <ele>147</ele>
        <time>2012-11-11T08:37:05Z</time>
      </trkpt>
      <trkpt lat="44.5605" lon="0.88903">
        <ele>150</ele>
        <time>2012-11-11T08:37:07Z</time>
      </trkpt>
      <trkpt lat="44.56054" lon="0.88907">
        <ele>152</ele>
        <time>2012-11-11T08:37:10Z</time>
      </trkpt>
      <trkpt lat="44.5606" lon="0.88913">
        <ele>155</ele>
        <time>2012-11-11T08:37:13Z</time>
      </trkpt>
      <trkpt lat="44.56064" lon="0.88916">
        <ele>156</ele>
        <time>2012-11-11T08:37:15Z</time>
      </trkpt>
      <trkpt lat="44.56068" lon="0.88919">
        <ele>157</ele>
        <time>2012-11-11T08:37:17Z</time>
      </trkpt>
      <trkpt lat="44.56074" lon="0.88924">
        <ele>158</ele>
        <time>2012-11-11T08:37:19Z</time>
      </trkpt>
      <trkpt lat="44.56078" lon="0.88926">
        <ele>159</ele>
        <time>2012-11-11T08:37:22Z</time>
      </trkpt>
      <trkpt lat="44.56085" lon="0.88932">
        <ele>159</ele>
        <time>2012-11-11T08:37:25Z</time>
      </trkpt>
      <trkpt lat="44.56092" lon="0.88938">
        <ele>159</ele>
        <time>2012-11-11T08:37:28Z</time>
      </trkpt>
      <trkpt lat="44.56098" lon="0.8894">
        <ele>159</ele>
        <time>2012-11-11T08:37:31Z</time>
      </trkpt>
      <trkpt lat="44.56102" lon="0.88944">
        <ele>160</ele>
        <time>2012-11-11T08:37:33Z</time>
      </trkpt>
      <trkpt lat="44.5611" lon="0.88949">
        <ele>161</ele>
        <time>2012-11-11T08:37:35Z</time>
      </trkpt>
      <trkpt lat="44.56115" lon="0.88952">
        <ele>161</ele>
        <time>2012-11-11T08:37:37Z</time>
      </trkpt>
      <trkpt lat="44.56119" lon="0.88956">
        <ele>161</ele>
        <time>2012-11-11T08:37:39Z</time>
      </trkpt>
      <trkpt lat="44.56124" lon="0.88961">
        <ele>161</ele>
        <time>2012-11-11T08:37:41Z</time>
      </trkpt>
      <trkpt lat="44.56129" lon="0.88965">
        <ele>161</ele>
        <time>2012-11-11T08:37:43Z</time>
      </trkpt>
      <trkpt lat="44.56133" lon="0.88971">
        <ele>161</ele>
        <time>2012-11-11T08:37:46Z</time>
      </trkpt>
      <trkpt lat="44.56139" lon="0.8898">
        <ele>161</ele>
        <time>2012-11-11T08:37:49Z</time>
      </trkpt>
      <trkpt lat="44.56144" lon="0.88989">
        <ele>161</ele>
        <time>2012-11-11T08:37:51Z</time>
      </trkpt>
      <trkpt lat="44.56146" lon="0.88994">
        <ele>161</ele>
        <time>2012-11-11T08:37:53Z</time>
      </trkpt>
      <trkpt lat="44.56148" lon="0.89">
        <ele>161</ele>
        <time>2012-11-11T08:37:55Z</time>
      </trkpt>
      <trkpt lat="44.56151" lon="0.89008">
        <ele>161</ele>
        <time>2012-11-11T08:37:57Z</time>
      </trkpt>
      <trkpt lat="44.56153" lon="0.89015">
        <ele>161</ele>
        <time>2012-11-11T08:38:00Z</time>
      </trkpt>
      <trkpt lat="44.56156" lon="0.89024">
        <ele>161</ele>
        <time>2012-11-11T08:38:03Z</time>
      </trkpt>
      <trkpt lat="44.56159" lon="0.89031">
        <ele>161</ele>
        <time>2012-11-11T08:38:05Z</time>
      </trkpt>
      <trkpt lat="44.56164" lon="0.89037">
        <ele>161</ele>
        <time>2012-11-11T08:38:07Z</time>
      </trkpt>
      <trkpt lat="44.56168" lon="0.89038">
        <ele>161</ele>
        <time>2012-11-11T08:38:10Z</time>
      </trkpt>
      <trkpt lat="44.56173" lon="0.8904">
        <ele>161</ele>
        <time>2012-11-11T08:38:12Z</time>
      </trkpt>
      <trkpt lat="44.56177" lon="0.89039">
        <ele>161</ele>
        <time>2012-11-11T08:38:15Z</time>
      </trkpt>
      <trkpt lat="44.56183" lon="0.89038">
        <ele>161</ele>
        <time>2012-11-11T08:38:17Z</time>
      </trkpt>
      <trkpt lat="44.56186" lon="0.89037">
        <ele>161</ele>
        <time>2012-11-11T08:38:20Z</time>
      </trkpt>
      <trkpt lat="44.56189" lon="0.89036">
        <ele>161</ele>
        <time>2012-11-11T08:38:22Z</time>
      </trkpt>
      <trkpt lat="44.56194" lon="0.89035">
        <ele>161</ele>
        <time>2012-11-11T08:38:25Z</time>
      </trkpt>
      <trkpt lat="44.56198" lon="0.89035">
        <ele>161</ele>
        <time>2012-11-11T08:38:29Z</time>
      </trkpt>
      <trkpt lat="44.56197" lon="0.89036">
        <ele>160</ele>
        <time>2012-11-11T08:38:35Z</time>
      </trkpt>
      <trkpt lat="44.56198" lon="0.89036">
        <ele>156</ele>
        <time>2012-11-11T08:38:41Z</time>
      </trkpt>
      <trkpt lat="44.56199" lon="0.89037">
        <ele>151</ele>
        <time>2012-11-11T08:38:47Z</time>
      </trkpt>
      <trkpt lat="44.56199" lon="0.89039">
        <ele>150</ele>
        <time>2012-11-11T08:38:50Z</time>
      </trkpt>
      <trkpt lat="44.56198" lon="0.8904">
        <ele>149</ele>
        <time>2012-11-11T08:38:59Z</time>
      </trkpt>
      <trkpt lat="44.56198" lon="0.89042">
        <ele>148</ele>
        <time>2012-11-11T08:39:01Z</time>
      </trkpt>
      <trkpt lat="44.56197" lon="0.89043">
        <ele>148</ele>
        <time>2012-11-11T08:39:03Z</time>
      </trkpt>
      <trkpt lat="44.56196" lon="0.89043">
        <ele>148</ele>
        <time>2012-11-11T08:39:10Z</time>
      </trkpt>
      <trkpt lat="44.56196" lon="0.89042">
        <ele>148</ele>
        <time>2012-11-11T08:39:18Z</time>
      </trkpt>
      <trkpt lat="44.56195" lon="0.8904">
        <ele>148</ele>
        <time>2012-11-11T08:39:26Z</time>
      </trkpt>
      <trkpt lat="44.56194" lon="0.89039">
        <ele>148</ele>
        <time>2012-11-11T08:39:28Z</time>
      </trkpt>
      <trkpt lat="44.56195" lon="0.89038">
        <ele>143</ele>
        <time>2012-11-11T08:40:05Z</time>
      </trkpt>
      <trkpt lat="44.56195" lon="0.89037">
        <ele>143</ele>
        <time>2012-11-11T08:40:13Z</time>
      </trkpt>
      <trkpt lat="44.56194" lon="0.89035">
        <ele>143</ele>
        <time>2012-11-11T08:40:15Z</time>
      </trkpt>
      <trkpt lat="44.56196" lon="0.89034">
        <ele>143</ele>
        <time>2012-11-11T08:40:20Z</time>
      </trkpt>
      <trkpt lat="44.56197" lon="0.89034">
        <ele>143</ele>
        <time>2012-11-11T08:40:23Z</time>
      </trkpt>
      <trkpt lat="44.56198" lon="0.89034">
        <ele>143</ele>
        <time>2012-11-11T08:40:28Z</time>
      </trkpt>
      <trkpt lat="44.562" lon="0.89034">
        <ele>144</ele>
        <time>2012-11-11T08:40:31Z</time>
      </trkpt>
      <trkpt lat="44.56198" lon="0.89033">
        <ele>144</ele>
        <time>2012-11-11T08:40:40Z</time>
      </trkpt>
      <trkpt lat="44.56198" lon="0.89031">
        <ele>144</ele>
        <time>2012-11-11T08:40:42Z</time>
      </trkpt>
      <trkpt lat="44.562" lon="0.89033">
        <ele>145</ele>
        <time>2012-11-11T08:40:54Z</time>
      </trkpt>
      <trkpt lat="44.56201" lon="0.89033">
        <ele>145</ele>
        <time>2012-11-11T08:41:03Z</time>
      </trkpt>
      <trkpt lat="44.56201" lon="0.89036">
        <ele>145</ele>
        <time>2012-11-11T08:41:05Z</time>
      </trkpt>
      <trkpt lat="44.56204" lon="0.89039">
        <ele>145</ele>
        <time>2012-11-11T08:41:08Z</time>
      </trkpt>
      <trkpt lat="44.56208" lon="0.89044">
        <ele>145</ele>
        <time>2012-11-11T08:41:10Z</time>
      </trkpt>
      <trkpt lat="44.56211" lon="0.89047">
        <ele>145</ele>
        <time>2012-11-11T08:41:13Z</time>
      </trkpt>
      <trkpt lat="44.56217" lon="0.89051">
        <ele>145</ele>
        <time>2012-11-11T08:41:15Z</time>
      </trkpt>
      <trkpt lat="44.56221" lon="0.89052">
        <ele>145</ele>
        <time>2012-11-11T08:41:18Z</time>
      </trkpt>
      <trkpt lat="44.56226" lon="0.89055">
        <ele>145</ele>
        <time>2012-11-11T08:41:20Z</time>
      </trkpt>
      <trkpt lat="44.5623" lon="0.89055">
        <ele>145</ele>
        <time>2012-11-11T08:41:23Z</time>
      </trkpt>
      <trkpt lat="44.56237" lon="0.89058">
        <ele>145</ele>
        <time>2012-11-11T08:41:25Z</time>
      </trkpt>
      <trkpt lat="44.5624" lon="0.8906">
        <ele>145</ele>
        <time>2012-11-11T08:41:28Z</time>
      </trkpt>
      <trkpt lat="44.56246" lon="0.89063">
        <ele>145</ele>
        <time>2012-11-11T08:41:30Z</time>
      </trkpt>
      <trkpt lat="44.56249" lon="0.89064">
        <ele>146</ele>
        <time>2012-11-11T08:41:33Z</time>
      </trkpt>
      <trkpt lat="44.56257" lon="0.89068">
        <ele>147</ele>
        <time>2012-11-11T08:41:35Z</time>
      </trkpt>
      <trkpt lat="44.56264" lon="0.89072">
        <ele>148</ele>
        <time>2012-11-11T08:41:38Z</time>
      </trkpt>
      <trkpt lat="44.56273" lon="0.89076">
        <ele>150</ele>
        <time>2012-11-11T08:41:40Z</time>
      </trkpt>
      <trkpt lat="44.5628" lon="0.89081">
        <ele>150</ele>
        <time>2012-11-11T08:41:43Z</time>
      </trkpt>
      <trkpt lat="44.56285" lon="0.89086">
        <ele>152</ele>
        <time>2012-11-11T08:41:45Z</time>
      </trkpt>
      <trkpt lat="44.56287" lon="0.8909">
        <ele>152</ele>
        <time>2012-11-11T08:41:48Z</time>
      </trkpt>
      <trkpt lat="44.56286" lon="0.89096">
        <ele>152</ele>
        <time>2012-11-11T08:41:50Z</time>
      </trkpt>
      <trkpt lat="44.56285" lon="0.891">
        <ele>152</ele>
        <time>2012-11-11T08:41:53Z</time>
      </trkpt>
      <trkpt lat="44.56284" lon="0.89106">
        <ele>152</ele>
        <time>2012-11-11T08:41:55Z</time>
      </trkpt>
      <trkpt lat="44.56284" lon="0.8911">
        <ele>152</ele>
        <time>2012-11-11T08:41:58Z</time>
      </trkpt>
      <trkpt lat="44.56287" lon="0.89115">
        <ele>154</ele>
        <time>2012-11-11T08:42:00Z</time>
      </trkpt>
      <trkpt lat="44.56291" lon="0.89118">
        <ele>155</ele>
        <time>2012-11-11T08:42:03Z</time>
      </trkpt>
      <trkpt lat="44.56296" lon="0.89124">
        <ele>158</ele>
        <time>2012-11-11T08:42:05Z</time>
      </trkpt>
      <trkpt lat="44.563" lon="0.89128">
        <ele>160</ele>
        <time>2012-11-11T08:42:08Z</time>
      </trkpt>
      <trkpt lat="44.56304" lon="0.89136">
        <ele>161</ele>
        <time>2012-11-11T08:42:10Z</time>
      </trkpt>
      <trkpt lat="44.56306" lon="0.89142">
        <ele>161</ele>
        <time>2012-11-11T08:42:12Z</time>
      </trkpt>
      <trkpt lat="44.56308" lon="0.89146">
        <ele>161</ele>
        <time>2012-11-11T08:42:14Z</time>
      </trkpt>
      <trkpt lat="44.56311" lon="0.89152">
        <ele>162</ele>
        <time>2012-11-11T08:42:16Z</time>
      </trkpt>
      <trkpt lat="44.56314" lon="0.89155">
        <ele>163</ele>
        <time>2012-11-11T08:42:18Z</time>
      </trkpt>
      <trkpt lat="44.56314" lon="0.8916">
        <ele>165</ele>
        <time>2012-11-11T08:42:20Z</time>
      </trkpt>
      <trkpt lat="44.56315" lon="0.89164">
        <ele>166</ele>
        <time>2012-11-11T08:42:22Z</time>
      </trkpt>
      <trkpt lat="44.56316" lon="0.8917">
        <ele>166</ele>
        <time>2012-11-11T08:42:24Z</time>
      </trkpt>
      <trkpt lat="44.56317" lon="0.89174">
        <ele>166</ele>
        <time>2012-11-11T08:42:26Z</time>
      </trkpt>
      <trkpt lat="44.56318" lon="0.89178">
        <ele>166</ele>
        <time>2012-11-11T08:42:28Z</time>
      </trkpt>
      <trkpt lat="44.5632" lon="0.89183">
        <ele>166</ele>
        <time>2012-11-11T08:42:31Z</time>
      </trkpt>
      <trkpt lat="44.56322" lon="0.89187">
        <ele>166</ele>
        <time>2012-11-11T08:42:33Z</time>
      </trkpt>
      <trkpt lat="44.56323" lon="0.89193">
        <ele>166</ele>
        <time>2012-11-11T08:42:35Z</time>
      </trkpt>
      <trkpt lat="44.56326" lon="0.89197">
        <ele>166</ele>
        <time>2012-11-11T08:42:37Z</time>
      </trkpt>
      <trkpt lat="44.56327" lon="0.89201">
        <ele>166</ele>
        <time>2012-11-11T08:42:39Z</time>
      </trkpt>
      <trkpt lat="44.56329" lon="0.89205">
        <ele>166</ele>
        <time>2012-11-11T08:42:41Z</time>
      </trkpt>
      <trkpt lat="44.5633" lon="0.89209">
        <ele>166</ele>
        <time>2012-11-11T08:42:43Z</time>
      </trkpt>
      <trkpt lat="44.56331" lon="0.89212">
        <ele>166</ele>
        <time>2012-11-11T08:42:45Z</time>
      </trkpt>
      <trkpt lat="44.56334" lon="0.89216">
        <ele>166</ele>
        <time>2012-11-11T08:42:47Z</time>
      </trkpt>
      <trkpt lat="44.56335" lon="0.8922">
        <ele>166</ele>
        <time>2012-11-11T08:42:49Z</time>
      </trkpt>
      <trkpt lat="44.56337" lon="0.89225">
        <ele>167</ele>
        <time>2012-11-11T08:42:51Z</time>
      </trkpt>
      <trkpt lat="44.5634" lon="0.89229">
        <ele>167</ele>
        <time>2012-11-11T08:42:53Z</time>
      </trkpt>
      <trkpt lat="44.56343" lon="0.89234">
        <ele>167</ele>
        <time>2012-11-11T08:42:55Z</time>
      </trkpt>
      <trkpt lat="44.56345" lon="0.89239">
        <ele>168</ele>
        <time>2012-11-11T08:42:58Z</time>
      </trkpt>
      <trkpt lat="44.56347" lon="0.89249">
        <ele>170</ele>
        <time>2012-11-11T08:43:00Z</time>
      </trkpt>
      <trkpt lat="44.56348" lon="0.89256">
        <ele>171</ele>
        <time>2012-11-11T08:43:03Z</time>
      </trkpt>
      <trkpt lat="44.56349" lon="0.89265">
        <ele>171</ele>
        <time>2012-11-11T08:43:05Z</time>
      </trkpt>
      <trkpt lat="44.5635" lon="0.89273">
        <ele>171</ele>
        <time>2012-11-11T08:43:07Z</time>
      </trkpt>
      <trkpt lat="44.56352" lon="0.89283">
        <ele>171</ele>
        <time>2012-11-11T08:43:09Z</time>
      </trkpt>
      <trkpt lat="44.56353" lon="0.89291">
        <ele>171</ele>
        <time>2012-11-11T08:43:11Z</time>
      </trkpt>
      <trkpt lat="44.56354" lon="0.89298">
        <ele>171</ele>
        <time>2012-11-11T08:43:13Z</time>
      </trkpt>
      <trkpt lat="44.56356" lon="0.89306">
        <ele>171</ele>
        <time>2012-11-11T08:43:15Z</time>
      </trkpt>
      <trkpt lat="44.56357" lon="0.89313">
        <ele>171</ele>
        <time>2012-11-11T08:43:17Z</time>
      </trkpt>
      <trkpt lat="44.56358" lon="0.8932">
        <ele>171</ele>
        <time>2012-11-11T08:43:19Z</time>
      </trkpt>
      <trkpt lat="44.5636" lon="0.89327">
        <ele>171</ele>
        <time>2012-11-11T08:43:21Z</time>
      </trkpt>
      <trkpt lat="44.56362" lon="0.89333">
        <ele>171</ele>
        <time>2012-11-11T08:43:23Z</time>
      </trkpt>
      <trkpt lat="44.56365" lon="0.8934">
        <ele>171</ele>
        <time>2012-11-11T08:43:25Z</time>
      </trkpt>
      <trkpt lat="44.56369" lon="0.89347">
        <ele>171</ele>
        <time>2012-11-11T08:43:28Z</time>
      </trkpt>
      <trkpt lat="44.56375" lon="0.89357">
        <ele>171</ele>
        <time>2012-11-11T08:43:30Z</time>
      </trkpt>
      <trkpt lat="44.56378" lon="0.89363">
        <ele>173</ele>
        <time>2012-11-11T08:43:33Z</time>
      </trkpt>
      <trkpt lat="44.56381" lon="0.8937">
        <ele>173</ele>
        <time>2012-11-11T08:43:35Z</time>
      </trkpt>
      <trkpt lat="44.56384" lon="0.89376">
        <ele>173</ele>
        <time>2012-11-11T08:43:38Z</time>
      </trkpt>
      <trkpt lat="44.56389" lon="0.89385">
        <ele>173</ele>
        <time>2012-11-11T08:43:40Z</time>
      </trkpt>
      <trkpt lat="44.56392" lon="0.89391">
        <ele>173</ele>
        <time>2012-11-11T08:43:43Z</time>
      </trkpt>
      <trkpt lat="44.56399" lon="0.894">
        <ele>173</ele>
        <time>2012-11-11T08:43:45Z</time>
      </trkpt>
      <trkpt lat="44.56403" lon="0.89405">
        <ele>173</ele>
        <time>2012-11-11T08:43:47Z</time>
      </trkpt>
      <trkpt lat="44.56407" lon="0.89409">
        <ele>173</ele>
        <time>2012-11-11T08:43:49Z</time>
      </trkpt>
      <trkpt lat="44.56411" lon="0.89413">
        <ele>173</ele>
        <time>2012-11-11T08:43:51Z</time>
      </trkpt>
      <trkpt lat="44.56417" lon="0.89415">
        <ele>173</ele>
        <time>2012-11-11T08:43:53Z</time>
      </trkpt>
      <trkpt lat="44.56422" lon="0.89416">
        <ele>173</ele>
        <time>2012-11-11T08:43:55Z</time>
      </trkpt>
      <trkpt lat="44.56427" lon="0.89418">
        <ele>172</ele>
        <time>2012-11-11T08:43:57Z</time>
      </trkpt>
      <trkpt lat="44.5643" lon="0.89419">
        <ele>172</ele>
        <time>2012-11-11T08:44:00Z</time>
      </trkpt>
      <trkpt lat="44.56432" lon="0.89419">
        <ele>172</ele>
        <time>2012-11-11T08:44:03Z</time>
      </trkpt>
      <trkpt lat="44.56433" lon="0.89419">
        <ele>172</ele>
        <time>2012-11-11T08:44:05Z</time>
      </trkpt>
      <trkpt lat="44.56433" lon="0.89418">
        <ele>172</ele>
        <time>2012-11-11T08:44:14Z</time>
      </trkpt>
      <trkpt lat="44.56435" lon="0.89417">
        <ele>172</ele>
        <time>2012-11-11T08:44:22Z</time>
      </trkpt>
      <trkpt lat="44.56433" lon="0.89416">
        <ele>172</ele>
        <time>2012-11-11T08:44:29Z</time>
      </trkpt>
      <trkpt lat="44.56435" lon="0.89417">
        <ele>172</ele>
        <time>2012-11-11T08:44:46Z</time>
      </trkpt>
      <trkpt lat="44.56436" lon="0.89418">
        <ele>172</ele>
        <time>2012-11-11T08:44:52Z</time>
      </trkpt>
      <trkpt lat="44.56437" lon="0.89418">
        <ele>172</ele>
        <time>2012-11-11T08:44:58Z</time>
      </trkpt>
      <trkpt lat="44.56438" lon="0.89418">
        <ele>172</ele>
        <time>2012-11-11T08:45:11Z</time>
      </trkpt>
      <trkpt lat="44.56437" lon="0.89418">
        <ele>172</ele>
        <time>2012-11-11T08:45:17Z</time>
      </trkpt>
      <trkpt lat="44.56435" lon="0.89417">
        <ele>172</ele>
        <time>2012-11-11T08:45:20Z</time>
      </trkpt>
      <trkpt lat="44.56434" lon="0.89417">
        <ele>172</ele>
        <time>2012-11-11T08:45:22Z</time>
      </trkpt>
      <trkpt lat="44.56433" lon="0.89416">
        <ele>173</ele>
        <time>2012-11-11T08:45:24Z</time>
      </trkpt>
      <trkpt lat="44.56432" lon="0.89415">
        <ele>174</ele>
        <time>2012-11-11T08:45:34Z</time>
      </trkpt>
      <trkpt lat="44.56432" lon="0.89413">
        <ele>179</ele>
        <time>2012-11-11T08:45:43Z</time>
      </trkpt>
      <trkpt lat="44.56433" lon="0.89413">
        <ele>181</ele>
        <time>2012-11-11T08:45:49Z</time>
      </trkpt>
      <trkpt lat="44.56434" lon="0.89415">
        <ele>181</ele>
        <time>2012-11-11T08:45:51Z</time>
      </trkpt>
      <trkpt lat="44.56434" lon="0.89416">
        <ele>181</ele>
        <time>2012-11-11T08:45:56Z</time>
      </trkpt>
      <trkpt lat="44.56435" lon="0.89418">
        <ele>181</ele>
        <time>2012-11-11T08:46:00Z</time>
      </trkpt>
      <trkpt lat="44.56436" lon="0.8942">
        <ele>181</ele>
        <time>2012-11-11T08:46:03Z</time>
      </trkpt>
      <trkpt lat="44.56437" lon="0.89421">
        <ele>180</ele>
        <time>2012-11-11T08:46:08Z</time>
      </trkpt>
      <trkpt lat="44.56438" lon="0.89421">
        <ele>180</ele>
        <time>2012-11-11T08:46:19Z</time>
      </trkpt>
      <trkpt lat="44.5644" lon="0.89421">
        <ele>179</ele>
        <time>2012-11-11T08:46:29Z</time>
      </trkpt>
      <trkpt lat="44.56438" lon="0.8942">
        <ele>179</ele>
        <time>2012-11-11T08:46:41Z</time>
      </trkpt>
      <trkpt lat="44.56437" lon="0.89419">
        <ele>179</ele>
        <time>2012-11-11T08:46:44Z</time>
      </trkpt>
      <trkpt lat="44.56435" lon="0.89419">
        <ele>180</ele>
        <time>2012-11-11T08:46:50Z</time>
      </trkpt>
      <trkpt lat="44.56434" lon="0.89418">
        <ele>179</ele>
        <time>2012-11-11T08:47:03Z</time>
      </trkpt>
      <trkpt lat="44.56435" lon="0.89419">
        <ele>177</ele>
        <time>2012-11-11T08:47:11Z</time>
      </trkpt>
      <trkpt lat="44.56437" lon="0.89419">
        <ele>177</ele>
        <time>2012-11-11T08:47:15Z</time>
      </trkpt>
      <trkpt lat="44.56438" lon="0.89419">
        <ele>177</ele>
        <time>2012-11-11T08:47:22Z</time>
      </trkpt>
      <trkpt lat="44.56437" lon="0.89418">
        <ele>177</ele>
        <time>2012-11-11T08:47:34Z</time>
      </trkpt>
      <trkpt lat="44.56438" lon="0.8942">
        <ele>177</ele>
        <time>2012-11-11T08:47:47Z</time>
      </trkpt>
      <trkpt lat="44.56437" lon="0.89421">
        <ele>177</ele>
        <time>2012-11-11T08:47:57Z</time>
      </trkpt>
      <trkpt lat="44.56435" lon="0.89421">
        <ele>177</ele>
        <time>2012-11-11T08:48:00Z</time>
      </trkpt>
      <trkpt lat="44.56437" lon="0.89421">
        <ele>177</ele>
        <time>2012-11-11T08:48:03Z</time>
      </trkpt>
      <trkpt lat="44.56438" lon="0.89421">
        <ele>177</ele>
        <time>2012-11-11T08:48:05Z</time>
      </trkpt>
      <trkpt lat="44.56439" lon="0.89421">
        <ele>177</ele>
        <time>2012-11-11T08:48:13Z</time>
      </trkpt>
      <trkpt lat="44.5644" lon="0.8942">
        <ele>177</ele>
        <time>2012-11-11T08:48:29Z</time>
      </trkpt>
      <trkpt lat="44.5644" lon="0.89418">
        <ele>177</ele>
        <time>2012-11-11T08:48:36Z</time>
      </trkpt>
      <trkpt lat="44.56439" lon="0.89417">
        <ele>177</ele>
        <time>2012-11-11T08:48:41Z</time>
      </trkpt>
      <trkpt lat="44.56438" lon="0.89417">
        <ele>177</ele>
        <time>2012-11-11T08:48:43Z</time>
      </trkpt>
      <trkpt lat="44.56436" lon="0.89417">
        <ele>177</ele>
        <time>2012-11-11T08:48:45Z</time>
      </trkpt>
      <trkpt lat="44.56435" lon="0.89417">
        <ele>177</ele>
        <time>2012-11-11T08:48:47Z</time>
      </trkpt>
      <trkpt lat="44.56433" lon="0.89417">
        <ele>177</ele>
        <time>2012-11-11T08:48:49Z</time>
      </trkpt>
      <trkpt lat="44.56432" lon="0.89417">
        <ele>177</ele>
        <time>2012-11-11T08:48:54Z</time>
      </trkpt>
      <trkpt lat="44.56431" lon="0.89417">
        <ele>177</ele>
        <time>2012-11-11T08:49:01Z</time>
      </trkpt>
      <trkpt lat="44.56432" lon="0.89418">
        <ele>177</ele>
        <time>2012-11-11T08:49:11Z</time>
      </trkpt>
      <trkpt lat="44.56433" lon="0.89419">
        <ele>177</ele>
        <time>2012-11-11T08:49:14Z</time>
      </trkpt>
      <trkpt lat="44.56433" lon="0.89421">
        <ele>177</ele>
        <time>2012-11-11T08:49:21Z</time>
      </trkpt>
      <trkpt lat="44.56435" lon="0.89421">
        <ele>173</ele>
        <time>2012-11-11T08:49:30Z</time>
      </trkpt>
      <trkpt lat="44.56434" lon="0.89423">
        <ele>173</ele>
        <time>2012-11-11T08:49:35Z</time>
      </trkpt>
      <trkpt lat="44.56433" lon="0.89424">
        <ele>173</ele>
        <time>2012-11-11T08:49:41Z</time>
      </trkpt>
      <trkpt lat="44.56432" lon="0.89423">
        <ele>173</ele>
        <time>2012-11-11T08:49:44Z</time>
      </trkpt>
      <trkpt lat="44.5643" lon="0.89424">
        <ele>173</ele>
        <time>2012-11-11T08:49:51Z</time>
      </trkpt>
      <trkpt lat="44.5643" lon="0.89425">
        <ele>175</ele>
        <time>2012-11-11T08:50:02Z</time>
      </trkpt>
      <trkpt lat="44.56431" lon="0.89426">
        <ele>180</ele>
        <time>2012-11-11T08:50:10Z</time>
      </trkpt>
      <trkpt lat="44.5643" lon="0.89426">
        <ele>187</ele>
        <time>2012-11-11T08:50:21Z</time>
      </trkpt>
      <trkpt lat="44.56429" lon="0.89426">
        <ele>186</ele>
        <time>2012-11-11T08:50:33Z</time>
      </trkpt>
      <trkpt lat="44.56431" lon="0.89426">
        <ele>184</ele>
        <time>2012-11-11T08:50:48Z</time>
      </trkpt>
      <trkpt lat="44.56434" lon="0.89425">
        <ele>183</ele>
        <time>2012-11-11T08:50:50Z</time>
      </trkpt>
      <trkpt lat="44.56437" lon="0.89425">
        <ele>181</ele>
        <time>2012-11-11T08:50:52Z</time>
      </trkpt>
      <trkpt lat="44.56442" lon="0.89423">
        <ele>179</ele>
        <time>2012-11-11T08:50:54Z</time>
      </trkpt>
      <trkpt lat="44.56446" lon="0.89421">
        <ele>177</ele>
        <time>2012-11-11T08:50:56Z</time>
      </trkpt>
      <trkpt lat="44.56449" lon="0.89419">
        <ele>175</ele>
        <time>2012-11-11T08:50:58Z</time>
      </trkpt>
      <trkpt lat="44.56454" lon="0.89416">
        <ele>173</ele>
        <time>2012-11-11T08:51:00Z</time>
      </trkpt>
      <trkpt lat="44.56458" lon="0.89414">
        <ele>171</ele>
        <time>2012-11-11T08:51:02Z</time>
      </trkpt>
      <trkpt lat="44.56463" lon="0.89411">
        <ele>169</ele>
        <time>2012-11-11T08:51:04Z</time>
      </trkpt>
      <trkpt lat="44.56467" lon="0.89408">
        <ele>167</ele>
        <time>2012-11-11T08:51:06Z</time>
      </trkpt>
      <trkpt lat="44.56471" lon="0.89407">
        <ele>165</ele>
        <time>2012-11-11T08:51:08Z</time>
      </trkpt>
      <trkpt lat="44.56476" lon="0.89405">
        <ele>163</ele>
        <time>2012-11-11T08:51:10Z</time>
      </trkpt>
      <trkpt lat="44.56479" lon="0.89402">
        <ele>163</ele>
        <time>2012-11-11T08:51:12Z</time>
      </trkpt>
      <trkpt lat="44.56483" lon="0.89398">
        <ele>162</ele>
        <time>2012-11-11T08:51:14Z</time>
      </trkpt>
      <trkpt lat="44.56487" lon="0.89392">
        <ele>162</ele>
        <time>2012-11-11T08:51:16Z</time>
      </trkpt>
      <trkpt lat="44.56491" lon="0.8939">
        <ele>162</ele>
        <time>2012-11-11T08:51:18Z</time>
      </trkpt>
      <trkpt lat="44.56498" lon="0.89386">
        <ele>162</ele>
        <time>2012-11-11T08:51:20Z</time>
      </trkpt>
      <trkpt lat="44.56502" lon="0.89385">
        <ele>162</ele>
        <time>2012-11-11T08:51:22Z</time>
      </trkpt>
      <trkpt lat="44.56508" lon="0.89385">
        <ele>162</ele>
        <time>2012-11-11T08:51:24Z</time>
      </trkpt>
      <trkpt lat="44.56515" lon="0.89384">
        <ele>162</ele>
        <time>2012-11-11T08:51:26Z</time>
      </trkpt>
      <trkpt lat="44.5652" lon="0.89383">
        <ele>162</ele>
        <time>2012-11-11T08:51:28Z</time>
      </trkpt>
      <trkpt lat="44.56528" lon="0.89384">
        <ele>162</ele>
        <time>2012-11-11T08:51:30Z</time>
      </trkpt>
      <trkpt lat="44.56535" lon="0.89388">
        <ele>162</ele>
        <time>2012-11-11T08:51:32Z</time>
      </trkpt>
      <trkpt lat="44.56542" lon="0.89391">
        <ele>162</ele>
        <time>2012-11-11T08:51:34Z</time>
      </trkpt>
      <trkpt lat="44.5655" lon="0.89393">
        <ele>162</ele>
        <time>2012-11-11T08:51:36Z</time>
      </trkpt>
      <trkpt lat="44.56559" lon="0.89394">
        <ele>162</ele>
        <time>2012-11-11T08:51:38Z</time>
      </trkpt>
      <trkpt lat="44.56567" lon="0.89395">
        <ele>162</ele>
        <time>2012-11-11T08:51:40Z</time>
      </trkpt>
      <trkpt lat="44.56576" lon="0.89394">
        <ele>162</ele>
        <time>2012-11-11T08:51:42Z</time>
      </trkpt>
      <trkpt lat="44.56584" lon="0.89394">
        <ele>162</ele>
        <time>2012-11-11T08:51:44Z</time>
      </trkpt>
      <trkpt lat="44.56591" lon="0.89391">
        <ele>162</ele>
        <time>2012-11-11T08:51:46Z</time>
      </trkpt>
      <trkpt lat="44.56596" lon="0.89386">
        <ele>162</ele>
        <time>2012-11-11T08:51:48Z</time>
      </trkpt>
      <trkpt lat="44.56603" lon="0.89382">
        <ele>162</ele>
        <time>2012-11-11T08:51:50Z</time>
      </trkpt>
      <trkpt lat="44.56609" lon="0.8938">
        <ele>160</ele>
        <time>2012-11-11T08:51:52Z</time>
      </trkpt>
      <trkpt lat="44.56616" lon="0.89376">
        <ele>159</ele>
        <time>2012-11-11T08:51:54Z</time>
      </trkpt>
      <trkpt lat="44.56622" lon="0.89374">
        <ele>159</ele>
        <time>2012-11-11T08:51:56Z</time>
      </trkpt>
      <trkpt lat="44.56628" lon="0.89372">
        <ele>159</ele>
        <time>2012-11-11T08:51:58Z</time>
      </trkpt>
      <trkpt lat="44.56635" lon="0.8937">
        <ele>159</ele>
        <time>2012-11-11T08:52:00Z</time>
      </trkpt>
      <trkpt lat="44.56643" lon="0.89368">
        <ele>159</ele>
        <time>2012-11-11T08:52:02Z</time>
      </trkpt>
      <trkpt lat="44.56649" lon="0.89365">
        <ele>159</ele>
        <time>2012-11-11T08:52:04Z</time>
      </trkpt>
      <trkpt lat="44.56657" lon="0.89362">
        <ele>159</ele>
        <time>2012-11-11T08:52:06Z</time>
      </trkpt>
      <trkpt lat="44.56667" lon="0.8936">
        <ele>159</ele>
        <time>2012-11-11T08:52:08Z</time>
      </trkpt>
      <trkpt lat="44.56673" lon="0.8936">
        <ele>159</ele>
        <time>2012-11-11T08:52:10Z</time>
      </trkpt>
      <trkpt lat="44.56681" lon="0.8936">
        <ele>159</ele>
        <time>2012-11-11T08:52:12Z</time>
      </trkpt>
      <trkpt lat="44.56689" lon="0.89358">
        <ele>159</ele>
        <time>2012-11-11T08:52:14Z</time>
      </trkpt>
      <trkpt lat="44.56696" lon="0.89356">
        <ele>159</ele>
        <time>2012-11-11T08:52:16Z</time>
      </trkpt>
      <trkpt lat="44.56703" lon="0.89354">
        <ele>159</ele>
        <time>2012-11-11T08:52:18Z</time>
      </trkpt>
      <trkpt lat="44.5671" lon="0.8935">
        <ele>159</ele>
        <time>2012-11-11T08:52:20Z</time>
      </trkpt>
      <trkpt lat="44.56717" lon="0.89348">
        <ele>159</ele>
        <time>2012-11-11T08:52:22Z</time>
      </trkpt>
      <trkpt lat="44.56724" lon="0.89344">
        <ele>159</ele>
        <time>2012-11-11T08:52:24Z</time>
      </trkpt>
      <trkpt lat="44.5673" lon="0.89338">
        <ele>159</ele>
        <time>2012-11-11T08:52:26Z</time>
      </trkpt>
      <trkpt lat="44.56735" lon="0.89329">
        <ele>159</ele>
        <time>2012-11-11T08:52:28Z</time>
      </trkpt>
      <trkpt lat="44.56741" lon="0.89319">
        <ele>159</ele>
        <time>2012-11-11T08:52:30Z</time>
      </trkpt>
      <trkpt lat="44.56747" lon="0.89312">
        <ele>159</ele>
        <time>2012-11-11T08:52:32Z</time>
      </trkpt>
      <trkpt lat="44.56756" lon="0.89305">
        <ele>159</ele>
        <time>2012-11-11T08:52:34Z</time>
      </trkpt>
      <trkpt lat="44.56764" lon="0.89301">
        <ele>159</ele>
        <time>2012-11-11T08:52:36Z</time>
      </trkpt>
      <trkpt lat="44.56773" lon="0.89298">
        <ele>159</ele>
        <time>2012-11-11T08:52:38Z</time>
      </trkpt>
      <trkpt lat="44.56783" lon="0.89295">
        <ele>159</ele>
        <time>2012-11-11T08:52:40Z</time>
      </trkpt>
      <trkpt lat="44.56791" lon="0.89292">
        <ele>159</ele>
        <time>2012-11-11T08:52:42Z</time>
      </trkpt>
      <trkpt lat="44.568" lon="0.89289">
        <ele>159</ele>
        <time>2012-11-11T08:52:44Z</time>
      </trkpt>
      <trkpt lat="44.56808" lon="0.89287">
        <ele>159</ele>
        <time>2012-11-11T08:52:46Z</time>
      </trkpt>
      <trkpt lat="44.56815" lon="0.89285">
        <ele>160</ele>
        <time>2012-11-11T08:52:48Z</time>
      </trkpt>
      <trkpt lat="44.56823" lon="0.89284">
        <ele>160</ele>
        <time>2012-11-11T08:52:50Z</time>
      </trkpt>
      <trkpt lat="44.56834" lon="0.89284">
        <ele>162</ele>
        <time>2012-11-11T08:52:52Z</time>
      </trkpt>
      <trkpt lat="44.56844" lon="0.89285">
        <ele>162</ele>
        <time>2012-11-11T08:52:54Z</time>
      </trkpt>
      <trkpt lat="44.56851" lon="0.89285">
        <ele>162</ele>
        <time>2012-11-11T08:52:56Z</time>
      </trkpt>
      <trkpt lat="44.56858" lon="0.89285">
        <ele>162</ele>
        <time>2012-11-11T08:52:58Z</time>
      </trkpt>
      <trkpt lat="44.56863" lon="0.89283">
        <ele>162</ele>
        <time>2012-11-11T08:53:00Z</time>
      </trkpt>
      <trkpt lat="44.56869" lon="0.8928">
        <ele>162</ele>
        <time>2012-11-11T08:53:02Z</time>
      </trkpt>
      <trkpt lat="44.56875" lon="0.89275">
        <ele>163</ele>
        <time>2012-11-11T08:53:04Z</time>
      </trkpt>
      <trkpt lat="44.56881" lon="0.8927">
        <ele>163</ele>
        <time>2012-11-11T08:53:06Z</time>
      </trkpt>
      <trkpt lat="44.56889" lon="0.89266">
        <ele>163</ele>
        <time>2012-11-11T08:53:08Z</time>
      </trkpt>
      <trkpt lat="44.56898" lon="0.89261">
        <ele>163</ele>
        <time>2012-11-11T08:53:10Z</time>
      </trkpt>
      <trkpt lat="44.5691" lon="0.89255">
        <ele>163</ele>
        <time>2012-11-11T08:53:12Z</time>
      </trkpt>
      <trkpt lat="44.56923" lon="0.89248">
        <ele>163</ele>
        <time>2012-11-11T08:53:14Z</time>
      </trkpt>
      <trkpt lat="44.56935" lon="0.89241">
        <ele>163</ele>
        <time>2012-11-11T08:53:16Z</time>
      </trkpt>
      <trkpt lat="44.56947" lon="0.89234">
        <ele>163</ele>
        <time>2012-11-11T08:53:18Z</time>
      </trkpt>
      <trkpt lat="44.56959" lon="0.89226">
        <ele>162</ele>
        <time>2012-11-11T08:53:20Z</time>
      </trkpt>
      <trkpt lat="44.56969" lon="0.89219">
        <ele>160</ele>
        <time>2012-11-11T08:53:22Z</time>
      </trkpt>
      <trkpt lat="44.56979" lon="0.89212">
        <ele>158</ele>
        <time>2012-11-11T08:53:24Z</time>
      </trkpt>
      <trkpt lat="44.56988" lon="0.89205">
        <ele>156</ele>
        <time>2012-11-11T08:53:26Z</time>
      </trkpt>
      <trkpt lat="44.56997" lon="0.89196">
        <ele>155</ele>
        <time>2012-11-11T08:53:28Z</time>
      </trkpt>
      <trkpt lat="44.57002" lon="0.89184">
        <ele>154</ele>
        <time>2012-11-11T08:53:30Z</time>
      </trkpt>
      <trkpt lat="44.57002" lon="0.8917">
        <ele>154</ele>
        <time>2012-11-11T08:53:32Z</time>
      </trkpt>
      <trkpt lat="44.56997" lon="0.89158">
        <ele>154</ele>
        <time>2012-11-11T08:53:34Z</time>
      </trkpt>
      <trkpt lat="44.56989" lon="0.89147">
        <ele>154</ele>
        <time>2012-11-11T08:53:36Z</time>
      </trkpt>
      <trkpt lat="44.56981" lon="0.89135">
        <ele>154</ele>
        <time>2012-11-11T08:53:38Z</time>
      </trkpt>
      <trkpt lat="44.56974" lon="0.89121">
        <ele>154</ele>
        <time>2012-11-11T08:53:40Z</time>
      </trkpt>
      <trkpt lat="44.56969" lon="0.89108">
        <ele>154</ele>
        <time>2012-11-11T08:53:42Z</time>
      </trkpt>
      <trkpt lat="44.56964" lon="0.89095">
        <ele>154</ele>
        <time>2012-11-11T08:53:44Z</time>
      </trkpt>
      <trkpt lat="44.56964" lon="0.89084">
        <ele>154</ele>
        <time>2012-11-11T08:53:46Z</time>
      </trkpt>
      <trkpt lat="44.5697" lon="0.89078">
        <ele>154</ele>
        <time>2012-11-11T08:53:48Z</time>
      </trkpt>
      <trkpt lat="44.56977" lon="0.89074">
        <ele>154</ele>
        <time>2012-11-11T08:53:50Z</time>
      </trkpt>
      <trkpt lat="44.56985" lon="0.89069">
        <ele>154</ele>
        <time>2012-11-11T08:53:52Z</time>
      </trkpt>
      <trkpt lat="44.56992" lon="0.89065">
        <ele>154</ele>
        <time>2012-11-11T08:53:54Z</time>
      </trkpt>
      <trkpt lat="44.56999" lon="0.89061">
        <ele>154</ele>
        <time>2012-11-11T08:53:56Z</time>
      </trkpt>
      <trkpt lat="44.57005" lon="0.89056">
        <ele>154</ele>
        <time>2012-11-11T08:53:58Z</time>
      </trkpt>
      <trkpt lat="44.57011" lon="0.89048">
        <ele>154</ele>
        <time>2012-11-11T08:54:00Z</time>
      </trkpt>
      <trkpt lat="44.57015" lon="0.89041">
        <ele>154</ele>
        <time>2012-11-11T08:54:02Z</time>
      </trkpt>
      <trkpt lat="44.57021" lon="0.89034">
        <ele>154</ele>
        <time>2012-11-11T08:54:04Z</time>
      </trkpt>
      <trkpt lat="44.57027" lon="0.89025">
        <ele>154</ele>
        <time>2012-11-11T08:54:06Z</time>
      </trkpt>
      <trkpt lat="44.57033" lon="0.89016">
        <ele>154</ele>
        <time>2012-11-11T08:54:08Z</time>
      </trkpt>
      <trkpt lat="44.57039" lon="0.8901">
        <ele>154</ele>
        <time>2012-11-11T08:54:10Z</time>
      </trkpt>
      <trkpt lat="44.57049" lon="0.89002">
        <ele>154</ele>
        <time>2012-11-11T08:54:12Z</time>
      </trkpt>
      <trkpt lat="44.57055" lon="0.88996">
        <ele>154</ele>
        <time>2012-11-11T08:54:14Z</time>
      </trkpt>
      <trkpt lat="44.57058" lon="0.88988">
        <ele>154</ele>
        <time>2012-11-11T08:54:16Z</time>
      </trkpt>
      <trkpt lat="44.57059" lon="0.8898">
        <ele>154</ele>
        <time>2012-11-11T08:54:18Z</time>
      </trkpt>
      <trkpt lat="44.57063" lon="0.88971">
        <ele>154</ele>
        <time>2012-11-11T08:54:20Z</time>
      </trkpt>
      <trkpt lat="44.57068" lon="0.88962">
        <ele>154</ele>
        <time>2012-11-11T08:54:22Z</time>
      </trkpt>
      <trkpt lat="44.57074" lon="0.88954">
        <ele>154</ele>
        <time>2012-11-11T08:54:24Z</time>
      </trkpt>
      <trkpt lat="44.57079" lon="0.88946">
        <ele>154</ele>
        <time>2012-11-11T08:54:26Z</time>
      </trkpt>
      <trkpt lat="44.57083" lon="0.88938">
        <ele>154</ele>
        <time>2012-11-11T08:54:28Z</time>
      </trkpt>
      <trkpt lat="44.57086" lon="0.88928">
        <ele>154</ele>
        <time>2012-11-11T08:54:30Z</time>
      </trkpt>
      <trkpt lat="44.5709" lon="0.88919">
        <ele>155</ele>
        <time>2012-11-11T08:54:32Z</time>
      </trkpt>
      <trkpt lat="44.57095" lon="0.88907">
        <ele>155</ele>
        <time>2012-11-11T08:54:34Z</time>
      </trkpt>
      <trkpt lat="44.57101" lon="0.88897">
        <ele>156</ele>
        <time>2012-11-11T08:54:36Z</time>
      </trkpt>
      <trkpt lat="44.57106" lon="0.88888">
        <ele>156</ele>
        <time>2012-11-11T08:54:38Z</time>
      </trkpt>
      <trkpt lat="44.57111" lon="0.88882">
        <ele>156</ele>
        <time>2012-11-11T08:54:40Z</time>
      </trkpt>
      <trkpt lat="44.57116" lon="0.88876">
        <ele>157</ele>
        <time>2012-11-11T08:54:42Z</time>
      </trkpt>
      <trkpt lat="44.57121" lon="0.88868">
        <ele>159</ele>
        <time>2012-11-11T08:54:44Z</time>
      </trkpt>
      <trkpt lat="44.57127" lon="0.88858">
        <ele>159</ele>
        <time>2012-11-11T08:54:46Z</time>
      </trkpt>
      <trkpt lat="44.57133" lon="0.88848">
        <ele>160</ele>
        <time>2012-11-11T08:54:48Z</time>
      </trkpt>
      <trkpt lat="44.5714" lon="0.8884">
        <ele>161</ele>
        <time>2012-11-11T08:54:50Z</time>
      </trkpt>
      <trkpt lat="44.57147" lon="0.88828">
        <ele>163</ele>
        <time>2012-11-11T08:54:52Z</time>
      </trkpt>
      <trkpt lat="44.57153" lon="0.88818">
        <ele>165</ele>
        <time>2012-11-11T08:54:54Z</time>
      </trkpt>
      <trkpt lat="44.57159" lon="0.8881">
        <ele>167</ele>
        <time>2012-11-11T08:54:56Z</time>
      </trkpt>
      <trkpt lat="44.57164" lon="0.88805">
        <ele>167</ele>
        <time>2012-11-11T08:54:58Z</time>
      </trkpt>
      <trkpt lat="44.57168" lon="0.88801">
        <ele>167</ele>
        <time>2012-11-11T08:55:00Z</time>
      </trkpt>
      <trkpt lat="44.57172" lon="0.88797">
        <ele>167</ele>
        <time>2012-11-11T08:55:02Z</time>
      </trkpt>
      <trkpt lat="44.57176" lon="0.88793">
        <ele>167</ele>
        <time>2012-11-11T08:55:04Z</time>
      </trkpt>
      <trkpt lat="44.57179" lon="0.88791">
        <ele>168</ele>
        <time>2012-11-11T08:55:06Z</time>
      </trkpt>
      <trkpt lat="44.57182" lon="0.88787">
        <ele>168</ele>
        <time>2012-11-11T08:55:08Z</time>
      </trkpt>
      <trkpt lat="44.57185" lon="0.88784">
        <ele>169</ele>
        <time>2012-11-11T08:55:10Z</time>
      </trkpt>
      <trkpt lat="44.57188" lon="0.8878">
        <ele>170</ele>
        <time>2012-11-11T08:55:12Z</time>
      </trkpt>
      <trkpt lat="44.5719" lon="0.88776">
        <ele>170</ele>
        <time>2012-11-11T08:55:14Z</time>
      </trkpt>
      <trkpt lat="44.57193" lon="0.88771">
        <ele>171</ele>
        <time>2012-11-11T08:55:16Z</time>
      </trkpt>
      <trkpt lat="44.57197" lon="0.88767">
        <ele>171</ele>
        <time>2012-11-11T08:55:18Z</time>
      </trkpt>
      <trkpt lat="44.572" lon="0.88763">
        <ele>171</ele>
        <time>2012-11-11T08:55:20Z</time>
      </trkpt>
      <trkpt lat="44.57203" lon="0.88758">
        <ele>171</ele>
        <time>2012-11-11T08:55:22Z</time>
      </trkpt>
      <trkpt lat="44.57206" lon="0.88754">
        <ele>171</ele>
        <time>2012-11-11T08:55:24Z</time>
      </trkpt>
      <trkpt lat="44.57208" lon="0.88749">
        <ele>171</ele>
        <time>2012-11-11T08:55:26Z</time>
      </trkpt>
      <trkpt lat="44.57211" lon="0.88745">
        <ele>171</ele>
        <time>2012-11-11T08:55:28Z</time>
      </trkpt>
      <trkpt lat="44.57212" lon="0.88742">
        <ele>171</ele>
        <time>2012-11-11T08:55:30Z</time>
      </trkpt>
      <trkpt lat="44.57213" lon="0.88738">
        <ele>171</ele>
        <time>2012-11-11T08:55:32Z</time>
      </trkpt>
      <trkpt lat="44.57214" lon="0.88734">
        <ele>171</ele>
        <time>2012-11-11T08:55:34Z</time>
      </trkpt>
      <trkpt lat="44.57216" lon="0.88731">
        <ele>171</ele>
        <time>2012-11-11T08:55:36Z</time>
      </trkpt>
      <trkpt lat="44.57217" lon="0.88727">
        <ele>171</ele>
        <time>2012-11-11T08:55:38Z</time>
      </trkpt>
      <trkpt lat="44.57218" lon="0.88722">
        <ele>171</ele>
        <time>2012-11-11T08:55:40Z</time>
      </trkpt>
      <trkpt lat="44.57219" lon="0.88718">
        <ele>171</ele>
        <time>2012-11-11T08:55:42Z</time>
      </trkpt>
      <trkpt lat="44.57221" lon="0.88714">
        <ele>171</ele>
        <time>2012-11-11T08:55:44Z</time>
      </trkpt>
      <trkpt lat="44.57223" lon="0.88709">
        <ele>171</ele>
        <time>2012-11-11T08:55:46Z</time>
      </trkpt>
      <trkpt lat="44.57225" lon="0.88705">
        <ele>171</ele>
        <time>2012-11-11T08:55:48Z</time>
      </trkpt>
      <trkpt lat="44.57227" lon="0.88701">
        <ele>171</ele>
        <time>2012-11-11T08:55:50Z</time>
      </trkpt>
      <trkpt lat="44.57229" lon="0.88698">
        <ele>171</ele>
        <time>2012-11-11T08:55:52Z</time>
      </trkpt>
      <trkpt lat="44.57232" lon="0.88696">
        <ele>171</ele>
        <time>2012-11-11T08:55:54Z</time>
      </trkpt>
      <trkpt lat="44.57236" lon="0.88692">
        <ele>171</ele>
        <time>2012-11-11T08:55:56Z</time>
      </trkpt>
      <trkpt lat="44.5724" lon="0.88688">
        <ele>171</ele>
        <time>2012-11-11T08:55:58Z</time>
      </trkpt>
      <trkpt lat="44.57245" lon="0.88685">
        <ele>171</ele>
        <time>2012-11-11T08:56:00Z</time>
      </trkpt>
      <trkpt lat="44.57251" lon="0.88683">
        <ele>171</ele>
        <time>2012-11-11T08:56:02Z</time>
      </trkpt>
      <trkpt lat="44.57257" lon="0.88681">
        <ele>171</ele>
        <time>2012-11-11T08:56:04Z</time>
      </trkpt>
      <trkpt lat="44.57263" lon="0.88679">
        <ele>171</ele>
        <time>2012-11-11T08:56:06Z</time>
      </trkpt>
      <trkpt lat="44.57268" lon="0.88677">
        <ele>171</ele>
        <time>2012-11-11T08:56:08Z</time>
      </trkpt>
      <trkpt lat="44.57275" lon="0.88674">
        <ele>171</ele>
        <time>2012-11-11T08:56:10Z</time>
      </trkpt>
      <trkpt lat="44.57281" lon="0.88673">
        <ele>171</ele>
        <time>2012-11-11T08:56:12Z</time>
      </trkpt>
      <trkpt lat="44.57286" lon="0.88673">
        <ele>172</ele>
        <time>2012-11-11T08:56:14Z</time>
      </trkpt>
      <trkpt lat="44.5729" lon="0.8867">
        <ele>172</ele>
        <time>2012-11-11T08:56:16Z</time>
      </trkpt>
      <trkpt lat="44.57297" lon="0.88668">
        <ele>172</ele>
        <time>2012-11-11T08:56:18Z</time>
      </trkpt>
      <trkpt lat="44.57303" lon="0.88666">
        <ele>172</ele>
        <time>2012-11-11T08:56:20Z</time>
      </trkpt>
      <trkpt lat="44.57309" lon="0.88664">
        <ele>172</ele>
        <time>2012-11-11T08:56:22Z</time>
      </trkpt>
      <trkpt lat="44.57315" lon="0.88661">
        <ele>172</ele>
        <time>2012-11-11T08:56:24Z</time>
      </trkpt>
      <trkpt lat="44.57322" lon="0.88658">
        <ele>172</ele>
        <time>2012-11-11T08:56:26Z</time>
      </trkpt>
      <trkpt lat="44.57328" lon="0.88656">
        <ele>172</ele>
        <time>2012-11-11T08:56:28Z</time>
      </trkpt>
      <trkpt lat="44.57334" lon="0.88653">
        <ele>172</ele>
        <time>2012-11-11T08:56:30Z</time>
      </trkpt>
      <trkpt lat="44.57339" lon="0.88651">
        <ele>172</ele>
        <time>2012-11-11T08:56:32Z</time>
      </trkpt>
      <trkpt lat="44.57345" lon="0.88648">
        <ele>172</ele>
        <time>2012-11-11T08:56:34Z</time>
      </trkpt>
      <trkpt lat="44.5735" lon="0.88645">
        <ele>172</ele>
        <time>2012-11-11T08:56:36Z</time>
      </trkpt>
      <trkpt lat="44.57356" lon="0.88643">
        <ele>172</ele>
        <time>2012-11-11T08:56:38Z</time>
      </trkpt>
      <trkpt lat="44.57361" lon="0.8864">
        <ele>172</ele>
        <time>2012-11-11T08:56:40Z</time>
      </trkpt>
      <trkpt lat="44.57367" lon="0.88637">
        <ele>172</ele>
        <time>2012-11-11T08:56:42Z</time>
      </trkpt>
      <trkpt lat="44.57375" lon="0.88633">
        <ele>172</ele>
        <time>2012-11-11T08:56:44Z</time>
      </trkpt>
      <trkpt lat="44.57383" lon="0.8863">
        <ele>172</ele>
        <time>2012-11-11T08:56:46Z</time>
      </trkpt>
      <trkpt lat="44.57389" lon="0.88627">
        <ele>172</ele>
        <time>2012-11-11T08:56:48Z</time>
      </trkpt>
      <trkpt lat="44.57395" lon="0.88625">
        <ele>172</ele>
        <time>2012-11-11T08:56:50Z</time>
      </trkpt>
      <trkpt lat="44.57399" lon="0.88623">
        <ele>172</ele>
        <time>2012-11-11T08:56:52Z</time>
      </trkpt>
      <trkpt lat="44.57404" lon="0.88621">
        <ele>173</ele>
        <time>2012-11-11T08:56:54Z</time>
      </trkpt>
      <trkpt lat="44.57408" lon="0.88619">
        <ele>175</ele>
        <time>2012-11-11T08:56:56Z</time>
      </trkpt>
      <trkpt lat="44.57413" lon="0.88615">
        <ele>176</ele>
        <time>2012-11-11T08:56:58Z</time>
      </trkpt>
      <trkpt lat="44.57418" lon="0.88611">
        <ele>177</ele>
        <time>2012-11-11T08:57:00Z</time>
      </trkpt>
      <trkpt lat="44.57423" lon="0.88608">
        <ele>177</ele>
        <time>2012-11-11T08:57:02Z</time>
      </trkpt>
      <trkpt lat="44.57428" lon="0.88604">
        <ele>178</ele>
        <time>2012-11-11T08:57:04Z</time>
      </trkpt>
      <trkpt lat="44.57434" lon="0.88601">
        <ele>178</ele>
        <time>2012-11-11T08:57:06Z</time>
      </trkpt>
      <trkpt lat="44.57439" lon="0.88597">
        <ele>179</ele>
        <time>2012-11-11T08:57:08Z</time>
      </trkpt>
      <trkpt lat="44.57445" lon="0.88593">
        <ele>179</ele>
        <time>2012-11-11T08:57:10Z</time>
      </trkpt>
      <trkpt lat="44.5745" lon="0.88589">
        <ele>179</ele>
        <time>2012-11-11T08:57:12Z</time>
      </trkpt>
      <trkpt lat="44.57456" lon="0.88584">
        <ele>180</ele>
        <time>2012-11-11T08:57:14Z</time>
      </trkpt>
      <trkpt lat="44.57461" lon="0.88579">
        <ele>180</ele>
        <time>2012-11-11T08:57:16Z</time>
      </trkpt>
      <trkpt lat="44.57467" lon="0.88574">
        <ele>180</ele>
        <time>2012-11-11T08:57:18Z</time>
      </trkpt>
      <trkpt lat="44.57473" lon="0.8857">
        <ele>180</ele>
        <time>2012-11-11T08:57:20Z</time>
      </trkpt>
      <trkpt lat="44.57479" lon="0.88565">
        <ele>180</ele>
        <time>2012-11-11T08:57:22Z</time>
      </trkpt>
      <trkpt lat="44.57487" lon="0.88563">
        <ele>180</ele>
        <time>2012-11-11T08:57:24Z</time>
      </trkpt>
      <trkpt lat="44.57494" lon="0.8856">
        <ele>180</ele>
        <time>2012-11-11T08:57:26Z</time>
      </trkpt>
      <trkpt lat="44.57501" lon="0.88557">
        <ele>180</ele>
        <time>2012-11-11T08:57:28Z</time>
      </trkpt>
      <trkpt lat="44.57508" lon="0.88554">
        <ele>180</ele>
        <time>2012-11-11T08:57:30Z</time>
      </trkpt>
      <trkpt lat="44.57516" lon="0.88552">
        <ele>180</ele>
        <time>2012-11-11T08:57:32Z</time>
      </trkpt>
      <trkpt lat="44.57523" lon="0.88551">
        <ele>180</ele>
        <time>2012-11-11T08:57:34Z</time>
      </trkpt>
      <trkpt lat="44.57529" lon="0.88551">
        <ele>180</ele>
        <time>2012-11-11T08:57:36Z</time>
      </trkpt>
      <trkpt lat="44.57536" lon="0.88551">
        <ele>180</ele>
        <time>2012-11-11T08:57:38Z</time>
      </trkpt>
      <trkpt lat="44.57542" lon="0.88551">
        <ele>181</ele>
        <time>2012-11-11T08:57:40Z</time>
      </trkpt>
      <trkpt lat="44.57549" lon="0.88553">
        <ele>181</ele>
        <time>2012-11-11T08:57:42Z</time>
      </trkpt>
      <trkpt lat="44.57556" lon="0.88554">
        <ele>182</ele>
        <time>2012-11-11T08:57:44Z</time>
      </trkpt>
      <trkpt lat="44.57563" lon="0.88555">
        <ele>182</ele>
        <time>2012-11-11T08:57:46Z</time>
      </trkpt>
      <trkpt lat="44.57569" lon="0.88555">
        <ele>183</ele>
        <time>2012-11-11T08:57:48Z</time>
      </trkpt>
      <trkpt lat="44.57576" lon="0.88555">
        <ele>184</ele>
        <time>2012-11-11T08:57:50Z</time>
      </trkpt>
      <trkpt lat="44.57584" lon="0.88555">
        <ele>185</ele>
        <time>2012-11-11T08:57:52Z</time>
      </trkpt>
      <trkpt lat="44.57592" lon="0.88555">
        <ele>185</ele>
        <time>2012-11-11T08:57:54Z</time>
      </trkpt>
      <trkpt lat="44.57599" lon="0.88554">
        <ele>185</ele>
        <time>2012-11-11T08:57:56Z</time>
      </trkpt>
      <trkpt lat="44.57607" lon="0.88553">
        <ele>185</ele>
        <time>2012-11-11T08:57:58Z</time>
      </trkpt>
      <trkpt lat="44.57615" lon="0.88551">
        <ele>185</ele>
        <time>2012-11-11T08:58:00Z</time>
      </trkpt>
      <trkpt lat="44.57622" lon="0.8855">
        <ele>185</ele>
        <time>2012-11-11T08:58:02Z</time>
      </trkpt>
      <trkpt lat="44.57629" lon="0.88549">
        <ele>185</ele>
        <time>2012-11-11T08:58:04Z</time>
      </trkpt>
      <trkpt lat="44.57637" lon="0.88548">
        <ele>185</ele>
        <time>2012-11-11T08:58:06Z</time>
      </trkpt>
      <trkpt lat="44.57644" lon="0.88548">
        <ele>185</ele>
        <time>2012-11-11T08:58:08Z</time>
      </trkpt>
      <trkpt lat="44.57652" lon="0.88549">
        <ele>186</ele>
        <time>2012-11-11T08:58:10Z</time>
      </trkpt>
      <trkpt lat="44.5766" lon="0.88549">
        <ele>186</ele>
        <time>2012-11-11T08:58:12Z</time>
      </trkpt>
      <trkpt lat="44.57668" lon="0.8855">
        <ele>186</ele>
        <time>2012-11-11T08:58:14Z</time>
      </trkpt>
      <trkpt lat="44.57675" lon="0.8855">
        <ele>186</ele>
        <time>2012-11-11T08:58:16Z</time>
      </trkpt>
      <trkpt lat="44.57683" lon="0.8855">
        <ele>186</ele>
        <time>2012-11-11T08:58:18Z</time>
      </trkpt>
      <trkpt lat="44.5769" lon="0.88551">
        <ele>186</ele>
        <time>2012-11-11T08:58:20Z</time>
      </trkpt>
      <trkpt lat="44.57697" lon="0.8855">
        <ele>186</ele>
        <time>2012-11-11T08:58:22Z</time>
      </trkpt>
      <trkpt lat="44.57704" lon="0.88548">
        <ele>186</ele>
        <time>2012-11-11T08:58:24Z</time>
      </trkpt>
      <trkpt lat="44.57711" lon="0.88547">
        <ele>186</ele>
        <time>2012-11-11T08:58:26Z</time>
      </trkpt>
      <trkpt lat="44.57718" lon="0.88545">
        <ele>186</ele>
        <time>2012-11-11T08:58:28Z</time>
      </trkpt>
      <trkpt lat="44.57724" lon="0.88542">
        <ele>186</ele>
        <time>2012-11-11T08:58:30Z</time>
      </trkpt>
      <trkpt lat="44.5773" lon="0.88538">
        <ele>186</ele>
        <time>2012-11-11T08:58:32Z</time>
      </trkpt>
      <trkpt lat="44.57736" lon="0.88534">
        <ele>186</ele>
        <time>2012-11-11T08:58:34Z</time>
      </trkpt>
      <trkpt lat="44.57742" lon="0.88532">
        <ele>186</ele>
        <time>2012-11-11T08:58:36Z</time>
      </trkpt>
      <trkpt lat="44.57748" lon="0.88529">
        <ele>186</ele>
        <time>2012-11-11T08:58:38Z</time>
      </trkpt>
      <trkpt lat="44.57755" lon="0.88525">
        <ele>186</ele>
        <time>2012-11-11T08:58:40Z</time>
      </trkpt>
      <trkpt lat="44.57761" lon="0.88522">
        <ele>186</ele>
        <time>2012-11-11T08:58:42Z</time>
      </trkpt>
      <trkpt lat="44.57767" lon="0.88518">
        <ele>187</ele>
        <time>2012-11-11T08:58:44Z</time>
      </trkpt>
      <trkpt lat="44.57772" lon="0.88514">
        <ele>189</ele>
        <time>2012-11-11T08:58:46Z</time>
      </trkpt>
      <trkpt lat="44.57777" lon="0.88511">
        <ele>191</ele>
        <time>2012-11-11T08:58:48Z</time>
      </trkpt>
      <trkpt lat="44.57785" lon="0.88507">
        <ele>192</ele>
        <time>2012-11-11T08:58:50Z</time>
      </trkpt>
      <trkpt lat="44.57792" lon="0.88503">
        <ele>193</ele>
        <time>2012-11-11T08:58:52Z</time>
      </trkpt>
      <trkpt lat="44.57801" lon="0.885">
        <ele>193</ele>
        <time>2012-11-11T08:58:54Z</time>
      </trkpt>
      <trkpt lat="44.5781" lon="0.88497">
        <ele>193</ele>
        <time>2012-11-11T08:58:56Z</time>
      </trkpt>
      <trkpt lat="44.57819" lon="0.88496">
        <ele>193</ele>
        <time>2012-11-11T08:58:58Z</time>
      </trkpt>
      <trkpt lat="44.57829" lon="0.88496">
        <ele>193</ele>
        <time>2012-11-11T08:59:00Z</time>
      </trkpt>
      <trkpt lat="44.57837" lon="0.88493">
        <ele>193</ele>
        <time>2012-11-11T08:59:02Z</time>
      </trkpt>
      <trkpt lat="44.57845" lon="0.88487">
        <ele>193</ele>
        <time>2012-11-11T08:59:04Z</time>
      </trkpt>
      <trkpt lat="44.57852" lon="0.88482">
        <ele>193</ele>
        <time>2012-11-11T08:59:06Z</time>
      </trkpt>
      <trkpt lat="44.57861" lon="0.88477">
        <ele>193</ele>
        <time>2012-11-11T08:59:08Z</time>
      </trkpt>
      <trkpt lat="44.57869" lon="0.88471">
        <ele>193</ele>
        <time>2012-11-11T08:59:10Z</time>
      </trkpt>
      <trkpt lat="44.57877" lon="0.88466">
        <ele>193</ele>
        <time>2012-11-11T08:59:12Z</time>
      </trkpt>
      <trkpt lat="44.57885" lon="0.88461">
        <ele>193</ele>
        <time>2012-11-11T08:59:14Z</time>
      </trkpt>
      <trkpt lat="44.57892" lon="0.88455">
        <ele>193</ele>
        <time>2012-11-11T08:59:16Z</time>
      </trkpt>
      <trkpt lat="44.57899" lon="0.8845">
        <ele>193</ele>
        <time>2012-11-11T08:59:18Z</time>
      </trkpt>
      <trkpt lat="44.57906" lon="0.88445">
        <ele>193</ele>
        <time>2012-11-11T08:59:20Z</time>
      </trkpt>
      <trkpt lat="44.57914" lon="0.88438">
        <ele>192</ele>
        <time>2012-11-11T08:59:22Z</time>
      </trkpt>
      <trkpt lat="44.57921" lon="0.88432">
        <ele>192</ele>
        <time>2012-11-11T08:59:24Z</time>
      </trkpt>
      <trkpt lat="44.57928" lon="0.88425">
        <ele>191</ele>
        <time>2012-11-11T08:59:26Z</time>
      </trkpt>
      <trkpt lat="44.57935" lon="0.88419">
        <ele>191</ele>
        <time>2012-11-11T08:59:28Z</time>
      </trkpt>
      <trkpt lat="44.5794" lon="0.88415">
        <ele>191</ele>
        <time>2012-11-11T08:59:30Z</time>
      </trkpt>
      <trkpt lat="44.57945" lon="0.88414">
        <ele>191</ele>
        <time>2012-11-11T08:59:32Z</time>
      </trkpt>
      <trkpt lat="44.57948" lon="0.88412">
        <ele>190</ele>
        <time>2012-11-11T08:59:35Z</time>
      </trkpt>
      <trkpt lat="44.57949" lon="0.88412">
        <ele>190</ele>
        <time>2012-11-11T08:59:41Z</time>
      </trkpt>
      <trkpt lat="44.57951" lon="0.88411">
        <ele>190</ele>
        <time>2012-11-11T08:59:43Z</time>
      </trkpt>
      <trkpt lat="44.57953" lon="0.8841">
        <ele>190</ele>
        <time>2012-11-11T08:59:45Z</time>
      </trkpt>
      <trkpt lat="44.57954" lon="0.8841">
        <ele>190</ele>
        <time>2012-11-11T08:59:47Z</time>
      </trkpt>
      <trkpt lat="44.57956" lon="0.8841">
        <ele>190</ele>
        <time>2012-11-11T08:59:49Z</time>
      </trkpt>
      <trkpt lat="44.57958" lon="0.88409">
        <ele>190</ele>
        <time>2012-11-11T08:59:51Z</time>
      </trkpt>
      <trkpt lat="44.57961" lon="0.88407">
        <ele>190</ele>
        <time>2012-11-11T08:59:53Z</time>
      </trkpt>
      <trkpt lat="44.57964" lon="0.88406">
        <ele>190</ele>
        <time>2012-11-11T08:59:55Z</time>
      </trkpt>
      <trkpt lat="44.57969" lon="0.88403">
        <ele>190</ele>
        <time>2012-11-11T08:59:57Z</time>
      </trkpt>
      <trkpt lat="44.57975" lon="0.88401">
        <ele>190</ele>
        <time>2012-11-11T08:59:59Z</time>
      </trkpt>
      <trkpt lat="44.57981" lon="0.88398">
        <ele>190</ele>
        <time>2012-11-11T09:00:01Z</time>
      </trkpt>
      <trkpt lat="44.57987" lon="0.88394">
        <ele>190</ele>
        <time>2012-11-11T09:00:03Z</time>
      </trkpt>
      <trkpt lat="44.57993" lon="0.8839">
        <ele>190</ele>
        <time>2012-11-11T09:00:05Z</time>
      </trkpt>
      <trkpt lat="44.58" lon="0.88386">
        <ele>190</ele>
        <time>2012-11-11T09:00:07Z</time>
      </trkpt>
      <trkpt lat="44.58009" lon="0.88382">
        <ele>190</ele>
        <time>2012-11-11T09:00:09Z</time>
      </trkpt>
      <trkpt lat="44.58017" lon="0.88378">
        <ele>190</ele>
        <time>2012-11-11T09:00:11Z</time>
      </trkpt>
      <trkpt lat="44.58024" lon="0.88373">
        <ele>189</ele>
        <time>2012-11-11T09:00:13Z</time>
      </trkpt>
      <trkpt lat="44.58033" lon="0.88368">
        <ele>189</ele>
        <time>2012-11-11T09:00:15Z</time>
      </trkpt>
      <trkpt lat="44.58041" lon="0.88363">
        <ele>188</ele>
        <time>2012-11-11T09:00:17Z</time>
      </trkpt>
      <trkpt lat="44.58051" lon="0.88358">
        <ele>188</ele>
        <time>2012-11-11T09:00:19Z</time>
      </trkpt>
      <trkpt lat="44.58062" lon="0.88351">
        <ele>187</ele>
        <time>2012-11-11T09:00:21Z</time>
      </trkpt>
      <trkpt lat="44.58075" lon="0.88344">
        <ele>186</ele>
        <time>2012-11-11T09:00:23Z</time>
      </trkpt>
      <trkpt lat="44.58088" lon="0.88336">
        <ele>184</ele>
        <time>2012-11-11T09:00:25Z</time>
      </trkpt>
      <trkpt lat="44.58098" lon="0.88331">
        <ele>182</ele>
        <time>2012-11-11T09:00:27Z</time>
      </trkpt>
      <trkpt lat="44.58104" lon="0.88327">
        <ele>181</ele>
        <time>2012-11-11T09:00:29Z</time>
      </trkpt>
      <trkpt lat="44.58107" lon="0.88325">
        <ele>180</ele>
        <time>2012-11-11T09:00:32Z</time>
      </trkpt>
      <trkpt lat="44.5811" lon="0.88323">
        <ele>180</ele>
        <time>2012-11-11T09:00:35Z</time>
      </trkpt>
      <trkpt lat="44.58113" lon="0.88321">
        <ele>180</ele>
        <time>2012-11-11T09:00:37Z</time>
      </trkpt>
      <trkpt lat="44.58116" lon="0.88317">
        <ele>180</ele>
        <time>2012-11-11T09:00:39Z</time>
      </trkpt>
      <trkpt lat="44.58117" lon="0.88315">
        <ele>180</ele>
        <time>2012-11-11T09:00:42Z</time>
      </trkpt>
      <trkpt lat="44.58118" lon="0.88313">
        <ele>180</ele>
        <time>2012-11-11T09:00:44Z</time>
      </trkpt>
      <trkpt lat="44.58119" lon="0.8831">
        <ele>180</ele>
        <time>2012-11-11T09:00:47Z</time>
      </trkpt>
      <trkpt lat="44.58122" lon="0.88306">
        <ele>181</ele>
        <time>2012-11-11T09:00:49Z</time>
      </trkpt>
      <trkpt lat="44.58128" lon="0.88301">
        <ele>181</ele>
        <time>2012-11-11T09:00:51Z</time>
      </trkpt>
      <trkpt lat="44.58139" lon="0.88292">
        <ele>181</ele>
        <time>2012-11-11T09:00:53Z</time>
      </trkpt>
      <trkpt lat="44.58151" lon="0.8828">
        <ele>181</ele>
        <time>2012-11-11T09:00:55Z</time>
      </trkpt>
      <trkpt lat="44.58161" lon="0.88267">
        <ele>181</ele>
        <time>2012-11-11T09:00:57Z</time>
      </trkpt>
      <trkpt lat="44.58171" lon="0.88256">
        <ele>181</ele>
        <time>2012-11-11T09:00:59Z</time>
      </trkpt>
      <trkpt lat="44.58179" lon="0.88252">
        <ele>181</ele>
        <time>2012-11-11T09:01:01Z</time>
      </trkpt>
      <trkpt lat="44.58186" lon="0.88254">
        <ele>181</ele>
        <time>2012-11-11T09:01:03Z</time>
      </trkpt>
      <trkpt lat="44.58194" lon="0.88251">
        <ele>181</ele>
        <time>2012-11-11T09:01:05Z</time>
      </trkpt>
      <trkpt lat="44.58198" lon="0.88248">
        <ele>181</ele>
        <time>2012-11-11T09:01:07Z</time>
      </trkpt>
      <trkpt lat="44.58203" lon="0.88245">
        <ele>181</ele>
        <time>2012-11-11T09:01:09Z</time>
      </trkpt>
      <trkpt lat="44.58208" lon="0.88241">
        <ele>181</ele>
        <time>2012-11-11T09:01:11Z</time>
      </trkpt>
      <trkpt lat="44.58215" lon="0.88236">
        <ele>181</ele>
        <time>2012-11-11T09:01:13Z</time>
      </trkpt>
      <trkpt lat="44.58222" lon="0.88232">
        <ele>181</ele>
        <time>2012-11-11T09:01:15Z</time>
      </trkpt>
      <trkpt lat="44.58231" lon="0.88226">
        <ele>181</ele>
        <time>2012-11-11T09:01:17Z</time>
      </trkpt>
      <trkpt lat="44.58241" lon="0.88222">
        <ele>180</ele>
        <time>2012-11-11T09:01:19Z</time>
      </trkpt>
      <trkpt lat="44.58251" lon="0.88219">
        <ele>178</ele>
        <time>2012-11-11T09:01:21Z</time>
      </trkpt>
      <trkpt lat="44.58261" lon="0.88215">
        <ele>176</ele>
        <time>2012-11-11T09:01:23Z</time>
      </trkpt>
      <trkpt lat="44.58271" lon="0.88213">
        <ele>174</ele>
        <time>2012-11-11T09:01:25Z</time>
      </trkpt>
      <trkpt lat="44.58281" lon="0.88211">
        <ele>172</ele>
        <time>2012-11-11T09:01:27Z</time>
      </trkpt>
      <trkpt lat="44.58291" lon="0.88211">
        <ele>170</ele>
        <time>2012-11-11T09:01:29Z</time>
      </trkpt>
      <trkpt lat="44.583" lon="0.88209">
        <ele>168</ele>
        <time>2012-11-11T09:01:31Z</time>
      </trkpt>
      <trkpt lat="44.58311" lon="0.88204">
        <ele>166</ele>
        <time>2012-11-11T09:01:33Z</time>
      </trkpt>
      <trkpt lat="44.58325" lon="0.88199">
        <ele>164</ele>
        <time>2012-11-11T09:01:35Z</time>
      </trkpt>
      <trkpt lat="44.58336" lon="0.88193">
        <ele>162</ele>
        <time>2012-11-11T09:01:37Z</time>
      </trkpt>
      <trkpt lat="44.58347" lon="0.88187">
        <ele>162</ele>
        <time>2012-11-11T09:01:39Z</time>
      </trkpt>
      <trkpt lat="44.58358" lon="0.88184">
        <ele>162</ele>
        <time>2012-11-11T09:01:41Z</time>
      </trkpt>
      <trkpt lat="44.58369" lon="0.88182">
        <ele>161</ele>
        <time>2012-11-11T09:01:43Z</time>
      </trkpt>
      <trkpt lat="44.58378" lon="0.88177">
        <ele>160</ele>
        <time>2012-11-11T09:01:45Z</time>
      </trkpt>
      <trkpt lat="44.58385" lon="0.88172">
        <ele>159</ele>
        <time>2012-11-11T09:01:47Z</time>
      </trkpt>
      <trkpt lat="44.58396" lon="0.88168">
        <ele>157</ele>
        <time>2012-11-11T09:01:49Z</time>
      </trkpt>
      <trkpt lat="44.58407" lon="0.88165">
        <ele>155</ele>
        <time>2012-11-11T09:01:51Z</time>
      </trkpt>
      <trkpt lat="44.58418" lon="0.88161">
        <ele>153</ele>
        <time>2012-11-11T09:01:53Z</time>
      </trkpt>
      <trkpt lat="44.58429" lon="0.88157">
        <ele>152</ele>
        <time>2012-11-11T09:01:55Z</time>
      </trkpt>
      <trkpt lat="44.58439" lon="0.88151">
        <ele>151</ele>
        <time>2012-11-11T09:01:57Z</time>
      </trkpt>
      <trkpt lat="44.58448" lon="0.88146">
        <ele>150</ele>
        <time>2012-11-11T09:01:59Z</time>
      </trkpt>
      <trkpt lat="44.58457" lon="0.88141">
        <ele>149</ele>
        <time>2012-11-11T09:02:01Z</time>
      </trkpt>
      <trkpt lat="44.58467" lon="0.88136">
        <ele>148</ele>
        <time>2012-11-11T09:02:03Z</time>
      </trkpt>
      <trkpt lat="44.58477" lon="0.88134">
        <ele>148</ele>
        <time>2012-11-11T09:02:05Z</time>
      </trkpt>
      <trkpt lat="44.58489" lon="0.8813">
        <ele>148</ele>
        <time>2012-11-11T09:02:07Z</time>
      </trkpt>
      <trkpt lat="44.585" lon="0.88126">
        <ele>147</ele>
        <time>2012-11-11T09:02:09Z</time>
      </trkpt>
      <trkpt lat="44.58512" lon="0.88122">
        <ele>146</ele>
        <time>2012-11-11T09:02:11Z</time>
      </trkpt>
      <trkpt lat="44.58523" lon="0.88119">
        <ele>146</ele>
        <time>2012-11-11T09:02:13Z</time>
      </trkpt>
      <trkpt lat="44.58535" lon="0.88114">
        <ele>145</ele>
        <time>2012-11-11T09:02:15Z</time>
      </trkpt>
      <trkpt lat="44.58546" lon="0.88105">
        <ele>145</ele>
        <time>2012-11-11T09:02:17Z</time>
      </trkpt>
      <trkpt lat="44.58554" lon="0.88092">
        <ele>145</ele>
        <time>2012-11-11T09:02:19Z</time>
      </trkpt>
      <trkpt lat="44.58559" lon="0.88082">
        <ele>145</ele>
        <time>2012-11-11T09:02:21Z</time>
      </trkpt>
      <trkpt lat="44.58566" lon="0.88074">
        <ele>145</ele>
        <time>2012-11-11T09:02:23Z</time>
      </trkpt>
      <trkpt lat="44.58574" lon="0.8807">
        <ele>145</ele>
        <time>2012-11-11T09:02:25Z</time>
      </trkpt>
      <trkpt lat="44.58584" lon="0.88072">
        <ele>145</ele>
        <time>2012-11-11T09:02:27Z</time>
      </trkpt>
      <trkpt lat="44.58596" lon="0.88077">
        <ele>145</ele>
        <time>2012-11-11T09:02:29Z</time>
      </trkpt>
      <trkpt lat="44.58607" lon="0.88085">
        <ele>146</ele>
        <time>2012-11-11T09:02:31Z</time>
      </trkpt>
      <trkpt lat="44.5862" lon="0.88091">
        <ele>146</ele>
        <time>2012-11-11T09:02:33Z</time>
      </trkpt>
      <trkpt lat="44.58633" lon="0.88098">
        <ele>147</ele>
        <time>2012-11-11T09:02:35Z</time>
      </trkpt>
      <trkpt lat="44.58647" lon="0.88104">
        <ele>147</ele>
        <time>2012-11-11T09:02:37Z</time>
      </trkpt>
      <trkpt lat="44.58664" lon="0.88106">
        <ele>148</ele>
        <time>2012-11-11T09:02:39Z</time>
      </trkpt>
      <trkpt lat="44.58682" lon="0.88104">
        <ele>149</ele>
        <time>2012-11-11T09:02:41Z</time>
      </trkpt>
      <trkpt lat="44.58696" lon="0.88103">
        <ele>150</ele>
        <time>2012-11-11T09:02:43Z</time>
      </trkpt>
      <trkpt lat="44.5871" lon="0.88102">
        <ele>150</ele>
        <time>2012-11-11T09:02:45Z</time>
      </trkpt>
      <trkpt lat="44.58724" lon="0.88099">
        <ele>150</ele>
        <time>2012-11-11T09:02:47Z</time>
      </trkpt>
      <trkpt lat="44.58736" lon="0.8809">
        <ele>150</ele>
        <time>2012-11-11T09:02:49Z</time>
      </trkpt>
      <trkpt lat="44.58747" lon="0.88081">
        <ele>150</ele>
        <time>2012-11-11T09:02:51Z</time>
      </trkpt>
      <trkpt lat="44.58758" lon="0.88074">
        <ele>150</ele>
        <time>2012-11-11T09:02:53Z</time>
      </trkpt>
      <trkpt lat="44.5877" lon="0.88078">
        <ele>150</ele>
        <time>2012-11-11T09:02:55Z</time>
      </trkpt>
      <trkpt lat="44.58779" lon="0.88081">
        <ele>148</ele>
        <time>2012-11-11T09:02:57Z</time>
      </trkpt>
      <trkpt lat="44.58787" lon="0.88083">
        <ele>146</ele>
        <time>2012-11-11T09:02:59Z</time>
      </trkpt>
      <trkpt lat="44.58791" lon="0.88086">
        <ele>145</ele>
        <time>2012-11-11T09:03:01Z</time>
      </trkpt>
      <trkpt lat="44.58797" lon="0.88089">
        <ele>145</ele>
        <time>2012-11-11T09:03:03Z</time>
      </trkpt>
      <trkpt lat="44.58802" lon="0.88094">
        <ele>145</ele>
        <time>2012-11-11T09:03:05Z</time>
      </trkpt>
      <trkpt lat="44.58809" lon="0.88099">
        <ele>145</ele>
        <time>2012-11-11T09:03:07Z</time>
      </trkpt>
      <trkpt lat="44.58813" lon="0.88101">
        <ele>145</ele>
        <time>2012-11-11T09:03:09Z</time>
      </trkpt>
      <trkpt lat="44.58817" lon="0.88102">
        <ele>144</ele>
        <time>2012-11-11T09:03:11Z</time>
      </trkpt>
      <trkpt lat="44.58821" lon="0.88102">
        <ele>142</ele>
        <time>2012-11-11T09:03:13Z</time>
      </trkpt>
      <trkpt lat="44.58825" lon="0.88102">
        <ele>141</ele>
        <time>2012-11-11T09:03:15Z</time>
      </trkpt>
      <trkpt lat="44.58827" lon="0.88102">
        <ele>141</ele>
        <time>2012-11-11T09:03:17Z</time>
      </trkpt>
      <trkpt lat="44.58826" lon="0.88101">
        <ele>141</ele>
        <time>2012-11-11T09:03:32Z</time>
      </trkpt>
      <trkpt lat="44.58827" lon="0.881">
        <ele>141</ele>
        <time>2012-11-11T09:03:47Z</time>
      </trkpt>
      <trkpt lat="44.5883" lon="0.88101">
        <ele>141</ele>
        <time>2012-11-11T09:03:49Z</time>
      </trkpt>
      <trkpt lat="44.58835" lon="0.88102">
        <ele>141</ele>
        <time>2012-11-11T09:03:51Z</time>
      </trkpt>
      <trkpt lat="44.58841" lon="0.88102">
        <ele>141</ele>
        <time>2012-11-11T09:03:53Z</time>
      </trkpt>
      <trkpt lat="44.58847" lon="0.88102">
        <ele>141</ele>
        <time>2012-11-11T09:03:55Z</time>
      </trkpt>
      <trkpt lat="44.58851" lon="0.88101">
        <ele>140</ele>
        <time>2012-11-11T09:03:57Z</time>
      </trkpt>
      <trkpt lat="44.58852" lon="0.88101">
        <ele>139</ele>
        <time>2012-11-11T09:04:01Z</time>
      </trkpt>
      <trkpt lat="44.58852" lon="0.88103">
        <ele>138</ele>
        <time>2012-11-11T09:04:21Z</time>
      </trkpt>
      <trkpt lat="44.58851" lon="0.88103">
        <ele>138</ele>
        <time>2012-11-11T09:04:27Z</time>
      </trkpt>
      <trkpt lat="44.5885" lon="0.88104">
        <ele>138</ele>
        <time>2012-11-11T09:04:41Z</time>
      </trkpt>
      <trkpt lat="44.58849" lon="0.88104">
        <ele>137</ele>
        <time>2012-11-11T09:04:48Z</time>
      </trkpt>
      <trkpt lat="44.58851" lon="0.88103">
        <ele>136</ele>
        <time>2012-11-11T09:04:57Z</time>
      </trkpt>
      <trkpt lat="44.58854" lon="0.881">
        <ele>136</ele>
        <time>2012-11-11T09:04:59Z</time>
      </trkpt>
      <trkpt lat="44.58856" lon="0.88098">
        <ele>136</ele>
        <time>2012-11-11T09:05:01Z</time>
      </trkpt>
      <trkpt lat="44.58858" lon="0.88096">
        <ele>136</ele>
        <time>2012-11-11T09:05:03Z</time>
      </trkpt>
      <trkpt lat="44.5886" lon="0.88094">
        <ele>136</ele>
        <time>2012-11-11T09:05:05Z</time>
      </trkpt>
      <trkpt lat="44.58863" lon="0.88092">
        <ele>136</ele>
        <time>2012-11-11T09:05:07Z</time>
      </trkpt>
      <trkpt lat="44.58867" lon="0.8809">
        <ele>136</ele>
        <time>2012-11-11T09:05:09Z</time>
      </trkpt>
      <trkpt lat="44.58871" lon="0.88087">
        <ele>136</ele>
        <time>2012-11-11T09:05:11Z</time>
      </trkpt>
      <trkpt lat="44.58875" lon="0.88085">
        <ele>136</ele>
        <time>2012-11-11T09:05:13Z</time>
      </trkpt>
      <trkpt lat="44.58879" lon="0.88083">
        <ele>136</ele>
        <time>2012-11-11T09:05:15Z</time>
      </trkpt>
      <trkpt lat="44.58883" lon="0.88079">
        <ele>135</ele>
        <time>2012-11-11T09:05:17Z</time>
      </trkpt>
      <trkpt lat="44.58886" lon="0.88076">
        <ele>135</ele>
        <time>2012-11-11T09:05:19Z</time>
      </trkpt>
      <trkpt lat="44.5889" lon="0.88073">
        <ele>134</ele>
        <time>2012-11-11T09:05:21Z</time>
      </trkpt>
      <trkpt lat="44.58894" lon="0.8807">
        <ele>134</ele>
        <time>2012-11-11T09:05:23Z</time>
      </trkpt>
      <trkpt lat="44.58899" lon="0.88069">
        <ele>134</ele>
        <time>2012-11-11T09:05:25Z</time>
      </trkpt>
      <trkpt lat="44.58904" lon="0.8807">
        <ele>134</ele>
        <time>2012-11-11T09:05:27Z</time>
      </trkpt>
      <trkpt lat="44.58907" lon="0.88074">
        <ele>134</ele>
        <time>2012-11-11T09:05:29Z</time>
      </trkpt>
      <trkpt lat="44.58912" lon="0.88079">
        <ele>134</ele>
        <time>2012-11-11T09:05:31Z</time>
      </trkpt>
      <trkpt lat="44.58916" lon="0.88084">
        <ele>134</ele>
        <time>2012-11-11T09:05:33Z</time>
      </trkpt>
      <trkpt lat="44.58919" lon="0.88089">
        <ele>135</ele>
        <time>2012-11-11T09:05:35Z</time>
      </trkpt>
      <trkpt lat="44.58923" lon="0.88094">
        <ele>136</ele>
        <time>2012-11-11T09:05:37Z</time>
      </trkpt>
      <trkpt lat="44.58926" lon="0.881">
        <ele>137</ele>
        <time>2012-11-11T09:05:39Z</time>
      </trkpt>
      <trkpt lat="44.58932" lon="0.88104">
        <ele>138</ele>
        <time>2012-11-11T09:05:41Z</time>
      </trkpt>
      <trkpt lat="44.58936" lon="0.88109">
        <ele>138</ele>
        <time>2012-11-11T09:05:43Z</time>
      </trkpt>
      <trkpt lat="44.5894" lon="0.88115">
        <ele>138</ele>
        <time>2012-11-11T09:05:45Z</time>
      </trkpt>
      <trkpt lat="44.58944" lon="0.88119">
        <ele>138</ele>
        <time>2012-11-11T09:05:47Z</time>
      </trkpt>
      <trkpt lat="44.58947" lon="0.88124">
        <ele>138</ele>
        <time>2012-11-11T09:05:49Z</time>
      </trkpt>
      <trkpt lat="44.58951" lon="0.8813">
        <ele>138</ele>
        <time>2012-11-11T09:05:51Z</time>
      </trkpt>
      <trkpt lat="44.58954" lon="0.88135">
        <ele>140</ele>
        <time>2012-11-11T09:05:53Z</time>
      </trkpt>
      <trkpt lat="44.58957" lon="0.88141">
        <ele>141</ele>
        <time>2012-11-11T09:05:55Z</time>
      </trkpt>
      <trkpt lat="44.5896" lon="0.88146">
        <ele>143</ele>
        <time>2012-11-11T09:05:57Z</time>
      </trkpt>
      <trkpt lat="44.58964" lon="0.88149">
        <ele>145</ele>
        <time>2012-11-11T09:05:59Z</time>
      </trkpt>
      <trkpt lat="44.58969" lon="0.88153">
        <ele>146</ele>
        <time>2012-11-11T09:06:01Z</time>
      </trkpt>
      <trkpt lat="44.58973" lon="0.88157">
        <ele>147</ele>
        <time>2012-11-11T09:06:03Z</time>
      </trkpt>
      <trkpt lat="44.58978" lon="0.88161">
        <ele>147</ele>
        <time>2012-11-11T09:06:05Z</time>
      </trkpt>
      <trkpt lat="44.58981" lon="0.88164">
        <ele>147</ele>
        <time>2012-11-11T09:06:07Z</time>
      </trkpt>
      <trkpt lat="44.58986" lon="0.88167">
        <ele>147</ele>
        <time>2012-11-11T09:06:09Z</time>
      </trkpt>
      <trkpt lat="44.58989" lon="0.88171">
        <ele>147</ele>
        <time>2012-11-11T09:06:11Z</time>
      </trkpt>
      <trkpt lat="44.58993" lon="0.88174">
        <ele>147</ele>
        <time>2012-11-11T09:06:13Z</time>
      </trkpt>
      <trkpt lat="44.58997" lon="0.88178">
        <ele>147</ele>
        <time>2012-11-11T09:06:15Z</time>
      </trkpt>
      <trkpt lat="44.59" lon="0.8818">
        <ele>147</ele>
        <time>2012-11-11T09:06:17Z</time>
      </trkpt>
      <trkpt lat="44.59003" lon="0.88183">
        <ele>147</ele>
        <time>2012-11-11T09:06:19Z</time>
      </trkpt>
      <trkpt lat="44.59007" lon="0.88185">
        <ele>147</ele>
        <time>2012-11-11T09:06:21Z</time>
      </trkpt>
      <trkpt lat="44.59011" lon="0.88189">
        <ele>147</ele>
        <time>2012-11-11T09:06:23Z</time>
      </trkpt>
      <trkpt lat="44.59015" lon="0.88193">
        <ele>147</ele>
        <time>2012-11-11T09:06:25Z</time>
      </trkpt>
      <trkpt lat="44.59016" lon="0.88199">
        <ele>147</ele>
        <time>2012-11-11T09:06:27Z</time>
      </trkpt>
      <trkpt lat="44.59019" lon="0.88204">
        <ele>147</ele>
        <time>2012-11-11T09:06:29Z</time>
      </trkpt>
      <trkpt lat="44.59022" lon="0.8821">
        <ele>147</ele>
        <time>2012-11-11T09:06:31Z</time>
      </trkpt>
      <trkpt lat="44.59026" lon="0.88217">
        <ele>147</ele>
        <time>2012-11-11T09:06:33Z</time>
      </trkpt>
      <trkpt lat="44.59029" lon="0.88225">
        <ele>147</ele>
        <time>2012-11-11T09:06:35Z</time>
      </trkpt>
      <trkpt lat="44.5903" lon="0.88232">
        <ele>147</ele>
        <time>2012-11-11T09:06:37Z</time>
      </trkpt>
      <trkpt lat="44.59032" lon="0.88239">
        <ele>147</ele>
        <time>2012-11-11T09:06:39Z</time>
      </trkpt>
      <trkpt lat="44.59036" lon="0.88243">
        <ele>147</ele>
        <time>2012-11-11T09:06:41Z</time>
      </trkpt>
      <trkpt lat="44.59041" lon="0.88246">
        <ele>147</ele>
        <time>2012-11-11T09:06:43Z</time>
      </trkpt>
      <trkpt lat="44.59047" lon="0.88248">
        <ele>147</ele>
        <time>2012-11-11T09:06:45Z</time>
      </trkpt>
      <trkpt lat="44.59054" lon="0.88252">
        <ele>145</ele>
        <time>2012-11-11T09:06:47Z</time>
      </trkpt>
      <trkpt lat="44.59062" lon="0.88255">
        <ele>145</ele>
        <time>2012-11-11T09:06:49Z</time>
      </trkpt>
      <trkpt lat="44.59071" lon="0.88258">
        <ele>143</ele>
        <time>2012-11-11T09:06:51Z</time>
      </trkpt>
      <trkpt lat="44.5908" lon="0.88261">
        <ele>142</ele>
        <time>2012-11-11T09:06:53Z</time>
      </trkpt>
      <trkpt lat="44.59091" lon="0.88267">
        <ele>140</ele>
        <time>2012-11-11T09:06:55Z</time>
      </trkpt>
      <trkpt lat="44.59101" lon="0.88272">
        <ele>140</ele>
        <time>2012-11-11T09:06:57Z</time>
      </trkpt>
      <trkpt lat="44.59113" lon="0.88278">
        <ele>140</ele>
        <time>2012-11-11T09:06:59Z</time>
      </trkpt>
      <trkpt lat="44.59123" lon="0.88282">
        <ele>139</ele>
        <time>2012-11-11T09:07:01Z</time>
      </trkpt>
      <trkpt lat="44.59133" lon="0.88285">
        <ele>139</ele>
        <time>2012-11-11T09:07:03Z</time>
      </trkpt>
      <trkpt lat="44.5914" lon="0.88286">
        <ele>139</ele>
        <time>2012-11-11T09:07:05Z</time>
      </trkpt>
      <trkpt lat="44.59146" lon="0.88286">
        <ele>139</ele>
        <time>2012-11-11T09:07:07Z</time>
      </trkpt>
      <trkpt lat="44.59153" lon="0.88287">
        <ele>139</ele>
        <time>2012-11-11T09:07:09Z</time>
      </trkpt>
      <trkpt lat="44.5916" lon="0.88287">
        <ele>139</ele>
        <time>2012-11-11T09:07:11Z</time>
      </trkpt>
      <trkpt lat="44.59169" lon="0.88288">
        <ele>139</ele>
        <time>2012-11-11T09:07:13Z</time>
      </trkpt>
      <trkpt lat="44.59176" lon="0.88289">
        <ele>139</ele>
        <time>2012-11-11T09:07:15Z</time>
      </trkpt>
      <trkpt lat="44.59183" lon="0.88289">
        <ele>139</ele>
        <time>2012-11-11T09:07:17Z</time>
      </trkpt>
      <trkpt lat="44.59187" lon="0.8829">
        <ele>139</ele>
        <time>2012-11-11T09:07:19Z</time>
      </trkpt>
      <trkpt lat="44.59194" lon="0.88291">
        <ele>139</ele>
        <time>2012-11-11T09:07:21Z</time>
      </trkpt>
      <trkpt lat="44.59201" lon="0.88292">
        <ele>140</ele>
        <time>2012-11-11T09:07:23Z</time>
      </trkpt>
      <trkpt lat="44.59208" lon="0.88294">
        <ele>140</ele>
        <time>2012-11-11T09:07:25Z</time>
      </trkpt>
      <trkpt lat="44.59216" lon="0.88296">
        <ele>140</ele>
        <time>2012-11-11T09:07:27Z</time>
      </trkpt>
      <trkpt lat="44.59224" lon="0.88298">
        <ele>140</ele>
        <time>2012-11-11T09:07:29Z</time>
      </trkpt>
      <trkpt lat="44.59232" lon="0.883">
        <ele>140</ele>
        <time>2012-11-11T09:07:31Z</time>
      </trkpt>
      <trkpt lat="44.59241" lon="0.88304">
        <ele>140</ele>
        <time>2012-11-11T09:07:33Z</time>
      </trkpt>
      <trkpt lat="44.59249" lon="0.8831">
        <ele>140</ele>
        <time>2012-11-11T09:07:35Z</time>
      </trkpt>
      <trkpt lat="44.59257" lon="0.88318">
        <ele>140</ele>
        <time>2012-11-11T09:07:37Z</time>
      </trkpt>
      <trkpt lat="44.59264" lon="0.88326">
        <ele>140</ele>
        <time>2012-11-11T09:07:39Z</time>
      </trkpt>
      <trkpt lat="44.59272" lon="0.88335">
        <ele>140</ele>
        <time>2012-11-11T09:07:41Z</time>
      </trkpt>
      <trkpt lat="44.5928" lon="0.88343">
        <ele>140</ele>
        <time>2012-11-11T09:07:43Z</time>
      </trkpt>
      <trkpt lat="44.59286" lon="0.88349">
        <ele>140</ele>
        <time>2012-11-11T09:07:45Z</time>
      </trkpt>
      <trkpt lat="44.59292" lon="0.88354">
        <ele>140</ele>
        <time>2012-11-11T09:07:47Z</time>
      </trkpt>
      <trkpt lat="44.593" lon="0.8836">
        <ele>140</ele>
        <time>2012-11-11T09:07:49Z</time>
      </trkpt>
      <trkpt lat="44.59307" lon="0.88367">
        <ele>140</ele>
        <time>2012-11-11T09:07:51Z</time>
      </trkpt>
      <trkpt lat="44.59312" lon="0.88375">
        <ele>140</ele>
        <time>2012-11-11T09:07:53Z</time>
      </trkpt>
      <trkpt lat="44.59315" lon="0.88384">
        <ele>140</ele>
        <time>2012-11-11T09:07:55Z</time>
      </trkpt>
      <trkpt lat="44.59317" lon="0.88393">
        <ele>140</ele>
        <time>2012-11-11T09:07:57Z</time>
      </trkpt>
      <trkpt lat="44.5932" lon="0.88402">
        <ele>140</ele>
        <time>2012-11-11T09:07:59Z</time>
      </trkpt>
      <trkpt lat="44.59322" lon="0.88413">
        <ele>140</ele>
        <time>2012-11-11T09:08:01Z</time>
      </trkpt>
      <trkpt lat="44.59324" lon="0.88424">
        <ele>140</ele>
        <time>2012-11-11T09:08:03Z</time>
      </trkpt>
      <trkpt lat="44.59325" lon="0.88435">
        <ele>140</ele>
        <time>2012-11-11T09:08:05Z</time>
      </trkpt>
      <trkpt lat="44.59326" lon="0.88447">
        <ele>140</ele>
        <time>2012-11-11T09:08:07Z</time>
      </trkpt>
      <trkpt lat="44.59327" lon="0.88458">
        <ele>140</ele>
        <time>2012-11-11T09:08:09Z</time>
      </trkpt>
      <trkpt lat="44.59327" lon="0.88469">
        <ele>140</ele>
        <time>2012-11-11T09:08:11Z</time>
      </trkpt>
      <trkpt lat="44.59328" lon="0.88479">
        <ele>140</ele>
        <time>2012-11-11T09:08:13Z</time>
      </trkpt>
      <trkpt lat="44.59329" lon="0.88488">
        <ele>141</ele>
        <time>2012-11-11T09:08:15Z</time>
      </trkpt>
      <trkpt lat="44.5933" lon="0.88497">
        <ele>142</ele>
        <time>2012-11-11T09:08:17Z</time>
      </trkpt>
      <trkpt lat="44.5933" lon="0.88503">
        <ele>143</ele>
        <time>2012-11-11T09:08:19Z</time>
      </trkpt>
      <trkpt lat="44.5933" lon="0.88511">
        <ele>144</ele>
        <time>2012-11-11T09:08:21Z</time>
      </trkpt>
      <trkpt lat="44.5933" lon="0.88518">
        <ele>145</ele>
        <time>2012-11-11T09:08:23Z</time>
      </trkpt>
      <trkpt lat="44.59329" lon="0.88526">
        <ele>146</ele>
        <time>2012-11-11T09:08:25Z</time>
      </trkpt>
      <trkpt lat="44.59329" lon="0.88534">
        <ele>147</ele>
        <time>2012-11-11T09:08:27Z</time>
      </trkpt>
      <trkpt lat="44.59328" lon="0.88541">
        <ele>149</ele>
        <time>2012-11-11T09:08:29Z</time>
      </trkpt>
      <trkpt lat="44.59329" lon="0.88547">
        <ele>151</ele>
        <time>2012-11-11T09:08:31Z</time>
      </trkpt>
      <trkpt lat="44.5933" lon="0.88553">
        <ele>153</ele>
        <time>2012-11-11T09:08:33Z</time>
      </trkpt>
      <trkpt lat="44.59333" lon="0.88557">
        <ele>155</ele>
        <time>2012-11-11T09:08:35Z</time>
      </trkpt>
      <trkpt lat="44.59336" lon="0.8856">
        <ele>156</ele>
        <time>2012-11-11T09:08:37Z</time>
      </trkpt>
      <trkpt lat="44.5934" lon="0.88563">
        <ele>157</ele>
        <time>2012-11-11T09:08:39Z</time>
      </trkpt>
      <trkpt lat="44.59343" lon="0.88568">
        <ele>157</ele>
        <time>2012-11-11T09:08:41Z</time>
      </trkpt>
      <trkpt lat="44.59346" lon="0.88573">
        <ele>158</ele>
        <time>2012-11-11T09:08:43Z</time>
      </trkpt>
      <trkpt lat="44.5935" lon="0.8858">
        <ele>158</ele>
        <time>2012-11-11T09:08:45Z</time>
      </trkpt>
      <trkpt lat="44.59352" lon="0.88585">
        <ele>158</ele>
        <time>2012-11-11T09:08:47Z</time>
      </trkpt>
      <trkpt lat="44.59355" lon="0.88591">
        <ele>160</ele>
        <time>2012-11-11T09:08:49Z</time>
      </trkpt>
      <trkpt lat="44.59357" lon="0.88596">
        <ele>161</ele>
        <time>2012-11-11T09:08:51Z</time>
      </trkpt>
      <trkpt lat="44.59359" lon="0.88601">
        <ele>162</ele>
        <time>2012-11-11T09:08:53Z</time>
      </trkpt>
      <trkpt lat="44.59361" lon="0.88606">
        <ele>164</ele>
        <time>2012-11-11T09:08:55Z</time>
      </trkpt>
      <trkpt lat="44.59362" lon="0.8861">
        <ele>165</ele>
        <time>2012-11-11T09:08:57Z</time>
      </trkpt>
      <trkpt lat="44.59363" lon="0.88616">
        <ele>167</ele>
        <time>2012-11-11T09:08:59Z</time>
      </trkpt>
      <trkpt lat="44.59364" lon="0.88621">
        <ele>169</ele>
        <time>2012-11-11T09:09:01Z</time>
      </trkpt>
      <trkpt lat="44.59366" lon="0.88625">
        <ele>171</ele>
        <time>2012-11-11T09:09:03Z</time>
      </trkpt>
      <trkpt lat="44.5937" lon="0.88632">
        <ele>173</ele>
        <time>2012-11-11T09:09:05Z</time>
      </trkpt>
      <trkpt lat="44.59372" lon="0.88636">
        <ele>173</ele>
        <time>2012-11-11T09:09:07Z</time>
      </trkpt>
      <trkpt lat="44.59376" lon="0.8864">
        <ele>173</ele>
        <time>2012-11-11T09:09:09Z</time>
      </trkpt>
      <trkpt lat="44.5938" lon="0.88648">
        <ele>174</ele>
        <time>2012-11-11T09:09:11Z</time>
      </trkpt>
      <trkpt lat="44.59384" lon="0.88658">
        <ele>174</ele>
        <time>2012-11-11T09:09:13Z</time>
      </trkpt>
      <trkpt lat="44.59391" lon="0.8867">
        <ele>174</ele>
        <time>2012-11-11T09:09:15Z</time>
      </trkpt>
      <trkpt lat="44.59399" lon="0.88682">
        <ele>174</ele>
        <time>2012-11-11T09:09:17Z</time>
      </trkpt>
      <trkpt lat="44.59406" lon="0.88694">
        <ele>174</ele>
        <time>2012-11-11T09:09:19Z</time>
      </trkpt>
      <trkpt lat="44.59412" lon="0.88703">
        <ele>174</ele>
        <time>2012-11-11T09:09:21Z</time>
      </trkpt>
      <trkpt lat="44.59418" lon="0.88714">
        <ele>173</ele>
        <time>2012-11-11T09:09:23Z</time>
      </trkpt>
      <trkpt lat="44.59422" lon="0.88722">
        <ele>173</ele>
        <time>2012-11-11T09:09:25Z</time>
      </trkpt>
      <trkpt lat="44.59428" lon="0.88732">
        <ele>172</ele>
        <time>2012-11-11T09:09:27Z</time>
      </trkpt>
      <trkpt lat="44.59434" lon="0.88744">
        <ele>171</ele>
        <time>2012-11-11T09:09:29Z</time>
      </trkpt>
      <trkpt lat="44.59441" lon="0.88755">
        <ele>170</ele>
        <time>2012-11-11T09:09:31Z</time>
      </trkpt>
      <trkpt lat="44.59447" lon="0.88764">
        <ele>169</ele>
        <time>2012-11-11T09:09:33Z</time>
      </trkpt>
      <trkpt lat="44.59457" lon="0.88772">
        <ele>168</ele>
        <time>2012-11-11T09:09:35Z</time>
      </trkpt>
      <trkpt lat="44.59466" lon="0.88781">
        <ele>167</ele>
        <time>2012-11-11T09:09:37Z</time>
      </trkpt>
      <trkpt lat="44.59475" lon="0.88794">
        <ele>166</ele>
        <time>2012-11-11T09:09:39Z</time>
      </trkpt>
      <trkpt lat="44.59486" lon="0.8881">
        <ele>166</ele>
        <time>2012-11-11T09:09:41Z</time>
      </trkpt>
      <trkpt lat="44.59494" lon="0.88822">
        <ele>165</ele>
        <time>2012-11-11T09:09:43Z</time>
      </trkpt>
      <trkpt lat="44.59502" lon="0.88831">
        <ele>164</ele>
        <time>2012-11-11T09:09:45Z</time>
      </trkpt>
      <trkpt lat="44.59509" lon="0.8884">
        <ele>163</ele>
        <time>2012-11-11T09:09:47Z</time>
      </trkpt>
      <trkpt lat="44.59514" lon="0.88848">
        <ele>163</ele>
        <time>2012-11-11T09:09:49Z</time>
      </trkpt>
      <trkpt lat="44.5952" lon="0.88856">
        <ele>163</ele>
        <time>2012-11-11T09:09:51Z</time>
      </trkpt>
      <trkpt lat="44.59526" lon="0.88866">
        <ele>163</ele>
        <time>2012-11-11T09:09:53Z</time>
      </trkpt>
      <trkpt lat="44.59532" lon="0.88875">
        <ele>163</ele>
        <time>2012-11-11T09:09:55Z</time>
      </trkpt>
      <trkpt lat="44.59539" lon="0.88885">
        <ele>163</ele>
        <time>2012-11-11T09:09:57Z</time>
      </trkpt>
      <trkpt lat="44.59544" lon="0.88894">
        <ele>163</ele>
        <time>2012-11-11T09:09:59Z</time>
      </trkpt>
      <trkpt lat="44.5955" lon="0.88902">
        <ele>163</ele>
        <time>2012-11-11T09:10:01Z</time>
      </trkpt>
      <trkpt lat="44.59555" lon="0.8891">
        <ele>163</ele>
        <time>2012-11-11T09:10:03Z</time>
      </trkpt>
      <trkpt lat="44.5956" lon="0.88917">
        <ele>163</ele>
        <time>2012-11-11T09:10:05Z</time>
      </trkpt>
      <trkpt lat="44.59565" lon="0.88924">
        <ele>163</ele>
        <time>2012-11-11T09:10:07Z</time>
      </trkpt>
      <trkpt lat="44.59568" lon="0.88932">
        <ele>163</ele>
        <time>2012-11-11T09:10:09Z</time>
      </trkpt>
      <trkpt lat="44.59572" lon="0.88938">
        <ele>163</ele>
        <time>2012-11-11T09:10:11Z</time>
      </trkpt>
      <trkpt lat="44.59576" lon="0.88944">
        <ele>164</ele>
        <time>2012-11-11T09:10:13Z</time>
      </trkpt>
      <trkpt lat="44.59578" lon="0.8895">
        <ele>164</ele>
        <time>2012-11-11T09:10:15Z</time>
      </trkpt>
      <trkpt lat="44.59582" lon="0.88955">
        <ele>165</ele>
        <time>2012-11-11T09:10:17Z</time>
      </trkpt>
      <trkpt lat="44.59584" lon="0.88961">
        <ele>165</ele>
        <time>2012-11-11T09:10:19Z</time>
      </trkpt>
      <trkpt lat="44.59588" lon="0.88968">
        <ele>166</ele>
        <time>2012-11-11T09:10:21Z</time>
      </trkpt>
      <trkpt lat="44.59591" lon="0.88975">
        <ele>167</ele>
        <time>2012-11-11T09:10:23Z</time>
      </trkpt>
      <trkpt lat="44.59594" lon="0.88982">
        <ele>168</ele>
        <time>2012-11-11T09:10:25Z</time>
      </trkpt>
      <trkpt lat="44.59598" lon="0.8899">
        <ele>168</ele>
        <time>2012-11-11T09:10:27Z</time>
      </trkpt>
      <trkpt lat="44.59602" lon="0.88998">
        <ele>169</ele>
        <time>2012-11-11T09:10:29Z</time>
      </trkpt>
      <trkpt lat="44.59606" lon="0.89006">
        <ele>169</ele>
        <time>2012-11-11T09:10:31Z</time>
      </trkpt>
      <trkpt lat="44.5961" lon="0.89013">
        <ele>169</ele>
        <time>2012-11-11T09:10:33Z</time>
      </trkpt>
      <trkpt lat="44.59613" lon="0.8902">
        <ele>170</ele>
        <time>2012-11-11T09:10:35Z</time>
      </trkpt>
      <trkpt lat="44.59616" lon="0.89028">
        <ele>170</ele>
        <time>2012-11-11T09:10:37Z</time>
      </trkpt>
      <trkpt lat="44.5962" lon="0.89035">
        <ele>170</ele>
        <time>2012-11-11T09:10:39Z</time>
      </trkpt>
      <trkpt lat="44.59623" lon="0.89041">
        <ele>171</ele>
        <time>2012-11-11T09:10:41Z</time>
      </trkpt>
      <trkpt lat="44.59625" lon="0.89048">
        <ele>171</ele>
        <time>2012-11-11T09:10:43Z</time>
      </trkpt>
      <trkpt lat="44.59629" lon="0.89054">
        <ele>171</ele>
        <time>2012-11-11T09:10:45Z</time>
      </trkpt>
      <trkpt lat="44.59632" lon="0.89059">
        <ele>171</ele>
        <time>2012-11-11T09:10:47Z</time>
      </trkpt>
      <trkpt lat="44.59634" lon="0.8906">
        <ele>171</ele>
        <time>2012-11-11T09:10:49Z</time>
      </trkpt>
      <trkpt lat="44.59635" lon="0.89061">
        <ele>171</ele>
        <time>2012-11-11T09:10:52Z</time>
      </trkpt>
      <trkpt lat="44.59636" lon="0.89062">
        <ele>171</ele>
        <time>2012-11-11T09:10:59Z</time>
      </trkpt>
      <trkpt lat="44.59636" lon="0.89064">
        <ele>169</ele>
        <time>2012-11-11T09:11:04Z</time>
      </trkpt>
      <trkpt lat="44.59635" lon="0.89063">
        <ele>168</ele>
        <time>2012-11-11T09:11:13Z</time>
      </trkpt>
      <trkpt lat="44.59634" lon="0.89064">
        <ele>168</ele>
        <time>2012-11-11T09:11:23Z</time>
      </trkpt>
      <trkpt lat="44.59632" lon="0.89064">
        <ele>168</ele>
        <time>2012-11-11T09:11:27Z</time>
      </trkpt>
      <trkpt lat="44.59631" lon="0.89063">
        <ele>168</ele>
        <time>2012-11-11T09:11:30Z</time>
      </trkpt>
      <trkpt lat="44.59632" lon="0.89064">
        <ele>169</ele>
        <time>2012-11-11T09:12:11Z</time>
      </trkpt>
      <trkpt lat="44.59632" lon="0.89063">
        <ele>169</ele>
        <time>2012-11-11T09:12:45Z</time>
      </trkpt>
      <trkpt lat="44.59634" lon="0.89062">
        <ele>169</ele>
        <time>2012-11-11T09:13:05Z</time>
      </trkpt>
      <trkpt lat="44.59635" lon="0.89065">
        <ele>169</ele>
        <time>2012-11-11T09:13:21Z</time>
      </trkpt>
      <trkpt lat="44.59637" lon="0.89074">
        <ele>169</ele>
        <time>2012-11-11T09:13:23Z</time>
      </trkpt>
      <trkpt lat="44.59642" lon="0.89087">
        <ele>169</ele>
        <time>2012-11-11T09:13:25Z</time>
      </trkpt>
      <trkpt lat="44.59652" lon="0.89101">
        <ele>169</ele>
        <time>2012-11-11T09:13:27Z</time>
      </trkpt>
      <trkpt lat="44.59666" lon="0.89115">
        <ele>169</ele>
        <time>2012-11-11T09:13:29Z</time>
      </trkpt>
      <trkpt lat="44.59694" lon="0.89138">
        <ele>167</ele>
        <time>2012-11-11T09:13:32Z</time>
      </trkpt>
      <trkpt lat="44.59713" lon="0.89154">
        <ele>166</ele>
        <time>2012-11-11T09:13:34Z</time>
      </trkpt>
      <trkpt lat="44.59732" lon="0.8917">
        <ele>164</ele>
        <time>2012-11-11T09:13:36Z</time>
      </trkpt>
      <trkpt lat="44.59748" lon="0.89184">
        <ele>163</ele>
        <time>2012-11-11T09:13:38Z</time>
      </trkpt>
      <trkpt lat="44.59763" lon="0.892">
        <ele>162</ele>
        <time>2012-11-11T09:13:40Z</time>
      </trkpt>
      <trkpt lat="44.59773" lon="0.89218">
        <ele>162</ele>
        <time>2012-11-11T09:13:42Z</time>
      </trkpt>
      <trkpt lat="44.59783" lon="0.89233">
        <ele>161</ele>
        <time>2012-11-11T09:13:44Z</time>
      </trkpt>
      <trkpt lat="44.59792" lon="0.89248">
        <ele>161</ele>
        <time>2012-11-11T09:13:46Z</time>
      </trkpt>
      <trkpt lat="44.59802" lon="0.89259">
        <ele>161</ele>
        <time>2012-11-11T09:13:48Z</time>
      </trkpt>
      <trkpt lat="44.5981" lon="0.89268">
        <ele>161</ele>
        <time>2012-11-11T09:13:50Z</time>
      </trkpt>
      <trkpt lat="44.59819" lon="0.89276">
        <ele>161</ele>
        <time>2012-11-11T09:13:52Z</time>
      </trkpt>
      <trkpt lat="44.59827" lon="0.89285">
        <ele>161</ele>
        <time>2012-11-11T09:13:54Z</time>
      </trkpt>
      <trkpt lat="44.59835" lon="0.89296">
        <ele>161</ele>
        <time>2012-11-11T09:13:56Z</time>
      </trkpt>
      <trkpt lat="44.59843" lon="0.89307">
        <ele>161</ele>
        <time>2012-11-11T09:13:58Z</time>
      </trkpt>
      <trkpt lat="44.59851" lon="0.89318">
        <ele>161</ele>
        <time>2012-11-11T09:14:00Z</time>
      </trkpt>
      <trkpt lat="44.5986" lon="0.89327">
        <ele>161</ele>
        <time>2012-11-11T09:14:02Z</time>
      </trkpt>
      <trkpt lat="44.59868" lon="0.89336">
        <ele>161</ele>
        <time>2012-11-11T09:14:04Z</time>
      </trkpt>
      <trkpt lat="44.59877" lon="0.89344">
        <ele>161</ele>
        <time>2012-11-11T09:14:06Z</time>
      </trkpt>
      <trkpt lat="44.59885" lon="0.89353">
        <ele>161</ele>
        <time>2012-11-11T09:14:08Z</time>
      </trkpt>
      <trkpt lat="44.59892" lon="0.89361">
        <ele>161</ele>
        <time>2012-11-11T09:14:10Z</time>
      </trkpt>
      <trkpt lat="44.59899" lon="0.89369">
        <ele>161</ele>
        <time>2012-11-11T09:14:12Z</time>
      </trkpt>
      <trkpt lat="44.59907" lon="0.89377">
        <ele>161</ele>
        <time>2012-11-11T09:14:14Z</time>
      </trkpt>
      <trkpt lat="44.59915" lon="0.89386">
        <ele>161</ele>
        <time>2012-11-11T09:14:16Z</time>
      </trkpt>
      <trkpt lat="44.59922" lon="0.89395">
        <ele>161</ele>
        <time>2012-11-11T09:14:18Z</time>
      </trkpt>
      <trkpt lat="44.59929" lon="0.89404">
        <ele>161</ele>
        <time>2012-11-11T09:14:20Z</time>
      </trkpt>
      <trkpt lat="44.59936" lon="0.89413">
        <ele>161</ele>
        <time>2012-11-11T09:14:22Z</time>
      </trkpt>
      <trkpt lat="44.59942" lon="0.89421">
        <ele>161</ele>
        <time>2012-11-11T09:14:24Z</time>
      </trkpt>
      <trkpt lat="44.59948" lon="0.89429">
        <ele>161</ele>
        <time>2012-11-11T09:14:26Z</time>
      </trkpt>
      <trkpt lat="44.59956" lon="0.89437">
        <ele>161</ele>
        <time>2012-11-11T09:14:28Z</time>
      </trkpt>
      <trkpt lat="44.59966" lon="0.89446">
        <ele>161</ele>
        <time>2012-11-11T09:14:30Z</time>
      </trkpt>
      <trkpt lat="44.59972" lon="0.89455">
        <ele>161</ele>
        <time>2012-11-11T09:14:32Z</time>
      </trkpt>
      <trkpt lat="44.5998" lon="0.89462">
        <ele>161</ele>
        <time>2012-11-11T09:14:34Z</time>
      </trkpt>
      <trkpt lat="44.59992" lon="0.89466">
        <ele>161</ele>
        <time>2012-11-11T09:14:36Z</time>
      </trkpt>
      <trkpt lat="44.60002" lon="0.89468">
        <ele>161</ele>
        <time>2012-11-11T09:14:38Z</time>
      </trkpt>
      <trkpt lat="44.60014" lon="0.89469">
        <ele>161</ele>
        <time>2012-11-11T09:14:40Z</time>
      </trkpt>
      <trkpt lat="44.60026" lon="0.89469">
        <ele>161</ele>
        <time>2012-11-11T09:14:42Z</time>
      </trkpt>
      <trkpt lat="44.60037" lon="0.89472">
        <ele>161</ele>
        <time>2012-11-11T09:14:44Z</time>
      </trkpt>
      <trkpt lat="44.60046" lon="0.89477">
        <ele>161</ele>
        <time>2012-11-11T09:14:46Z</time>
      </trkpt>
      <trkpt lat="44.60054" lon="0.89482">
        <ele>161</ele>
        <time>2012-11-11T09:14:48Z</time>
      </trkpt>
      <trkpt lat="44.60057" lon="0.89487">
        <ele>161</ele>
        <time>2012-11-11T09:14:50Z</time>
      </trkpt>
      <trkpt lat="44.6006" lon="0.89491">
        <ele>161</ele>
        <time>2012-11-11T09:14:52Z</time>
      </trkpt>
      <trkpt lat="44.60061" lon="0.89495">
        <ele>161</ele>
        <time>2012-11-11T09:14:55Z</time>
      </trkpt>
      <trkpt lat="44.60066" lon="0.89497">
        <ele>161</ele>
        <time>2012-11-11T09:14:57Z</time>
      </trkpt>
      <trkpt lat="44.60068" lon="0.89494">
        <ele>161</ele>
        <time>2012-11-11T09:15:00Z</time>
      </trkpt>
      <trkpt lat="44.60064" lon="0.89491">
        <ele>161</ele>
        <time>2012-11-11T09:15:02Z</time>
      </trkpt>
      <trkpt lat="44.6006" lon="0.89488">
        <ele>161</ele>
        <time>2012-11-11T09:15:04Z</time>
      </trkpt>
      <trkpt lat="44.6006" lon="0.89482">
        <ele>161</ele>
        <time>2012-11-11T09:15:06Z</time>
      </trkpt>
      <trkpt lat="44.60062" lon="0.89476">
        <ele>161</ele>
        <time>2012-11-11T09:15:08Z</time>
      </trkpt>
      <trkpt lat="44.60064" lon="0.89468">
        <ele>161</ele>
        <time>2012-11-11T09:15:10Z</time>
      </trkpt>
      <trkpt lat="44.60067" lon="0.89461">
        <ele>161</ele>
        <time>2012-11-11T09:15:12Z</time>
      </trkpt>
      <trkpt lat="44.60069" lon="0.89456">
        <ele>161</ele>
        <time>2012-11-11T09:15:14Z</time>
      </trkpt>
      <trkpt lat="44.60073" lon="0.89455">
        <ele>161</ele>
        <time>2012-11-11T09:15:16Z</time>
      </trkpt>
      <trkpt lat="44.60077" lon="0.89456">
        <ele>161</ele>
        <time>2012-11-11T09:15:18Z</time>
      </trkpt>
      <trkpt lat="44.60082" lon="0.89459">
        <ele>162</ele>
        <time>2012-11-11T09:15:20Z</time>
      </trkpt>
      <trkpt lat="44.60088" lon="0.89457">
        <ele>163</ele>
        <time>2012-11-11T09:15:22Z</time>
      </trkpt>
      <trkpt lat="44.60091" lon="0.89452">
        <ele>163</ele>
        <time>2012-11-11T09:15:24Z</time>
      </trkpt>
      <trkpt lat="44.60094" lon="0.89444">
        <ele>163</ele>
        <time>2012-11-11T09:15:26Z</time>
      </trkpt>
      <trkpt lat="44.60098" lon="0.89435">
        <ele>164</ele>
        <time>2012-11-11T09:15:28Z</time>
      </trkpt>
      <trkpt lat="44.60104" lon="0.89428">
        <ele>165</ele>
        <time>2012-11-11T09:15:30Z</time>
      </trkpt>
      <trkpt lat="44.60108" lon="0.8942">
        <ele>165</ele>
        <time>2012-11-11T09:15:32Z</time>
      </trkpt>
      <trkpt lat="44.60113" lon="0.89412">
        <ele>165</ele>
        <time>2012-11-11T09:15:34Z</time>
      </trkpt>
      <trkpt lat="44.60117" lon="0.89403">
        <ele>165</ele>
        <time>2012-11-11T09:15:36Z</time>
      </trkpt>
      <trkpt lat="44.6012" lon="0.89393">
        <ele>165</ele>
        <time>2012-11-11T09:15:38Z</time>
      </trkpt>
      <trkpt lat="44.60123" lon="0.89382">
        <ele>165</ele>
        <time>2012-11-11T09:15:40Z</time>
      </trkpt>
      <trkpt lat="44.60125" lon="0.8937">
        <ele>165</ele>
        <time>2012-11-11T09:15:42Z</time>
      </trkpt>
      <trkpt lat="44.60126" lon="0.89358">
        <ele>165</ele>
        <time>2012-11-11T09:15:44Z</time>
      </trkpt>
      <trkpt lat="44.60128" lon="0.89346">
        <ele>165</ele>
        <time>2012-11-11T09:15:46Z</time>
      </trkpt>
      <trkpt lat="44.60129" lon="0.89333">
        <ele>165</ele>
        <time>2012-11-11T09:15:48Z</time>
      </trkpt>
      <trkpt lat="44.60129" lon="0.89322">
        <ele>165</ele>
        <time>2012-11-11T09:15:50Z</time>
      </trkpt>
      <trkpt lat="44.60129" lon="0.89312">
        <ele>163</ele>
        <time>2012-11-11T09:15:52Z</time>
      </trkpt>
      <trkpt lat="44.6013" lon="0.89306">
        <ele>162</ele>
        <time>2012-11-11T09:15:54Z</time>
      </trkpt>
      <trkpt lat="44.60135" lon="0.89303">
        <ele>161</ele>
        <time>2012-11-11T09:15:56Z</time>
      </trkpt>
      <trkpt lat="44.60146" lon="0.893">
        <ele>161</ele>
        <time>2012-11-11T09:15:58Z</time>
      </trkpt>
      <trkpt lat="44.60158" lon="0.89297">
        <ele>161</ele>
        <time>2012-11-11T09:16:00Z</time>
      </trkpt>
      <trkpt lat="44.60169" lon="0.89292">
        <ele>160</ele>
        <time>2012-11-11T09:16:02Z</time>
      </trkpt>
      <trkpt lat="44.60178" lon="0.89281">
        <ele>160</ele>
        <time>2012-11-11T09:16:04Z</time>
      </trkpt>
      <trkpt lat="44.60185" lon="0.89274">
        <ele>160</ele>
        <time>2012-11-11T09:16:06Z</time>
      </trkpt>
      <trkpt lat="44.60191" lon="0.8927">
        <ele>160</ele>
        <time>2012-11-11T09:16:08Z</time>
      </trkpt>
      <trkpt lat="44.60199" lon="0.89266">
        <ele>160</ele>
        <time>2012-11-11T09:16:10Z</time>
      </trkpt>
      <trkpt lat="44.60205" lon="0.89262">
        <ele>160</ele>
        <time>2012-11-11T09:16:12Z</time>
      </trkpt>
      <trkpt lat="44.60211" lon="0.89257">
        <ele>160</ele>
        <time>2012-11-11T09:16:14Z</time>
      </trkpt>
      <trkpt lat="44.60216" lon="0.89253">
        <ele>160</ele>
        <time>2012-11-11T09:16:16Z</time>
      </trkpt>
      <trkpt lat="44.60222" lon="0.8925">
        <ele>160</ele>
        <time>2012-11-11T09:16:18Z</time>
      </trkpt>
      <trkpt lat="44.60228" lon="0.89247">
        <ele>160</ele>
        <time>2012-11-11T09:16:20Z</time>
      </trkpt>
      <trkpt lat="44.60235" lon="0.89245">
        <ele>160</ele>
        <time>2012-11-11T09:16:22Z</time>
      </trkpt>
      <trkpt lat="44.60242" lon="0.89242">
        <ele>160</ele>
        <time>2012-11-11T09:16:24Z</time>
      </trkpt>
      <trkpt lat="44.60249" lon="0.8924">
        <ele>160</ele>
        <time>2012-11-11T09:16:26Z</time>
      </trkpt>
      <trkpt lat="44.60258" lon="0.89236">
        <ele>160</ele>
        <time>2012-11-11T09:16:28Z</time>
      </trkpt>
      <trkpt lat="44.60267" lon="0.89233">
        <ele>159</ele>
        <time>2012-11-11T09:16:30Z</time>
      </trkpt>
      <trkpt lat="44.60276" lon="0.8923">
        <ele>159</ele>
        <time>2012-11-11T09:16:32Z</time>
      </trkpt>
      <trkpt lat="44.60284" lon="0.89226">
        <ele>159</ele>
        <time>2012-11-11T09:16:34Z</time>
      </trkpt>
      <trkpt lat="44.60293" lon="0.8922">
        <ele>159</ele>
        <time>2012-11-11T09:16:36Z</time>
      </trkpt>
      <trkpt lat="44.603" lon="0.89212">
        <ele>159</ele>
        <time>2012-11-11T09:16:38Z</time>
      </trkpt>
      <trkpt lat="44.60306" lon="0.89204">
        <ele>159</ele>
        <time>2012-11-11T09:16:40Z</time>
      </trkpt>
      <trkpt lat="44.60311" lon="0.89195">
        <ele>158</ele>
        <time>2012-11-11T09:16:42Z</time>
      </trkpt>
      <trkpt lat="44.60316" lon="0.89184">
        <ele>157</ele>
        <time>2012-11-11T09:16:44Z</time>
      </trkpt>
      <trkpt lat="44.60321" lon="0.89174">
        <ele>157</ele>
        <time>2012-11-11T09:16:46Z</time>
      </trkpt>
      <trkpt lat="44.60327" lon="0.89165">
        <ele>157</ele>
        <time>2012-11-11T09:16:48Z</time>
      </trkpt>
      <trkpt lat="44.60335" lon="0.89158">
        <ele>157</ele>
        <time>2012-11-11T09:16:50Z</time>
      </trkpt>
      <trkpt lat="44.60342" lon="0.89153">
        <ele>157</ele>
        <time>2012-11-11T09:16:52Z</time>
      </trkpt>
      <trkpt lat="44.60349" lon="0.89148">
        <ele>157</ele>
        <time>2012-11-11T09:16:54Z</time>
      </trkpt>
      <trkpt lat="44.60355" lon="0.89144">
        <ele>157</ele>
        <time>2012-11-11T09:16:56Z</time>
      </trkpt>
      <trkpt lat="44.60363" lon="0.89139">
        <ele>157</ele>
        <time>2012-11-11T09:16:58Z</time>
      </trkpt>
      <trkpt lat="44.6037" lon="0.89136">
        <ele>157</ele>
        <time>2012-11-11T09:17:00Z</time>
      </trkpt>
      <trkpt lat="44.60376" lon="0.89134">
        <ele>157</ele>
        <time>2012-11-11T09:17:02Z</time>
      </trkpt>
      <trkpt lat="44.60381" lon="0.8913">
        <ele>157</ele>
        <time>2012-11-11T09:17:04Z</time>
      </trkpt>
      <trkpt lat="44.60387" lon="0.89126">
        <ele>157</ele>
        <time>2012-11-11T09:17:06Z</time>
      </trkpt>
      <trkpt lat="44.60393" lon="0.89123">
        <ele>157</ele>
        <time>2012-11-11T09:17:08Z</time>
      </trkpt>
      <trkpt lat="44.60399" lon="0.89118">
        <ele>157</ele>
        <time>2012-11-11T09:17:10Z</time>
      </trkpt>
      <trkpt lat="44.60405" lon="0.89115">
        <ele>157</ele>
        <time>2012-11-11T09:17:12Z</time>
      </trkpt>
      <trkpt lat="44.60411" lon="0.89111">
        <ele>158</ele>
        <time>2012-11-11T09:17:14Z</time>
      </trkpt>
      <trkpt lat="44.60417" lon="0.89107">
        <ele>159</ele>
        <time>2012-11-11T09:17:16Z</time>
      </trkpt>
      <trkpt lat="44.60423" lon="0.89103">
        <ele>159</ele>
        <time>2012-11-11T09:17:18Z</time>
      </trkpt>
      <trkpt lat="44.60429" lon="0.89098">
        <ele>160</ele>
        <time>2012-11-11T09:17:20Z</time>
      </trkpt>
      <trkpt lat="44.60435" lon="0.89094">
        <ele>160</ele>
        <time>2012-11-11T09:17:22Z</time>
      </trkpt>
      <trkpt lat="44.60441" lon="0.89089">
        <ele>161</ele>
        <time>2012-11-11T09:17:24Z</time>
      </trkpt>
      <trkpt lat="44.60447" lon="0.89085">
        <ele>161</ele>
        <time>2012-11-11T09:17:26Z</time>
      </trkpt>
      <trkpt lat="44.60454" lon="0.89081">
        <ele>161</ele>
        <time>2012-11-11T09:17:28Z</time>
      </trkpt>
      <trkpt lat="44.6046" lon="0.89075">
        <ele>161</ele>
        <time>2012-11-11T09:17:30Z</time>
      </trkpt>
      <trkpt lat="44.60467" lon="0.89072">
        <ele>161</ele>
        <time>2012-11-11T09:17:32Z</time>
      </trkpt>
      <trkpt lat="44.60473" lon="0.89069">
        <ele>162</ele>
        <time>2012-11-11T09:17:34Z</time>
      </trkpt>
      <trkpt lat="44.60479" lon="0.89067">
        <ele>162</ele>
        <time>2012-11-11T09:17:36Z</time>
      </trkpt>
      <trkpt lat="44.60484" lon="0.89065">
        <ele>163</ele>
        <time>2012-11-11T09:17:38Z</time>
      </trkpt>
      <trkpt lat="44.6049" lon="0.89064">
        <ele>163</ele>
        <time>2012-11-11T09:17:40Z</time>
      </trkpt>
      <trkpt lat="44.60495" lon="0.89061">
        <ele>163</ele>
        <time>2012-11-11T09:17:42Z</time>
      </trkpt>
      <trkpt lat="44.60499" lon="0.89057">
        <ele>163</ele>
        <time>2012-11-11T09:17:44Z</time>
      </trkpt>
      <trkpt lat="44.60506" lon="0.89053">
        <ele>163</ele>
        <time>2012-11-11T09:17:46Z</time>
      </trkpt>
      <trkpt lat="44.60512" lon="0.89048">
        <ele>163</ele>
        <time>2012-11-11T09:17:48Z</time>
      </trkpt>
      <trkpt lat="44.60517" lon="0.89044">
        <ele>163</ele>
        <time>2012-11-11T09:17:50Z</time>
      </trkpt>
      <trkpt lat="44.60524" lon="0.89039">
        <ele>163</ele>
        <time>2012-11-11T09:17:52Z</time>
      </trkpt>
      <trkpt lat="44.60529" lon="0.89033">
        <ele>163</ele>
        <time>2012-11-11T09:17:54Z</time>
      </trkpt>
      <trkpt lat="44.60535" lon="0.89028">
        <ele>163</ele>
        <time>2012-11-11T09:17:56Z</time>
      </trkpt>
      <trkpt lat="44.60542" lon="0.89023">
        <ele>163</ele>
        <time>2012-11-11T09:17:58Z</time>
      </trkpt>
      <trkpt lat="44.60547" lon="0.89019">
        <ele>163</ele>
        <time>2012-11-11T09:18:00Z</time>
      </trkpt>
      <trkpt lat="44.60553" lon="0.89016">
        <ele>163</ele>
        <time>2012-11-11T09:18:02Z</time>
      </trkpt>
      <trkpt lat="44.60559" lon="0.89013">
        <ele>163</ele>
        <time>2012-11-11T09:18:04Z</time>
      </trkpt>
      <trkpt lat="44.60565" lon="0.8901">
        <ele>163</ele>
        <time>2012-11-11T09:18:06Z</time>
      </trkpt>
      <trkpt lat="44.60572" lon="0.89007">
        <ele>163</ele>
        <time>2012-11-11T09:18:08Z</time>
      </trkpt>
      <trkpt lat="44.6058" lon="0.89004">
        <ele>163</ele>
        <time>2012-11-11T09:18:10Z</time>
      </trkpt>
      <trkpt lat="44.60588" lon="0.89001">
        <ele>163</ele>
        <time>2012-11-11T09:18:12Z</time>
      </trkpt>
      <trkpt lat="44.60595" lon="0.88999">
        <ele>163</ele>
        <time>2012-11-11T09:18:14Z</time>
      </trkpt>
      <trkpt lat="44.60603" lon="0.88996">
        <ele>163</ele>
        <time>2012-11-11T09:18:16Z</time>
      </trkpt>
      <trkpt lat="44.60609" lon="0.88994">
        <ele>164</ele>
        <time>2012-11-11T09:18:18Z</time>
      </trkpt>
      <trkpt lat="44.60617" lon="0.88992">
        <ele>164</ele>
        <time>2012-11-11T09:18:20Z</time>
      </trkpt>
      <trkpt lat="44.60623" lon="0.88991">
        <ele>165</ele>
        <time>2012-11-11T09:18:22Z</time>
      </trkpt>
      <trkpt lat="44.6063" lon="0.88988">
        <ele>165</ele>
        <time>2012-11-11T09:18:24Z</time>
      </trkpt>
      <trkpt lat="44.60637" lon="0.88985">
        <ele>165</ele>
        <time>2012-11-11T09:18:26Z</time>
      </trkpt>
      <trkpt lat="44.60647" lon="0.88984">
        <ele>166</ele>
        <time>2012-11-11T09:18:28Z</time>
      </trkpt>
      <trkpt lat="44.60655" lon="0.88982">
        <ele>166</ele>
        <time>2012-11-11T09:18:30Z</time>
      </trkpt>
      <trkpt lat="44.60662" lon="0.8898">
        <ele>166</ele>
        <time>2012-11-11T09:18:32Z</time>
      </trkpt>
      <trkpt lat="44.6067" lon="0.88977">
        <ele>166</ele>
        <time>2012-11-11T09:18:34Z</time>
      </trkpt>
      <trkpt lat="44.60679" lon="0.88975">
        <ele>166</ele>
        <time>2012-11-11T09:18:36Z</time>
      </trkpt>
      <trkpt lat="44.60688" lon="0.88973">
        <ele>166</ele>
        <time>2012-11-11T09:18:38Z</time>
      </trkpt>
      <trkpt lat="44.60696" lon="0.88971">
        <ele>166</ele>
        <time>2012-11-11T09:18:40Z</time>
      </trkpt>
      <trkpt lat="44.60705" lon="0.88968">
        <ele>166</ele>
        <time>2012-11-11T09:18:42Z</time>
      </trkpt>
      <trkpt lat="44.60715" lon="0.88964">
        <ele>166</ele>
        <time>2012-11-11T09:18:44Z</time>
      </trkpt>
      <trkpt lat="44.60724" lon="0.88956">
        <ele>166</ele>
        <time>2012-11-11T09:18:46Z</time>
      </trkpt>
      <trkpt lat="44.60733" lon="0.88949">
        <ele>166</ele>
        <time>2012-11-11T09:18:48Z</time>
      </trkpt>
      <trkpt lat="44.60743" lon="0.88943">
        <ele>166</ele>
        <time>2012-11-11T09:18:50Z</time>
      </trkpt>
      <trkpt lat="44.60752" lon="0.88938">
        <ele>166</ele>
        <time>2012-11-11T09:18:52Z</time>
      </trkpt>
      <trkpt lat="44.60763" lon="0.88933">
        <ele>166</ele>
        <time>2012-11-11T09:18:54Z</time>
      </trkpt>
      <trkpt lat="44.60775" lon="0.88925">
        <ele>166</ele>
        <time>2012-11-11T09:18:56Z</time>
      </trkpt>
      <trkpt lat="44.60789" lon="0.88919">
        <ele>166</ele>
        <time>2012-11-11T09:18:58Z</time>
      </trkpt>
      <trkpt lat="44.60803" lon="0.88911">
        <ele>166</ele>
        <time>2012-11-11T09:19:00Z</time>
      </trkpt>
      <trkpt lat="44.60817" lon="0.88905">
        <ele>166</ele>
        <time>2012-11-11T09:19:02Z</time>
      </trkpt>
      <trkpt lat="44.60827" lon="0.88895">
        <ele>166</ele>
        <time>2012-11-11T09:19:04Z</time>
      </trkpt>
      <trkpt lat="44.6084" lon="0.88886">
        <ele>166</ele>
        <time>2012-11-11T09:19:06Z</time>
      </trkpt>
      <trkpt lat="44.60852" lon="0.88878">
        <ele>166</ele>
        <time>2012-11-11T09:19:08Z</time>
      </trkpt>
      <trkpt lat="44.60864" lon="0.88871">
        <ele>166</ele>
        <time>2012-11-11T09:19:10Z</time>
      </trkpt>
      <trkpt lat="44.60875" lon="0.88863">
        <ele>165</ele>
        <time>2012-11-11T09:19:12Z</time>
      </trkpt>
      <trkpt lat="44.60886" lon="0.88855">
        <ele>165</ele>
        <time>2012-11-11T09:19:14Z</time>
      </trkpt>
      <trkpt lat="44.60897" lon="0.88846">
        <ele>165</ele>
        <time>2012-11-11T09:19:16Z</time>
      </trkpt>
      <trkpt lat="44.6091" lon="0.88836">
        <ele>165</ele>
        <time>2012-11-11T09:19:18Z</time>
      </trkpt>
      <trkpt lat="44.60922" lon="0.88825">
        <ele>165</ele>
        <time>2012-11-11T09:19:20Z</time>
      </trkpt>
      <trkpt lat="44.60932" lon="0.88813">
        <ele>165</ele>
        <time>2012-11-11T09:19:22Z</time>
      </trkpt>
      <trkpt lat="44.60944" lon="0.88802">
        <ele>165</ele>
        <time>2012-11-11T09:19:24Z</time>
      </trkpt>
      <trkpt lat="44.60956" lon="0.88792">
        <ele>165</ele>
        <time>2012-11-11T09:19:26Z</time>
      </trkpt>
      <trkpt lat="44.60969" lon="0.88781">
        <ele>165</ele>
        <time>2012-11-11T09:19:28Z</time>
      </trkpt>
      <trkpt lat="44.60982" lon="0.88771">
        <ele>165</ele>
        <time>2012-11-11T09:19:30Z</time>
      </trkpt>
      <trkpt lat="44.60993" lon="0.88762">
        <ele>165</ele>
        <time>2012-11-11T09:19:32Z</time>
      </trkpt>
      <trkpt lat="44.61005" lon="0.88754">
        <ele>165</ele>
        <time>2012-11-11T09:19:34Z</time>
      </trkpt>
      <trkpt lat="44.61017" lon="0.88747">
        <ele>165</ele>
        <time>2012-11-11T09:19:36Z</time>
      </trkpt>
      <trkpt lat="44.61029" lon="0.88741">
        <ele>165</ele>
        <time>2012-11-11T09:19:38Z</time>
      </trkpt>
      <trkpt lat="44.61039" lon="0.88734">
        <ele>165</ele>
        <time>2012-11-11T09:19:40Z</time>
      </trkpt>
      <trkpt lat="44.61045" lon="0.88725">
        <ele>165</ele>
        <time>2012-11-11T09:19:42Z</time>
      </trkpt>
      <trkpt lat="44.61045" lon="0.88714">
        <ele>165</ele>
        <time>2012-11-11T09:19:44Z</time>
      </trkpt>
      <trkpt lat="44.61047" lon="0.88702">
        <ele>164</ele>
        <time>2012-11-11T09:19:46Z</time>
      </trkpt>
      <trkpt lat="44.61047" lon="0.88686">
        <ele>164</ele>
        <time>2012-11-11T09:19:48Z</time>
      </trkpt>
      <trkpt lat="44.61049" lon="0.8867">
        <ele>164</ele>
        <time>2012-11-11T09:19:50Z</time>
      </trkpt>
      <trkpt lat="44.61048" lon="0.88654">
        <ele>163</ele>
        <time>2012-11-11T09:19:52Z</time>
      </trkpt>
      <trkpt lat="44.61047" lon="0.88637">
        <ele>161</ele>
        <time>2012-11-11T09:19:54Z</time>
      </trkpt>
      <trkpt lat="44.61047" lon="0.88621">
        <ele>160</ele>
        <time>2012-11-11T09:19:56Z</time>
      </trkpt>
      <trkpt lat="44.61046" lon="0.88611">
        <ele>160</ele>
        <time>2012-11-11T09:19:58Z</time>
      </trkpt>
      <trkpt lat="44.61045" lon="0.88602">
        <ele>160</ele>
        <time>2012-11-11T09:20:00Z</time>
      </trkpt>
      <trkpt lat="44.61045" lon="0.88596">
        <ele>160</ele>
        <time>2012-11-11T09:20:02Z</time>
      </trkpt>
      <trkpt lat="44.61045" lon="0.88591">
        <ele>160</ele>
        <time>2012-11-11T09:20:04Z</time>
      </trkpt>
      <trkpt lat="44.61046" lon="0.88587">
        <ele>161</ele>
        <time>2012-11-11T09:20:06Z</time>
      </trkpt>
      <trkpt lat="44.61046" lon="0.88583">
        <ele>162</ele>
        <time>2012-11-11T09:20:08Z</time>
      </trkpt>
      <trkpt lat="44.61043" lon="0.88582">
        <ele>164</ele>
        <time>2012-11-11T09:20:10Z</time>
      </trkpt>
      <trkpt lat="44.61041" lon="0.88578">
        <ele>166</ele>
        <time>2012-11-11T09:20:12Z</time>
      </trkpt>
      <trkpt lat="44.61038" lon="0.88573">
        <ele>168</ele>
        <time>2012-11-11T09:20:15Z</time>
      </trkpt>
      <trkpt lat="44.61036" lon="0.8857">
        <ele>170</ele>
        <time>2012-11-11T09:20:17Z</time>
      </trkpt>
      <trkpt lat="44.61035" lon="0.88566">
        <ele>170</ele>
        <time>2012-11-11T09:20:19Z</time>
      </trkpt>
      <trkpt lat="44.61034" lon="0.88563">
        <ele>170</ele>
        <time>2012-11-11T09:20:21Z</time>
      </trkpt>
      <trkpt lat="44.61032" lon="0.8856">
        <ele>170</ele>
        <time>2012-11-11T09:20:23Z</time>
      </trkpt>
      <trkpt lat="44.61031" lon="0.88555">
        <ele>170</ele>
        <time>2012-11-11T09:20:25Z</time>
      </trkpt>
      <trkpt lat="44.6103" lon="0.88552">
        <ele>170</ele>
        <time>2012-11-11T09:20:27Z</time>
      </trkpt>
      <trkpt lat="44.61028" lon="0.88548">
        <ele>170</ele>
        <time>2012-11-11T09:20:29Z</time>
      </trkpt>
      <trkpt lat="44.61027" lon="0.88543">
        <ele>170</ele>
        <time>2012-11-11T09:20:31Z</time>
      </trkpt>
      <trkpt lat="44.61025" lon="0.88539">
        <ele>170</ele>
        <time>2012-11-11T09:20:33Z</time>
      </trkpt>
      <trkpt lat="44.61022" lon="0.88535">
        <ele>170</ele>
        <time>2012-11-11T09:20:35Z</time>
      </trkpt>
      <trkpt lat="44.6102" lon="0.88532">
        <ele>170</ele>
        <time>2012-11-11T09:20:37Z</time>
      </trkpt>
      <trkpt lat="44.61018" lon="0.88528">
        <ele>170</ele>
        <time>2012-11-11T09:20:39Z</time>
      </trkpt>
      <trkpt lat="44.61015" lon="0.88524">
        <ele>170</ele>
        <time>2012-11-11T09:20:41Z</time>
      </trkpt>
      <trkpt lat="44.61012" lon="0.8852">
        <ele>170</ele>
        <time>2012-11-11T09:20:43Z</time>
      </trkpt>
      <trkpt lat="44.61009" lon="0.88516">
        <ele>170</ele>
        <time>2012-11-11T09:20:46Z</time>
      </trkpt>
      <trkpt lat="44.61007" lon="0.88516">
        <ele>172</ele>
        <time>2012-11-11T09:20:50Z</time>
      </trkpt>
      <trkpt lat="44.61008" lon="0.88515">
        <ele>173</ele>
        <time>2012-11-11T09:20:52Z</time>
      </trkpt>
      <trkpt lat="44.61008" lon="0.88513">
        <ele>173</ele>
        <time>2012-11-11T09:20:55Z</time>
      </trkpt>
      <trkpt lat="44.61009" lon="0.88514">
        <ele>179</ele>
        <time>2012-11-11T09:21:10Z</time>
      </trkpt>
      <trkpt lat="44.6101" lon="0.88514">
        <ele>179</ele>
        <time>2012-11-11T09:21:17Z</time>
      </trkpt>
      <trkpt lat="44.61009" lon="0.88514">
        <ele>179</ele>
        <time>2012-11-11T09:22:03Z</time>
      </trkpt>
      <trkpt lat="44.61008" lon="0.88514">
        <ele>179</ele>
        <time>2012-11-11T09:22:16Z</time>
      </trkpt>
      <trkpt lat="44.61007" lon="0.88515">
        <ele>184</ele>
        <time>2012-11-11T09:22:44Z</time>
      </trkpt>
      <trkpt lat="44.61007" lon="0.88514">
        <ele>193</ele>
        <time>2012-11-11T09:23:56Z</time>
      </trkpt>
      <trkpt lat="44.61008" lon="0.88512">
        <ele>193</ele>
        <time>2012-11-11T09:24:13Z</time>
      </trkpt>
      <trkpt lat="44.61009" lon="0.88514">
        <ele>193</ele>
        <time>2012-11-11T09:24:40Z</time>
      </trkpt>
      <trkpt lat="44.61008" lon="0.88515">
        <ele>193</ele>
        <time>2012-11-11T09:24:50Z</time>
      </trkpt>
      <trkpt lat="44.61007" lon="0.88515">
        <ele>193</ele>
        <time>2012-11-11T09:25:02Z</time>
      </trkpt>
      <trkpt lat="44.61008" lon="0.88515">
        <ele>193</ele>
        <time>2012-11-11T09:25:27Z</time>
      </trkpt>
      <trkpt lat="44.61008" lon="0.88517">
        <ele>192</ele>
        <time>2012-11-11T09:25:35Z</time>
      </trkpt>
      <trkpt lat="44.61009" lon="0.88516">
        <ele>190</ele>
        <time>2012-11-11T09:25:52Z</time>
      </trkpt>
      <trkpt lat="44.61008" lon="0.88515">
        <ele>188</ele>
        <time>2012-11-11T09:26:07Z</time>
      </trkpt>
      <trkpt lat="44.61005" lon="0.88515">
        <ele>188</ele>
        <time>2012-11-11T09:26:13Z</time>
      </trkpt>
      <trkpt lat="44.61004" lon="0.88513">
        <ele>188</ele>
        <time>2012-11-11T09:26:34Z</time>
      </trkpt>
      <trkpt lat="44.61001" lon="0.88512">
        <ele>188</ele>
        <time>2012-11-11T09:26:38Z</time>
      </trkpt>
      <trkpt lat="44.61" lon="0.88511">
        <ele>189</ele>
        <time>2012-11-11T09:26:43Z</time>
      </trkpt>
      <trkpt lat="44.61002" lon="0.88512">
        <ele>190</ele>
        <time>2012-11-11T09:26:47Z</time>
      </trkpt>
      <trkpt lat="44.61002" lon="0.88509">
        <ele>190</ele>
        <time>2012-11-11T09:26:49Z</time>
      </trkpt>
      <trkpt lat="44.61002" lon="0.88504">
        <ele>190</ele>
        <time>2012-11-11T09:26:52Z</time>
      </trkpt>
      <trkpt lat="44.61004" lon="0.88497">
        <ele>190</ele>
        <time>2012-11-11T09:26:54Z</time>
      </trkpt>
      <trkpt lat="44.61" lon="0.88486">
        <ele>189</ele>
        <time>2012-11-11T09:26:57Z</time>
      </trkpt>
      <trkpt lat="44.60997" lon="0.88477">
        <ele>188</ele>
        <time>2012-11-11T09:26:59Z</time>
      </trkpt>
      <trkpt lat="44.60992" lon="0.8847">
        <ele>188</ele>
        <time>2012-11-11T09:27:01Z</time>
      </trkpt>
      <trkpt lat="44.60988" lon="0.88463">
        <ele>188</ele>
        <time>2012-11-11T09:27:03Z</time>
      </trkpt>
      <trkpt lat="44.60984" lon="0.88455">
        <ele>188</ele>
        <time>2012-11-11T09:27:05Z</time>
      </trkpt>
      <trkpt lat="44.60981" lon="0.88448">
        <ele>188</ele>
        <time>2012-11-11T09:27:07Z</time>
      </trkpt>
      <trkpt lat="44.60976" lon="0.8844">
        <ele>188</ele>
        <time>2012-11-11T09:27:10Z</time>
      </trkpt>
      <trkpt lat="44.60967" lon="0.88433">
        <ele>188</ele>
        <time>2012-11-11T09:27:13Z</time>
      </trkpt>
      <trkpt lat="44.60964" lon="0.88424">
        <ele>189</ele>
        <time>2012-11-11T09:27:15Z</time>
      </trkpt>
      <trkpt lat="44.6096" lon="0.88417">
        <ele>189</ele>
        <time>2012-11-11T09:27:18Z</time>
      </trkpt>
      <trkpt lat="44.60955" lon="0.88415">
        <ele>189</ele>
        <time>2012-11-11T09:27:20Z</time>
      </trkpt>
      <trkpt lat="44.6095" lon="0.88414">
        <ele>189</ele>
        <time>2012-11-11T09:27:23Z</time>
      </trkpt>
      <trkpt lat="44.60949" lon="0.88411">
        <ele>189</ele>
        <time>2012-11-11T09:27:25Z</time>
      </trkpt>
      <trkpt lat="44.60944" lon="0.88403">
        <ele>189</ele>
        <time>2012-11-11T09:27:28Z</time>
      </trkpt>
      <trkpt lat="44.60944" lon="0.88396">
        <ele>189</ele>
        <time>2012-11-11T09:27:30Z</time>
      </trkpt>
      <trkpt lat="44.60945" lon="0.88383">
        <ele>189</ele>
        <time>2012-11-11T09:27:33Z</time>
      </trkpt>
      <trkpt lat="44.60944" lon="0.88376">
        <ele>189</ele>
        <time>2012-11-11T09:27:35Z</time>
      </trkpt>
      <trkpt lat="44.60937" lon="0.88371">
        <ele>189</ele>
        <time>2012-11-11T09:27:38Z</time>
      </trkpt>
      <trkpt lat="44.60933" lon="0.88371">
        <ele>188</ele>
        <time>2012-11-11T09:27:40Z</time>
      </trkpt>
      <trkpt lat="44.60923" lon="0.88369">
        <ele>188</ele>
        <time>2012-11-11T09:27:43Z</time>
      </trkpt>
      <trkpt lat="44.60916" lon="0.88366">
        <ele>188</ele>
        <time>2012-11-11T09:27:45Z</time>
      </trkpt>
      <trkpt lat="44.60902" lon="0.88363">
        <ele>188</ele>
        <time>2012-11-11T09:27:48Z</time>
      </trkpt>
      <trkpt lat="44.60893" lon="0.8836">
        <ele>188</ele>
        <time>2012-11-11T09:27:50Z</time>
      </trkpt>
      <trkpt lat="44.60878" lon="0.88356">
        <ele>188</ele>
        <time>2012-11-11T09:27:53Z</time>
      </trkpt>
      <trkpt lat="44.6087" lon="0.88355">
        <ele>188</ele>
        <time>2012-11-11T09:27:55Z</time>
      </trkpt>
      <trkpt lat="44.60856" lon="0.88349">
        <ele>188</ele>
        <time>2012-11-11T09:27:58Z</time>
      </trkpt>
      <trkpt lat="44.60848" lon="0.88336">
        <ele>188</ele>
        <time>2012-11-11T09:28:00Z</time>
      </trkpt>
      <trkpt lat="44.60844" lon="0.88303">
        <ele>188</ele>
        <time>2012-11-11T09:28:03Z</time>
      </trkpt>
      <trkpt lat="44.60844" lon="0.88277">
        <ele>187</ele>
        <time>2012-11-11T09:28:05Z</time>
      </trkpt>
      <trkpt lat="44.60842" lon="0.88238">
        <ele>186</ele>
        <time>2012-11-11T09:28:08Z</time>
      </trkpt>
      <trkpt lat="44.60841" lon="0.88213">
        <ele>186</ele>
        <time>2012-11-11T09:28:10Z</time>
      </trkpt>
      <trkpt lat="44.60842" lon="0.88181">
        <ele>186</ele>
        <time>2012-11-11T09:28:13Z</time>
      </trkpt>
      <trkpt lat="44.60841" lon="0.88164">
        <ele>186</ele>
        <time>2012-11-11T09:28:15Z</time>
      </trkpt>
      <trkpt lat="44.60831" lon="0.88147">
        <ele>184</ele>
        <time>2012-11-11T09:28:18Z</time>
      </trkpt>
      <trkpt lat="44.60822" lon="0.8816">
        <ele>183</ele>
        <time>2012-11-11T09:28:20Z</time>
      </trkpt>
      <trkpt lat="44.60803" lon="0.88168">
        <ele>183</ele>
        <time>2012-11-11T09:28:23Z</time>
      </trkpt>
      <trkpt lat="44.60792" lon="0.88168">
        <ele>182</ele>
        <time>2012-11-11T09:28:25Z</time>
      </trkpt>
      <trkpt lat="44.60769" lon="0.88161">
        <ele>180</ele>
        <time>2012-11-11T09:28:28Z</time>
      </trkpt>
      <trkpt lat="44.60751" lon="0.88154">
        <ele>178</ele>
        <time>2012-11-11T09:28:30Z</time>
      </trkpt>
      <trkpt lat="44.60725" lon="0.88147">
        <ele>176</ele>
        <time>2012-11-11T09:28:33Z</time>
      </trkpt>
      <trkpt lat="44.60709" lon="0.88142">
        <ele>175</ele>
        <time>2012-11-11T09:28:35Z</time>
      </trkpt>
      <trkpt lat="44.60689" lon="0.88119">
        <ele>175</ele>
        <time>2012-11-11T09:28:38Z</time>
      </trkpt>
      <trkpt lat="44.6068" lon="0.88099">
        <ele>175</ele>
        <time>2012-11-11T09:28:40Z</time>
      </trkpt>
      <trkpt lat="44.60669" lon="0.88078">
        <ele>174</ele>
        <time>2012-11-11T09:28:42Z</time>
      </trkpt>
      <trkpt lat="44.60658" lon="0.88059">
        <ele>173</ele>
        <time>2012-11-11T09:28:44Z</time>
      </trkpt>
      <trkpt lat="44.60649" lon="0.88036">
        <ele>173</ele>
        <time>2012-11-11T09:28:46Z</time>
      </trkpt>
      <trkpt lat="44.6064" lon="0.88013">
        <ele>172</ele>
        <time>2012-11-11T09:28:48Z</time>
      </trkpt>
      <trkpt lat="44.60629" lon="0.87989">
        <ele>172</ele>
        <time>2012-11-11T09:28:50Z</time>
      </trkpt>
      <trkpt lat="44.60616" lon="0.87962">
        <ele>171</ele>
        <time>2012-11-11T09:28:52Z</time>
      </trkpt>
      <trkpt lat="44.60607" lon="0.87939">
        <ele>170</ele>
        <time>2012-11-11T09:28:54Z</time>
      </trkpt>
      <trkpt lat="44.60599" lon="0.87919">
        <ele>168</ele>
        <time>2012-11-11T09:28:56Z</time>
      </trkpt>
      <trkpt lat="44.60595" lon="0.87905">
        <ele>167</ele>
        <time>2012-11-11T09:28:58Z</time>
      </trkpt>
      <trkpt lat="44.60593" lon="0.87898">
        <ele>166</ele>
        <time>2012-11-11T09:29:00Z</time>
      </trkpt>
      <trkpt lat="44.6059" lon="0.87891">
        <ele>163</ele>
        <time>2012-11-11T09:29:03Z</time>
      </trkpt>
      <trkpt lat="44.60588" lon="0.87889">
        <ele>163</ele>
        <time>2012-11-11T09:29:06Z</time>
      </trkpt>
      <trkpt lat="44.60587" lon="0.87889">
        <ele>163</ele>
        <time>2012-11-11T09:29:10Z</time>
      </trkpt>
      <trkpt lat="44.60586" lon="0.87888">
        <ele>163</ele>
        <time>2012-11-11T09:29:12Z</time>
      </trkpt>
      <trkpt lat="44.60588" lon="0.87889">
        <ele>165</ele>
        <time>2012-11-11T09:29:15Z</time>
      </trkpt>
      <trkpt lat="44.60589" lon="0.87889">
        <ele>166</ele>
        <time>2012-11-11T09:29:21Z</time>
      </trkpt>
      <trkpt lat="44.60588" lon="0.87888">
        <ele>166</ele>
        <time>2012-11-11T09:29:31Z</time>
      </trkpt>
      <trkpt lat="44.60588" lon="0.87886">
        <ele>166</ele>
        <time>2012-11-11T09:29:35Z</time>
      </trkpt>
      <trkpt lat="44.60587" lon="0.87885">
        <ele>166</ele>
        <time>2012-11-11T09:29:43Z</time>
      </trkpt>
      <trkpt lat="44.60589" lon="0.87883">
        <ele>168</ele>
        <time>2012-11-11T09:29:49Z</time>
      </trkpt>
      <trkpt lat="44.6059" lon="0.87883">
        <ele>170</ele>
        <time>2012-11-11T09:29:52Z</time>
      </trkpt>
      <trkpt lat="44.60592" lon="0.87882">
        <ele>172</ele>
        <time>2012-11-11T09:29:55Z</time>
      </trkpt>
      <trkpt lat="44.60593" lon="0.87881">
        <ele>174</ele>
        <time>2012-11-11T09:30:02Z</time>
      </trkpt>
      <trkpt lat="44.60593" lon="0.87883">
        <ele>174</ele>
        <time>2012-11-11T09:30:07Z</time>
      </trkpt>
      <trkpt lat="44.60593" lon="0.87884">
        <ele>174</ele>
        <time>2012-11-11T09:30:11Z</time>
      </trkpt>
      <trkpt lat="44.60595" lon="0.87882">
        <ele>174</ele>
        <time>2012-11-11T09:30:15Z</time>
      </trkpt>
      <trkpt lat="44.60598" lon="0.87877">
        <ele>174</ele>
        <time>2012-11-11T09:30:17Z</time>
      </trkpt>
      <trkpt lat="44.60601" lon="0.8787">
        <ele>174</ele>
        <time>2012-11-11T09:30:19Z</time>
      </trkpt>
      <trkpt lat="44.60604" lon="0.87863">
        <ele>173</ele>
        <time>2012-11-11T09:30:21Z</time>
      </trkpt>
      <trkpt lat="44.60608" lon="0.87855">
        <ele>172</ele>
        <time>2012-11-11T09:30:23Z</time>
      </trkpt>
      <trkpt lat="44.60612" lon="0.87848">
        <ele>171</ele>
        <time>2012-11-11T09:30:25Z</time>
      </trkpt>
      <trkpt lat="44.60617" lon="0.8784">
        <ele>171</ele>
        <time>2012-11-11T09:30:27Z</time>
      </trkpt>
      <trkpt lat="44.60622" lon="0.87832">
        <ele>170</ele>
        <time>2012-11-11T09:30:29Z</time>
      </trkpt>
      <trkpt lat="44.60627" lon="0.87823">
        <ele>170</ele>
        <time>2012-11-11T09:30:31Z</time>
      </trkpt>
      <trkpt lat="44.60631" lon="0.87815">
        <ele>169</ele>
        <time>2012-11-11T09:30:33Z</time>
      </trkpt>
      <trkpt lat="44.60638" lon="0.87805">
        <ele>169</ele>
        <time>2012-11-11T09:30:35Z</time>
      </trkpt>
      <trkpt lat="44.60647" lon="0.87793">
        <ele>167</ele>
        <time>2012-11-11T09:30:38Z</time>
      </trkpt>
      <trkpt lat="44.60656" lon="0.87789">
        <ele>166</ele>
        <time>2012-11-11T09:30:40Z</time>
      </trkpt>
      <trkpt lat="44.60667" lon="0.87783">
        <ele>166</ele>
        <time>2012-11-11T09:30:42Z</time>
      </trkpt>
      <trkpt lat="44.60677" lon="0.87775">
        <ele>165</ele>
        <time>2012-11-11T09:30:44Z</time>
      </trkpt>
      <trkpt lat="44.60683" lon="0.87763">
        <ele>164</ele>
        <time>2012-11-11T09:30:46Z</time>
      </trkpt>
      <trkpt lat="44.60689" lon="0.87746">
        <ele>162</ele>
        <time>2012-11-11T09:30:48Z</time>
      </trkpt>
      <trkpt lat="44.60695" lon="0.87726">
        <ele>161</ele>
        <time>2012-11-11T09:30:50Z</time>
      </trkpt>
      <trkpt lat="44.60701" lon="0.87704">
        <ele>160</ele>
        <time>2012-11-11T09:30:52Z</time>
      </trkpt>
      <trkpt lat="44.60707" lon="0.87681">
        <ele>159</ele>
        <time>2012-11-11T09:30:54Z</time>
      </trkpt>
      <trkpt lat="44.60714" lon="0.87659">
        <ele>158</ele>
        <time>2012-11-11T09:30:56Z</time>
      </trkpt>
      <trkpt lat="44.60719" lon="0.87642">
        <ele>158</ele>
        <time>2012-11-11T09:30:58Z</time>
      </trkpt>
      <trkpt lat="44.60726" lon="0.87631">
        <ele>158</ele>
        <time>2012-11-11T09:31:00Z</time>
      </trkpt>
      <trkpt lat="44.60735" lon="0.87616">
        <ele>158</ele>
        <time>2012-11-11T09:31:03Z</time>
      </trkpt>
      <trkpt lat="44.6074" lon="0.87608">
        <ele>158</ele>
        <time>2012-11-11T09:31:05Z</time>
      </trkpt>
      <trkpt lat="44.60745" lon="0.87605">
        <ele>158</ele>
        <time>2012-11-11T09:31:07Z</time>
      </trkpt>
      <trkpt lat="44.60751" lon="0.87605">
        <ele>158</ele>
        <time>2012-11-11T09:31:09Z</time>
      </trkpt>
      <trkpt lat="44.6076" lon="0.87606">
        <ele>158</ele>
        <time>2012-11-11T09:31:11Z</time>
      </trkpt>
      <trkpt lat="44.60773" lon="0.87605">
        <ele>158</ele>
        <time>2012-11-11T09:31:13Z</time>
      </trkpt>
      <trkpt lat="44.60788" lon="0.87601">
        <ele>158</ele>
        <time>2012-11-11T09:31:15Z</time>
      </trkpt>
      <trkpt lat="44.60801" lon="0.87592">
        <ele>158</ele>
        <time>2012-11-11T09:31:17Z</time>
      </trkpt>
      <trkpt lat="44.60814" lon="0.87584">
        <ele>157</ele>
        <time>2012-11-11T09:31:19Z</time>
      </trkpt>
      <trkpt lat="44.60827" lon="0.87575">
        <ele>156</ele>
        <time>2012-11-11T09:31:21Z</time>
      </trkpt>
      <trkpt lat="44.6084" lon="0.87565">
        <ele>155</ele>
        <time>2012-11-11T09:31:23Z</time>
      </trkpt>
      <trkpt lat="44.60854" lon="0.87553">
        <ele>154</ele>
        <time>2012-11-11T09:31:25Z</time>
      </trkpt>
      <trkpt lat="44.60865" lon="0.8754">
        <ele>152</ele>
        <time>2012-11-11T09:31:27Z</time>
      </trkpt>
      <trkpt lat="44.60872" lon="0.87521">
        <ele>150</ele>
        <time>2012-11-11T09:31:29Z</time>
      </trkpt>
      <trkpt lat="44.60875" lon="0.87499">
        <ele>149</ele>
        <time>2012-11-11T09:31:31Z</time>
      </trkpt>
      <trkpt lat="44.60879" lon="0.87477">
        <ele>148</ele>
        <time>2012-11-11T09:31:33Z</time>
      </trkpt>
      <trkpt lat="44.60881" lon="0.8746">
        <ele>146</ele>
        <time>2012-11-11T09:31:35Z</time>
      </trkpt>
      <trkpt lat="44.60881" lon="0.87447">
        <ele>146</ele>
        <time>2012-11-11T09:31:37Z</time>
      </trkpt>
      <trkpt lat="44.60883" lon="0.87436">
        <ele>146</ele>
        <time>2012-11-11T09:31:39Z</time>
      </trkpt>
      <trkpt lat="44.60884" lon="0.87426">
        <ele>146</ele>
        <time>2012-11-11T09:31:41Z</time>
      </trkpt>
      <trkpt lat="44.60885" lon="0.87416">
        <ele>146</ele>
        <time>2012-11-11T09:31:43Z</time>
      </trkpt>
      <trkpt lat="44.60887" lon="0.87407">
        <ele>146</ele>
        <time>2012-11-11T09:31:45Z</time>
      </trkpt>
      <trkpt lat="44.60889" lon="0.874">
        <ele>146</ele>
        <time>2012-11-11T09:31:47Z</time>
      </trkpt>
      <trkpt lat="44.60894" lon="0.87393">
        <ele>146</ele>
        <time>2012-11-11T09:31:49Z</time>
      </trkpt>
      <trkpt lat="44.60901" lon="0.87388">
        <ele>146</ele>
        <time>2012-11-11T09:31:51Z</time>
      </trkpt>
      <trkpt lat="44.60906" lon="0.87384">
        <ele>146</ele>
        <time>2012-11-11T09:31:53Z</time>
      </trkpt>
      <trkpt lat="44.60911" lon="0.87378">
        <ele>146</ele>
        <time>2012-11-11T09:31:55Z</time>
      </trkpt>
      <trkpt lat="44.60915" lon="0.87373">
        <ele>146</ele>
        <time>2012-11-11T09:31:57Z</time>
      </trkpt>
      <trkpt lat="44.60919" lon="0.87368">
        <ele>146</ele>
        <time>2012-11-11T09:31:59Z</time>
      </trkpt>
      <trkpt lat="44.60923" lon="0.87363">
        <ele>147</ele>
        <time>2012-11-11T09:32:01Z</time>
      </trkpt>
      <trkpt lat="44.60925" lon="0.8736">
        <ele>148</ele>
        <time>2012-11-11T09:32:03Z</time>
      </trkpt>
      <trkpt lat="44.60928" lon="0.87357">
        <ele>149</ele>
        <time>2012-11-11T09:32:05Z</time>
      </trkpt>
      <trkpt lat="44.60932" lon="0.87352">
        <ele>151</ele>
        <time>2012-11-11T09:32:08Z</time>
      </trkpt>
      <trkpt lat="44.60935" lon="0.87349">
        <ele>152</ele>
        <time>2012-11-11T09:32:10Z</time>
      </trkpt>
      <trkpt lat="44.60938" lon="0.87344">
        <ele>154</ele>
        <time>2012-11-11T09:32:12Z</time>
      </trkpt>
      <trkpt lat="44.60942" lon="0.8734">
        <ele>155</ele>
        <time>2012-11-11T09:32:14Z</time>
      </trkpt>
      <trkpt lat="44.60946" lon="0.87335">
        <ele>156</ele>
        <time>2012-11-11T09:32:16Z</time>
      </trkpt>
      <trkpt lat="44.60951" lon="0.8733">
        <ele>157</ele>
        <time>2012-11-11T09:32:18Z</time>
      </trkpt>
      <trkpt lat="44.60957" lon="0.87324">
        <ele>158</ele>
        <time>2012-11-11T09:32:20Z</time>
      </trkpt>
      <trkpt lat="44.60961" lon="0.87318">
        <ele>160</ele>
        <time>2012-11-11T09:32:22Z</time>
      </trkpt>
      <trkpt lat="44.60963" lon="0.87312">
        <ele>161</ele>
        <time>2012-11-11T09:32:24Z</time>
      </trkpt>
      <trkpt lat="44.60966" lon="0.87305">
        <ele>161</ele>
        <time>2012-11-11T09:32:26Z</time>
      </trkpt>
      <trkpt lat="44.60969" lon="0.87299">
        <ele>161</ele>
        <time>2012-11-11T09:32:28Z</time>
      </trkpt>
      <trkpt lat="44.60972" lon="0.87294">
        <ele>162</ele>
        <time>2012-11-11T09:32:30Z</time>
      </trkpt>
      <trkpt lat="44.60975" lon="0.87287">
        <ele>162</ele>
        <time>2012-11-11T09:32:32Z</time>
      </trkpt>
      <trkpt lat="44.60978" lon="0.87281">
        <ele>162</ele>
        <time>2012-11-11T09:32:34Z</time>
      </trkpt>
      <trkpt lat="44.6098" lon="0.87274">
        <ele>162</ele>
        <time>2012-11-11T09:32:36Z</time>
      </trkpt>
      <trkpt lat="44.60984" lon="0.87266">
        <ele>163</ele>
        <time>2012-11-11T09:32:38Z</time>
      </trkpt>
      <trkpt lat="44.60987" lon="0.87261">
        <ele>164</ele>
        <time>2012-11-11T09:32:40Z</time>
      </trkpt>
      <trkpt lat="44.6099" lon="0.87253">
        <ele>165</ele>
        <time>2012-11-11T09:32:42Z</time>
      </trkpt>
      <trkpt lat="44.60993" lon="0.87244">
        <ele>165</ele>
        <time>2012-11-11T09:32:44Z</time>
      </trkpt>
      <trkpt lat="44.60994" lon="0.87236">
        <ele>165</ele>
        <time>2012-11-11T09:32:46Z</time>
      </trkpt>
      <trkpt lat="44.60996" lon="0.87229">
        <ele>165</ele>
        <time>2012-11-11T09:32:48Z</time>
      </trkpt>
      <trkpt lat="44.60999" lon="0.87221">
        <ele>165</ele>
        <time>2012-11-11T09:32:50Z</time>
      </trkpt>
      <trkpt lat="44.61001" lon="0.87214">
        <ele>165</ele>
        <time>2012-11-11T09:32:52Z</time>
      </trkpt>
      <trkpt lat="44.61005" lon="0.87204">
        <ele>164</ele>
        <time>2012-11-11T09:32:54Z</time>
      </trkpt>
      <trkpt lat="44.61009" lon="0.87196">
        <ele>162</ele>
        <time>2012-11-11T09:32:56Z</time>
      </trkpt>
      <trkpt lat="44.61013" lon="0.87187">
        <ele>160</ele>
        <time>2012-11-11T09:32:58Z</time>
      </trkpt>
      <trkpt lat="44.61016" lon="0.87179">
        <ele>158</ele>
        <time>2012-11-11T09:33:00Z</time>
      </trkpt>
      <trkpt lat="44.6102" lon="0.87172">
        <ele>158</ele>
        <time>2012-11-11T09:33:02Z</time>
      </trkpt>
      <trkpt lat="44.61022" lon="0.87165">
        <ele>158</ele>
        <time>2012-11-11T09:33:04Z</time>
      </trkpt>
      <trkpt lat="44.61026" lon="0.8716">
        <ele>158</ele>
        <time>2012-11-11T09:33:06Z</time>
      </trkpt>
      <trkpt lat="44.61029" lon="0.87155">
        <ele>158</ele>
        <time>2012-11-11T09:33:08Z</time>
      </trkpt>
      <trkpt lat="44.6103" lon="0.8715">
        <ele>158</ele>
        <time>2012-11-11T09:33:10Z</time>
      </trkpt>
      <trkpt lat="44.6103" lon="0.87143">
        <ele>158</ele>
        <time>2012-11-11T09:33:12Z</time>
      </trkpt>
      <trkpt lat="44.6103" lon="0.87138">
        <ele>158</ele>
        <time>2012-11-11T09:33:14Z</time>
      </trkpt>
      <trkpt lat="44.61031" lon="0.87133">
        <ele>159</ele>
        <time>2012-11-11T09:33:16Z</time>
      </trkpt>
      <trkpt lat="44.61031" lon="0.8713">
        <ele>161</ele>
        <time>2012-11-11T09:33:18Z</time>
      </trkpt>
      <trkpt lat="44.61031" lon="0.87125">
        <ele>163</ele>
        <time>2012-11-11T09:33:20Z</time>
      </trkpt>
      <trkpt lat="44.61032" lon="0.87117">
        <ele>163</ele>
        <time>2012-11-11T09:33:22Z</time>
      </trkpt>
      <trkpt lat="44.61032" lon="0.8711">
        <ele>164</ele>
        <time>2012-11-11T09:33:24Z</time>
      </trkpt>
      <trkpt lat="44.61032" lon="0.87102">
        <ele>164</ele>
        <time>2012-11-11T09:33:26Z</time>
      </trkpt>
      <trkpt lat="44.6103" lon="0.87093">
        <ele>164</ele>
        <time>2012-11-11T09:33:28Z</time>
      </trkpt>
      <trkpt lat="44.6103" lon="0.87086">
        <ele>165</ele>
        <time>2012-11-11T09:33:30Z</time>
      </trkpt>
      <trkpt lat="44.6103" lon="0.8708">
        <ele>165</ele>
        <time>2012-11-11T09:33:32Z</time>
      </trkpt>
      <trkpt lat="44.6103" lon="0.87073">
        <ele>165</ele>
        <time>2012-11-11T09:33:34Z</time>
      </trkpt>
      <trkpt lat="44.61029" lon="0.87067">
        <ele>165</ele>
        <time>2012-11-11T09:33:36Z</time>
      </trkpt>
      <trkpt lat="44.61026" lon="0.8706">
        <ele>165</ele>
        <time>2012-11-11T09:33:38Z</time>
      </trkpt>
      <trkpt lat="44.61024" lon="0.87053">
        <ele>165</ele>
        <time>2012-11-11T09:33:40Z</time>
      </trkpt>
      <trkpt lat="44.61022" lon="0.87046">
        <ele>165</ele>
        <time>2012-11-11T09:33:42Z</time>
      </trkpt>
      <trkpt lat="44.61022" lon="0.8704">
        <ele>165</ele>
        <time>2012-11-11T09:33:44Z</time>
      </trkpt>
      <trkpt lat="44.61024" lon="0.87036">
        <ele>165</ele>
        <time>2012-11-11T09:33:46Z</time>
      </trkpt>
      <trkpt lat="44.61026" lon="0.87033">
        <ele>165</ele>
        <time>2012-11-11T09:33:48Z</time>
      </trkpt>
      <trkpt lat="44.61031" lon="0.87028">
        <ele>165</ele>
        <time>2012-11-11T09:33:50Z</time>
      </trkpt>
      <trkpt lat="44.61034" lon="0.87022">
        <ele>165</ele>
        <time>2012-11-11T09:33:52Z</time>
      </trkpt>
      <trkpt lat="44.61037" lon="0.87015">
        <ele>164</ele>
        <time>2012-11-11T09:33:54Z</time>
      </trkpt>
      <trkpt lat="44.6104" lon="0.87009">
        <ele>162</ele>
        <time>2012-11-11T09:33:56Z</time>
      </trkpt>
      <trkpt lat="44.61042" lon="0.87001">
        <ele>160</ele>
        <time>2012-11-11T09:33:58Z</time>
      </trkpt>
      <trkpt lat="44.61042" lon="0.86992">
        <ele>158</ele>
        <time>2012-11-11T09:34:00Z</time>
      </trkpt>
      <trkpt lat="44.61043" lon="0.86983">
        <ele>156</ele>
        <time>2012-11-11T09:34:02Z</time>
      </trkpt>
      <trkpt lat="44.61045" lon="0.86971">
        <ele>156</ele>
        <time>2012-11-11T09:34:04Z</time>
      </trkpt>
      <trkpt lat="44.61046" lon="0.86958">
        <ele>156</ele>
        <time>2012-11-11T09:34:06Z</time>
      </trkpt>
      <trkpt lat="44.61046" lon="0.86947">
        <ele>156</ele>
        <time>2012-11-11T09:34:08Z</time>
      </trkpt>
      <trkpt lat="44.61047" lon="0.86941">
        <ele>156</ele>
        <time>2012-11-11T09:34:10Z</time>
      </trkpt>
      <trkpt lat="44.6105" lon="0.86936">
        <ele>156</ele>
        <time>2012-11-11T09:34:12Z</time>
      </trkpt>
      <trkpt lat="44.61053" lon="0.8693">
        <ele>156</ele>
        <time>2012-11-11T09:34:14Z</time>
      </trkpt>
      <trkpt lat="44.61057" lon="0.86922">
        <ele>156</ele>
        <time>2012-11-11T09:34:16Z</time>
      </trkpt>
      <trkpt lat="44.61062" lon="0.86916">
        <ele>156</ele>
        <time>2012-11-11T09:34:18Z</time>
      </trkpt>
      <trkpt lat="44.61066" lon="0.86908">
        <ele>156</ele>
        <time>2012-11-11T09:34:20Z</time>
      </trkpt>
      <trkpt lat="44.61069" lon="0.869">
        <ele>156</ele>
        <time>2012-11-11T09:34:22Z</time>
      </trkpt>
      <trkpt lat="44.61073" lon="0.86892">
        <ele>156</ele>
        <time>2012-11-11T09:34:24Z</time>
      </trkpt>
      <trkpt lat="44.61076" lon="0.86884">
        <ele>156</ele>
        <time>2012-11-11T09:34:26Z</time>
      </trkpt>
      <trkpt lat="44.61081" lon="0.86875">
        <ele>156</ele>
        <time>2012-11-11T09:34:28Z</time>
      </trkpt>
      <trkpt lat="44.61082" lon="0.86867">
        <ele>156</ele>
        <time>2012-11-11T09:34:30Z</time>
      </trkpt>
      <trkpt lat="44.61082" lon="0.8686">
        <ele>156</ele>
        <time>2012-11-11T09:34:32Z</time>
      </trkpt>
      <trkpt lat="44.61086" lon="0.86852">
        <ele>156</ele>
        <time>2012-11-11T09:34:34Z</time>
      </trkpt>
      <trkpt lat="44.61088" lon="0.86844">
        <ele>156</ele>
        <time>2012-11-11T09:34:36Z</time>
      </trkpt>
      <trkpt lat="44.61089" lon="0.86836">
        <ele>156</ele>
        <time>2012-11-11T09:34:38Z</time>
      </trkpt>
      <trkpt lat="44.61091" lon="0.86828">
        <ele>158</ele>
        <time>2012-11-11T09:34:40Z</time>
      </trkpt>
      <trkpt lat="44.61093" lon="0.86819">
        <ele>160</ele>
        <time>2012-11-11T09:34:42Z</time>
      </trkpt>
      <trkpt lat="44.61095" lon="0.86811">
        <ele>160</ele>
        <time>2012-11-11T09:34:44Z</time>
      </trkpt>
      <trkpt lat="44.61097" lon="0.86804">
        <ele>161</ele>
        <time>2012-11-11T09:34:46Z</time>
      </trkpt>
      <trkpt lat="44.61099" lon="0.86796">
        <ele>162</ele>
        <time>2012-11-11T09:34:48Z</time>
      </trkpt>
      <trkpt lat="44.611" lon="0.86787">
        <ele>162</ele>
        <time>2012-11-11T09:34:50Z</time>
      </trkpt>
      <trkpt lat="44.61101" lon="0.86778">
        <ele>162</ele>
        <time>2012-11-11T09:34:52Z</time>
      </trkpt>
      <trkpt lat="44.61103" lon="0.86768">
        <ele>163</ele>
        <time>2012-11-11T09:34:54Z</time>
      </trkpt>
      <trkpt lat="44.61105" lon="0.8676">
        <ele>164</ele>
        <time>2012-11-11T09:34:56Z</time>
      </trkpt>
      <trkpt lat="44.61108" lon="0.86752">
        <ele>165</ele>
        <time>2012-11-11T09:34:58Z</time>
      </trkpt>
      <trkpt lat="44.6111" lon="0.86745">
        <ele>166</ele>
        <time>2012-11-11T09:35:00Z</time>
      </trkpt>
      <trkpt lat="44.61111" lon="0.86737">
        <ele>168</ele>
        <time>2012-11-11T09:35:02Z</time>
      </trkpt>
      <trkpt lat="44.61112" lon="0.86728">
        <ele>170</ele>
        <time>2012-11-11T09:35:04Z</time>
      </trkpt>
      <trkpt lat="44.61115" lon="0.86719">
        <ele>171</ele>
        <time>2012-11-11T09:35:06Z</time>
      </trkpt>
      <trkpt lat="44.61115" lon="0.86711">
        <ele>172</ele>
        <time>2012-11-11T09:35:08Z</time>
      </trkpt>
      <trkpt lat="44.61117" lon="0.86701">
        <ele>172</ele>
        <time>2012-11-11T09:35:10Z</time>
      </trkpt>
      <trkpt lat="44.61119" lon="0.86692">
        <ele>172</ele>
        <time>2012-11-11T09:35:12Z</time>
      </trkpt>
      <trkpt lat="44.61122" lon="0.86684">
        <ele>173</ele>
        <time>2012-11-11T09:35:14Z</time>
      </trkpt>
      <trkpt lat="44.61126" lon="0.86676">
        <ele>175</ele>
        <time>2012-11-11T09:35:16Z</time>
      </trkpt>
      <trkpt lat="44.61129" lon="0.86666">
        <ele>175</ele>
        <time>2012-11-11T09:35:18Z</time>
      </trkpt>
      <trkpt lat="44.61129" lon="0.86657">
        <ele>175</ele>
        <time>2012-11-11T09:35:20Z</time>
      </trkpt>
      <trkpt lat="44.6113" lon="0.86647">
        <ele>175</ele>
        <time>2012-11-11T09:35:22Z</time>
      </trkpt>
      <trkpt lat="44.6113" lon="0.86639">
        <ele>175</ele>
        <time>2012-11-11T09:35:24Z</time>
      </trkpt>
      <trkpt lat="44.61131" lon="0.86631">
        <ele>175</ele>
        <time>2012-11-11T09:35:26Z</time>
      </trkpt>
      <trkpt lat="44.61132" lon="0.86624">
        <ele>175</ele>
        <time>2012-11-11T09:35:28Z</time>
      </trkpt>
      <trkpt lat="44.61135" lon="0.86619">
        <ele>175</ele>
        <time>2012-11-11T09:35:30Z</time>
      </trkpt>
      <trkpt lat="44.61138" lon="0.86612">
        <ele>175</ele>
        <time>2012-11-11T09:35:32Z</time>
      </trkpt>
      <trkpt lat="44.61142" lon="0.86604">
        <ele>175</ele>
        <time>2012-11-11T09:35:34Z</time>
      </trkpt>
      <trkpt lat="44.61143" lon="0.86598">
        <ele>175</ele>
        <time>2012-11-11T09:35:36Z</time>
      </trkpt>
      <trkpt lat="44.61145" lon="0.86591">
        <ele>175</ele>
        <time>2012-11-11T09:35:38Z</time>
      </trkpt>
      <trkpt lat="44.61148" lon="0.86583">
        <ele>175</ele>
        <time>2012-11-11T09:35:40Z</time>
      </trkpt>
      <trkpt lat="44.6115" lon="0.86573">
        <ele>175</ele>
        <time>2012-11-11T09:35:42Z</time>
      </trkpt>
      <trkpt lat="44.61152" lon="0.86563">
        <ele>175</ele>
        <time>2012-11-11T09:35:44Z</time>
      </trkpt>
      <trkpt lat="44.61154" lon="0.86555">
        <ele>175</ele>
        <time>2012-11-11T09:35:46Z</time>
      </trkpt>
      <trkpt lat="44.61155" lon="0.86547">
        <ele>175</ele>
        <time>2012-11-11T09:35:48Z</time>
      </trkpt>
      <trkpt lat="44.61158" lon="0.86539">
        <ele>175</ele>
        <time>2012-11-11T09:35:50Z</time>
      </trkpt>
      <trkpt lat="44.61162" lon="0.86532">
        <ele>175</ele>
        <time>2012-11-11T09:35:52Z</time>
      </trkpt>
      <trkpt lat="44.61164" lon="0.86524">
        <ele>175</ele>
        <time>2012-11-11T09:35:54Z</time>
      </trkpt>
      <trkpt lat="44.61166" lon="0.86518">
        <ele>175</ele>
        <time>2012-11-11T09:35:56Z</time>
      </trkpt>
      <trkpt lat="44.61168" lon="0.86514">
        <ele>175</ele>
        <time>2012-11-11T09:35:59Z</time>
      </trkpt>
      <trkpt lat="44.61169" lon="0.86511">
        <ele>175</ele>
        <time>2012-11-11T09:36:01Z</time>
      </trkpt>
      <trkpt lat="44.61168" lon="0.86509">
        <ele>175</ele>
        <time>2012-11-11T09:36:03Z</time>
      </trkpt>
      <trkpt lat="44.61169" lon="0.86503">
        <ele>175</ele>
        <time>2012-11-11T09:36:05Z</time>
      </trkpt>
      <trkpt lat="44.61172" lon="0.865">
        <ele>175</ele>
        <time>2012-11-11T09:36:07Z</time>
      </trkpt>
      <trkpt lat="44.61174" lon="0.86497">
        <ele>175</ele>
        <time>2012-11-11T09:36:09Z</time>
      </trkpt>
      <trkpt lat="44.61174" lon="0.86493">
        <ele>175</ele>
        <time>2012-11-11T09:36:12Z</time>
      </trkpt>
      <trkpt lat="44.61174" lon="0.86492">
        <ele>176</ele>
        <time>2012-11-11T09:36:57Z</time>
      </trkpt>
      <trkpt lat="44.61176" lon="0.86489">
        <ele>176</ele>
        <time>2012-11-11T09:37:46Z</time>
      </trkpt>
      <trkpt lat="44.61179" lon="0.86484">
        <ele>176</ele>
        <time>2012-11-11T09:37:48Z</time>
      </trkpt>
      <trkpt lat="44.61183" lon="0.86478">
        <ele>176</ele>
        <time>2012-11-11T09:37:50Z</time>
      </trkpt>
      <trkpt lat="44.61187" lon="0.86471">
        <ele>176</ele>
        <time>2012-11-11T09:37:52Z</time>
      </trkpt>
      <trkpt lat="44.61192" lon="0.86464">
        <ele>176</ele>
        <time>2012-11-11T09:37:54Z</time>
      </trkpt>
      <trkpt lat="44.61198" lon="0.86456">
        <ele>176</ele>
        <time>2012-11-11T09:37:56Z</time>
      </trkpt>
      <trkpt lat="44.61204" lon="0.86449">
        <ele>176</ele>
        <time>2012-11-11T09:37:58Z</time>
      </trkpt>
      <trkpt lat="44.6121" lon="0.8644">
        <ele>176</ele>
        <time>2012-11-11T09:38:00Z</time>
      </trkpt>
      <trkpt lat="44.61215" lon="0.86432">
        <ele>176</ele>
        <time>2012-11-11T09:38:02Z</time>
      </trkpt>
      <trkpt lat="44.6122" lon="0.8642">
        <ele>175</ele>
        <time>2012-11-11T09:38:04Z</time>
      </trkpt>
      <trkpt lat="44.61223" lon="0.86409">
        <ele>175</ele>
        <time>2012-11-11T09:38:06Z</time>
      </trkpt>
      <trkpt lat="44.61224" lon="0.864">
        <ele>174</ele>
        <time>2012-11-11T09:38:08Z</time>
      </trkpt>
      <trkpt lat="44.61224" lon="0.86393">
        <ele>174</ele>
        <time>2012-11-11T09:38:10Z</time>
      </trkpt>
      <trkpt lat="44.61221" lon="0.86386">
        <ele>174</ele>
        <time>2012-11-11T09:38:12Z</time>
      </trkpt>
      <trkpt lat="44.61215" lon="0.86379">
        <ele>174</ele>
        <time>2012-11-11T09:38:14Z</time>
      </trkpt>
      <trkpt lat="44.61208" lon="0.86372">
        <ele>174</ele>
        <time>2012-11-11T09:38:16Z</time>
      </trkpt>
      <trkpt lat="44.61202" lon="0.86366">
        <ele>174</ele>
        <time>2012-11-11T09:38:18Z</time>
      </trkpt>
      <trkpt lat="44.61195" lon="0.86359">
        <ele>174</ele>
        <time>2012-11-11T09:38:20Z</time>
      </trkpt>
      <trkpt lat="44.61189" lon="0.8635">
        <ele>174</ele>
        <time>2012-11-11T09:38:22Z</time>
      </trkpt>
      <trkpt lat="44.61187" lon="0.86338">
        <ele>174</ele>
        <time>2012-11-11T09:38:24Z</time>
      </trkpt>
      <trkpt lat="44.61189" lon="0.86326">
        <ele>174</ele>
        <time>2012-11-11T09:38:26Z</time>
      </trkpt>
      <trkpt lat="44.61192" lon="0.86314">
        <ele>174</ele>
        <time>2012-11-11T09:38:28Z</time>
      </trkpt>
      <trkpt lat="44.61194" lon="0.86303">
        <ele>174</ele>
        <time>2012-11-11T09:38:30Z</time>
      </trkpt>
      <trkpt lat="44.61197" lon="0.86289">
        <ele>174</ele>
        <time>2012-11-11T09:38:32Z</time>
      </trkpt>
      <trkpt lat="44.61199" lon="0.86273">
        <ele>174</ele>
        <time>2012-11-11T09:38:34Z</time>
      </trkpt>
      <trkpt lat="44.612" lon="0.86257">
        <ele>174</ele>
        <time>2012-11-11T09:38:36Z</time>
      </trkpt>
      <trkpt lat="44.612" lon="0.86238">
        <ele>174</ele>
        <time>2012-11-11T09:38:38Z</time>
      </trkpt>
      <trkpt lat="44.61199" lon="0.86221">
        <ele>174</ele>
        <time>2012-11-11T09:38:40Z</time>
      </trkpt>
      <trkpt lat="44.61198" lon="0.86206">
        <ele>175</ele>
        <time>2012-11-11T09:38:42Z</time>
      </trkpt>
      <trkpt lat="44.61197" lon="0.86191">
        <ele>175</ele>
        <time>2012-11-11T09:38:44Z</time>
      </trkpt>
      <trkpt lat="44.61196" lon="0.8618">
        <ele>175</ele>
        <time>2012-11-11T09:38:46Z</time>
      </trkpt>
      <trkpt lat="44.61197" lon="0.86169">
        <ele>175</ele>
        <time>2012-11-11T09:38:48Z</time>
      </trkpt>
      <trkpt lat="44.61198" lon="0.86158">
        <ele>175</ele>
        <time>2012-11-11T09:38:50Z</time>
      </trkpt>
      <trkpt lat="44.61203" lon="0.86145">
        <ele>175</ele>
        <time>2012-11-11T09:38:52Z</time>
      </trkpt>
      <trkpt lat="44.61208" lon="0.86131">
        <ele>175</ele>
        <time>2012-11-11T09:38:54Z</time>
      </trkpt>
      <trkpt lat="44.61213" lon="0.86117">
        <ele>175</ele>
        <time>2012-11-11T09:38:56Z</time>
      </trkpt>
      <trkpt lat="44.61217" lon="0.86101">
        <ele>175</ele>
        <time>2012-11-11T09:38:58Z</time>
      </trkpt>
      <trkpt lat="44.61223" lon="0.86083">
        <ele>173</ele>
        <time>2012-11-11T09:39:00Z</time>
      </trkpt>
      <trkpt lat="44.61232" lon="0.86068">
        <ele>171</ele>
        <time>2012-11-11T09:39:02Z</time>
      </trkpt>
      <trkpt lat="44.61242" lon="0.86051">
        <ele>169</ele>
        <time>2012-11-11T09:39:04Z</time>
      </trkpt>
      <trkpt lat="44.61255" lon="0.86034">
        <ele>167</ele>
        <time>2012-11-11T09:39:06Z</time>
      </trkpt>
      <trkpt lat="44.61269" lon="0.86014">
        <ele>165</ele>
        <time>2012-11-11T09:39:08Z</time>
      </trkpt>
      <trkpt lat="44.61282" lon="0.85988">
        <ele>163</ele>
        <time>2012-11-11T09:39:10Z</time>
      </trkpt>
      <trkpt lat="44.61291" lon="0.85957">
        <ele>161</ele>
        <time>2012-11-11T09:39:12Z</time>
      </trkpt>
      <trkpt lat="44.613" lon="0.85931">
        <ele>159</ele>
        <time>2012-11-11T09:39:14Z</time>
      </trkpt>
      <trkpt lat="44.61307" lon="0.85906">
        <ele>158</ele>
        <time>2012-11-11T09:39:16Z</time>
      </trkpt>
      <trkpt lat="44.61314" lon="0.8588">
        <ele>158</ele>
        <time>2012-11-11T09:39:18Z</time>
      </trkpt>
      <trkpt lat="44.61322" lon="0.85853">
        <ele>158</ele>
        <time>2012-11-11T09:39:20Z</time>
      </trkpt>
      <trkpt lat="44.61332" lon="0.8583">
        <ele>158</ele>
        <time>2012-11-11T09:39:22Z</time>
      </trkpt>
      <trkpt lat="44.61342" lon="0.85811">
        <ele>158</ele>
        <time>2012-11-11T09:39:24Z</time>
      </trkpt>
      <trkpt lat="44.6135" lon="0.85795">
        <ele>158</ele>
        <time>2012-11-11T09:39:26Z</time>
      </trkpt>
      <trkpt lat="44.61359" lon="0.85781">
        <ele>158</ele>
        <time>2012-11-11T09:39:28Z</time>
      </trkpt>
      <trkpt lat="44.61367" lon="0.85769">
        <ele>158</ele>
        <time>2012-11-11T09:39:30Z</time>
      </trkpt>
      <trkpt lat="44.61375" lon="0.85759">
        <ele>158</ele>
        <time>2012-11-11T09:39:32Z</time>
      </trkpt>
      <trkpt lat="44.61381" lon="0.85753">
        <ele>158</ele>
        <time>2012-11-11T09:39:34Z</time>
      </trkpt>
      <trkpt lat="44.61386" lon="0.85747">
        <ele>158</ele>
        <time>2012-11-11T09:39:36Z</time>
      </trkpt>
      <trkpt lat="44.61392" lon="0.85741">
        <ele>158</ele>
        <time>2012-11-11T09:39:38Z</time>
      </trkpt>
      <trkpt lat="44.61394" lon="0.85734">
        <ele>158</ele>
        <time>2012-11-11T09:39:40Z</time>
      </trkpt>
      <trkpt lat="44.61394" lon="0.85729">
        <ele>158</ele>
        <time>2012-11-11T09:39:43Z</time>
      </trkpt>
      <trkpt lat="44.61392" lon="0.8573">
        <ele>158</ele>
        <time>2012-11-11T09:39:45Z</time>
      </trkpt>
      <trkpt lat="44.61388" lon="0.85729">
        <ele>158</ele>
        <time>2012-11-11T09:39:47Z</time>
      </trkpt>
      <trkpt lat="44.61385" lon="0.85726">
        <ele>158</ele>
        <time>2012-11-11T09:39:49Z</time>
      </trkpt>
      <trkpt lat="44.61382" lon="0.85723">
        <ele>158</ele>
        <time>2012-11-11T09:39:51Z</time>
      </trkpt>
      <trkpt lat="44.61378" lon="0.85718">
        <ele>158</ele>
        <time>2012-11-11T09:39:53Z</time>
      </trkpt>
      <trkpt lat="44.61376" lon="0.85714">
        <ele>158</ele>
        <time>2012-11-11T09:39:55Z</time>
      </trkpt>
      <trkpt lat="44.6137" lon="0.85708">
        <ele>158</ele>
        <time>2012-11-11T09:39:57Z</time>
      </trkpt>
      <trkpt lat="44.61365" lon="0.85697">
        <ele>158</ele>
        <time>2012-11-11T09:39:59Z</time>
      </trkpt>
      <trkpt lat="44.61361" lon="0.85685">
        <ele>158</ele>
        <time>2012-11-11T09:40:01Z</time>
      </trkpt>
      <trkpt lat="44.61356" lon="0.85677">
        <ele>158</ele>
        <time>2012-11-11T09:40:03Z</time>
      </trkpt>
      <trkpt lat="44.61351" lon="0.85675">
        <ele>158</ele>
        <time>2012-11-11T09:40:05Z</time>
      </trkpt>
      <trkpt lat="44.61345" lon="0.85672">
        <ele>158</ele>
        <time>2012-11-11T09:40:07Z</time>
      </trkpt>
      <trkpt lat="44.61338" lon="0.85667">
        <ele>158</ele>
        <time>2012-11-11T09:40:09Z</time>
      </trkpt>
      <trkpt lat="44.61329" lon="0.85661">
        <ele>158</ele>
        <time>2012-11-11T09:40:11Z</time>
      </trkpt>
      <trkpt lat="44.6132" lon="0.85655">
        <ele>158</ele>
        <time>2012-11-11T09:40:13Z</time>
      </trkpt>
      <trkpt lat="44.61312" lon="0.85649">
        <ele>158</ele>
        <time>2012-11-11T09:40:15Z</time>
      </trkpt>
      <trkpt lat="44.61306" lon="0.85645">
        <ele>158</ele>
        <time>2012-11-11T09:40:17Z</time>
      </trkpt>
      <trkpt lat="44.61298" lon="0.8564">
        <ele>158</ele>
        <time>2012-11-11T09:40:19Z</time>
      </trkpt>
      <trkpt lat="44.6129" lon="0.85633">
        <ele>158</ele>
        <time>2012-11-11T09:40:21Z</time>
      </trkpt>
      <trkpt lat="44.61282" lon="0.85626">
        <ele>158</ele>
        <time>2012-11-11T09:40:23Z</time>
      </trkpt>
      <trkpt lat="44.61273" lon="0.85618">
        <ele>158</ele>
        <time>2012-11-11T09:40:25Z</time>
      </trkpt>
      <trkpt lat="44.61265" lon="0.85611">
        <ele>157</ele>
        <time>2012-11-11T09:40:27Z</time>
      </trkpt>
      <trkpt lat="44.61256" lon="0.856">
        <ele>156</ele>
        <time>2012-11-11T09:40:29Z</time>
      </trkpt>
      <trkpt lat="44.61246" lon="0.85587">
        <ele>156</ele>
        <time>2012-11-11T09:40:31Z</time>
      </trkpt>
      <trkpt lat="44.61241" lon="0.85572">
        <ele>156</ele>
        <time>2012-11-11T09:40:33Z</time>
      </trkpt>
      <trkpt lat="44.6124" lon="0.85557">
        <ele>156</ele>
        <time>2012-11-11T09:40:35Z</time>
      </trkpt>
      <trkpt lat="44.61242" lon="0.85542">
        <ele>158</ele>
        <time>2012-11-11T09:40:37Z</time>
      </trkpt>
      <trkpt lat="44.61246" lon="0.85528">
        <ele>159</ele>
        <time>2012-11-11T09:40:39Z</time>
      </trkpt>
      <trkpt lat="44.61251" lon="0.85517">
        <ele>159</ele>
        <time>2012-11-11T09:40:41Z</time>
      </trkpt>
      <trkpt lat="44.61258" lon="0.85506">
        <ele>159</ele>
        <time>2012-11-11T09:40:43Z</time>
      </trkpt>
      <trkpt lat="44.61264" lon="0.85494">
        <ele>159</ele>
        <time>2012-11-11T09:40:45Z</time>
      </trkpt>
      <trkpt lat="44.61269" lon="0.85483">
        <ele>159</ele>
        <time>2012-11-11T09:40:47Z</time>
      </trkpt>
      <trkpt lat="44.61272" lon="0.8547">
        <ele>158</ele>
        <time>2012-11-11T09:40:49Z</time>
      </trkpt>
      <trkpt lat="44.61274" lon="0.85457">
        <ele>158</ele>
        <time>2012-11-11T09:40:51Z</time>
      </trkpt>
      <trkpt lat="44.61277" lon="0.85443">
        <ele>158</ele>
        <time>2012-11-11T09:40:53Z</time>
      </trkpt>
      <trkpt lat="44.61281" lon="0.85427">
        <ele>158</ele>
        <time>2012-11-11T09:40:55Z</time>
      </trkpt>
      <trkpt lat="44.61287" lon="0.85413">
        <ele>159</ele>
        <time>2012-11-11T09:40:57Z</time>
      </trkpt>
      <trkpt lat="44.61292" lon="0.85401">
        <ele>160</ele>
        <time>2012-11-11T09:40:59Z</time>
      </trkpt>
      <trkpt lat="44.61298" lon="0.8539">
        <ele>160</ele>
        <time>2012-11-11T09:41:01Z</time>
      </trkpt>
      <trkpt lat="44.61305" lon="0.85378">
        <ele>160</ele>
        <time>2012-11-11T09:41:03Z</time>
      </trkpt>
      <trkpt lat="44.61313" lon="0.85369">
        <ele>160</ele>
        <time>2012-11-11T09:41:05Z</time>
      </trkpt>
      <trkpt lat="44.61322" lon="0.85361">
        <ele>161</ele>
        <time>2012-11-11T09:41:07Z</time>
      </trkpt>
      <trkpt lat="44.6133" lon="0.85353">
        <ele>161</ele>
        <time>2012-11-11T09:41:09Z</time>
      </trkpt>
      <trkpt lat="44.61337" lon="0.85343">
        <ele>161</ele>
        <time>2012-11-11T09:41:11Z</time>
      </trkpt>
      <trkpt lat="44.61342" lon="0.85333">
        <ele>162</ele>
        <time>2012-11-11T09:41:13Z</time>
      </trkpt>
      <trkpt lat="44.61347" lon="0.85323">
        <ele>163</ele>
        <time>2012-11-11T09:41:15Z</time>
      </trkpt>
      <trkpt lat="44.61351" lon="0.85313">
        <ele>163</ele>
        <time>2012-11-11T09:41:17Z</time>
      </trkpt>
      <trkpt lat="44.61356" lon="0.85303">
        <ele>163</ele>
        <time>2012-11-11T09:41:19Z</time>
      </trkpt>
      <trkpt lat="44.61363" lon="0.8529">
        <ele>163</ele>
        <time>2012-11-11T09:41:21Z</time>
      </trkpt>
      <trkpt lat="44.6137" lon="0.85274">
        <ele>163</ele>
        <time>2012-11-11T09:41:23Z</time>
      </trkpt>
      <trkpt lat="44.61375" lon="0.85255">
        <ele>163</ele>
        <time>2012-11-11T09:41:25Z</time>
      </trkpt>
      <trkpt lat="44.61382" lon="0.85236">
        <ele>163</ele>
        <time>2012-11-11T09:41:27Z</time>
      </trkpt>
      <trkpt lat="44.61384" lon="0.85215">
        <ele>163</ele>
        <time>2012-11-11T09:41:29Z</time>
      </trkpt>
      <trkpt lat="44.61383" lon="0.85194">
        <ele>163</ele>
        <time>2012-11-11T09:41:31Z</time>
      </trkpt>
      <trkpt lat="44.61384" lon="0.85172">
        <ele>163</ele>
        <time>2012-11-11T09:41:33Z</time>
      </trkpt>
      <trkpt lat="44.61388" lon="0.85151">
        <ele>163</ele>
        <time>2012-11-11T09:41:35Z</time>
      </trkpt>
      <trkpt lat="44.61393" lon="0.85133">
        <ele>163</ele>
        <time>2012-11-11T09:41:37Z</time>
      </trkpt>
      <trkpt lat="44.61395" lon="0.85113">
        <ele>163</ele>
        <time>2012-11-11T09:41:39Z</time>
      </trkpt>
      <trkpt lat="44.61398" lon="0.85094">
        <ele>163</ele>
        <time>2012-11-11T09:41:41Z</time>
      </trkpt>
      <trkpt lat="44.61399" lon="0.85074">
        <ele>161</ele>
        <time>2012-11-11T09:41:43Z</time>
      </trkpt>
      <trkpt lat="44.61402" lon="0.85051">
        <ele>159</ele>
        <time>2012-11-11T09:41:45Z</time>
      </trkpt>
      <trkpt lat="44.61408" lon="0.85031">
        <ele>157</ele>
        <time>2012-11-11T09:41:47Z</time>
      </trkpt>
      <trkpt lat="44.61416" lon="0.8501">
        <ele>156</ele>
        <time>2012-11-11T09:41:49Z</time>
      </trkpt>
      <trkpt lat="44.61421" lon="0.84993">
        <ele>156</ele>
        <time>2012-11-11T09:41:51Z</time>
      </trkpt>
      <trkpt lat="44.61424" lon="0.84976">
        <ele>156</ele>
        <time>2012-11-11T09:41:53Z</time>
      </trkpt>
      <trkpt lat="44.61418" lon="0.84966">
        <ele>155</ele>
        <time>2012-11-11T09:41:55Z</time>
      </trkpt>
      <trkpt lat="44.61409" lon="0.84953">
        <ele>154</ele>
        <time>2012-11-11T09:41:57Z</time>
      </trkpt>
      <trkpt lat="44.61401" lon="0.84936">
        <ele>154</ele>
        <time>2012-11-11T09:41:59Z</time>
      </trkpt>
      <trkpt lat="44.61393" lon="0.8492">
        <ele>154</ele>
        <time>2012-11-11T09:42:01Z</time>
      </trkpt>
      <trkpt lat="44.61386" lon="0.84905">
        <ele>154</ele>
        <time>2012-11-11T09:42:03Z</time>
      </trkpt>
      <trkpt lat="44.6138" lon="0.8489">
        <ele>154</ele>
        <time>2012-11-11T09:42:05Z</time>
      </trkpt>
      <trkpt lat="44.61375" lon="0.84874">
        <ele>154</ele>
        <time>2012-11-11T09:42:07Z</time>
      </trkpt>
      <trkpt lat="44.6137" lon="0.8486">
        <ele>154</ele>
        <time>2012-11-11T09:42:09Z</time>
      </trkpt>
      <trkpt lat="44.61366" lon="0.84843">
        <ele>154</ele>
        <time>2012-11-11T09:42:11Z</time>
      </trkpt>
      <trkpt lat="44.61365" lon="0.84827">
        <ele>154</ele>
        <time>2012-11-11T09:42:13Z</time>
      </trkpt>
      <trkpt lat="44.61367" lon="0.84815">
        <ele>155</ele>
        <time>2012-11-11T09:42:15Z</time>
      </trkpt>
      <trkpt lat="44.61366" lon="0.84809">
        <ele>155</ele>
        <time>2012-11-11T09:42:17Z</time>
      </trkpt>
      <trkpt lat="44.61364" lon="0.84807">
        <ele>155</ele>
        <time>2012-11-11T09:42:19Z</time>
      </trkpt>
      <trkpt lat="44.61361" lon="0.84806">
        <ele>155</ele>
        <time>2012-11-11T09:42:21Z</time>
      </trkpt>
      <trkpt lat="44.61356" lon="0.84802">
        <ele>155</ele>
        <time>2012-11-11T09:42:23Z</time>
      </trkpt>
      <trkpt lat="44.61349" lon="0.84799">
        <ele>155</ele>
        <time>2012-11-11T09:42:25Z</time>
      </trkpt>
      <trkpt lat="44.6134" lon="0.84792">
        <ele>155</ele>
        <time>2012-11-11T09:42:27Z</time>
      </trkpt>
      <trkpt lat="44.61335" lon="0.84781">
        <ele>155</ele>
        <time>2012-11-11T09:42:29Z</time>
      </trkpt>
      <trkpt lat="44.61333" lon="0.84767">
        <ele>155</ele>
        <time>2012-11-11T09:42:31Z</time>
      </trkpt>
      <trkpt lat="44.6133" lon="0.84753">
        <ele>154</ele>
        <time>2012-11-11T09:42:33Z</time>
      </trkpt>
      <trkpt lat="44.61324" lon="0.84743">
        <ele>152</ele>
        <time>2012-11-11T09:42:35Z</time>
      </trkpt>
      <trkpt lat="44.61314" lon="0.84731">
        <ele>150</ele>
        <time>2012-11-11T09:42:37Z</time>
      </trkpt>
      <trkpt lat="44.61308" lon="0.84715">
        <ele>148</ele>
        <time>2012-11-11T09:42:39Z</time>
      </trkpt>
      <trkpt lat="44.61302" lon="0.84702">
        <ele>147</ele>
        <time>2012-11-11T09:42:41Z</time>
      </trkpt>
      <trkpt lat="44.61294" lon="0.84692">
        <ele>145</ele>
        <time>2012-11-11T09:42:43Z</time>
      </trkpt>
      <trkpt lat="44.61284" lon="0.8469">
        <ele>143</ele>
        <time>2012-11-11T09:42:45Z</time>
      </trkpt>
      <trkpt lat="44.61275" lon="0.84691">
        <ele>141</ele>
        <time>2012-11-11T09:42:47Z</time>
      </trkpt>
      <trkpt lat="44.61266" lon="0.84695">
        <ele>139</ele>
        <time>2012-11-11T09:42:49Z</time>
      </trkpt>
      <trkpt lat="44.61255" lon="0.84699">
        <ele>137</ele>
        <time>2012-11-11T09:42:51Z</time>
      </trkpt>
      <trkpt lat="44.61242" lon="0.84698">
        <ele>135</ele>
        <time>2012-11-11T09:42:53Z</time>
      </trkpt>
      <trkpt lat="44.61229" lon="0.84698">
        <ele>133</ele>
        <time>2012-11-11T09:42:55Z</time>
      </trkpt>
      <trkpt lat="44.61216" lon="0.84698">
        <ele>132</ele>
        <time>2012-11-11T09:42:57Z</time>
      </trkpt>
      <trkpt lat="44.61204" lon="0.84694">
        <ele>132</ele>
        <time>2012-11-11T09:42:59Z</time>
      </trkpt>
      <trkpt lat="44.61195" lon="0.84685">
        <ele>132</ele>
        <time>2012-11-11T09:43:01Z</time>
      </trkpt>
      <trkpt lat="44.61189" lon="0.84676">
        <ele>132</ele>
        <time>2012-11-11T09:43:03Z</time>
      </trkpt>
      <trkpt lat="44.6118" lon="0.84667">
        <ele>132</ele>
        <time>2012-11-11T09:43:05Z</time>
      </trkpt>
      <trkpt lat="44.61171" lon="0.84658">
        <ele>132</ele>
        <time>2012-11-11T09:43:07Z</time>
      </trkpt>
      <trkpt lat="44.6116" lon="0.8465">
        <ele>132</ele>
        <time>2012-11-11T09:43:09Z</time>
      </trkpt>
      <trkpt lat="44.6115" lon="0.8464">
        <ele>132</ele>
        <time>2012-11-11T09:43:11Z</time>
      </trkpt>
      <trkpt lat="44.61137" lon="0.84631">
        <ele>133</ele>
        <time>2012-11-11T09:43:13Z</time>
      </trkpt>
      <trkpt lat="44.61125" lon="0.84626">
        <ele>134</ele>
        <time>2012-11-11T09:43:15Z</time>
      </trkpt>
      <trkpt lat="44.61116" lon="0.84616">
        <ele>135</ele>
        <time>2012-11-11T09:43:17Z</time>
      </trkpt>
      <trkpt lat="44.61112" lon="0.84601">
        <ele>137</ele>
        <time>2012-11-11T09:43:19Z</time>
      </trkpt>
      <trkpt lat="44.61112" lon="0.8458">
        <ele>139</ele>
        <time>2012-11-11T09:43:21Z</time>
      </trkpt>
      <trkpt lat="44.61113" lon="0.84562">
        <ele>139</ele>
        <time>2012-11-11T09:43:23Z</time>
      </trkpt>
      <trkpt lat="44.61106" lon="0.84545">
        <ele>139</ele>
        <time>2012-11-11T09:43:25Z</time>
      </trkpt>
      <trkpt lat="44.61098" lon="0.84527">
        <ele>140</ele>
        <time>2012-11-11T09:43:27Z</time>
      </trkpt>
      <trkpt lat="44.61088" lon="0.84508">
        <ele>140</ele>
        <time>2012-11-11T09:43:29Z</time>
      </trkpt>
      <trkpt lat="44.61081" lon="0.84492">
        <ele>141</ele>
        <time>2012-11-11T09:43:31Z</time>
      </trkpt>
      <trkpt lat="44.61074" lon="0.84478">
        <ele>143</ele>
        <time>2012-11-11T09:43:33Z</time>
      </trkpt>
      <trkpt lat="44.61068" lon="0.84469">
        <ele>143</ele>
        <time>2012-11-11T09:43:35Z</time>
      </trkpt>
      <trkpt lat="44.61063" lon="0.84468">
        <ele>143</ele>
        <time>2012-11-11T09:43:37Z</time>
      </trkpt>
      <trkpt lat="44.61061" lon="0.84477">
        <ele>143</ele>
        <time>2012-11-11T09:43:39Z</time>
      </trkpt>
      <trkpt lat="44.61059" lon="0.84487">
        <ele>143</ele>
        <time>2012-11-11T09:43:41Z</time>
      </trkpt>
      <trkpt lat="44.61057" lon="0.84497">
        <ele>143</ele>
        <time>2012-11-11T09:43:43Z</time>
      </trkpt>
      <trkpt lat="44.61055" lon="0.84506">
        <ele>143</ele>
        <time>2012-11-11T09:43:45Z</time>
      </trkpt>
      <trkpt lat="44.61055" lon="0.84517">
        <ele>143</ele>
        <time>2012-11-11T09:43:47Z</time>
      </trkpt>
      <trkpt lat="44.61054" lon="0.84527">
        <ele>143</ele>
        <time>2012-11-11T09:43:49Z</time>
      </trkpt>
      <trkpt lat="44.61052" lon="0.84539">
        <ele>143</ele>
        <time>2012-11-11T09:43:51Z</time>
      </trkpt>
      <trkpt lat="44.6105" lon="0.84548">
        <ele>143</ele>
        <time>2012-11-11T09:43:53Z</time>
      </trkpt>
      <trkpt lat="44.61047" lon="0.84557">
        <ele>143</ele>
        <time>2012-11-11T09:43:55Z</time>
      </trkpt>
      <trkpt lat="44.61044" lon="0.84568">
        <ele>143</ele>
        <time>2012-11-11T09:43:57Z</time>
      </trkpt>
      <trkpt lat="44.61042" lon="0.84578">
        <ele>143</ele>
        <time>2012-11-11T09:43:59Z</time>
      </trkpt>
      <trkpt lat="44.6104" lon="0.84588">
        <ele>143</ele>
        <time>2012-11-11T09:44:01Z</time>
      </trkpt>
      <trkpt lat="44.61037" lon="0.84593">
        <ele>144</ele>
        <time>2012-11-11T09:44:03Z</time>
      </trkpt>
      <trkpt lat="44.61035" lon="0.846">
        <ele>144</ele>
        <time>2012-11-11T09:44:05Z</time>
      </trkpt>
      <trkpt lat="44.61036" lon="0.84607">
        <ele>144</ele>
        <time>2012-11-11T09:44:07Z</time>
      </trkpt>
      <trkpt lat="44.61034" lon="0.84616">
        <ele>144</ele>
        <time>2012-11-11T09:44:09Z</time>
      </trkpt>
      <trkpt lat="44.61032" lon="0.84626">
        <ele>146</ele>
        <time>2012-11-11T09:44:11Z</time>
      </trkpt>
      <trkpt lat="44.61031" lon="0.84633">
        <ele>147</ele>
        <time>2012-11-11T09:44:13Z</time>
      </trkpt>
      <trkpt lat="44.61028" lon="0.84642">
        <ele>148</ele>
        <time>2012-11-11T09:44:15Z</time>
      </trkpt>
      <trkpt lat="44.61026" lon="0.84651">
        <ele>149</ele>
        <time>2012-11-11T09:44:17Z</time>
      </trkpt>
      <trkpt lat="44.61022" lon="0.8466">
        <ele>149</ele>
        <time>2012-11-11T09:44:19Z</time>
      </trkpt>
      <trkpt lat="44.6102" lon="0.84667">
        <ele>150</ele>
        <time>2012-11-11T09:44:21Z</time>
      </trkpt>
      <trkpt lat="44.61017" lon="0.84675">
        <ele>150</ele>
        <time>2012-11-11T09:44:23Z</time>
      </trkpt>
      <trkpt lat="44.61014" lon="0.84682">
        <ele>150</ele>
        <time>2012-11-11T09:44:25Z</time>
      </trkpt>
      <trkpt lat="44.61011" lon="0.84689">
        <ele>150</ele>
        <time>2012-11-11T09:44:27Z</time>
      </trkpt>
      <trkpt lat="44.61008" lon="0.84695">
        <ele>150</ele>
        <time>2012-11-11T09:44:29Z</time>
      </trkpt>
      <trkpt lat="44.61003" lon="0.84699">
        <ele>150</ele>
        <time>2012-11-11T09:44:31Z</time>
      </trkpt>
      <trkpt lat="44.60997" lon="0.84698">
        <ele>150</ele>
        <time>2012-11-11T09:44:33Z</time>
      </trkpt>
      <trkpt lat="44.60992" lon="0.84697">
        <ele>150</ele>
        <time>2012-11-11T09:44:35Z</time>
      </trkpt>
      <trkpt lat="44.60986" lon="0.84697">
        <ele>150</ele>
        <time>2012-11-11T09:44:37Z</time>
      </trkpt>
      <trkpt lat="44.60981" lon="0.84696">
        <ele>150</ele>
        <time>2012-11-11T09:44:39Z</time>
      </trkpt>
      <trkpt lat="44.60975" lon="0.84694">
        <ele>150</ele>
        <time>2012-11-11T09:44:41Z</time>
      </trkpt>
      <trkpt lat="44.60969" lon="0.84692">
        <ele>150</ele>
        <time>2012-11-11T09:44:43Z</time>
      </trkpt>
      <trkpt lat="44.60963" lon="0.84688">
        <ele>150</ele>
        <time>2012-11-11T09:44:45Z</time>
      </trkpt>
      <trkpt lat="44.60958" lon="0.84684">
        <ele>150</ele>
        <time>2012-11-11T09:44:47Z</time>
      </trkpt>
      <trkpt lat="44.60952" lon="0.84682">
        <ele>150</ele>
        <time>2012-11-11T09:44:49Z</time>
      </trkpt>
      <trkpt lat="44.60944" lon="0.84686">
        <ele>149</ele>
        <time>2012-11-11T09:44:51Z</time>
      </trkpt>
      <trkpt lat="44.60939" lon="0.84693">
        <ele>148</ele>
        <time>2012-11-11T09:44:53Z</time>
      </trkpt>
      <trkpt lat="44.60934" lon="0.847">
        <ele>148</ele>
        <time>2012-11-11T09:44:55Z</time>
      </trkpt>
      <trkpt lat="44.60928" lon="0.84706">
        <ele>148</ele>
        <time>2012-11-11T09:44:57Z</time>
      </trkpt>
      <trkpt lat="44.60923" lon="0.8471">
        <ele>148</ele>
        <time>2012-11-11T09:44:59Z</time>
      </trkpt>
      <trkpt lat="44.60918" lon="0.84713">
        <ele>148</ele>
        <time>2012-11-11T09:45:01Z</time>
      </trkpt>
      <trkpt lat="44.60913" lon="0.84717">
        <ele>148</ele>
        <time>2012-11-11T09:45:03Z</time>
      </trkpt>
      <trkpt lat="44.60908" lon="0.84722">
        <ele>148</ele>
        <time>2012-11-11T09:45:05Z</time>
      </trkpt>
      <trkpt lat="44.60904" lon="0.84725">
        <ele>148</ele>
        <time>2012-11-11T09:45:07Z</time>
      </trkpt>
      <trkpt lat="44.60898" lon="0.84723">
        <ele>148</ele>
        <time>2012-11-11T09:45:09Z</time>
      </trkpt>
      <trkpt lat="44.60894" lon="0.84716">
        <ele>148</ele>
        <time>2012-11-11T09:45:11Z</time>
      </trkpt>
      <trkpt lat="44.6089" lon="0.84708">
        <ele>148</ele>
        <time>2012-11-11T09:45:13Z</time>
      </trkpt>
      <trkpt lat="44.60886" lon="0.84698">
        <ele>148</ele>
        <time>2012-11-11T09:45:15Z</time>
      </trkpt>
      <trkpt lat="44.60883" lon="0.84688">
        <ele>148</ele>
        <time>2012-11-11T09:45:17Z</time>
      </trkpt>
      <trkpt lat="44.60882" lon="0.84682">
        <ele>148</ele>
        <time>2012-11-11T09:45:19Z</time>
      </trkpt>
      <trkpt lat="44.60881" lon="0.84676">
        <ele>148</ele>
        <time>2012-11-11T09:45:21Z</time>
      </trkpt>
      <trkpt lat="44.60879" lon="0.84674">
        <ele>148</ele>
        <time>2012-11-11T09:45:23Z</time>
      </trkpt>
      <trkpt lat="44.60876" lon="0.8467">
        <ele>148</ele>
        <time>2012-11-11T09:45:25Z</time>
      </trkpt>
      <trkpt lat="44.60875" lon="0.84665">
        <ele>149</ele>
        <time>2012-11-11T09:45:27Z</time>
      </trkpt>
      <trkpt lat="44.60873" lon="0.8466">
        <ele>149</ele>
        <time>2012-11-11T09:45:29Z</time>
      </trkpt>
      <trkpt lat="44.60868" lon="0.84658">
        <ele>149</ele>
        <time>2012-11-11T09:45:31Z</time>
      </trkpt>
      <trkpt lat="44.60863" lon="0.84656">
        <ele>149</ele>
        <time>2012-11-11T09:45:33Z</time>
      </trkpt>
      <trkpt lat="44.60859" lon="0.84655">
        <ele>149</ele>
        <time>2012-11-11T09:45:35Z</time>
      </trkpt>
      <trkpt lat="44.60854" lon="0.84652">
        <ele>149</ele>
        <time>2012-11-11T09:45:37Z</time>
      </trkpt>
      <trkpt lat="44.60849" lon="0.84649">
        <ele>149</ele>
        <time>2012-11-11T09:45:39Z</time>
      </trkpt>
      <trkpt lat="44.60843" lon="0.84644">
        <ele>149</ele>
        <time>2012-11-11T09:45:41Z</time>
      </trkpt>
      <trkpt lat="44.60837" lon="0.84636">
        <ele>149</ele>
        <time>2012-11-11T09:45:43Z</time>
      </trkpt>
      <trkpt lat="44.60832" lon="0.84628">
        <ele>149</ele>
        <time>2012-11-11T09:45:45Z</time>
      </trkpt>
      <trkpt lat="44.60824" lon="0.8462">
        <ele>149</ele>
        <time>2012-11-11T09:45:47Z</time>
      </trkpt>
      <trkpt lat="44.60818" lon="0.84609">
        <ele>149</ele>
        <time>2012-11-11T09:45:49Z</time>
      </trkpt>
      <trkpt lat="44.60812" lon="0.846">
        <ele>149</ele>
        <time>2012-11-11T09:45:51Z</time>
      </trkpt>
      <trkpt lat="44.60806" lon="0.84589">
        <ele>149</ele>
        <time>2012-11-11T09:45:53Z</time>
      </trkpt>
      <trkpt lat="44.60802" lon="0.84579">
        <ele>149</ele>
        <time>2012-11-11T09:45:55Z</time>
      </trkpt>
      <trkpt lat="44.60798" lon="0.84569">
        <ele>149</ele>
        <time>2012-11-11T09:45:57Z</time>
      </trkpt>
      <trkpt lat="44.60793" lon="0.8456">
        <ele>149</ele>
        <time>2012-11-11T09:45:59Z</time>
      </trkpt>
      <trkpt lat="44.60789" lon="0.84553">
        <ele>149</ele>
        <time>2012-11-11T09:46:01Z</time>
      </trkpt>
      <trkpt lat="44.60783" lon="0.84544">
        <ele>149</ele>
        <time>2012-11-11T09:46:03Z</time>
      </trkpt>
      <trkpt lat="44.60777" lon="0.84536">
        <ele>149</ele>
        <time>2012-11-11T09:46:05Z</time>
      </trkpt>
      <trkpt lat="44.6077" lon="0.84529">
        <ele>149</ele>
        <time>2012-11-11T09:46:07Z</time>
      </trkpt>
      <trkpt lat="44.60764" lon="0.84522">
        <ele>149</ele>
        <time>2012-11-11T09:46:09Z</time>
      </trkpt>
      <trkpt lat="44.60759" lon="0.84514">
        <ele>149</ele>
        <time>2012-11-11T09:46:11Z</time>
      </trkpt>
      <trkpt lat="44.60754" lon="0.84507">
        <ele>149</ele>
        <time>2012-11-11T09:46:13Z</time>
      </trkpt>
      <trkpt lat="44.60748" lon="0.84499">
        <ele>149</ele>
        <time>2012-11-11T09:46:15Z</time>
      </trkpt>
      <trkpt lat="44.60742" lon="0.84492">
        <ele>149</ele>
        <time>2012-11-11T09:46:17Z</time>
      </trkpt>
      <trkpt lat="44.60737" lon="0.84487">
        <ele>149</ele>
        <time>2012-11-11T09:46:19Z</time>
      </trkpt>
      <trkpt lat="44.60733" lon="0.84482">
        <ele>149</ele>
        <time>2012-11-11T09:46:21Z</time>
      </trkpt>
      <trkpt lat="44.60728" lon="0.84477">
        <ele>148</ele>
        <time>2012-11-11T09:46:23Z</time>
      </trkpt>
      <trkpt lat="44.60722" lon="0.84473">
        <ele>147</ele>
        <time>2012-11-11T09:46:25Z</time>
      </trkpt>
      <trkpt lat="44.60716" lon="0.84468">
        <ele>146</ele>
        <time>2012-11-11T09:46:27Z</time>
      </trkpt>
      <trkpt lat="44.60709" lon="0.8446">
        <ele>146</ele>
        <time>2012-11-11T09:46:29Z</time>
      </trkpt>
      <trkpt lat="44.60703" lon="0.84452">
        <ele>146</ele>
        <time>2012-11-11T09:46:31Z</time>
      </trkpt>
      <trkpt lat="44.60697" lon="0.84444">
        <ele>146</ele>
        <time>2012-11-11T09:46:33Z</time>
      </trkpt>
      <trkpt lat="44.60691" lon="0.84436">
        <ele>146</ele>
        <time>2012-11-11T09:46:35Z</time>
      </trkpt>
      <trkpt lat="44.60688" lon="0.84431">
        <ele>146</ele>
        <time>2012-11-11T09:46:37Z</time>
      </trkpt>
      <trkpt lat="44.60685" lon="0.84427">
        <ele>146</ele>
        <time>2012-11-11T09:46:39Z</time>
      </trkpt>
      <trkpt lat="44.6068" lon="0.84421">
        <ele>146</ele>
        <time>2012-11-11T09:46:41Z</time>
      </trkpt>
      <trkpt lat="44.60675" lon="0.84415">
        <ele>146</ele>
        <time>2012-11-11T09:46:43Z</time>
      </trkpt>
      <trkpt lat="44.60672" lon="0.8441">
        <ele>146</ele>
        <time>2012-11-11T09:46:45Z</time>
      </trkpt>
      <trkpt lat="44.60669" lon="0.84406">
        <ele>146</ele>
        <time>2012-11-11T09:46:47Z</time>
      </trkpt>
      <trkpt lat="44.60666" lon="0.84402">
        <ele>146</ele>
        <time>2012-11-11T09:46:49Z</time>
      </trkpt>
      <trkpt lat="44.60663" lon="0.84398">
        <ele>146</ele>
        <time>2012-11-11T09:46:51Z</time>
      </trkpt>
      <trkpt lat="44.60659" lon="0.84391">
        <ele>146</ele>
        <time>2012-11-11T09:46:53Z</time>
      </trkpt>
      <trkpt lat="44.60652" lon="0.84382">
        <ele>146</ele>
        <time>2012-11-11T09:46:55Z</time>
      </trkpt>
      <trkpt lat="44.60644" lon="0.84374">
        <ele>146</ele>
        <time>2012-11-11T09:46:57Z</time>
      </trkpt>
      <trkpt lat="44.60636" lon="0.84364">
        <ele>146</ele>
        <time>2012-11-11T09:46:59Z</time>
      </trkpt>
      <trkpt lat="44.60637" lon="0.84349">
        <ele>146</ele>
        <time>2012-11-11T09:47:01Z</time>
      </trkpt>
      <trkpt lat="44.6064" lon="0.8433">
        <ele>145</ele>
        <time>2012-11-11T09:47:03Z</time>
      </trkpt>
      <trkpt lat="44.60637" lon="0.84312">
        <ele>144</ele>
        <time>2012-11-11T09:47:05Z</time>
      </trkpt>
      <trkpt lat="44.6063" lon="0.84293">
        <ele>143</ele>
        <time>2012-11-11T09:47:07Z</time>
      </trkpt>
      <trkpt lat="44.60621" lon="0.84274">
        <ele>142</ele>
        <time>2012-11-11T09:47:09Z</time>
      </trkpt>
      <trkpt lat="44.60615" lon="0.84254">
        <ele>142</ele>
        <time>2012-11-11T09:47:11Z</time>
      </trkpt>
      <trkpt lat="44.6061" lon="0.84237">
        <ele>142</ele>
        <time>2012-11-11T09:47:13Z</time>
      </trkpt>
      <trkpt lat="44.60601" lon="0.84225">
        <ele>142</ele>
        <time>2012-11-11T09:47:15Z</time>
      </trkpt>
      <trkpt lat="44.60591" lon="0.84218">
        <ele>142</ele>
        <time>2012-11-11T09:47:17Z</time>
      </trkpt>
      <trkpt lat="44.60584" lon="0.84213">
        <ele>142</ele>
        <time>2012-11-11T09:47:19Z</time>
      </trkpt>
      <trkpt lat="44.60583" lon="0.84205">
        <ele>140</ele>
        <time>2012-11-11T09:47:21Z</time>
      </trkpt>
      <trkpt lat="44.60585" lon="0.84197">
        <ele>140</ele>
        <time>2012-11-11T09:47:23Z</time>
      </trkpt>
      <trkpt lat="44.60588" lon="0.8419">
        <ele>139</ele>
        <time>2012-11-11T09:47:25Z</time>
      </trkpt>
      <trkpt lat="44.60591" lon="0.8418">
        <ele>139</ele>
        <time>2012-11-11T09:47:27Z</time>
      </trkpt>
      <trkpt lat="44.60594" lon="0.8417">
        <ele>138</ele>
        <time>2012-11-11T09:47:29Z</time>
      </trkpt>
      <trkpt lat="44.60596" lon="0.84162">
        <ele>136</ele>
        <time>2012-11-11T09:47:31Z</time>
      </trkpt>
      <trkpt lat="44.60599" lon="0.84157">
        <ele>136</ele>
        <time>2012-11-11T09:47:33Z</time>
      </trkpt>
      <trkpt lat="44.60601" lon="0.84155">
        <ele>136</ele>
        <time>2012-11-11T09:47:35Z</time>
      </trkpt>
      <trkpt lat="44.60599" lon="0.84153">
        <ele>136</ele>
        <time>2012-11-11T09:47:40Z</time>
      </trkpt>
      <trkpt lat="44.60598" lon="0.84154">
        <ele>136</ele>
        <time>2012-11-11T09:47:44Z</time>
      </trkpt>
      <trkpt lat="44.60596" lon="0.84154">
        <ele>137</ele>
        <time>2012-11-11T09:47:47Z</time>
      </trkpt>
      <trkpt lat="44.60595" lon="0.84154">
        <ele>140</ele>
        <time>2012-11-11T09:47:50Z</time>
      </trkpt>
      <trkpt lat="44.60594" lon="0.84153">
        <ele>142</ele>
        <time>2012-11-11T09:47:55Z</time>
      </trkpt>
      <trkpt lat="44.60593" lon="0.84154">
        <ele>144</ele>
        <time>2012-11-11T09:47:59Z</time>
      </trkpt>
      <trkpt lat="44.60593" lon="0.84155">
        <ele>145</ele>
        <time>2012-11-11T09:48:03Z</time>
      </trkpt>
      <trkpt lat="44.60592" lon="0.84157">
        <ele>149</ele>
        <time>2012-11-11T09:48:12Z</time>
      </trkpt>
      <trkpt lat="44.60592" lon="0.84155">
        <ele>155</ele>
        <time>2012-11-11T09:49:18Z</time>
      </trkpt>
      <trkpt lat="44.60589" lon="0.84151">
        <ele>155</ele>
        <time>2012-11-11T09:49:20Z</time>
      </trkpt>
      <trkpt lat="44.60584" lon="0.84145">
        <ele>155</ele>
        <time>2012-11-11T09:49:22Z</time>
      </trkpt>
      <trkpt lat="44.60578" lon="0.8414">
        <ele>154</ele>
        <time>2012-11-11T09:49:24Z</time>
      </trkpt>
      <trkpt lat="44.60573" lon="0.84135">
        <ele>152</ele>
        <time>2012-11-11T09:49:26Z</time>
      </trkpt>
      <trkpt lat="44.60567" lon="0.84131">
        <ele>150</ele>
        <time>2012-11-11T09:49:28Z</time>
      </trkpt>
      <trkpt lat="44.60562" lon="0.84126">
        <ele>148</ele>
        <time>2012-11-11T09:49:30Z</time>
      </trkpt>
      <trkpt lat="44.60556" lon="0.84122">
        <ele>146</ele>
        <time>2012-11-11T09:49:32Z</time>
      </trkpt>
      <trkpt lat="44.6055" lon="0.84117">
        <ele>144</ele>
        <time>2012-11-11T09:49:34Z</time>
      </trkpt>
      <trkpt lat="44.60544" lon="0.84114">
        <ele>142</ele>
        <time>2012-11-11T09:49:36Z</time>
      </trkpt>
      <trkpt lat="44.60538" lon="0.84109">
        <ele>142</ele>
        <time>2012-11-11T09:49:38Z</time>
      </trkpt>
      <trkpt lat="44.60531" lon="0.84105">
        <ele>142</ele>
        <time>2012-11-11T09:49:40Z</time>
      </trkpt>
      <trkpt lat="44.60524" lon="0.84102">
        <ele>142</ele>
        <time>2012-11-11T09:49:42Z</time>
      </trkpt>
      <trkpt lat="44.60518" lon="0.84098">
        <ele>142</ele>
        <time>2012-11-11T09:49:44Z</time>
      </trkpt>
      <trkpt lat="44.60512" lon="0.84093">
        <ele>142</ele>
        <time>2012-11-11T09:49:46Z</time>
      </trkpt>
      <trkpt lat="44.60507" lon="0.84088">
        <ele>142</ele>
        <time>2012-11-11T09:49:48Z</time>
      </trkpt>
      <trkpt lat="44.60501" lon="0.84083">
        <ele>142</ele>
        <time>2012-11-11T09:49:50Z</time>
      </trkpt>
      <trkpt lat="44.60497" lon="0.84076">
        <ele>142</ele>
        <time>2012-11-11T09:49:52Z</time>
      </trkpt>
      <trkpt lat="44.60493" lon="0.84068">
        <ele>142</ele>
        <time>2012-11-11T09:49:54Z</time>
      </trkpt>
      <trkpt lat="44.6049" lon="0.84061">
        <ele>143</ele>
        <time>2012-11-11T09:49:56Z</time>
      </trkpt>
      <trkpt lat="44.60487" lon="0.84056">
        <ele>144</ele>
        <time>2012-11-11T09:49:58Z</time>
      </trkpt>
      <trkpt lat="44.60486" lon="0.84049">
        <ele>145</ele>
        <time>2012-11-11T09:50:00Z</time>
      </trkpt>
      <trkpt lat="44.60483" lon="0.84046">
        <ele>145</ele>
        <time>2012-11-11T09:50:02Z</time>
      </trkpt>
      <trkpt lat="44.60479" lon="0.84047">
        <ele>145</ele>
        <time>2012-11-11T09:50:04Z</time>
      </trkpt>
      <trkpt lat="44.60474" lon="0.8405">
        <ele>145</ele>
        <time>2012-11-11T09:50:06Z</time>
      </trkpt>
      <trkpt lat="44.6047" lon="0.84053">
        <ele>143</ele>
        <time>2012-11-11T09:50:08Z</time>
      </trkpt>
      <trkpt lat="44.60464" lon="0.84057">
        <ele>141</ele>
        <time>2012-11-11T09:50:10Z</time>
      </trkpt>
      <trkpt lat="44.60457" lon="0.84061">
        <ele>140</ele>
        <time>2012-11-11T09:50:12Z</time>
      </trkpt>
      <trkpt lat="44.6045" lon="0.84065">
        <ele>139</ele>
        <time>2012-11-11T09:50:14Z</time>
      </trkpt>
      <trkpt lat="44.60442" lon="0.8407">
        <ele>139</ele>
        <time>2012-11-11T09:50:16Z</time>
      </trkpt>
      <trkpt lat="44.60433" lon="0.84074">
        <ele>138</ele>
        <time>2012-11-11T09:50:18Z</time>
      </trkpt>
      <trkpt lat="44.60424" lon="0.84079">
        <ele>137</ele>
        <time>2012-11-11T09:50:20Z</time>
      </trkpt>
      <trkpt lat="44.60415" lon="0.84083">
        <ele>137</ele>
        <time>2012-11-11T09:50:22Z</time>
      </trkpt>
      <trkpt lat="44.60406" lon="0.84085">
        <ele>136</ele>
        <time>2012-11-11T09:50:24Z</time>
      </trkpt>
      <trkpt lat="44.60397" lon="0.84086">
        <ele>136</ele>
        <time>2012-11-11T09:50:26Z</time>
      </trkpt>
      <trkpt lat="44.60388" lon="0.84087">
        <ele>136</ele>
        <time>2012-11-11T09:50:28Z</time>
      </trkpt>
      <trkpt lat="44.60378" lon="0.84086">
        <ele>136</ele>
        <time>2012-11-11T09:50:30Z</time>
      </trkpt>
      <trkpt lat="44.60369" lon="0.84086">
        <ele>136</ele>
        <time>2012-11-11T09:50:32Z</time>
      </trkpt>
      <trkpt lat="44.6036" lon="0.84087">
        <ele>136</ele>
        <time>2012-11-11T09:50:34Z</time>
      </trkpt>
      <trkpt lat="44.60352" lon="0.84089">
        <ele>136</ele>
        <time>2012-11-11T09:50:36Z</time>
      </trkpt>
      <trkpt lat="44.60343" lon="0.84091">
        <ele>136</ele>
        <time>2012-11-11T09:50:38Z</time>
      </trkpt>
      <trkpt lat="44.60335" lon="0.84095">
        <ele>136</ele>
        <time>2012-11-11T09:50:40Z</time>
      </trkpt>
      <trkpt lat="44.60327" lon="0.84098">
        <ele>136</ele>
        <time>2012-11-11T09:50:42Z</time>
      </trkpt>
      <trkpt lat="44.6032" lon="0.84101">
        <ele>136</ele>
        <time>2012-11-11T09:50:44Z</time>
      </trkpt>
      <trkpt lat="44.60313" lon="0.84105">
        <ele>136</ele>
        <time>2012-11-11T09:50:46Z</time>
      </trkpt>
      <trkpt lat="44.60306" lon="0.84108">
        <ele>136</ele>
        <time>2012-11-11T09:50:48Z</time>
      </trkpt>
      <trkpt lat="44.60299" lon="0.8411">
        <ele>136</ele>
        <time>2012-11-11T09:50:50Z</time>
      </trkpt>
      <trkpt lat="44.60292" lon="0.8411">
        <ele>136</ele>
        <time>2012-11-11T09:50:52Z</time>
      </trkpt>
      <trkpt lat="44.60284" lon="0.84109">
        <ele>136</ele>
        <time>2012-11-11T09:50:54Z</time>
      </trkpt>
      <trkpt lat="44.60275" lon="0.84108">
        <ele>136</ele>
        <time>2012-11-11T09:50:56Z</time>
      </trkpt>
      <trkpt lat="44.60265" lon="0.84106">
        <ele>136</ele>
        <time>2012-11-11T09:50:58Z</time>
      </trkpt>
      <trkpt lat="44.60255" lon="0.84103">
        <ele>136</ele>
        <time>2012-11-11T09:51:00Z</time>
      </trkpt>
      <trkpt lat="44.60245" lon="0.84098">
        <ele>135</ele>
        <time>2012-11-11T09:51:02Z</time>
      </trkpt>
      <trkpt lat="44.60234" lon="0.84089">
        <ele>134</ele>
        <time>2012-11-11T09:51:04Z</time>
      </trkpt>
      <trkpt lat="44.60224" lon="0.84081">
        <ele>132</ele>
        <time>2012-11-11T09:51:06Z</time>
      </trkpt>
      <trkpt lat="44.60215" lon="0.84078">
        <ele>130</ele>
        <time>2012-11-11T09:51:08Z</time>
      </trkpt>
      <trkpt lat="44.60207" lon="0.84079">
        <ele>129</ele>
        <time>2012-11-11T09:51:10Z</time>
      </trkpt>
      <trkpt lat="44.602" lon="0.84087">
        <ele>128</ele>
        <time>2012-11-11T09:51:12Z</time>
      </trkpt>
      <trkpt lat="44.60194" lon="0.84096">
        <ele>127</ele>
        <time>2012-11-11T09:51:14Z</time>
      </trkpt>
      <trkpt lat="44.60187" lon="0.841">
        <ele>126</ele>
        <time>2012-11-11T09:51:16Z</time>
      </trkpt>
      <trkpt lat="44.60181" lon="0.841">
        <ele>124</ele>
        <time>2012-11-11T09:51:18Z</time>
      </trkpt>
      <trkpt lat="44.60175" lon="0.84105">
        <ele>122</ele>
        <time>2012-11-11T09:51:20Z</time>
      </trkpt>
      <trkpt lat="44.60174" lon="0.84114">
        <ele>122</ele>
        <time>2012-11-11T09:51:22Z</time>
      </trkpt>
      <trkpt lat="44.60172" lon="0.84124">
        <ele>121</ele>
        <time>2012-11-11T09:51:24Z</time>
      </trkpt>
      <trkpt lat="44.60167" lon="0.84133">
        <ele>121</ele>
        <time>2012-11-11T09:51:26Z</time>
      </trkpt>
      <trkpt lat="44.6016" lon="0.84141">
        <ele>120</ele>
        <time>2012-11-11T09:51:28Z</time>
      </trkpt>
      <trkpt lat="44.60152" lon="0.84145">
        <ele>119</ele>
        <time>2012-11-11T09:51:30Z</time>
      </trkpt>
      <trkpt lat="44.60149" lon="0.84148">
        <ele>118</ele>
        <time>2012-11-11T09:51:32Z</time>
      </trkpt>
      <trkpt lat="44.60148" lon="0.84149">
        <ele>117</ele>
        <time>2012-11-11T09:51:35Z</time>
      </trkpt>
      <trkpt lat="44.60148" lon="0.84151">
        <ele>117</ele>
        <time>2012-11-11T09:51:39Z</time>
      </trkpt>
      <trkpt lat="44.60149" lon="0.84152">
        <ele>117</ele>
        <time>2012-11-11T09:51:45Z</time>
      </trkpt>
      <trkpt lat="44.6015" lon="0.84153">
        <ele>116</ele>
        <time>2012-11-11T09:51:53Z</time>
      </trkpt>
      <trkpt lat="44.60151" lon="0.84154">
        <ele>115</ele>
        <time>2012-11-11T09:52:01Z</time>
      </trkpt>
      <trkpt lat="44.6015" lon="0.84156">
        <ele>112</ele>
        <time>2012-11-11T09:52:11Z</time>
      </trkpt>
      <trkpt lat="44.60148" lon="0.84162">
        <ele>112</ele>
        <time>2012-11-11T09:52:13Z</time>
      </trkpt>
      <trkpt lat="44.60147" lon="0.84169">
        <ele>112</ele>
        <time>2012-11-11T09:52:15Z</time>
      </trkpt>
      <trkpt lat="44.60145" lon="0.84177">
        <ele>112</ele>
        <time>2012-11-11T09:52:17Z</time>
      </trkpt>
      <trkpt lat="44.60144" lon="0.84187">
        <ele>112</ele>
        <time>2012-11-11T09:52:19Z</time>
      </trkpt>
      <trkpt lat="44.60142" lon="0.84199">
        <ele>112</ele>
        <time>2012-11-11T09:52:21Z</time>
      </trkpt>
      <trkpt lat="44.60139" lon="0.84211">
        <ele>112</ele>
        <time>2012-11-11T09:52:23Z</time>
      </trkpt>
      <trkpt lat="44.60136" lon="0.84224">
        <ele>113</ele>
        <time>2012-11-11T09:52:25Z</time>
      </trkpt>
      <trkpt lat="44.60133" lon="0.84235">
        <ele>114</ele>
        <time>2012-11-11T09:52:27Z</time>
      </trkpt>
      <trkpt lat="44.60129" lon="0.84247">
        <ele>114</ele>
        <time>2012-11-11T09:52:29Z</time>
      </trkpt>
      <trkpt lat="44.60125" lon="0.84258">
        <ele>115</ele>
        <time>2012-11-11T09:52:31Z</time>
      </trkpt>
      <trkpt lat="44.6012" lon="0.84268">
        <ele>116</ele>
        <time>2012-11-11T09:52:33Z</time>
      </trkpt>
      <trkpt lat="44.60116" lon="0.84278">
        <ele>116</ele>
        <time>2012-11-11T09:52:35Z</time>
      </trkpt>
      <trkpt lat="44.6011" lon="0.84286">
        <ele>116</ele>
        <time>2012-11-11T09:52:37Z</time>
      </trkpt>
      <trkpt lat="44.60104" lon="0.84295">
        <ele>116</ele>
        <time>2012-11-11T09:52:39Z</time>
      </trkpt>
      <trkpt lat="44.60099" lon="0.84303">
        <ele>116</ele>
        <time>2012-11-11T09:52:41Z</time>
      </trkpt>
      <trkpt lat="44.60091" lon="0.84304">
        <ele>116</ele>
        <time>2012-11-11T09:52:43Z</time>
      </trkpt>
      <trkpt lat="44.60081" lon="0.84296">
        <ele>116</ele>
        <time>2012-11-11T09:52:45Z</time>
      </trkpt>
      <trkpt lat="44.60073" lon="0.84285">
        <ele>116</ele>
        <time>2012-11-11T09:52:47Z</time>
      </trkpt>
      <trkpt lat="44.60065" lon="0.84276">
        <ele>116</ele>
        <time>2012-11-11T09:52:49Z</time>
      </trkpt>
      <trkpt lat="44.60057" lon="0.84267">
        <ele>117</ele>
        <time>2012-11-11T09:52:51Z</time>
      </trkpt>
      <trkpt lat="44.6005" lon="0.84263">
        <ele>117</ele>
        <time>2012-11-11T09:52:53Z</time>
      </trkpt>
      <trkpt lat="44.60045" lon="0.84261">
        <ele>117</ele>
        <time>2012-11-11T09:52:55Z</time>
      </trkpt>
      <trkpt lat="44.60041" lon="0.8426">
        <ele>117</ele>
        <time>2012-11-11T09:52:57Z</time>
      </trkpt>
      <trkpt lat="44.60037" lon="0.8426">
        <ele>118</ele>
        <time>2012-11-11T09:52:59Z</time>
      </trkpt>
      <trkpt lat="44.60032" lon="0.8426">
        <ele>118</ele>
        <time>2012-11-11T09:53:01Z</time>
      </trkpt>
      <trkpt lat="44.60025" lon="0.8426">
        <ele>120</ele>
        <time>2012-11-11T09:53:03Z</time>
      </trkpt>
      <trkpt lat="44.60019" lon="0.84258">
        <ele>121</ele>
        <time>2012-11-11T09:53:05Z</time>
      </trkpt>
      <trkpt lat="44.60012" lon="0.84257">
        <ele>122</ele>
        <time>2012-11-11T09:53:07Z</time>
      </trkpt>
      <trkpt lat="44.60006" lon="0.84257">
        <ele>123</ele>
        <time>2012-11-11T09:53:09Z</time>
      </trkpt>
      <trkpt lat="44.6" lon="0.84256">
        <ele>124</ele>
        <time>2012-11-11T09:53:11Z</time>
      </trkpt>
      <trkpt lat="44.59993" lon="0.84254">
        <ele>124</ele>
        <time>2012-11-11T09:53:13Z</time>
      </trkpt>
      <trkpt lat="44.59988" lon="0.84253">
        <ele>125</ele>
        <time>2012-11-11T09:53:15Z</time>
      </trkpt>
      <trkpt lat="44.59982" lon="0.8425">
        <ele>125</ele>
        <time>2012-11-11T09:53:17Z</time>
      </trkpt>
      <trkpt lat="44.59975" lon="0.84246">
        <ele>127</ele>
        <time>2012-11-11T09:53:19Z</time>
      </trkpt>
      <trkpt lat="44.5997" lon="0.8424">
        <ele>128</ele>
        <time>2012-11-11T09:53:21Z</time>
      </trkpt>
      <trkpt lat="44.59966" lon="0.84234">
        <ele>129</ele>
        <time>2012-11-11T09:53:23Z</time>
      </trkpt>
      <trkpt lat="44.5996" lon="0.84225">
        <ele>131</ele>
        <time>2012-11-11T09:53:25Z</time>
      </trkpt>
      <trkpt lat="44.59954" lon="0.84217">
        <ele>133</ele>
        <time>2012-11-11T09:53:27Z</time>
      </trkpt>
      <trkpt lat="44.59948" lon="0.84209">
        <ele>134</ele>
        <time>2012-11-11T09:53:29Z</time>
      </trkpt>
      <trkpt lat="44.59943" lon="0.84202">
        <ele>136</ele>
        <time>2012-11-11T09:53:31Z</time>
      </trkpt>
      <trkpt lat="44.59939" lon="0.84194">
        <ele>137</ele>
        <time>2012-11-11T09:53:33Z</time>
      </trkpt>
      <trkpt lat="44.59935" lon="0.84187">
        <ele>138</ele>
        <time>2012-11-11T09:53:35Z</time>
      </trkpt>
      <trkpt lat="44.5993" lon="0.84179">
        <ele>139</ele>
        <time>2012-11-11T09:53:37Z</time>
      </trkpt>
      <trkpt lat="44.59927" lon="0.84171">
        <ele>141</ele>
        <time>2012-11-11T09:53:39Z</time>
      </trkpt>
      <trkpt lat="44.59922" lon="0.84163">
        <ele>142</ele>
        <time>2012-11-11T09:53:41Z</time>
      </trkpt>
      <trkpt lat="44.59918" lon="0.84156">
        <ele>144</ele>
        <time>2012-11-11T09:53:43Z</time>
      </trkpt>
      <trkpt lat="44.59914" lon="0.84149">
        <ele>145</ele>
        <time>2012-11-11T09:53:45Z</time>
      </trkpt>
      <trkpt lat="44.59911" lon="0.84141">
        <ele>146</ele>
        <time>2012-11-11T09:53:47Z</time>
      </trkpt>
      <trkpt lat="44.59908" lon="0.84133">
        <ele>147</ele>
        <time>2012-11-11T09:53:49Z</time>
      </trkpt>
      <trkpt lat="44.59905" lon="0.84126">
        <ele>147</ele>
        <time>2012-11-11T09:53:51Z</time>
      </trkpt>
      <trkpt lat="44.59902" lon="0.84118">
        <ele>147</ele>
        <time>2012-11-11T09:53:53Z</time>
      </trkpt>
      <trkpt lat="44.59899" lon="0.84111">
        <ele>147</ele>
        <time>2012-11-11T09:53:55Z</time>
      </trkpt>
      <trkpt lat="44.59897" lon="0.84104">
        <ele>147</ele>
        <time>2012-11-11T09:53:57Z</time>
      </trkpt>
      <trkpt lat="44.59895" lon="0.84098">
        <ele>147</ele>
        <time>2012-11-11T09:53:59Z</time>
      </trkpt>
      <trkpt lat="44.59892" lon="0.84091">
        <ele>147</ele>
        <time>2012-11-11T09:54:01Z</time>
      </trkpt>
      <trkpt lat="44.5989" lon="0.84085">
        <ele>147</ele>
        <time>2012-11-11T09:54:03Z</time>
      </trkpt>
      <trkpt lat="44.59887" lon="0.84078">
        <ele>147</ele>
        <time>2012-11-11T09:54:05Z</time>
      </trkpt>
      <trkpt lat="44.59884" lon="0.84072">
        <ele>147</ele>
        <time>2012-11-11T09:54:07Z</time>
      </trkpt>
      <trkpt lat="44.5988" lon="0.84065">
        <ele>147</ele>
        <time>2012-11-11T09:54:09Z</time>
      </trkpt>
      <trkpt lat="44.59877" lon="0.84059">
        <ele>147</ele>
        <time>2012-11-11T09:54:11Z</time>
      </trkpt>
      <trkpt lat="44.59873" lon="0.84052">
        <ele>147</ele>
        <time>2012-11-11T09:54:13Z</time>
      </trkpt>
      <trkpt lat="44.59869" lon="0.84046">
        <ele>147</ele>
        <time>2012-11-11T09:54:15Z</time>
      </trkpt>
      <trkpt lat="44.59866" lon="0.84039">
        <ele>147</ele>
        <time>2012-11-11T09:54:17Z</time>
      </trkpt>
      <trkpt lat="44.59863" lon="0.84031">
        <ele>147</ele>
        <time>2012-11-11T09:54:19Z</time>
      </trkpt>
      <trkpt lat="44.59859" lon="0.84023">
        <ele>145</ele>
        <time>2012-11-11T09:54:21Z</time>
      </trkpt>
      <trkpt lat="44.59854" lon="0.84016">
        <ele>144</ele>
        <time>2012-11-11T09:54:23Z</time>
      </trkpt>
      <trkpt lat="44.59851" lon="0.84009">
        <ele>144</ele>
        <time>2012-11-11T09:54:25Z</time>
      </trkpt>
      <trkpt lat="44.59847" lon="0.84004">
        <ele>143</ele>
        <time>2012-11-11T09:54:27Z</time>
      </trkpt>
      <trkpt lat="44.59843" lon="0.84004">
        <ele>143</ele>
        <time>2012-11-11T09:54:29Z</time>
      </trkpt>
      <trkpt lat="44.5984" lon="0.84009">
        <ele>142</ele>
        <time>2012-11-11T09:54:32Z</time>
      </trkpt>
      <trkpt lat="44.59838" lon="0.84012">
        <ele>142</ele>
        <time>2012-11-11T09:54:34Z</time>
      </trkpt>
      <trkpt lat="44.59837" lon="0.84015">
        <ele>141</ele>
        <time>2012-11-11T09:54:36Z</time>
      </trkpt>
      <trkpt lat="44.59837" lon="0.84017">
        <ele>141</ele>
        <time>2012-11-11T09:54:38Z</time>
      </trkpt>
      <trkpt lat="44.59837" lon="0.84019">
        <ele>140</ele>
        <time>2012-11-11T09:54:40Z</time>
      </trkpt>
      <trkpt lat="44.59838" lon="0.84021">
        <ele>139</ele>
        <time>2012-11-11T09:54:44Z</time>
      </trkpt>
      <trkpt lat="44.59838" lon="0.84022">
        <ele>139</ele>
        <time>2012-11-11T09:54:47Z</time>
      </trkpt>
      <trkpt lat="44.59839" lon="0.84023">
        <ele>138</ele>
        <time>2012-11-11T09:54:53Z</time>
      </trkpt>
      <trkpt lat="44.5984" lon="0.84023">
        <ele>136</ele>
        <time>2012-11-11T09:55:01Z</time>
      </trkpt>
      <trkpt lat="44.59842" lon="0.84024">
        <ele>136</ele>
        <time>2012-11-11T09:55:11Z</time>
      </trkpt>
      <trkpt lat="44.59843" lon="0.84025">
        <ele>132</ele>
        <time>2012-11-11T09:55:59Z</time>
      </trkpt>
      <trkpt lat="44.59844" lon="0.84025">
        <ele>131</ele>
        <time>2012-11-11T09:56:08Z</time>
      </trkpt>
      <trkpt lat="44.59844" lon="0.84026">
        <ele>130</ele>
        <time>2012-11-11T09:56:19Z</time>
      </trkpt>
      <trkpt lat="44.59842" lon="0.8403">
        <ele>129</ele>
        <time>2012-11-11T09:56:21Z</time>
      </trkpt>
      <trkpt lat="44.59839" lon="0.84035">
        <ele>129</ele>
        <time>2012-11-11T09:56:23Z</time>
      </trkpt>
      <trkpt lat="44.59835" lon="0.8404">
        <ele>129</ele>
        <time>2012-11-11T09:56:25Z</time>
      </trkpt>
      <trkpt lat="44.59831" lon="0.84046">
        <ele>129</ele>
        <time>2012-11-11T09:56:27Z</time>
      </trkpt>
      <trkpt lat="44.59826" lon="0.84053">
        <ele>129</ele>
        <time>2012-11-11T09:56:29Z</time>
      </trkpt>
      <trkpt lat="44.5982" lon="0.8406">
        <ele>129</ele>
        <time>2012-11-11T09:56:31Z</time>
      </trkpt>
      <trkpt lat="44.59814" lon="0.84067">
        <ele>129</ele>
        <time>2012-11-11T09:56:33Z</time>
      </trkpt>
      <trkpt lat="44.59807" lon="0.84074">
        <ele>128</ele>
        <time>2012-11-11T09:56:35Z</time>
      </trkpt>
      <trkpt lat="44.59801" lon="0.84082">
        <ele>128</ele>
        <time>2012-11-11T09:56:37Z</time>
      </trkpt>
      <trkpt lat="44.59798" lon="0.84088">
        <ele>128</ele>
        <time>2012-11-11T09:56:39Z</time>
      </trkpt>
      <trkpt lat="44.59795" lon="0.84093">
        <ele>128</ele>
        <time>2012-11-11T09:56:41Z</time>
      </trkpt>
      <trkpt lat="44.5979" lon="0.84101">
        <ele>128</ele>
        <time>2012-11-11T09:56:43Z</time>
      </trkpt>
      <trkpt lat="44.59782" lon="0.84109">
        <ele>128</ele>
        <time>2012-11-11T09:56:45Z</time>
      </trkpt>
      <trkpt lat="44.59776" lon="0.84118">
        <ele>128</ele>
        <time>2012-11-11T09:56:47Z</time>
      </trkpt>
      <trkpt lat="44.59771" lon="0.84127">
        <ele>128</ele>
        <time>2012-11-11T09:56:49Z</time>
      </trkpt>
      <trkpt lat="44.59766" lon="0.84136">
        <ele>128</ele>
        <time>2012-11-11T09:56:51Z</time>
      </trkpt>
      <trkpt lat="44.59761" lon="0.84144">
        <ele>128</ele>
        <time>2012-11-11T09:56:53Z</time>
      </trkpt>
      <trkpt lat="44.59757" lon="0.84154">
        <ele>128</ele>
        <time>2012-11-11T09:56:55Z</time>
      </trkpt>
      <trkpt lat="44.59753" lon="0.84161">
        <ele>130</ele>
        <time>2012-11-11T09:56:57Z</time>
      </trkpt>
      <trkpt lat="44.59746" lon="0.84168">
        <ele>132</ele>
        <time>2012-11-11T09:56:59Z</time>
      </trkpt>
      <trkpt lat="44.59742" lon="0.84176">
        <ele>134</ele>
        <time>2012-11-11T09:57:01Z</time>
      </trkpt>
      <trkpt lat="44.59736" lon="0.84183">
        <ele>135</ele>
        <time>2012-11-11T09:57:03Z</time>
      </trkpt>
      <trkpt lat="44.59732" lon="0.84191">
        <ele>136</ele>
        <time>2012-11-11T09:57:05Z</time>
      </trkpt>
      <trkpt lat="44.59727" lon="0.842">
        <ele>136</ele>
        <time>2012-11-11T09:57:07Z</time>
      </trkpt>
      <trkpt lat="44.59722" lon="0.84208">
        <ele>137</ele>
        <time>2012-11-11T09:57:09Z</time>
      </trkpt>
      <trkpt lat="44.59716" lon="0.84214">
        <ele>137</ele>
        <time>2012-11-11T09:57:11Z</time>
      </trkpt>
      <trkpt lat="44.59709" lon="0.84219">
        <ele>137</ele>
        <time>2012-11-11T09:57:13Z</time>
      </trkpt>
      <trkpt lat="44.59703" lon="0.84226">
        <ele>137</ele>
        <time>2012-11-11T09:57:15Z</time>
      </trkpt>
      <trkpt lat="44.59698" lon="0.84233">
        <ele>137</ele>
        <time>2012-11-11T09:57:17Z</time>
      </trkpt>
      <trkpt lat="44.59695" lon="0.84242">
        <ele>137</ele>
        <time>2012-11-11T09:57:19Z</time>
      </trkpt>
      <trkpt lat="44.5969" lon="0.8425">
        <ele>138</ele>
        <time>2012-11-11T09:57:21Z</time>
      </trkpt>
      <trkpt lat="44.59685" lon="0.84257">
        <ele>138</ele>
        <time>2012-11-11T09:57:23Z</time>
      </trkpt>
      <trkpt lat="44.59679" lon="0.84263">
        <ele>139</ele>
        <time>2012-11-11T09:57:25Z</time>
      </trkpt>
      <trkpt lat="44.59673" lon="0.84268">
        <ele>139</ele>
        <time>2012-11-11T09:57:27Z</time>
      </trkpt>
      <trkpt lat="44.59667" lon="0.84275">
        <ele>139</ele>
        <time>2012-11-11T09:57:29Z</time>
      </trkpt>
      <trkpt lat="44.59662" lon="0.84282">
        <ele>140</ele>
        <time>2012-11-11T09:57:31Z</time>
      </trkpt>
      <trkpt lat="44.59658" lon="0.8429">
        <ele>140</ele>
        <time>2012-11-11T09:57:33Z</time>
      </trkpt>
      <trkpt lat="44.59653" lon="0.84298">
        <ele>140</ele>
        <time>2012-11-11T09:57:35Z</time>
      </trkpt>
      <trkpt lat="44.59651" lon="0.84305">
        <ele>140</ele>
        <time>2012-11-11T09:57:37Z</time>
      </trkpt>
      <trkpt lat="44.59647" lon="0.84313">
        <ele>141</ele>
        <time>2012-11-11T09:57:39Z</time>
      </trkpt>
      <trkpt lat="44.59642" lon="0.84319">
        <ele>141</ele>
        <time>2012-11-11T09:57:41Z</time>
      </trkpt>
      <trkpt lat="44.59636" lon="0.84325">
        <ele>142</ele>
        <time>2012-11-11T09:57:43Z</time>
      </trkpt>
      <trkpt lat="44.5963" lon="0.8433">
        <ele>142</ele>
        <time>2012-11-11T09:57:45Z</time>
      </trkpt>
      <trkpt lat="44.59625" lon="0.84337">
        <ele>142</ele>
        <time>2012-11-11T09:57:47Z</time>
      </trkpt>
      <trkpt lat="44.59619" lon="0.84343">
        <ele>142</ele>
        <time>2012-11-11T09:57:49Z</time>
      </trkpt>
      <trkpt lat="44.59612" lon="0.8435">
        <ele>142</ele>
        <time>2012-11-11T09:57:51Z</time>
      </trkpt>
      <trkpt lat="44.59604" lon="0.84356">
        <ele>142</ele>
        <time>2012-11-11T09:57:53Z</time>
      </trkpt>
      <trkpt lat="44.59597" lon="0.84362">
        <ele>142</ele>
        <time>2012-11-11T09:57:55Z</time>
      </trkpt>
      <trkpt lat="44.59589" lon="0.84368">
        <ele>142</ele>
        <time>2012-11-11T09:57:57Z</time>
      </trkpt>
      <trkpt lat="44.59581" lon="0.84373">
        <ele>142</ele>
        <time>2012-11-11T09:57:59Z</time>
      </trkpt>
      <trkpt lat="44.59575" lon="0.8438">
        <ele>142</ele>
        <time>2012-11-11T09:58:01Z</time>
      </trkpt>
      <trkpt lat="44.59569" lon="0.84387">
        <ele>142</ele>
        <time>2012-11-11T09:58:03Z</time>
      </trkpt>
      <trkpt lat="44.59563" lon="0.84394">
        <ele>142</ele>
        <time>2012-11-11T09:58:05Z</time>
      </trkpt>
      <trkpt lat="44.59556" lon="0.84401">
        <ele>142</ele>
        <time>2012-11-11T09:58:07Z</time>
      </trkpt>
      <trkpt lat="44.59549" lon="0.84408">
        <ele>142</ele>
        <time>2012-11-11T09:58:09Z</time>
      </trkpt>
      <trkpt lat="44.59542" lon="0.84415">
        <ele>142</ele>
        <time>2012-11-11T09:58:11Z</time>
      </trkpt>
      <trkpt lat="44.59534" lon="0.84424">
        <ele>142</ele>
        <time>2012-11-11T09:58:13Z</time>
      </trkpt>
      <trkpt lat="44.59526" lon="0.84432">
        <ele>142</ele>
        <time>2012-11-11T09:58:15Z</time>
      </trkpt>
      <trkpt lat="44.59518" lon="0.84441">
        <ele>142</ele>
        <time>2012-11-11T09:58:17Z</time>
      </trkpt>
      <trkpt lat="44.59509" lon="0.84449">
        <ele>142</ele>
        <time>2012-11-11T09:58:19Z</time>
      </trkpt>
      <trkpt lat="44.59501" lon="0.84457">
        <ele>142</ele>
        <time>2012-11-11T09:58:21Z</time>
      </trkpt>
      <trkpt lat="44.59493" lon="0.84465">
        <ele>142</ele>
        <time>2012-11-11T09:58:23Z</time>
      </trkpt>
      <trkpt lat="44.59486" lon="0.84473">
        <ele>142</ele>
        <time>2012-11-11T09:58:25Z</time>
      </trkpt>
      <trkpt lat="44.59479" lon="0.84481">
        <ele>142</ele>
        <time>2012-11-11T09:58:27Z</time>
      </trkpt>
      <trkpt lat="44.59473" lon="0.84488">
        <ele>142</ele>
        <time>2012-11-11T09:58:29Z</time>
      </trkpt>
      <trkpt lat="44.59467" lon="0.84495">
        <ele>142</ele>
        <time>2012-11-11T09:58:31Z</time>
      </trkpt>
      <trkpt lat="44.59462" lon="0.84503">
        <ele>142</ele>
        <time>2012-11-11T09:58:33Z</time>
      </trkpt>
      <trkpt lat="44.59456" lon="0.8451">
        <ele>142</ele>
        <time>2012-11-11T09:58:35Z</time>
      </trkpt>
      <trkpt lat="44.5945" lon="0.84517">
        <ele>143</ele>
        <time>2012-11-11T09:58:37Z</time>
      </trkpt>
      <trkpt lat="44.59443" lon="0.84524">
        <ele>143</ele>
        <time>2012-11-11T09:58:39Z</time>
      </trkpt>
      <trkpt lat="44.59436" lon="0.84531">
        <ele>144</ele>
        <time>2012-11-11T09:58:41Z</time>
      </trkpt>
      <trkpt lat="44.5943" lon="0.84537">
        <ele>144</ele>
        <time>2012-11-11T09:58:43Z</time>
      </trkpt>
      <trkpt lat="44.59422" lon="0.84544">
        <ele>144</ele>
        <time>2012-11-11T09:58:45Z</time>
      </trkpt>
      <trkpt lat="44.59415" lon="0.84551">
        <ele>144</ele>
        <time>2012-11-11T09:58:47Z</time>
      </trkpt>
      <trkpt lat="44.59409" lon="0.84557">
        <ele>144</ele>
        <time>2012-11-11T09:58:49Z</time>
      </trkpt>
      <trkpt lat="44.59403" lon="0.84564">
        <ele>144</ele>
        <time>2012-11-11T09:58:51Z</time>
      </trkpt>
      <trkpt lat="44.594" lon="0.84572">
        <ele>144</ele>
        <time>2012-11-11T09:58:53Z</time>
      </trkpt>
      <trkpt lat="44.594" lon="0.8458">
        <ele>144</ele>
        <time>2012-11-11T09:58:55Z</time>
      </trkpt>
      <trkpt lat="44.594" lon="0.84587">
        <ele>145</ele>
        <time>2012-11-11T09:58:57Z</time>
      </trkpt>
      <trkpt lat="44.59401" lon="0.84596">
        <ele>145</ele>
        <time>2012-11-11T09:58:59Z</time>
      </trkpt>
      <trkpt lat="44.59404" lon="0.84606">
        <ele>145</ele>
        <time>2012-11-11T09:59:01Z</time>
      </trkpt>
      <trkpt lat="44.59407" lon="0.84617">
        <ele>145</ele>
        <time>2012-11-11T09:59:03Z</time>
      </trkpt>
      <trkpt lat="44.5941" lon="0.84629">
        <ele>145</ele>
        <time>2012-11-11T09:59:05Z</time>
      </trkpt>
      <trkpt lat="44.59412" lon="0.84642">
        <ele>145</ele>
        <time>2012-11-11T09:59:07Z</time>
      </trkpt>
      <trkpt lat="44.59416" lon="0.84654">
        <ele>145</ele>
        <time>2012-11-11T09:59:09Z</time>
      </trkpt>
      <trkpt lat="44.59419" lon="0.84665">
        <ele>145</ele>
        <time>2012-11-11T09:59:11Z</time>
      </trkpt>
      <trkpt lat="44.59422" lon="0.84676">
        <ele>145</ele>
        <time>2012-11-11T09:59:13Z</time>
      </trkpt>
      <trkpt lat="44.59423" lon="0.84686">
        <ele>145</ele>
        <time>2012-11-11T09:59:15Z</time>
      </trkpt>
      <trkpt lat="44.59426" lon="0.84697">
        <ele>145</ele>
        <time>2012-11-11T09:59:17Z</time>
      </trkpt>
      <trkpt lat="44.5943" lon="0.84709">
        <ele>145</ele>
        <time>2012-11-11T09:59:19Z</time>
      </trkpt>
      <trkpt lat="44.59433" lon="0.84721">
        <ele>145</ele>
        <time>2012-11-11T09:59:21Z</time>
      </trkpt>
      <trkpt lat="44.59437" lon="0.84733">
        <ele>145</ele>
        <time>2012-11-11T09:59:23Z</time>
      </trkpt>
      <trkpt lat="44.5944" lon="0.84745">
        <ele>145</ele>
        <time>2012-11-11T09:59:25Z</time>
      </trkpt>
      <trkpt lat="44.59443" lon="0.84756">
        <ele>145</ele>
        <time>2012-11-11T09:59:27Z</time>
      </trkpt>
      <trkpt lat="44.59444" lon="0.84768">
        <ele>146</ele>
        <time>2012-11-11T09:59:29Z</time>
      </trkpt>
      <trkpt lat="44.59442" lon="0.84777">
        <ele>147</ele>
        <time>2012-11-11T09:59:31Z</time>
      </trkpt>
      <trkpt lat="44.59438" lon="0.84785">
        <ele>147</ele>
        <time>2012-11-11T09:59:33Z</time>
      </trkpt>
      <trkpt lat="44.59434" lon="0.84791">
        <ele>147</ele>
        <time>2012-11-11T09:59:35Z</time>
      </trkpt>
      <trkpt lat="44.59429" lon="0.84799">
        <ele>147</ele>
        <time>2012-11-11T09:59:37Z</time>
      </trkpt>
      <trkpt lat="44.59425" lon="0.84806">
        <ele>147</ele>
        <time>2012-11-11T09:59:39Z</time>
      </trkpt>
      <trkpt lat="44.5942" lon="0.84814">
        <ele>147</ele>
        <time>2012-11-11T09:59:41Z</time>
      </trkpt>
      <trkpt lat="44.59415" lon="0.8482">
        <ele>147</ele>
        <time>2012-11-11T09:59:43Z</time>
      </trkpt>
      <trkpt lat="44.59412" lon="0.84826">
        <ele>147</ele>
        <time>2012-11-11T09:59:45Z</time>
      </trkpt>
      <trkpt lat="44.59408" lon="0.8483">
        <ele>147</ele>
        <time>2012-11-11T09:59:47Z</time>
      </trkpt>
      <trkpt lat="44.59405" lon="0.84835">
        <ele>148</ele>
        <time>2012-11-11T09:59:49Z</time>
      </trkpt>
      <trkpt lat="44.59404" lon="0.8484">
        <ele>148</ele>
        <time>2012-11-11T09:59:51Z</time>
      </trkpt>
      <trkpt lat="44.59404" lon="0.84846">
        <ele>149</ele>
        <time>2012-11-11T09:59:53Z</time>
      </trkpt>
      <trkpt lat="44.59405" lon="0.84852">
        <ele>149</ele>
        <time>2012-11-11T09:59:55Z</time>
      </trkpt>
      <trkpt lat="44.59406" lon="0.84859">
        <ele>150</ele>
        <time>2012-11-11T09:59:57Z</time>
      </trkpt>
      <trkpt lat="44.59406" lon="0.84865">
        <ele>150</ele>
        <time>2012-11-11T09:59:59Z</time>
      </trkpt>
      <trkpt lat="44.59406" lon="0.8487">
        <ele>151</ele>
        <time>2012-11-11T10:00:01Z</time>
      </trkpt>
      <trkpt lat="44.59406" lon="0.84876">
        <ele>151</ele>
        <time>2012-11-11T10:00:03Z</time>
      </trkpt>
      <trkpt lat="44.59405" lon="0.84882">
        <ele>151</ele>
        <time>2012-11-11T10:00:05Z</time>
      </trkpt>
      <trkpt lat="44.59404" lon="0.84888">
        <ele>151</ele>
        <time>2012-11-11T10:00:07Z</time>
      </trkpt>
      <trkpt lat="44.59404" lon="0.84893">
        <ele>152</ele>
        <time>2012-11-11T10:00:09Z</time>
      </trkpt>
      <trkpt lat="44.59402" lon="0.84899">
        <ele>152</ele>
        <time>2012-11-11T10:00:11Z</time>
      </trkpt>
      <trkpt lat="44.594" lon="0.84904">
        <ele>152</ele>
        <time>2012-11-11T10:00:13Z</time>
      </trkpt>
      <trkpt lat="44.59397" lon="0.84908">
        <ele>152</ele>
        <time>2012-11-11T10:00:15Z</time>
      </trkpt>
      <trkpt lat="44.59394" lon="0.84913">
        <ele>152</ele>
        <time>2012-11-11T10:00:17Z</time>
      </trkpt>
      <trkpt lat="44.5939" lon="0.84917">
        <ele>152</ele>
        <time>2012-11-11T10:00:19Z</time>
      </trkpt>
      <trkpt lat="44.59386" lon="0.84921">
        <ele>152</ele>
        <time>2012-11-11T10:00:21Z</time>
      </trkpt>
      <trkpt lat="44.59384" lon="0.84925">
        <ele>152</ele>
        <time>2012-11-11T10:00:23Z</time>
      </trkpt>
      <trkpt lat="44.5938" lon="0.84929">
        <ele>152</ele>
        <time>2012-11-11T10:00:25Z</time>
      </trkpt>
      <trkpt lat="44.59377" lon="0.84932">
        <ele>152</ele>
        <time>2012-11-11T10:00:27Z</time>
      </trkpt>
      <trkpt lat="44.59374" lon="0.84937">
        <ele>152</ele>
        <time>2012-11-11T10:00:29Z</time>
      </trkpt>
      <trkpt lat="44.5937" lon="0.84941">
        <ele>152</ele>
        <time>2012-11-11T10:00:31Z</time>
      </trkpt>
      <trkpt lat="44.59365" lon="0.84945">
        <ele>152</ele>
        <time>2012-11-11T10:00:33Z</time>
      </trkpt>
      <trkpt lat="44.59361" lon="0.8495">
        <ele>152</ele>
        <time>2012-11-11T10:00:35Z</time>
      </trkpt>
      <trkpt lat="44.59357" lon="0.84955">
        <ele>152</ele>
        <time>2012-11-11T10:00:37Z</time>
      </trkpt>
      <trkpt lat="44.59353" lon="0.8496">
        <ele>152</ele>
        <time>2012-11-11T10:00:39Z</time>
      </trkpt>
      <trkpt lat="44.59348" lon="0.84965">
        <ele>152</ele>
        <time>2012-11-11T10:00:41Z</time>
      </trkpt>
      <trkpt lat="44.59343" lon="0.8497">
        <ele>152</ele>
        <time>2012-11-11T10:00:43Z</time>
      </trkpt>
      <trkpt lat="44.59339" lon="0.84975">
        <ele>152</ele>
        <time>2012-11-11T10:00:45Z</time>
      </trkpt>
      <trkpt lat="44.59336" lon="0.84981">
        <ele>152</ele>
        <time>2012-11-11T10:00:47Z</time>
      </trkpt>
      <trkpt lat="44.59334" lon="0.84989">
        <ele>152</ele>
        <time>2012-11-11T10:00:49Z</time>
      </trkpt>
      <trkpt lat="44.59333" lon="0.84999">
        <ele>152</ele>
        <time>2012-11-11T10:00:51Z</time>
      </trkpt>
      <trkpt lat="44.5933" lon="0.85009">
        <ele>152</ele>
        <time>2012-11-11T10:00:53Z</time>
      </trkpt>
      <trkpt lat="44.59324" lon="0.8502">
        <ele>152</ele>
        <time>2012-11-11T10:00:55Z</time>
      </trkpt>
      <trkpt lat="44.59316" lon="0.85029">
        <ele>152</ele>
        <time>2012-11-11T10:00:57Z</time>
      </trkpt>
      <trkpt lat="44.59308" lon="0.85036">
        <ele>152</ele>
        <time>2012-11-11T10:00:59Z</time>
      </trkpt>
      <trkpt lat="44.593" lon="0.85044">
        <ele>152</ele>
        <time>2012-11-11T10:01:01Z</time>
      </trkpt>
      <trkpt lat="44.59292" lon="0.8505">
        <ele>152</ele>
        <time>2012-11-11T10:01:03Z</time>
      </trkpt>
      <trkpt lat="44.59284" lon="0.85056">
        <ele>152</ele>
        <time>2012-11-11T10:01:05Z</time>
      </trkpt>
      <trkpt lat="44.59277" lon="0.85061">
        <ele>152</ele>
        <time>2012-11-11T10:01:07Z</time>
      </trkpt>
      <trkpt lat="44.59269" lon="0.85066">
        <ele>152</ele>
        <time>2012-11-11T10:01:09Z</time>
      </trkpt>
      <trkpt lat="44.59261" lon="0.85069">
        <ele>152</ele>
        <time>2012-11-11T10:01:11Z</time>
      </trkpt>
      <trkpt lat="44.59252" lon="0.85072">
        <ele>152</ele>
        <time>2012-11-11T10:01:13Z</time>
      </trkpt>
      <trkpt lat="44.59245" lon="0.85076">
        <ele>152</ele>
        <time>2012-11-11T10:01:15Z</time>
      </trkpt>
      <trkpt lat="44.59237" lon="0.85081">
        <ele>152</ele>
        <time>2012-11-11T10:01:17Z</time>
      </trkpt>
      <trkpt lat="44.59229" lon="0.85087">
        <ele>152</ele>
        <time>2012-11-11T10:01:19Z</time>
      </trkpt>
      <trkpt lat="44.59223" lon="0.85093">
        <ele>152</ele>
        <time>2012-11-11T10:01:21Z</time>
      </trkpt>
      <trkpt lat="44.59216" lon="0.85098">
        <ele>152</ele>
        <time>2012-11-11T10:01:23Z</time>
      </trkpt>
      <trkpt lat="44.59209" lon="0.85103">
        <ele>152</ele>
        <time>2012-11-11T10:01:25Z</time>
      </trkpt>
      <trkpt lat="44.59203" lon="0.85108">
        <ele>152</ele>
        <time>2012-11-11T10:01:27Z</time>
      </trkpt>
      <trkpt lat="44.59195" lon="0.85114">
        <ele>152</ele>
        <time>2012-11-11T10:01:29Z</time>
      </trkpt>
      <trkpt lat="44.59188" lon="0.85119">
        <ele>152</ele>
        <time>2012-11-11T10:01:31Z</time>
      </trkpt>
      <trkpt lat="44.59181" lon="0.85125">
        <ele>152</ele>
        <time>2012-11-11T10:01:33Z</time>
      </trkpt>
      <trkpt lat="44.59174" lon="0.8513">
        <ele>152</ele>
        <time>2012-11-11T10:01:35Z</time>
      </trkpt>
      <trkpt lat="44.59166" lon="0.85136">
        <ele>152</ele>
        <time>2012-11-11T10:01:37Z</time>
      </trkpt>
      <trkpt lat="44.59159" lon="0.85141">
        <ele>152</ele>
        <time>2012-11-11T10:01:39Z</time>
      </trkpt>
      <trkpt lat="44.59152" lon="0.85147">
        <ele>152</ele>
        <time>2012-11-11T10:01:41Z</time>
      </trkpt>
      <trkpt lat="44.59144" lon="0.85153">
        <ele>152</ele>
        <time>2012-11-11T10:01:43Z</time>
      </trkpt>
      <trkpt lat="44.59135" lon="0.85157">
        <ele>152</ele>
        <time>2012-11-11T10:01:45Z</time>
      </trkpt>
      <trkpt lat="44.59127" lon="0.85159">
        <ele>152</ele>
        <time>2012-11-11T10:01:47Z</time>
      </trkpt>
      <trkpt lat="44.59119" lon="0.85162">
        <ele>152</ele>
        <time>2012-11-11T10:01:49Z</time>
      </trkpt>
      <trkpt lat="44.59111" lon="0.85164">
        <ele>152</ele>
        <time>2012-11-11T10:01:51Z</time>
      </trkpt>
      <trkpt lat="44.59103" lon="0.85166">
        <ele>152</ele>
        <time>2012-11-11T10:01:53Z</time>
      </trkpt>
      <trkpt lat="44.59094" lon="0.85167">
        <ele>152</ele>
        <time>2012-11-11T10:01:55Z</time>
      </trkpt>
      <trkpt lat="44.59085" lon="0.8517">
        <ele>152</ele>
        <time>2012-11-11T10:01:57Z</time>
      </trkpt>
      <trkpt lat="44.59077" lon="0.85172">
        <ele>152</ele>
        <time>2012-11-11T10:01:59Z</time>
      </trkpt>
      <trkpt lat="44.59068" lon="0.85176">
        <ele>153</ele>
        <time>2012-11-11T10:02:01Z</time>
      </trkpt>
      <trkpt lat="44.59058" lon="0.8518">
        <ele>154</ele>
        <time>2012-11-11T10:02:03Z</time>
      </trkpt>
      <trkpt lat="44.5905" lon="0.85183">
        <ele>154</ele>
        <time>2012-11-11T10:02:05Z</time>
      </trkpt>
      <trkpt lat="44.59041" lon="0.85187">
        <ele>155</ele>
        <time>2012-11-11T10:02:07Z</time>
      </trkpt>
      <trkpt lat="44.59033" lon="0.8519">
        <ele>156</ele>
        <time>2012-11-11T10:02:09Z</time>
      </trkpt>
      <trkpt lat="44.59025" lon="0.85195">
        <ele>156</ele>
        <time>2012-11-11T10:02:11Z</time>
      </trkpt>
      <trkpt lat="44.59017" lon="0.852">
        <ele>156</ele>
        <time>2012-11-11T10:02:13Z</time>
      </trkpt>
      <trkpt lat="44.59009" lon="0.85206">
        <ele>156</ele>
        <time>2012-11-11T10:02:15Z</time>
      </trkpt>
      <trkpt lat="44.59003" lon="0.85213">
        <ele>156</ele>
        <time>2012-11-11T10:02:17Z</time>
      </trkpt>
      <trkpt lat="44.59" lon="0.85218">
        <ele>156</ele>
        <time>2012-11-11T10:02:19Z</time>
      </trkpt>
      <trkpt lat="44.58996" lon="0.85221">
        <ele>156</ele>
        <time>2012-11-11T10:02:22Z</time>
      </trkpt>
      <trkpt lat="44.58995" lon="0.85222">
        <ele>156</ele>
        <time>2012-11-11T10:02:28Z</time>
      </trkpt>
      <trkpt lat="44.58994" lon="0.8522">
        <ele>159</ele>
        <time>2012-11-11T10:02:31Z</time>
      </trkpt>
      <trkpt lat="44.58995" lon="0.85222">
        <ele>160</ele>
        <time>2012-11-11T10:02:37Z</time>
      </trkpt>
      <trkpt lat="44.58996" lon="0.85224">
        <ele>160</ele>
        <time>2012-11-11T10:02:39Z</time>
      </trkpt>
      <trkpt lat="44.58997" lon="0.85226">
        <ele>160</ele>
        <time>2012-11-11T10:02:41Z</time>
      </trkpt>
      <trkpt lat="44.58999" lon="0.85228">
        <ele>160</ele>
        <time>2012-11-11T10:02:44Z</time>
      </trkpt>
      <trkpt lat="44.59" lon="0.8523">
        <ele>160</ele>
        <time>2012-11-11T10:02:46Z</time>
      </trkpt>
      <trkpt lat="44.59" lon="0.85231">
        <ele>160</ele>
        <time>2012-11-11T10:02:49Z</time>
      </trkpt>
      <trkpt lat="44.59001" lon="0.85233">
        <ele>160</ele>
        <time>2012-11-11T10:02:54Z</time>
      </trkpt>
      <trkpt lat="44.59" lon="0.85234">
        <ele>159</ele>
        <time>2012-11-11T10:03:09Z</time>
      </trkpt>
      <trkpt lat="44.58997" lon="0.85238">
        <ele>159</ele>
        <time>2012-11-11T10:03:11Z</time>
      </trkpt>
      <trkpt lat="44.58994" lon="0.85241">
        <ele>159</ele>
        <time>2012-11-11T10:03:13Z</time>
      </trkpt>
      <trkpt lat="44.58989" lon="0.85245">
        <ele>159</ele>
        <time>2012-11-11T10:03:15Z</time>
      </trkpt>
      <trkpt lat="44.58984" lon="0.85251">
        <ele>159</ele>
        <time>2012-11-11T10:03:17Z</time>
      </trkpt>
      <trkpt lat="44.58978" lon="0.85257">
        <ele>159</ele>
        <time>2012-11-11T10:03:19Z</time>
      </trkpt>
      <trkpt lat="44.58973" lon="0.85264">
        <ele>159</ele>
        <time>2012-11-11T10:03:21Z</time>
      </trkpt>
      <trkpt lat="44.58968" lon="0.85271">
        <ele>158</ele>
        <time>2012-11-11T10:03:23Z</time>
      </trkpt>
      <trkpt lat="44.58961" lon="0.85277">
        <ele>158</ele>
        <time>2012-11-11T10:03:25Z</time>
      </trkpt>
      <trkpt lat="44.58954" lon="0.85282">
        <ele>158</ele>
        <time>2012-11-11T10:03:27Z</time>
      </trkpt>
      <trkpt lat="44.58947" lon="0.85286">
        <ele>158</ele>
        <time>2012-11-11T10:03:29Z</time>
      </trkpt>
      <trkpt lat="44.5894" lon="0.8529">
        <ele>158</ele>
        <time>2012-11-11T10:03:31Z</time>
      </trkpt>
      <trkpt lat="44.58933" lon="0.85295">
        <ele>158</ele>
        <time>2012-11-11T10:03:33Z</time>
      </trkpt>
      <trkpt lat="44.58926" lon="0.85302">
        <ele>158</ele>
        <time>2012-11-11T10:03:35Z</time>
      </trkpt>
      <trkpt lat="44.5892" lon="0.85308">
        <ele>158</ele>
        <time>2012-11-11T10:03:37Z</time>
      </trkpt>
      <trkpt lat="44.58914" lon="0.85315">
        <ele>158</ele>
        <time>2012-11-11T10:03:39Z</time>
      </trkpt>
      <trkpt lat="44.58908" lon="0.85322">
        <ele>158</ele>
        <time>2012-11-11T10:03:41Z</time>
      </trkpt>
      <trkpt lat="44.58902" lon="0.8533">
        <ele>158</ele>
        <time>2012-11-11T10:03:43Z</time>
      </trkpt>
      <trkpt lat="44.58896" lon="0.85337">
        <ele>158</ele>
        <time>2012-11-11T10:03:45Z</time>
      </trkpt>
      <trkpt lat="44.58891" lon="0.85344">
        <ele>158</ele>
        <time>2012-11-11T10:03:47Z</time>
      </trkpt>
      <trkpt lat="44.58885" lon="0.85351">
        <ele>158</ele>
        <time>2012-11-11T10:03:49Z</time>
      </trkpt>
      <trkpt lat="44.5888" lon="0.85358">
        <ele>158</ele>
        <time>2012-11-11T10:03:51Z</time>
      </trkpt>
      <trkpt lat="44.58876" lon="0.85365">
        <ele>158</ele>
        <time>2012-11-11T10:03:53Z</time>
      </trkpt>
      <trkpt lat="44.5887" lon="0.85372">
        <ele>158</ele>
        <time>2012-11-11T10:03:55Z</time>
      </trkpt>
      <trkpt lat="44.58865" lon="0.85379">
        <ele>158</ele>
        <time>2012-11-11T10:03:57Z</time>
      </trkpt>
      <trkpt lat="44.58862" lon="0.85386">
        <ele>158</ele>
        <time>2012-11-11T10:03:59Z</time>
      </trkpt>
      <trkpt lat="44.58858" lon="0.85392">
        <ele>158</ele>
        <time>2012-11-11T10:04:01Z</time>
      </trkpt>
      <trkpt lat="44.58854" lon="0.85397">
        <ele>158</ele>
        <time>2012-11-11T10:04:03Z</time>
      </trkpt>
      <trkpt lat="44.58851" lon="0.85402">
        <ele>158</ele>
        <time>2012-11-11T10:04:05Z</time>
      </trkpt>
      <trkpt lat="44.58849" lon="0.85405">
        <ele>158</ele>
        <time>2012-11-11T10:04:07Z</time>
      </trkpt>
      <trkpt lat="44.58846" lon="0.85408">
        <ele>160</ele>
        <time>2012-11-11T10:04:10Z</time>
      </trkpt>
      <trkpt lat="44.58845" lon="0.8541">
        <ele>162</ele>
        <time>2012-11-11T10:04:12Z</time>
      </trkpt>
      <trkpt lat="44.58842" lon="0.85411">
        <ele>163</ele>
        <time>2012-11-11T10:04:14Z</time>
      </trkpt>
      <trkpt lat="44.58839" lon="0.85414">
        <ele>164</ele>
        <time>2012-11-11T10:04:16Z</time>
      </trkpt>
      <trkpt lat="44.58836" lon="0.8542">
        <ele>165</ele>
        <time>2012-11-11T10:04:18Z</time>
      </trkpt>
      <trkpt lat="44.58833" lon="0.85426">
        <ele>165</ele>
        <time>2012-11-11T10:04:20Z</time>
      </trkpt>
      <trkpt lat="44.58831" lon="0.85434">
        <ele>165</ele>
        <time>2012-11-11T10:04:22Z</time>
      </trkpt>
      <trkpt lat="44.58829" lon="0.85439">
        <ele>165</ele>
        <time>2012-11-11T10:04:24Z</time>
      </trkpt>
      <trkpt lat="44.58828" lon="0.8545">
        <ele>165</ele>
        <time>2012-11-11T10:04:26Z</time>
      </trkpt>
      <trkpt lat="44.58828" lon="0.85462">
        <ele>165</ele>
        <time>2012-11-11T10:04:28Z</time>
      </trkpt>
      <trkpt lat="44.58824" lon="0.85474">
        <ele>165</ele>
        <time>2012-11-11T10:04:30Z</time>
      </trkpt>
      <trkpt lat="44.5882" lon="0.85483">
        <ele>165</ele>
        <time>2012-11-11T10:04:32Z</time>
      </trkpt>
      <trkpt lat="44.58816" lon="0.85492">
        <ele>165</ele>
        <time>2012-11-11T10:04:34Z</time>
      </trkpt>
      <trkpt lat="44.58812" lon="0.85501">
        <ele>165</ele>
        <time>2012-11-11T10:04:36Z</time>
      </trkpt>
      <trkpt lat="44.58809" lon="0.8551">
        <ele>165</ele>
        <time>2012-11-11T10:04:38Z</time>
      </trkpt>
      <trkpt lat="44.58805" lon="0.8552">
        <ele>164</ele>
        <time>2012-11-11T10:04:40Z</time>
      </trkpt>
      <trkpt lat="44.588" lon="0.85527">
        <ele>163</ele>
        <time>2012-11-11T10:04:42Z</time>
      </trkpt>
      <trkpt lat="44.58793" lon="0.85528">
        <ele>163</ele>
        <time>2012-11-11T10:04:44Z</time>
      </trkpt>
      <trkpt lat="44.58784" lon="0.85527">
        <ele>163</ele>
        <time>2012-11-11T10:04:46Z</time>
      </trkpt>
      <trkpt lat="44.58777" lon="0.85527">
        <ele>162</ele>
        <time>2012-11-11T10:04:48Z</time>
      </trkpt>
      <trkpt lat="44.5877" lon="0.85526">
        <ele>161</ele>
        <time>2012-11-11T10:04:50Z</time>
      </trkpt>
      <trkpt lat="44.58762" lon="0.85525">
        <ele>161</ele>
        <time>2012-11-11T10:04:52Z</time>
      </trkpt>
      <trkpt lat="44.58752" lon="0.85523">
        <ele>161</ele>
        <time>2012-11-11T10:04:54Z</time>
      </trkpt>
      <trkpt lat="44.58743" lon="0.8552">
        <ele>161</ele>
        <time>2012-11-11T10:04:56Z</time>
      </trkpt>
      <trkpt lat="44.58732" lon="0.85518">
        <ele>161</ele>
        <time>2012-11-11T10:04:58Z</time>
      </trkpt>
      <trkpt lat="44.58722" lon="0.85515">
        <ele>160</ele>
        <time>2012-11-11T10:05:00Z</time>
      </trkpt>
      <trkpt lat="44.58712" lon="0.85513">
        <ele>160</ele>
        <time>2012-11-11T10:05:02Z</time>
      </trkpt>
      <trkpt lat="44.58704" lon="0.8551">
        <ele>160</ele>
        <time>2012-11-11T10:05:04Z</time>
      </trkpt>
      <trkpt lat="44.58696" lon="0.85509">
        <ele>160</ele>
        <time>2012-11-11T10:05:06Z</time>
      </trkpt>
      <trkpt lat="44.58688" lon="0.85507">
        <ele>160</ele>
        <time>2012-11-11T10:05:08Z</time>
      </trkpt>
      <trkpt lat="44.5868" lon="0.85505">
        <ele>160</ele>
        <time>2012-11-11T10:05:10Z</time>
      </trkpt>
      <trkpt lat="44.58673" lon="0.85504">
        <ele>160</ele>
        <time>2012-11-11T10:05:12Z</time>
      </trkpt>
      <trkpt lat="44.58665" lon="0.85501">
        <ele>160</ele>
        <time>2012-11-11T10:05:14Z</time>
      </trkpt>
      <trkpt lat="44.58657" lon="0.85499">
        <ele>160</ele>
        <time>2012-11-11T10:05:16Z</time>
      </trkpt>
      <trkpt lat="44.5865" lon="0.85496">
        <ele>160</ele>
        <time>2012-11-11T10:05:18Z</time>
      </trkpt>
      <trkpt lat="44.58642" lon="0.85494">
        <ele>159</ele>
        <time>2012-11-11T10:05:20Z</time>
      </trkpt>
      <trkpt lat="44.58634" lon="0.85491">
        <ele>159</ele>
        <time>2012-11-11T10:05:22Z</time>
      </trkpt>
      <trkpt lat="44.58626" lon="0.85489">
        <ele>159</ele>
        <time>2012-11-11T10:05:24Z</time>
      </trkpt>
      <trkpt lat="44.58618" lon="0.85487">
        <ele>159</ele>
        <time>2012-11-11T10:05:26Z</time>
      </trkpt>
      <trkpt lat="44.58611" lon="0.85485">
        <ele>159</ele>
        <time>2012-11-11T10:05:28Z</time>
      </trkpt>
      <trkpt lat="44.58604" lon="0.85483">
        <ele>159</ele>
        <time>2012-11-11T10:05:30Z</time>
      </trkpt>
      <trkpt lat="44.58596" lon="0.85481">
        <ele>159</ele>
        <time>2012-11-11T10:05:32Z</time>
      </trkpt>
      <trkpt lat="44.58588" lon="0.85479">
        <ele>159</ele>
        <time>2012-11-11T10:05:34Z</time>
      </trkpt>
      <trkpt lat="44.58582" lon="0.85477">
        <ele>159</ele>
        <time>2012-11-11T10:05:36Z</time>
      </trkpt>
      <trkpt lat="44.58575" lon="0.85476">
        <ele>159</ele>
        <time>2012-11-11T10:05:38Z</time>
      </trkpt>
      <trkpt lat="44.58567" lon="0.85475">
        <ele>159</ele>
        <time>2012-11-11T10:05:40Z</time>
      </trkpt>
      <trkpt lat="44.58558" lon="0.85475">
        <ele>159</ele>
        <time>2012-11-11T10:05:42Z</time>
      </trkpt>
      <trkpt lat="44.58549" lon="0.85475">
        <ele>159</ele>
        <time>2012-11-11T10:05:44Z</time>
      </trkpt>
      <trkpt lat="44.5854" lon="0.85476">
        <ele>159</ele>
        <time>2012-11-11T10:05:46Z</time>
      </trkpt>
      <trkpt lat="44.58531" lon="0.85478">
        <ele>159</ele>
        <time>2012-11-11T10:05:48Z</time>
      </trkpt>
      <trkpt lat="44.58523" lon="0.8548">
        <ele>159</ele>
        <time>2012-11-11T10:05:50Z</time>
      </trkpt>
      <trkpt lat="44.58515" lon="0.85484">
        <ele>159</ele>
        <time>2012-11-11T10:05:52Z</time>
      </trkpt>
      <trkpt lat="44.58507" lon="0.85488">
        <ele>159</ele>
        <time>2012-11-11T10:05:54Z</time>
      </trkpt>
      <trkpt lat="44.585" lon="0.85495">
        <ele>161</ele>
        <time>2012-11-11T10:05:56Z</time>
      </trkpt>
      <trkpt lat="44.58492" lon="0.85501">
        <ele>163</ele>
        <time>2012-11-11T10:05:58Z</time>
      </trkpt>
      <trkpt lat="44.58485" lon="0.85506">
        <ele>165</ele>
        <time>2012-11-11T10:06:00Z</time>
      </trkpt>
      <trkpt lat="44.5848" lon="0.85513">
        <ele>166</ele>
        <time>2012-11-11T10:06:02Z</time>
      </trkpt>
      <trkpt lat="44.58473" lon="0.85518">
        <ele>166</ele>
        <time>2012-11-11T10:06:04Z</time>
      </trkpt>
      <trkpt lat="44.58468" lon="0.85523">
        <ele>166</ele>
        <time>2012-11-11T10:06:06Z</time>
      </trkpt>
      <trkpt lat="44.58462" lon="0.85527">
        <ele>166</ele>
        <time>2012-11-11T10:06:08Z</time>
      </trkpt>
      <trkpt lat="44.58456" lon="0.85531">
        <ele>166</ele>
        <time>2012-11-11T10:06:10Z</time>
      </trkpt>
      <trkpt lat="44.5845" lon="0.85535">
        <ele>166</ele>
        <time>2012-11-11T10:06:12Z</time>
      </trkpt>
      <trkpt lat="44.58443" lon="0.85541">
        <ele>165</ele>
        <time>2012-11-11T10:06:14Z</time>
      </trkpt>
      <trkpt lat="44.58436" lon="0.85545">
        <ele>165</ele>
        <time>2012-11-11T10:06:16Z</time>
      </trkpt>
      <trkpt lat="44.58428" lon="0.85549">
        <ele>165</ele>
        <time>2012-11-11T10:06:18Z</time>
      </trkpt>
      <trkpt lat="44.58421" lon="0.85553">
        <ele>165</ele>
        <time>2012-11-11T10:06:20Z</time>
      </trkpt>
      <trkpt lat="44.58414" lon="0.85557">
        <ele>165</ele>
        <time>2012-11-11T10:06:22Z</time>
      </trkpt>
      <trkpt lat="44.58406" lon="0.8556">
        <ele>165</ele>
        <time>2012-11-11T10:06:24Z</time>
      </trkpt>
      <trkpt lat="44.58398" lon="0.85563">
        <ele>165</ele>
        <time>2012-11-11T10:06:26Z</time>
      </trkpt>
      <trkpt lat="44.58389" lon="0.85565">
        <ele>165</ele>
        <time>2012-11-11T10:06:28Z</time>
      </trkpt>
      <trkpt lat="44.5838" lon="0.85568">
        <ele>165</ele>
        <time>2012-11-11T10:06:30Z</time>
      </trkpt>
      <trkpt lat="44.58371" lon="0.8557">
        <ele>165</ele>
        <time>2012-11-11T10:06:32Z</time>
      </trkpt>
      <trkpt lat="44.58363" lon="0.85573">
        <ele>165</ele>
        <time>2012-11-11T10:06:34Z</time>
      </trkpt>
      <trkpt lat="44.58354" lon="0.85576">
        <ele>165</ele>
        <time>2012-11-11T10:06:36Z</time>
      </trkpt>
      <trkpt lat="44.58345" lon="0.85579">
        <ele>165</ele>
        <time>2012-11-11T10:06:38Z</time>
      </trkpt>
      <trkpt lat="44.58335" lon="0.85583">
        <ele>166</ele>
        <time>2012-11-11T10:06:40Z</time>
      </trkpt>
      <trkpt lat="44.58326" lon="0.85586">
        <ele>166</ele>
        <time>2012-11-11T10:06:42Z</time>
      </trkpt>
      <trkpt lat="44.58317" lon="0.85589">
        <ele>166</ele>
        <time>2012-11-11T10:06:44Z</time>
      </trkpt>
      <trkpt lat="44.58308" lon="0.85593">
        <ele>166</ele>
        <time>2012-11-11T10:06:46Z</time>
      </trkpt>
      <trkpt lat="44.58297" lon="0.85596">
        <ele>167</ele>
        <time>2012-11-11T10:06:48Z</time>
      </trkpt>
      <trkpt lat="44.58289" lon="0.85598">
        <ele>167</ele>
        <time>2012-11-11T10:06:50Z</time>
      </trkpt>
      <trkpt lat="44.58281" lon="0.85602">
        <ele>168</ele>
        <time>2012-11-11T10:06:52Z</time>
      </trkpt>
      <trkpt lat="44.58272" lon="0.85606">
        <ele>168</ele>
        <time>2012-11-11T10:06:54Z</time>
      </trkpt>
      <trkpt lat="44.58264" lon="0.85609">
        <ele>169</ele>
        <time>2012-11-11T10:06:56Z</time>
      </trkpt>
      <trkpt lat="44.58256" lon="0.85615">
        <ele>169</ele>
        <time>2012-11-11T10:06:58Z</time>
      </trkpt>
      <trkpt lat="44.58249" lon="0.85622">
        <ele>169</ele>
        <time>2012-11-11T10:07:00Z</time>
      </trkpt>
      <trkpt lat="44.58243" lon="0.85631">
        <ele>169</ele>
        <time>2012-11-11T10:07:02Z</time>
      </trkpt>
      <trkpt lat="44.58239" lon="0.85639">
        <ele>169</ele>
        <time>2012-11-11T10:07:04Z</time>
      </trkpt>
      <trkpt lat="44.58234" lon="0.85647">
        <ele>169</ele>
        <time>2012-11-11T10:07:06Z</time>
      </trkpt>
      <trkpt lat="44.5823" lon="0.85655">
        <ele>169</ele>
        <time>2012-11-11T10:07:08Z</time>
      </trkpt>
      <trkpt lat="44.58225" lon="0.85663">
        <ele>169</ele>
        <time>2012-11-11T10:07:10Z</time>
      </trkpt>
      <trkpt lat="44.58221" lon="0.85671">
        <ele>169</ele>
        <time>2012-11-11T10:07:12Z</time>
      </trkpt>
      <trkpt lat="44.58218" lon="0.85678">
        <ele>169</ele>
        <time>2012-11-11T10:07:14Z</time>
      </trkpt>
      <trkpt lat="44.58215" lon="0.85682">
        <ele>169</ele>
        <time>2012-11-11T10:07:16Z</time>
      </trkpt>
      <trkpt lat="44.58212" lon="0.85688">
        <ele>169</ele>
        <time>2012-11-11T10:07:18Z</time>
      </trkpt>
      <trkpt lat="44.58209" lon="0.85695">
        <ele>169</ele>
        <time>2012-11-11T10:07:20Z</time>
      </trkpt>
      <trkpt lat="44.58206" lon="0.85702">
        <ele>169</ele>
        <time>2012-11-11T10:07:22Z</time>
      </trkpt>
      <trkpt lat="44.58202" lon="0.85711">
        <ele>169</ele>
        <time>2012-11-11T10:07:24Z</time>
      </trkpt>
      <trkpt lat="44.58198" lon="0.85719">
        <ele>169</ele>
        <time>2012-11-11T10:07:26Z</time>
      </trkpt>
      <trkpt lat="44.58193" lon="0.85728">
        <ele>169</ele>
        <time>2012-11-11T10:07:28Z</time>
      </trkpt>
      <trkpt lat="44.58188" lon="0.85738">
        <ele>169</ele>
        <time>2012-11-11T10:07:30Z</time>
      </trkpt>
      <trkpt lat="44.58182" lon="0.85747">
        <ele>169</ele>
        <time>2012-11-11T10:07:32Z</time>
      </trkpt>
      <trkpt lat="44.58176" lon="0.85756">
        <ele>169</ele>
        <time>2012-11-11T10:07:34Z</time>
      </trkpt>
      <trkpt lat="44.58168" lon="0.85764">
        <ele>169</ele>
        <time>2012-11-11T10:07:36Z</time>
      </trkpt>
      <trkpt lat="44.5816" lon="0.8577">
        <ele>169</ele>
        <time>2012-11-11T10:07:38Z</time>
      </trkpt>
      <trkpt lat="44.58153" lon="0.85777">
        <ele>169</ele>
        <time>2012-11-11T10:07:40Z</time>
      </trkpt>
      <trkpt lat="44.58144" lon="0.85781">
        <ele>169</ele>
        <time>2012-11-11T10:07:42Z</time>
      </trkpt>
      <trkpt lat="44.58137" lon="0.85785">
        <ele>169</ele>
        <time>2012-11-11T10:07:44Z</time>
      </trkpt>
      <trkpt lat="44.58129" lon="0.8579">
        <ele>169</ele>
        <time>2012-11-11T10:07:46Z</time>
      </trkpt>
      <trkpt lat="44.58121" lon="0.85794">
        <ele>169</ele>
        <time>2012-11-11T10:07:48Z</time>
      </trkpt>
      <trkpt lat="44.58113" lon="0.85798">
        <ele>169</ele>
        <time>2012-11-11T10:07:50Z</time>
      </trkpt>
      <trkpt lat="44.58106" lon="0.85802">
        <ele>169</ele>
        <time>2012-11-11T10:07:52Z</time>
      </trkpt>
      <trkpt lat="44.58098" lon="0.85806">
        <ele>169</ele>
        <time>2012-11-11T10:07:54Z</time>
      </trkpt>
      <trkpt lat="44.58091" lon="0.85809">
        <ele>169</ele>
        <time>2012-11-11T10:07:56Z</time>
      </trkpt>
      <trkpt lat="44.58083" lon="0.85814">
        <ele>169</ele>
        <time>2012-11-11T10:07:58Z</time>
      </trkpt>
      <trkpt lat="44.58075" lon="0.85818">
        <ele>169</ele>
        <time>2012-11-11T10:08:00Z</time>
      </trkpt>
      <trkpt lat="44.58067" lon="0.85821">
        <ele>169</ele>
        <time>2012-11-11T10:08:02Z</time>
      </trkpt>
      <trkpt lat="44.58058" lon="0.85825">
        <ele>169</ele>
        <time>2012-11-11T10:08:04Z</time>
      </trkpt>
      <trkpt lat="44.58049" lon="0.85828">
        <ele>169</ele>
        <time>2012-11-11T10:08:06Z</time>
      </trkpt>
      <trkpt lat="44.5804" lon="0.85832">
        <ele>168</ele>
        <time>2012-11-11T10:08:08Z</time>
      </trkpt>
      <trkpt lat="44.58031" lon="0.85836">
        <ele>167</ele>
        <time>2012-11-11T10:08:10Z</time>
      </trkpt>
      <trkpt lat="44.58022" lon="0.8584">
        <ele>167</ele>
        <time>2012-11-11T10:08:12Z</time>
      </trkpt>
      <trkpt lat="44.58012" lon="0.85846">
        <ele>167</ele>
        <time>2012-11-11T10:08:14Z</time>
      </trkpt>
      <trkpt lat="44.58001" lon="0.85851">
        <ele>167</ele>
        <time>2012-11-11T10:08:16Z</time>
      </trkpt>
      <trkpt lat="44.57991" lon="0.85856">
        <ele>167</ele>
        <time>2012-11-11T10:08:18Z</time>
      </trkpt>
      <trkpt lat="44.57979" lon="0.85863">
        <ele>167</ele>
        <time>2012-11-11T10:08:20Z</time>
      </trkpt>
      <trkpt lat="44.57966" lon="0.85871">
        <ele>167</ele>
        <time>2012-11-11T10:08:22Z</time>
      </trkpt>
      <trkpt lat="44.57952" lon="0.85878">
        <ele>167</ele>
        <time>2012-11-11T10:08:24Z</time>
      </trkpt>
      <trkpt lat="44.5794" lon="0.85885">
        <ele>167</ele>
        <time>2012-11-11T10:08:26Z</time>
      </trkpt>
      <trkpt lat="44.57928" lon="0.85892">
        <ele>167</ele>
        <time>2012-11-11T10:08:28Z</time>
      </trkpt>
      <trkpt lat="44.57917" lon="0.85896">
        <ele>167</ele>
        <time>2012-11-11T10:08:30Z</time>
      </trkpt>
      <trkpt lat="44.57907" lon="0.859">
        <ele>166</ele>
        <time>2012-11-11T10:08:32Z</time>
      </trkpt>
      <trkpt lat="44.579" lon="0.85904">
        <ele>165</ele>
        <time>2012-11-11T10:08:34Z</time>
      </trkpt>
      <trkpt lat="44.57893" lon="0.85908">
        <ele>164</ele>
        <time>2012-11-11T10:08:36Z</time>
      </trkpt>
      <trkpt lat="44.57887" lon="0.85912">
        <ele>164</ele>
        <time>2012-11-11T10:08:38Z</time>
      </trkpt>
      <trkpt lat="44.57882" lon="0.85914">
        <ele>164</ele>
        <time>2012-11-11T10:08:40Z</time>
      </trkpt>
      <trkpt lat="44.57879" lon="0.85914">
        <ele>164</ele>
        <time>2012-11-11T10:08:42Z</time>
      </trkpt>
      <trkpt lat="44.57874" lon="0.85914">
        <ele>164</ele>
        <time>2012-11-11T10:08:44Z</time>
      </trkpt>
      <trkpt lat="44.5787" lon="0.85909">
        <ele>164</ele>
        <time>2012-11-11T10:08:46Z</time>
      </trkpt>
      <trkpt lat="44.57867" lon="0.85905">
        <ele>164</ele>
        <time>2012-11-11T10:08:48Z</time>
      </trkpt>
      <trkpt lat="44.57861" lon="0.85905">
        <ele>164</ele>
        <time>2012-11-11T10:08:50Z</time>
      </trkpt>
      <trkpt lat="44.57856" lon="0.85907">
        <ele>164</ele>
        <time>2012-11-11T10:08:52Z</time>
      </trkpt>
      <trkpt lat="44.5785" lon="0.85907">
        <ele>164</ele>
        <time>2012-11-11T10:08:54Z</time>
      </trkpt>
      <trkpt lat="44.57844" lon="0.85904">
        <ele>164</ele>
        <time>2012-11-11T10:08:56Z</time>
      </trkpt>
      <trkpt lat="44.57837" lon="0.859">
        <ele>164</ele>
        <time>2012-11-11T10:08:58Z</time>
      </trkpt>
      <trkpt lat="44.57831" lon="0.85893">
        <ele>164</ele>
        <time>2012-11-11T10:09:00Z</time>
      </trkpt>
      <trkpt lat="44.57823" lon="0.85884">
        <ele>164</ele>
        <time>2012-11-11T10:09:02Z</time>
      </trkpt>
      <trkpt lat="44.57814" lon="0.85873">
        <ele>164</ele>
        <time>2012-11-11T10:09:04Z</time>
      </trkpt>
      <trkpt lat="44.57806" lon="0.85861">
        <ele>164</ele>
        <time>2012-11-11T10:09:06Z</time>
      </trkpt>
      <trkpt lat="44.578" lon="0.85849">
        <ele>164</ele>
        <time>2012-11-11T10:09:08Z</time>
      </trkpt>
      <trkpt lat="44.57796" lon="0.85838">
        <ele>164</ele>
        <time>2012-11-11T10:09:10Z</time>
      </trkpt>
      <trkpt lat="44.57789" lon="0.85825">
        <ele>164</ele>
        <time>2012-11-11T10:09:12Z</time>
      </trkpt>
      <trkpt lat="44.5778" lon="0.85808">
        <ele>164</ele>
        <time>2012-11-11T10:09:14Z</time>
      </trkpt>
      <trkpt lat="44.57772" lon="0.8579">
        <ele>164</ele>
        <time>2012-11-11T10:09:16Z</time>
      </trkpt>
      <trkpt lat="44.57761" lon="0.85765">
        <ele>164</ele>
        <time>2012-11-11T10:09:19Z</time>
      </trkpt>
      <trkpt lat="44.57752" lon="0.85741">
        <ele>164</ele>
        <time>2012-11-11T10:09:22Z</time>
      </trkpt>
      <trkpt lat="44.57747" lon="0.85725">
        <ele>164</ele>
        <time>2012-11-11T10:09:24Z</time>
      </trkpt>
      <trkpt lat="44.57741" lon="0.85709">
        <ele>164</ele>
        <time>2012-11-11T10:09:26Z</time>
      </trkpt>
      <trkpt lat="44.57734" lon="0.85689">
        <ele>164</ele>
        <time>2012-11-11T10:09:29Z</time>
      </trkpt>
      <trkpt lat="44.57729" lon="0.85677">
        <ele>164</ele>
        <time>2012-11-11T10:09:31Z</time>
      </trkpt>
      <trkpt lat="44.57724" lon="0.85664">
        <ele>164</ele>
        <time>2012-11-11T10:09:33Z</time>
      </trkpt>
      <trkpt lat="44.5772" lon="0.85652">
        <ele>164</ele>
        <time>2012-11-11T10:09:35Z</time>
      </trkpt>
      <trkpt lat="44.57717" lon="0.85639">
        <ele>164</ele>
        <time>2012-11-11T10:09:37Z</time>
      </trkpt>
      <trkpt lat="44.57716" lon="0.85626">
        <ele>164</ele>
        <time>2012-11-11T10:09:39Z</time>
      </trkpt>
      <trkpt lat="44.57715" lon="0.85613">
        <ele>165</ele>
        <time>2012-11-11T10:09:41Z</time>
      </trkpt>
      <trkpt lat="44.57708" lon="0.85596">
        <ele>167</ele>
        <time>2012-11-11T10:09:44Z</time>
      </trkpt>
      <trkpt lat="44.57705" lon="0.85584">
        <ele>167</ele>
        <time>2012-11-11T10:09:46Z</time>
      </trkpt>
      <trkpt lat="44.57704" lon="0.8557">
        <ele>167</ele>
        <time>2012-11-11T10:09:48Z</time>
      </trkpt>
      <trkpt lat="44.57706" lon="0.85557">
        <ele>167</ele>
        <time>2012-11-11T10:09:50Z</time>
      </trkpt>
      <trkpt lat="44.5771" lon="0.8554">
        <ele>167</ele>
        <time>2012-11-11T10:09:53Z</time>
      </trkpt>
      <trkpt lat="44.57712" lon="0.85528">
        <ele>167</ele>
        <time>2012-11-11T10:09:55Z</time>
      </trkpt>
      <trkpt lat="44.57715" lon="0.85511">
        <ele>167</ele>
        <time>2012-11-11T10:09:58Z</time>
      </trkpt>
      <trkpt lat="44.57716" lon="0.85499">
        <ele>167</ele>
        <time>2012-11-11T10:10:01Z</time>
      </trkpt>
      <trkpt lat="44.57716" lon="0.85497">
        <ele>167</ele>
        <time>2012-11-11T10:10:03Z</time>
      </trkpt>
      <trkpt lat="44.57716" lon="0.85494">
        <ele>167</ele>
        <time>2012-11-11T10:10:05Z</time>
      </trkpt>
      <trkpt lat="44.57715" lon="0.85486">
        <ele>167</ele>
        <time>2012-11-11T10:10:08Z</time>
      </trkpt>
      <trkpt lat="44.57712" lon="0.8548">
        <ele>167</ele>
        <time>2012-11-11T10:10:10Z</time>
      </trkpt>
      <trkpt lat="44.57709" lon="0.85473">
        <ele>167</ele>
        <time>2012-11-11T10:10:12Z</time>
      </trkpt>
      <trkpt lat="44.57705" lon="0.85467">
        <ele>167</ele>
        <time>2012-11-11T10:10:14Z</time>
      </trkpt>
      <trkpt lat="44.577" lon="0.85461">
        <ele>168</ele>
        <time>2012-11-11T10:10:16Z</time>
      </trkpt>
      <trkpt lat="44.57695" lon="0.85456">
        <ele>168</ele>
        <time>2012-11-11T10:10:18Z</time>
      </trkpt>
      <trkpt lat="44.57687" lon="0.85453">
        <ele>168</ele>
        <time>2012-11-11T10:10:20Z</time>
      </trkpt>
      <trkpt lat="44.57677" lon="0.85448">
        <ele>168</ele>
        <time>2012-11-11T10:10:23Z</time>
      </trkpt>
      <trkpt lat="44.57672" lon="0.85443">
        <ele>168</ele>
        <time>2012-11-11T10:10:25Z</time>
      </trkpt>
      <trkpt lat="44.57668" lon="0.85438">
        <ele>168</ele>
        <time>2012-11-11T10:10:27Z</time>
      </trkpt>
      <trkpt lat="44.57663" lon="0.85432">
        <ele>168</ele>
        <time>2012-11-11T10:10:29Z</time>
      </trkpt>
      <trkpt lat="44.57659" lon="0.85428">
        <ele>168</ele>
        <time>2012-11-11T10:10:31Z</time>
      </trkpt>
      <trkpt lat="44.57653" lon="0.85423">
        <ele>168</ele>
        <time>2012-11-11T10:10:34Z</time>
      </trkpt>
      <trkpt lat="44.5765" lon="0.85425">
        <ele>169</ele>
        <time>2012-11-11T10:10:36Z</time>
      </trkpt>
      <trkpt lat="44.57647" lon="0.8543">
        <ele>169</ele>
        <time>2012-11-11T10:10:38Z</time>
      </trkpt>
      <trkpt lat="44.57645" lon="0.85438">
        <ele>169</ele>
        <time>2012-11-11T10:10:40Z</time>
      </trkpt>
      <trkpt lat="44.57642" lon="0.85445">
        <ele>169</ele>
        <time>2012-11-11T10:10:42Z</time>
      </trkpt>
      <trkpt lat="44.5764" lon="0.85453">
        <ele>169</ele>
        <time>2012-11-11T10:10:44Z</time>
      </trkpt>
      <trkpt lat="44.57636" lon="0.85464">
        <ele>169</ele>
        <time>2012-11-11T10:10:47Z</time>
      </trkpt>
      <trkpt lat="44.57632" lon="0.85474">
        <ele>169</ele>
        <time>2012-11-11T10:10:50Z</time>
      </trkpt>
      <trkpt lat="44.57629" lon="0.85481">
        <ele>169</ele>
        <time>2012-11-11T10:10:52Z</time>
      </trkpt>
      <trkpt lat="44.57627" lon="0.85488">
        <ele>169</ele>
        <time>2012-11-11T10:10:54Z</time>
      </trkpt>
      <trkpt lat="44.57621" lon="0.855">
        <ele>169</ele>
        <time>2012-11-11T10:10:57Z</time>
      </trkpt>
      <trkpt lat="44.57616" lon="0.85513">
        <ele>169</ele>
        <time>2012-11-11T10:11:00Z</time>
      </trkpt>
      <trkpt lat="44.5761" lon="0.85526">
        <ele>169</ele>
        <time>2012-11-11T10:11:03Z</time>
      </trkpt>
      <trkpt lat="44.57605" lon="0.85535">
        <ele>169</ele>
        <time>2012-11-11T10:11:05Z</time>
      </trkpt>
      <trkpt lat="44.576" lon="0.85543">
        <ele>169</ele>
        <time>2012-11-11T10:11:07Z</time>
      </trkpt>
      <trkpt lat="44.57595" lon="0.85552">
        <ele>169</ele>
        <time>2012-11-11T10:11:09Z</time>
      </trkpt>
      <trkpt lat="44.57588" lon="0.85567">
        <ele>169</ele>
        <time>2012-11-11T10:11:12Z</time>
      </trkpt>
      <trkpt lat="44.57583" lon="0.85575">
        <ele>169</ele>
        <time>2012-11-11T10:11:14Z</time>
      </trkpt>
      <trkpt lat="44.57574" lon="0.85586">
        <ele>169</ele>
        <time>2012-11-11T10:11:17Z</time>
      </trkpt>
      <trkpt lat="44.57569" lon="0.85593">
        <ele>169</ele>
        <time>2012-11-11T10:11:19Z</time>
      </trkpt>
      <trkpt lat="44.57562" lon="0.85602">
        <ele>169</ele>
        <time>2012-11-11T10:11:22Z</time>
      </trkpt>
      <trkpt lat="44.57557" lon="0.85607">
        <ele>169</ele>
        <time>2012-11-11T10:11:24Z</time>
      </trkpt>
      <trkpt lat="44.57551" lon="0.85615">
        <ele>169</ele>
        <time>2012-11-11T10:11:27Z</time>
      </trkpt>
      <trkpt lat="44.57547" lon="0.85617">
        <ele>169</ele>
        <time>2012-11-11T10:11:29Z</time>
      </trkpt>
      <trkpt lat="44.57544" lon="0.8562">
        <ele>169</ele>
        <time>2012-11-11T10:11:31Z</time>
      </trkpt>
      <trkpt lat="44.57541" lon="0.85622">
        <ele>169</ele>
        <time>2012-11-11T10:11:33Z</time>
      </trkpt>
      <trkpt lat="44.57538" lon="0.85625">
        <ele>169</ele>
        <time>2012-11-11T10:11:35Z</time>
      </trkpt>
      <trkpt lat="44.57534" lon="0.85628">
        <ele>169</ele>
        <time>2012-11-11T10:11:37Z</time>
      </trkpt>
      <trkpt lat="44.57529" lon="0.85634">
        <ele>169</ele>
        <time>2012-11-11T10:11:40Z</time>
      </trkpt>
      <trkpt lat="44.57523" lon="0.85641">
        <ele>169</ele>
        <time>2012-11-11T10:11:43Z</time>
      </trkpt>
      <trkpt lat="44.57518" lon="0.85645">
        <ele>169</ele>
        <time>2012-11-11T10:11:45Z</time>
      </trkpt>
      <trkpt lat="44.57512" lon="0.85653">
        <ele>169</ele>
        <time>2012-11-11T10:11:48Z</time>
      </trkpt>
      <trkpt lat="44.57507" lon="0.85659">
        <ele>169</ele>
        <time>2012-11-11T10:11:50Z</time>
      </trkpt>
      <trkpt lat="44.57501" lon="0.85668">
        <ele>169</ele>
        <time>2012-11-11T10:11:53Z</time>
      </trkpt>
      <trkpt lat="44.57497" lon="0.85674">
        <ele>169</ele>
        <time>2012-11-11T10:11:55Z</time>
      </trkpt>
      <trkpt lat="44.57491" lon="0.85684">
        <ele>169</ele>
        <time>2012-11-11T10:11:58Z</time>
      </trkpt>
      <trkpt lat="44.57487" lon="0.85691">
        <ele>169</ele>
        <time>2012-11-11T10:12:00Z</time>
      </trkpt>
      <trkpt lat="44.57482" lon="0.85702">
        <ele>169</ele>
        <time>2012-11-11T10:12:03Z</time>
      </trkpt>
      <trkpt lat="44.57479" lon="0.85709">
        <ele>170</ele>
        <time>2012-11-11T10:12:05Z</time>
      </trkpt>
      <trkpt lat="44.57473" lon="0.85721">
        <ele>170</ele>
        <time>2012-11-11T10:12:08Z</time>
      </trkpt>
      <trkpt lat="44.5747" lon="0.85729">
        <ele>170</ele>
        <time>2012-11-11T10:12:10Z</time>
      </trkpt>
      <trkpt lat="44.57467" lon="0.85738">
        <ele>171</ele>
        <time>2012-11-11T10:12:12Z</time>
      </trkpt>
      <trkpt lat="44.57464" lon="0.85744">
        <ele>172</ele>
        <time>2012-11-11T10:12:14Z</time>
      </trkpt>
      <trkpt lat="44.5746" lon="0.85752">
        <ele>173</ele>
        <time>2012-11-11T10:12:16Z</time>
      </trkpt>
      <trkpt lat="44.57455" lon="0.85765">
        <ele>174</ele>
        <time>2012-11-11T10:12:19Z</time>
      </trkpt>
      <trkpt lat="44.5745" lon="0.85773">
        <ele>174</ele>
        <time>2012-11-11T10:12:21Z</time>
      </trkpt>
      <trkpt lat="44.57445" lon="0.85786">
        <ele>174</ele>
        <time>2012-11-11T10:12:24Z</time>
      </trkpt>
      <trkpt lat="44.57441" lon="0.85795">
        <ele>174</ele>
        <time>2012-11-11T10:12:26Z</time>
      </trkpt>
      <trkpt lat="44.57435" lon="0.85808">
        <ele>175</ele>
        <time>2012-11-11T10:12:29Z</time>
      </trkpt>
      <trkpt lat="44.57431" lon="0.85817">
        <ele>175</ele>
        <time>2012-11-11T10:12:31Z</time>
      </trkpt>
      <trkpt lat="44.57426" lon="0.8583">
        <ele>175</ele>
        <time>2012-11-11T10:12:34Z</time>
      </trkpt>
      <trkpt lat="44.57421" lon="0.85838">
        <ele>175</ele>
        <time>2012-11-11T10:12:36Z</time>
      </trkpt>
      <trkpt lat="44.57416" lon="0.8585">
        <ele>175</ele>
        <time>2012-11-11T10:12:39Z</time>
      </trkpt>
      <trkpt lat="44.57412" lon="0.85857">
        <ele>175</ele>
        <time>2012-11-11T10:12:41Z</time>
      </trkpt>
      <trkpt lat="44.57408" lon="0.85866">
        <ele>175</ele>
        <time>2012-11-11T10:12:44Z</time>
      </trkpt>
      <trkpt lat="44.57403" lon="0.85868">
        <ele>175</ele>
        <time>2012-11-11T10:12:46Z</time>
      </trkpt>
      <trkpt lat="44.57399" lon="0.85861">
        <ele>175</ele>
        <time>2012-11-11T10:12:49Z</time>
      </trkpt>
      <trkpt lat="44.57398" lon="0.85853">
        <ele>175</ele>
        <time>2012-11-11T10:12:52Z</time>
      </trkpt>
      <trkpt lat="44.57398" lon="0.85849">
        <ele>175</ele>
        <time>2012-11-11T10:12:56Z</time>
      </trkpt>
      <trkpt lat="44.57397" lon="0.85848">
        <ele>175</ele>
        <time>2012-11-11T10:12:59Z</time>
      </trkpt>
      <trkpt lat="44.57396" lon="0.85847">
        <ele>181</ele>
        <time>2012-11-11T10:13:08Z</time>
      </trkpt>
      <trkpt lat="44.57397" lon="0.85845">
        <ele>186</ele>
        <time>2012-11-11T10:13:20Z</time>
      </trkpt>
      <trkpt lat="44.57396" lon="0.85845">
        <ele>189</ele>
        <time>2012-11-11T10:13:31Z</time>
      </trkpt>
      <trkpt lat="44.57395" lon="0.85843">
        <ele>190</ele>
        <time>2012-11-11T10:13:42Z</time>
      </trkpt>
      <trkpt lat="44.57395" lon="0.85841">
        <ele>190</ele>
        <time>2012-11-11T10:13:44Z</time>
      </trkpt>
      <trkpt lat="44.57396" lon="0.85838">
        <ele>190</ele>
        <time>2012-11-11T10:13:46Z</time>
      </trkpt>
      <trkpt lat="44.57398" lon="0.85832">
        <ele>190</ele>
        <time>2012-11-11T10:13:48Z</time>
      </trkpt>
      <trkpt lat="44.574" lon="0.85823">
        <ele>191</ele>
        <time>2012-11-11T10:13:50Z</time>
      </trkpt>
      <trkpt lat="44.57402" lon="0.85814">
        <ele>192</ele>
        <time>2012-11-11T10:13:52Z</time>
      </trkpt>
      <trkpt lat="44.57405" lon="0.85798">
        <ele>193</ele>
        <time>2012-11-11T10:13:55Z</time>
      </trkpt>
      <trkpt lat="44.57407" lon="0.85786">
        <ele>193</ele>
        <time>2012-11-11T10:13:57Z</time>
      </trkpt>
      <trkpt lat="44.57407" lon="0.85773">
        <ele>193</ele>
        <time>2012-11-11T10:13:59Z</time>
      </trkpt>
      <trkpt lat="44.57407" lon="0.85755">
        <ele>193</ele>
        <time>2012-11-11T10:14:01Z</time>
      </trkpt>
      <trkpt lat="44.57407" lon="0.85734">
        <ele>193</ele>
        <time>2012-11-11T10:14:03Z</time>
      </trkpt>
      <trkpt lat="44.5741" lon="0.85716">
        <ele>193</ele>
        <time>2012-11-11T10:14:05Z</time>
      </trkpt>
      <trkpt lat="44.5741" lon="0.85698">
        <ele>193</ele>
        <time>2012-11-11T10:14:07Z</time>
      </trkpt>
      <trkpt lat="44.5741" lon="0.85677">
        <ele>193</ele>
        <time>2012-11-11T10:14:09Z</time>
      </trkpt>
      <trkpt lat="44.57409" lon="0.85654">
        <ele>193</ele>
        <time>2012-11-11T10:14:11Z</time>
      </trkpt>
      <trkpt lat="44.57406" lon="0.85628">
        <ele>193</ele>
        <time>2012-11-11T10:14:13Z</time>
      </trkpt>
      <trkpt lat="44.57406" lon="0.85603">
        <ele>191</ele>
        <time>2012-11-11T10:14:15Z</time>
      </trkpt>
      <trkpt lat="44.57406" lon="0.8558">
        <ele>189</ele>
        <time>2012-11-11T10:14:17Z</time>
      </trkpt>
      <trkpt lat="44.57406" lon="0.85554">
        <ele>187</ele>
        <time>2012-11-11T10:14:19Z</time>
      </trkpt>
      <trkpt lat="44.57405" lon="0.85524">
        <ele>185</ele>
        <time>2012-11-11T10:14:21Z</time>
      </trkpt>
      <trkpt lat="44.57403" lon="0.85499">
        <ele>183</ele>
        <time>2012-11-11T10:14:23Z</time>
      </trkpt>
      <trkpt lat="44.57401" lon="0.85477">
        <ele>181</ele>
        <time>2012-11-11T10:14:25Z</time>
      </trkpt>
      <trkpt lat="44.57398" lon="0.85461">
        <ele>180</ele>
        <time>2012-11-11T10:14:27Z</time>
      </trkpt>
      <trkpt lat="44.57391" lon="0.85457">
        <ele>179</ele>
        <time>2012-11-11T10:14:29Z</time>
      </trkpt>
      <trkpt lat="44.57387" lon="0.8545">
        <ele>178</ele>
        <time>2012-11-11T10:14:31Z</time>
      </trkpt>
      <trkpt lat="44.57385" lon="0.85443">
        <ele>177</ele>
        <time>2012-11-11T10:14:33Z</time>
      </trkpt>
      <trkpt lat="44.5738" lon="0.85442">
        <ele>176</ele>
        <time>2012-11-11T10:14:35Z</time>
      </trkpt>
      <trkpt lat="44.5737" lon="0.85438">
        <ele>174</ele>
        <time>2012-11-11T10:14:37Z</time>
      </trkpt>
      <trkpt lat="44.57361" lon="0.85433">
        <ele>172</ele>
        <time>2012-11-11T10:14:39Z</time>
      </trkpt>
      <trkpt lat="44.57355" lon="0.85422">
        <ele>170</ele>
        <time>2012-11-11T10:14:41Z</time>
      </trkpt>
      <trkpt lat="44.5735" lon="0.85408">
        <ele>168</ele>
        <time>2012-11-11T10:14:43Z</time>
      </trkpt>
      <trkpt lat="44.57345" lon="0.85397">
        <ele>167</ele>
        <time>2012-11-11T10:14:45Z</time>
      </trkpt>
      <trkpt lat="44.57346" lon="0.85389">
        <ele>167</ele>
        <time>2012-11-11T10:14:47Z</time>
      </trkpt>
      <trkpt lat="44.57352" lon="0.85381">
        <ele>167</ele>
        <time>2012-11-11T10:14:49Z</time>
      </trkpt>
      <trkpt lat="44.57359" lon="0.85372">
        <ele>167</ele>
        <time>2012-11-11T10:14:51Z</time>
      </trkpt>
      <trkpt lat="44.57366" lon="0.85361">
        <ele>165</ele>
        <time>2012-11-11T10:14:53Z</time>
      </trkpt>
      <trkpt lat="44.57374" lon="0.85352">
        <ele>163</ele>
        <time>2012-11-11T10:14:55Z</time>
      </trkpt>
      <trkpt lat="44.57382" lon="0.85343">
        <ele>161</ele>
        <time>2012-11-11T10:14:57Z</time>
      </trkpt>
      <trkpt lat="44.57391" lon="0.85334">
        <ele>160</ele>
        <time>2012-11-11T10:14:59Z</time>
      </trkpt>
      <trkpt lat="44.57397" lon="0.85327">
        <ele>160</ele>
        <time>2012-11-11T10:15:01Z</time>
      </trkpt>
      <trkpt lat="44.57401" lon="0.85321">
        <ele>160</ele>
        <time>2012-11-11T10:15:03Z</time>
      </trkpt>
      <trkpt lat="44.57401" lon="0.85316">
        <ele>162</ele>
        <time>2012-11-11T10:15:05Z</time>
      </trkpt>
      <trkpt lat="44.57398" lon="0.85313">
        <ele>163</ele>
        <time>2012-11-11T10:15:07Z</time>
      </trkpt>
      <trkpt lat="44.57395" lon="0.85313">
        <ele>164</ele>
        <time>2012-11-11T10:15:10Z</time>
      </trkpt>
      <trkpt lat="44.57394" lon="0.85315">
        <ele>169</ele>
        <time>2012-11-11T10:15:21Z</time>
      </trkpt>
      <trkpt lat="44.57396" lon="0.85315">
        <ele>175</ele>
        <time>2012-11-11T10:15:37Z</time>
      </trkpt>
      <trkpt lat="44.57394" lon="0.85314">
        <ele>175</ele>
        <time>2012-11-11T10:15:45Z</time>
      </trkpt>
      <trkpt lat="44.57393" lon="0.85312">
        <ele>176</ele>
        <time>2012-11-11T10:15:47Z</time>
      </trkpt>
      <trkpt lat="44.5739" lon="0.85307">
        <ele>176</ele>
        <time>2012-11-11T10:15:49Z</time>
      </trkpt>
      <trkpt lat="44.57387" lon="0.853">
        <ele>176</ele>
        <time>2012-11-11T10:15:51Z</time>
      </trkpt>
      <trkpt lat="44.57384" lon="0.85293">
        <ele>176</ele>
        <time>2012-11-11T10:15:53Z</time>
      </trkpt>
      <trkpt lat="44.57381" lon="0.85286">
        <ele>176</ele>
        <time>2012-11-11T10:15:55Z</time>
      </trkpt>
      <trkpt lat="44.5738" lon="0.85281">
        <ele>176</ele>
        <time>2012-11-11T10:15:57Z</time>
      </trkpt>
      <trkpt lat="44.57378" lon="0.85277">
        <ele>176</ele>
        <time>2012-11-11T10:15:59Z</time>
      </trkpt>
      <trkpt lat="44.57374" lon="0.85273">
        <ele>176</ele>
        <time>2012-11-11T10:16:01Z</time>
      </trkpt>
      <trkpt lat="44.5737" lon="0.85269">
        <ele>176</ele>
        <time>2012-11-11T10:16:03Z</time>
      </trkpt>
      <trkpt lat="44.57367" lon="0.85264">
        <ele>176</ele>
        <time>2012-11-11T10:16:05Z</time>
      </trkpt>
      <trkpt lat="44.57365" lon="0.8526">
        <ele>176</ele>
        <time>2012-11-11T10:16:07Z</time>
      </trkpt>
      <trkpt lat="44.57361" lon="0.85254">
        <ele>176</ele>
        <time>2012-11-11T10:16:09Z</time>
      </trkpt>
      <trkpt lat="44.57359" lon="0.85247">
        <ele>176</ele>
        <time>2012-11-11T10:16:11Z</time>
      </trkpt>
      <trkpt lat="44.57357" lon="0.85242">
        <ele>176</ele>
        <time>2012-11-11T10:16:13Z</time>
      </trkpt>
      <trkpt lat="44.57354" lon="0.85235">
        <ele>176</ele>
        <time>2012-11-11T10:16:15Z</time>
      </trkpt>
      <trkpt lat="44.57351" lon="0.85228">
        <ele>176</ele>
        <time>2012-11-11T10:16:17Z</time>
      </trkpt>
      <trkpt lat="44.57347" lon="0.85219">
        <ele>176</ele>
        <time>2012-11-11T10:16:19Z</time>
      </trkpt>
      <trkpt lat="44.57343" lon="0.85209">
        <ele>176</ele>
        <time>2012-11-11T10:16:21Z</time>
      </trkpt>
      <trkpt lat="44.57338" lon="0.85199">
        <ele>176</ele>
        <time>2012-11-11T10:16:23Z</time>
      </trkpt>
      <trkpt lat="44.57333" lon="0.85188">
        <ele>176</ele>
        <time>2012-11-11T10:16:25Z</time>
      </trkpt>
      <trkpt lat="44.57328" lon="0.85176">
        <ele>176</ele>
        <time>2012-11-11T10:16:27Z</time>
      </trkpt>
      <trkpt lat="44.57323" lon="0.85165">
        <ele>176</ele>
        <time>2012-11-11T10:16:29Z</time>
      </trkpt>
      <trkpt lat="44.57318" lon="0.85153">
        <ele>176</ele>
        <time>2012-11-11T10:16:31Z</time>
      </trkpt>
      <trkpt lat="44.57312" lon="0.8514">
        <ele>176</ele>
        <time>2012-11-11T10:16:33Z</time>
      </trkpt>
      <trkpt lat="44.57307" lon="0.85128">
        <ele>176</ele>
        <time>2012-11-11T10:16:35Z</time>
      </trkpt>
      <trkpt lat="44.57302" lon="0.85117">
        <ele>175</ele>
        <time>2012-11-11T10:16:37Z</time>
      </trkpt>
      <trkpt lat="44.57296" lon="0.85105">
        <ele>174</ele>
        <time>2012-11-11T10:16:39Z</time>
      </trkpt>
      <trkpt lat="44.57291" lon="0.85093">
        <ele>173</ele>
        <time>2012-11-11T10:16:41Z</time>
      </trkpt>
      <trkpt lat="44.57285" lon="0.85081">
        <ele>172</ele>
        <time>2012-11-11T10:16:43Z</time>
      </trkpt>
      <trkpt lat="44.57278" lon="0.8507">
        <ele>171</ele>
        <time>2012-11-11T10:16:45Z</time>
      </trkpt>
      <trkpt lat="44.57272" lon="0.85057">
        <ele>171</ele>
        <time>2012-11-11T10:16:47Z</time>
      </trkpt>
      <trkpt lat="44.57267" lon="0.85043">
        <ele>171</ele>
        <time>2012-11-11T10:16:49Z</time>
      </trkpt>
      <trkpt lat="44.57263" lon="0.8503">
        <ele>171</ele>
        <time>2012-11-11T10:16:51Z</time>
      </trkpt>
      <trkpt lat="44.57259" lon="0.85018">
        <ele>171</ele>
        <time>2012-11-11T10:16:53Z</time>
      </trkpt>
      <trkpt lat="44.57256" lon="0.85005">
        <ele>171</ele>
        <time>2012-11-11T10:16:55Z</time>
      </trkpt>
      <trkpt lat="44.57251" lon="0.84993">
        <ele>171</ele>
        <time>2012-11-11T10:16:57Z</time>
      </trkpt>
      <trkpt lat="44.57247" lon="0.84982">
        <ele>171</ele>
        <time>2012-11-11T10:16:59Z</time>
      </trkpt>
      <trkpt lat="44.57244" lon="0.8497">
        <ele>171</ele>
        <time>2012-11-11T10:17:01Z</time>
      </trkpt>
      <trkpt lat="44.57241" lon="0.84958">
        <ele>171</ele>
        <time>2012-11-11T10:17:03Z</time>
      </trkpt>
      <trkpt lat="44.57239" lon="0.84945">
        <ele>171</ele>
        <time>2012-11-11T10:17:05Z</time>
      </trkpt>
      <trkpt lat="44.57238" lon="0.84934">
        <ele>171</ele>
        <time>2012-11-11T10:17:07Z</time>
      </trkpt>
      <trkpt lat="44.57237" lon="0.84924">
        <ele>171</ele>
        <time>2012-11-11T10:17:09Z</time>
      </trkpt>
      <trkpt lat="44.57236" lon="0.84915">
        <ele>172</ele>
        <time>2012-11-11T10:17:11Z</time>
      </trkpt>
      <trkpt lat="44.57235" lon="0.84907">
        <ele>174</ele>
        <time>2012-11-11T10:17:13Z</time>
      </trkpt>
      <trkpt lat="44.57235" lon="0.84899">
        <ele>176</ele>
        <time>2012-11-11T10:17:15Z</time>
      </trkpt>
      <trkpt lat="44.57233" lon="0.8489">
        <ele>178</ele>
        <time>2012-11-11T10:17:17Z</time>
      </trkpt>
      <trkpt lat="44.57232" lon="0.84882">
        <ele>179</ele>
        <time>2012-11-11T10:17:19Z</time>
      </trkpt>
      <trkpt lat="44.5723" lon="0.84874">
        <ele>181</ele>
        <time>2012-11-11T10:17:21Z</time>
      </trkpt>
      <trkpt lat="44.57227" lon="0.84865">
        <ele>182</ele>
        <time>2012-11-11T10:17:23Z</time>
      </trkpt>
      <trkpt lat="44.57225" lon="0.84856">
        <ele>182</ele>
        <time>2012-11-11T10:17:25Z</time>
      </trkpt>
      <trkpt lat="44.57222" lon="0.84847">
        <ele>182</ele>
        <time>2012-11-11T10:17:27Z</time>
      </trkpt>
      <trkpt lat="44.5722" lon="0.84839">
        <ele>182</ele>
        <time>2012-11-11T10:17:29Z</time>
      </trkpt>
      <trkpt lat="44.57219" lon="0.8483">
        <ele>182</ele>
        <time>2012-11-11T10:17:31Z</time>
      </trkpt>
      <trkpt lat="44.57218" lon="0.8482">
        <ele>182</ele>
        <time>2012-11-11T10:17:33Z</time>
      </trkpt>
      <trkpt lat="44.57217" lon="0.8481">
        <ele>183</ele>
        <time>2012-11-11T10:17:35Z</time>
      </trkpt>
      <trkpt lat="44.57217" lon="0.848">
        <ele>183</ele>
        <time>2012-11-11T10:17:37Z</time>
      </trkpt>
      <trkpt lat="44.57217" lon="0.84792">
        <ele>184</ele>
        <time>2012-11-11T10:17:39Z</time>
      </trkpt>
      <trkpt lat="44.57217" lon="0.84783">
        <ele>184</ele>
        <time>2012-11-11T10:17:41Z</time>
      </trkpt>
      <trkpt lat="44.57217" lon="0.84772">
        <ele>184</ele>
        <time>2012-11-11T10:17:43Z</time>
      </trkpt>
      <trkpt lat="44.57217" lon="0.84762">
        <ele>184</ele>
        <time>2012-11-11T10:17:45Z</time>
      </trkpt>
      <trkpt lat="44.57216" lon="0.84752">
        <ele>184</ele>
        <time>2012-11-11T10:17:47Z</time>
      </trkpt>
      <trkpt lat="44.57214" lon="0.84741">
        <ele>184</ele>
        <time>2012-11-11T10:17:49Z</time>
      </trkpt>
      <trkpt lat="44.57214" lon="0.84731">
        <ele>185</ele>
        <time>2012-11-11T10:17:51Z</time>
      </trkpt>
      <trkpt lat="44.57212" lon="0.84718">
        <ele>185</ele>
        <time>2012-11-11T10:17:53Z</time>
      </trkpt>
      <trkpt lat="44.57212" lon="0.84705">
        <ele>185</ele>
        <time>2012-11-11T10:17:55Z</time>
      </trkpt>
      <trkpt lat="44.57211" lon="0.84689">
        <ele>185</ele>
        <time>2012-11-11T10:17:57Z</time>
      </trkpt>
      <trkpt lat="44.57212" lon="0.84671">
        <ele>185</ele>
        <time>2012-11-11T10:17:59Z</time>
      </trkpt>
      <trkpt lat="44.57213" lon="0.84653">
        <ele>183</ele>
        <time>2012-11-11T10:18:01Z</time>
      </trkpt>
      <trkpt lat="44.57213" lon="0.84632">
        <ele>181</ele>
        <time>2012-11-11T10:18:03Z</time>
      </trkpt>
      <trkpt lat="44.57212" lon="0.84611">
        <ele>179</ele>
        <time>2012-11-11T10:18:05Z</time>
      </trkpt>
      <trkpt lat="44.57209" lon="0.84588">
        <ele>177</ele>
        <time>2012-11-11T10:18:07Z</time>
      </trkpt>
      <trkpt lat="44.57206" lon="0.84565">
        <ele>176</ele>
        <time>2012-11-11T10:18:09Z</time>
      </trkpt>
      <trkpt lat="44.57204" lon="0.84541">
        <ele>176</ele>
        <time>2012-11-11T10:18:11Z</time>
      </trkpt>
      <trkpt lat="44.57201" lon="0.84518">
        <ele>176</ele>
        <time>2012-11-11T10:18:13Z</time>
      </trkpt>
      <trkpt lat="44.57198" lon="0.84501">
        <ele>175</ele>
        <time>2012-11-11T10:18:15Z</time>
      </trkpt>
      <trkpt lat="44.57198" lon="0.84486">
        <ele>175</ele>
        <time>2012-11-11T10:18:17Z</time>
      </trkpt>
      <trkpt lat="44.57198" lon="0.84469">
        <ele>175</ele>
        <time>2012-11-11T10:18:19Z</time>
      </trkpt>
      <trkpt lat="44.572" lon="0.84452">
        <ele>174</ele>
        <time>2012-11-11T10:18:21Z</time>
      </trkpt>
      <trkpt lat="44.57202" lon="0.84435">
        <ele>173</ele>
        <time>2012-11-11T10:18:23Z</time>
      </trkpt>
      <trkpt lat="44.57205" lon="0.84416">
        <ele>171</ele>
        <time>2012-11-11T10:18:25Z</time>
      </trkpt>
      <trkpt lat="44.57207" lon="0.84393">
        <ele>169</ele>
        <time>2012-11-11T10:18:27Z</time>
      </trkpt>
      <trkpt lat="44.57214" lon="0.84375">
        <ele>167</ele>
        <time>2012-11-11T10:18:29Z</time>
      </trkpt>
      <trkpt lat="44.57221" lon="0.84357">
        <ele>165</ele>
        <time>2012-11-11T10:18:31Z</time>
      </trkpt>
      <trkpt lat="44.57227" lon="0.84338">
        <ele>163</ele>
        <time>2012-11-11T10:18:33Z</time>
      </trkpt>
      <trkpt lat="44.57228" lon="0.84314">
        <ele>162</ele>
        <time>2012-11-11T10:18:35Z</time>
      </trkpt>
      <trkpt lat="44.57232" lon="0.8429">
        <ele>162</ele>
        <time>2012-11-11T10:18:37Z</time>
      </trkpt>
      <trkpt lat="44.57236" lon="0.84269">
        <ele>162</ele>
        <time>2012-11-11T10:18:39Z</time>
      </trkpt>
      <trkpt lat="44.57242" lon="0.84252">
        <ele>162</ele>
        <time>2012-11-11T10:18:41Z</time>
      </trkpt>
      <trkpt lat="44.57251" lon="0.8424">
        <ele>162</ele>
        <time>2012-11-11T10:18:43Z</time>
      </trkpt>
      <trkpt lat="44.57261" lon="0.84228">
        <ele>161</ele>
        <time>2012-11-11T10:18:45Z</time>
      </trkpt>
      <trkpt lat="44.57266" lon="0.84218">
        <ele>161</ele>
        <time>2012-11-11T10:18:47Z</time>
      </trkpt>
      <trkpt lat="44.57265" lon="0.84211">
        <ele>161</ele>
        <time>2012-11-11T10:18:49Z</time>
      </trkpt>
      <trkpt lat="44.57265" lon="0.84202">
        <ele>161</ele>
        <time>2012-11-11T10:18:51Z</time>
      </trkpt>
      <trkpt lat="44.57268" lon="0.8419">
        <ele>161</ele>
        <time>2012-11-11T10:18:53Z</time>
      </trkpt>
      <trkpt lat="44.57275" lon="0.84179">
        <ele>161</ele>
        <time>2012-11-11T10:18:55Z</time>
      </trkpt>
      <trkpt lat="44.57281" lon="0.84168">
        <ele>159</ele>
        <time>2012-11-11T10:18:57Z</time>
      </trkpt>
      <trkpt lat="44.5729" lon="0.84156">
        <ele>157</ele>
        <time>2012-11-11T10:18:59Z</time>
      </trkpt>
      <trkpt lat="44.57301" lon="0.84145">
        <ele>155</ele>
        <time>2012-11-11T10:19:01Z</time>
      </trkpt>
      <trkpt lat="44.57312" lon="0.84134">
        <ele>152</ele>
        <time>2012-11-11T10:19:03Z</time>
      </trkpt>
      <trkpt lat="44.57323" lon="0.84119">
        <ele>150</ele>
        <time>2012-11-11T10:19:05Z</time>
      </trkpt>
      <trkpt lat="44.57328" lon="0.84101">
        <ele>148</ele>
        <time>2012-11-11T10:19:07Z</time>
      </trkpt>
      <trkpt lat="44.57333" lon="0.84081">
        <ele>148</ele>
        <time>2012-11-11T10:19:09Z</time>
      </trkpt>
      <trkpt lat="44.57341" lon="0.84064">
        <ele>148</ele>
        <time>2012-11-11T10:19:11Z</time>
      </trkpt>
      <trkpt lat="44.57353" lon="0.84052">
        <ele>148</ele>
        <time>2012-11-11T10:19:13Z</time>
      </trkpt>
      <trkpt lat="44.57365" lon="0.84039">
        <ele>148</ele>
        <time>2012-11-11T10:19:15Z</time>
      </trkpt>
      <trkpt lat="44.57374" lon="0.84026">
        <ele>147</ele>
        <time>2012-11-11T10:19:17Z</time>
      </trkpt>
      <trkpt lat="44.57376" lon="0.8401">
        <ele>146</ele>
        <time>2012-11-11T10:19:19Z</time>
      </trkpt>
      <trkpt lat="44.57376" lon="0.8399">
        <ele>144</ele>
        <time>2012-11-11T10:19:21Z</time>
      </trkpt>
      <trkpt lat="44.57379" lon="0.83969">
        <ele>143</ele>
        <time>2012-11-11T10:19:23Z</time>
      </trkpt>
      <trkpt lat="44.57384" lon="0.83949">
        <ele>142</ele>
        <time>2012-11-11T10:19:25Z</time>
      </trkpt>
      <trkpt lat="44.57393" lon="0.83932">
        <ele>142</ele>
        <time>2012-11-11T10:19:27Z</time>
      </trkpt>
      <trkpt lat="44.57398" lon="0.83914">
        <ele>142</ele>
        <time>2012-11-11T10:19:29Z</time>
      </trkpt>
      <trkpt lat="44.57402" lon="0.83896">
        <ele>141</ele>
        <time>2012-11-11T10:19:31Z</time>
      </trkpt>
      <trkpt lat="44.57407" lon="0.83888">
        <ele>140</ele>
        <time>2012-11-11T10:19:33Z</time>
      </trkpt>
      <trkpt lat="44.5741" lon="0.83886">
        <ele>140</ele>
        <time>2012-11-11T10:19:36Z</time>
      </trkpt>
      <trkpt lat="44.57411" lon="0.83886">
        <ele>139</ele>
        <time>2012-11-11T10:19:44Z</time>
      </trkpt>
      <trkpt lat="44.57413" lon="0.83884">
        <ele>139</ele>
        <time>2012-11-11T10:19:54Z</time>
      </trkpt>
      <trkpt lat="44.57415" lon="0.83881">
        <ele>139</ele>
        <time>2012-11-11T10:19:56Z</time>
      </trkpt>
      <trkpt lat="44.57421" lon="0.83875">
        <ele>140</ele>
        <time>2012-11-11T10:19:58Z</time>
      </trkpt>
      <trkpt lat="44.5743" lon="0.83871">
        <ele>142</ele>
        <time>2012-11-11T10:20:00Z</time>
      </trkpt>
      <trkpt lat="44.57441" lon="0.83868">
        <ele>143</ele>
        <time>2012-11-11T10:20:02Z</time>
      </trkpt>
      <trkpt lat="44.57449" lon="0.83861">
        <ele>144</ele>
        <time>2012-11-11T10:20:04Z</time>
      </trkpt>
      <trkpt lat="44.57455" lon="0.83851">
        <ele>144</ele>
        <time>2012-11-11T10:20:06Z</time>
      </trkpt>
      <trkpt lat="44.57461" lon="0.83841">
        <ele>144</ele>
        <time>2012-11-11T10:20:08Z</time>
      </trkpt>
      <trkpt lat="44.57464" lon="0.83829">
        <ele>144</ele>
        <time>2012-11-11T10:20:10Z</time>
      </trkpt>
      <trkpt lat="44.57465" lon="0.83815">
        <ele>144</ele>
        <time>2012-11-11T10:20:12Z</time>
      </trkpt>
      <trkpt lat="44.57468" lon="0.83802">
        <ele>144</ele>
        <time>2012-11-11T10:20:14Z</time>
      </trkpt>
      <trkpt lat="44.57472" lon="0.83787">
        <ele>144</ele>
        <time>2012-11-11T10:20:16Z</time>
      </trkpt>
      <trkpt lat="44.57479" lon="0.83777">
        <ele>144</ele>
        <time>2012-11-11T10:20:18Z</time>
      </trkpt>
      <trkpt lat="44.57485" lon="0.83773">
        <ele>144</ele>
        <time>2012-11-11T10:20:20Z</time>
      </trkpt>
      <trkpt lat="44.57492" lon="0.83769">
        <ele>144</ele>
        <time>2012-11-11T10:20:22Z</time>
      </trkpt>
      <trkpt lat="44.57498" lon="0.83763">
        <ele>146</ele>
        <time>2012-11-11T10:20:24Z</time>
      </trkpt>
      <trkpt lat="44.57505" lon="0.83759">
        <ele>147</ele>
        <time>2012-11-11T10:20:26Z</time>
      </trkpt>
      <trkpt lat="44.57511" lon="0.83753">
        <ele>149</ele>
        <time>2012-11-11T10:20:28Z</time>
      </trkpt>
      <trkpt lat="44.57518" lon="0.83748">
        <ele>151</ele>
        <time>2012-11-11T10:20:30Z</time>
      </trkpt>
      <trkpt lat="44.57526" lon="0.83744">
        <ele>153</ele>
        <time>2012-11-11T10:20:32Z</time>
      </trkpt>
      <trkpt lat="44.57532" lon="0.8374">
        <ele>153</ele>
        <time>2012-11-11T10:20:34Z</time>
      </trkpt>
      <trkpt lat="44.5754" lon="0.83738">
        <ele>153</ele>
        <time>2012-11-11T10:20:36Z</time>
      </trkpt>
      <trkpt lat="44.57547" lon="0.83735">
        <ele>154</ele>
        <time>2012-11-11T10:20:38Z</time>
      </trkpt>
      <trkpt lat="44.57555" lon="0.83732">
        <ele>155</ele>
        <time>2012-11-11T10:20:40Z</time>
      </trkpt>
      <trkpt lat="44.57563" lon="0.83729">
        <ele>155</ele>
        <time>2012-11-11T10:20:42Z</time>
      </trkpt>
      <trkpt lat="44.57571" lon="0.83728">
        <ele>156</ele>
        <time>2012-11-11T10:20:44Z</time>
      </trkpt>
      <trkpt lat="44.57577" lon="0.83725">
        <ele>158</ele>
        <time>2012-11-11T10:20:46Z</time>
      </trkpt>
      <trkpt lat="44.57582" lon="0.83722">
        <ele>159</ele>
        <time>2012-11-11T10:20:48Z</time>
      </trkpt>
      <trkpt lat="44.57588" lon="0.83717">
        <ele>159</ele>
        <time>2012-11-11T10:20:50Z</time>
      </trkpt>
      <trkpt lat="44.57595" lon="0.83714">
        <ele>159</ele>
        <time>2012-11-11T10:20:52Z</time>
      </trkpt>
      <trkpt lat="44.57602" lon="0.83711">
        <ele>159</ele>
        <time>2012-11-11T10:20:54Z</time>
      </trkpt>
      <trkpt lat="44.5761" lon="0.8371">
        <ele>159</ele>
        <time>2012-11-11T10:20:56Z</time>
      </trkpt>
      <trkpt lat="44.57616" lon="0.8371">
        <ele>159</ele>
        <time>2012-11-11T10:20:58Z</time>
      </trkpt>
      <trkpt lat="44.57623" lon="0.83711">
        <ele>159</ele>
        <time>2012-11-11T10:21:00Z</time>
      </trkpt>
      <trkpt lat="44.57628" lon="0.83711">
        <ele>159</ele>
        <time>2012-11-11T10:21:02Z</time>
      </trkpt>
      <trkpt lat="44.57634" lon="0.83711">
        <ele>159</ele>
        <time>2012-11-11T10:21:04Z</time>
      </trkpt>
      <trkpt lat="44.57638" lon="0.83711">
        <ele>159</ele>
        <time>2012-11-11T10:21:06Z</time>
      </trkpt>
      <trkpt lat="44.57644" lon="0.83711">
        <ele>159</ele>
        <time>2012-11-11T10:21:08Z</time>
      </trkpt>
      <trkpt lat="44.57651" lon="0.83713">
        <ele>159</ele>
        <time>2012-11-11T10:21:10Z</time>
      </trkpt>
      <trkpt lat="44.57658" lon="0.83713">
        <ele>159</ele>
        <time>2012-11-11T10:21:12Z</time>
      </trkpt>
      <trkpt lat="44.57664" lon="0.83714">
        <ele>159</ele>
        <time>2012-11-11T10:21:14Z</time>
      </trkpt>
      <trkpt lat="44.57669" lon="0.83714">
        <ele>159</ele>
        <time>2012-11-11T10:21:16Z</time>
      </trkpt>
      <trkpt lat="44.57675" lon="0.83715">
        <ele>159</ele>
        <time>2012-11-11T10:21:18Z</time>
      </trkpt>
      <trkpt lat="44.57681" lon="0.83717">
        <ele>159</ele>
        <time>2012-11-11T10:21:20Z</time>
      </trkpt>
      <trkpt lat="44.57687" lon="0.83719">
        <ele>159</ele>
        <time>2012-11-11T10:21:22Z</time>
      </trkpt>
      <trkpt lat="44.57693" lon="0.83719">
        <ele>159</ele>
        <time>2012-11-11T10:21:24Z</time>
      </trkpt>
      <trkpt lat="44.577" lon="0.8372">
        <ele>159</ele>
        <time>2012-11-11T10:21:26Z</time>
      </trkpt>
      <trkpt lat="44.57707" lon="0.83722">
        <ele>159</ele>
        <time>2012-11-11T10:21:28Z</time>
      </trkpt>
      <trkpt lat="44.57715" lon="0.83723">
        <ele>159</ele>
        <time>2012-11-11T10:21:30Z</time>
      </trkpt>
      <trkpt lat="44.57722" lon="0.83725">
        <ele>159</ele>
        <time>2012-11-11T10:21:32Z</time>
      </trkpt>
      <trkpt lat="44.57728" lon="0.83728">
        <ele>159</ele>
        <time>2012-11-11T10:21:34Z</time>
      </trkpt>
      <trkpt lat="44.57733" lon="0.83729">
        <ele>159</ele>
        <time>2012-11-11T10:21:36Z</time>
      </trkpt>
      <trkpt lat="44.57738" lon="0.83728">
        <ele>159</ele>
        <time>2012-11-11T10:21:38Z</time>
      </trkpt>
      <trkpt lat="44.57742" lon="0.83727">
        <ele>159</ele>
        <time>2012-11-11T10:21:40Z</time>
      </trkpt>
      <trkpt lat="44.57747" lon="0.83726">
        <ele>159</ele>
        <time>2012-11-11T10:21:42Z</time>
      </trkpt>
      <trkpt lat="44.57753" lon="0.83725">
        <ele>159</ele>
        <time>2012-11-11T10:21:44Z</time>
      </trkpt>
      <trkpt lat="44.57759" lon="0.83724">
        <ele>159</ele>
        <time>2012-11-11T10:21:46Z</time>
      </trkpt>
      <trkpt lat="44.57764" lon="0.83723">
        <ele>159</ele>
        <time>2012-11-11T10:21:48Z</time>
      </trkpt>
      <trkpt lat="44.5777" lon="0.83723">
        <ele>159</ele>
        <time>2012-11-11T10:21:50Z</time>
      </trkpt>
      <trkpt lat="44.57778" lon="0.83721">
        <ele>159</ele>
        <time>2012-11-11T10:21:52Z</time>
      </trkpt>
      <trkpt lat="44.57786" lon="0.83719">
        <ele>159</ele>
        <time>2012-11-11T10:21:54Z</time>
      </trkpt>
      <trkpt lat="44.57794" lon="0.83719">
        <ele>159</ele>
        <time>2012-11-11T10:21:56Z</time>
      </trkpt>
      <trkpt lat="44.57798" lon="0.83721">
        <ele>159</ele>
        <time>2012-11-11T10:21:58Z</time>
      </trkpt>
      <trkpt lat="44.57802" lon="0.83723">
        <ele>159</ele>
        <time>2012-11-11T10:22:00Z</time>
      </trkpt>
      <trkpt lat="44.57806" lon="0.83727">
        <ele>159</ele>
        <time>2012-11-11T10:22:02Z</time>
      </trkpt>
      <trkpt lat="44.57808" lon="0.83728">
        <ele>159</ele>
        <time>2012-11-11T10:22:04Z</time>
      </trkpt>
      <trkpt lat="44.57811" lon="0.83729">
        <ele>159</ele>
        <time>2012-11-11T10:22:06Z</time>
      </trkpt>
      <trkpt lat="44.57813" lon="0.83729">
        <ele>159</ele>
        <time>2012-11-11T10:22:08Z</time>
      </trkpt>
      <trkpt lat="44.57817" lon="0.8373">
        <ele>158</ele>
        <time>2012-11-11T10:22:10Z</time>
      </trkpt>
      <trkpt lat="44.57821" lon="0.83731">
        <ele>158</ele>
        <time>2012-11-11T10:22:12Z</time>
      </trkpt>
      <trkpt lat="44.57824" lon="0.83731">
        <ele>157</ele>
        <time>2012-11-11T10:22:14Z</time>
      </trkpt>
      <trkpt lat="44.57826" lon="0.83731">
        <ele>157</ele>
        <time>2012-11-11T10:22:16Z</time>
      </trkpt>
      <trkpt lat="44.57829" lon="0.83728">
        <ele>157</ele>
        <time>2012-11-11T10:22:18Z</time>
      </trkpt>
      <trkpt lat="44.57832" lon="0.83725">
        <ele>157</ele>
        <time>2012-11-11T10:22:20Z</time>
      </trkpt>
      <trkpt lat="44.57833" lon="0.83722">
        <ele>157</ele>
        <time>2012-11-11T10:22:22Z</time>
      </trkpt>
      <trkpt lat="44.57835" lon="0.83717">
        <ele>157</ele>
        <time>2012-11-11T10:22:24Z</time>
      </trkpt>
      <trkpt lat="44.57837" lon="0.83712">
        <ele>157</ele>
        <time>2012-11-11T10:22:26Z</time>
      </trkpt>
      <trkpt lat="44.5784" lon="0.83709">
        <ele>157</ele>
        <time>2012-11-11T10:22:28Z</time>
      </trkpt>
      <trkpt lat="44.57845" lon="0.83706">
        <ele>157</ele>
        <time>2012-11-11T10:22:30Z</time>
      </trkpt>
      <trkpt lat="44.57849" lon="0.83703">
        <ele>157</ele>
        <time>2012-11-11T10:22:32Z</time>
      </trkpt>
      <trkpt lat="44.57854" lon="0.837">
        <ele>157</ele>
        <time>2012-11-11T10:22:34Z</time>
      </trkpt>
      <trkpt lat="44.5786" lon="0.83698">
        <ele>157</ele>
        <time>2012-11-11T10:22:36Z</time>
      </trkpt>
      <trkpt lat="44.57865" lon="0.83695">
        <ele>157</ele>
        <time>2012-11-11T10:22:38Z</time>
      </trkpt>
      <trkpt lat="44.57872" lon="0.83693">
        <ele>157</ele>
        <time>2012-11-11T10:22:40Z</time>
      </trkpt>
      <trkpt lat="44.57877" lon="0.83693">
        <ele>157</ele>
        <time>2012-11-11T10:22:42Z</time>
      </trkpt>
      <trkpt lat="44.57882" lon="0.83693">
        <ele>157</ele>
        <time>2012-11-11T10:22:44Z</time>
      </trkpt>
      <trkpt lat="44.57885" lon="0.83693">
        <ele>157</ele>
        <time>2012-11-11T10:22:46Z</time>
      </trkpt>
      <trkpt lat="44.57888" lon="0.83693">
        <ele>157</ele>
        <time>2012-11-11T10:22:48Z</time>
      </trkpt>
      <trkpt lat="44.57891" lon="0.83696">
        <ele>158</ele>
        <time>2012-11-11T10:22:50Z</time>
      </trkpt>
      <trkpt lat="44.57894" lon="0.83697">
        <ele>158</ele>
        <time>2012-11-11T10:22:52Z</time>
      </trkpt>
      <trkpt lat="44.57898" lon="0.83697">
        <ele>158</ele>
        <time>2012-11-11T10:22:54Z</time>
      </trkpt>
      <trkpt lat="44.579" lon="0.83699">
        <ele>158</ele>
        <time>2012-11-11T10:22:56Z</time>
      </trkpt>
      <trkpt lat="44.57903" lon="0.837">
        <ele>158</ele>
        <time>2012-11-11T10:22:58Z</time>
      </trkpt>
      <trkpt lat="44.57906" lon="0.83701">
        <ele>158</ele>
        <time>2012-11-11T10:23:00Z</time>
      </trkpt>
      <trkpt lat="44.5791" lon="0.83703">
        <ele>158</ele>
        <time>2012-11-11T10:23:02Z</time>
      </trkpt>
      <trkpt lat="44.57916" lon="0.83705">
        <ele>158</ele>
        <time>2012-11-11T10:23:04Z</time>
      </trkpt>
      <trkpt lat="44.5792" lon="0.83705">
        <ele>158</ele>
        <time>2012-11-11T10:23:06Z</time>
      </trkpt>
      <trkpt lat="44.57924" lon="0.83704">
        <ele>158</ele>
        <time>2012-11-11T10:23:08Z</time>
      </trkpt>
      <trkpt lat="44.57929" lon="0.83704">
        <ele>158</ele>
        <time>2012-11-11T10:23:10Z</time>
      </trkpt>
      <trkpt lat="44.57935" lon="0.83703">
        <ele>158</ele>
        <time>2012-11-11T10:23:12Z</time>
      </trkpt>
      <trkpt lat="44.5794" lon="0.83704">
        <ele>158</ele>
        <time>2012-11-11T10:23:14Z</time>
      </trkpt>
      <trkpt lat="44.57945" lon="0.83705">
        <ele>158</ele>
        <time>2012-11-11T10:23:16Z</time>
      </trkpt>
      <trkpt lat="44.57951" lon="0.83705">
        <ele>158</ele>
        <time>2012-11-11T10:23:18Z</time>
      </trkpt>
      <trkpt lat="44.57958" lon="0.83705">
        <ele>158</ele>
        <time>2012-11-11T10:23:20Z</time>
      </trkpt>
      <trkpt lat="44.57966" lon="0.83705">
        <ele>158</ele>
        <time>2012-11-11T10:23:22Z</time>
      </trkpt>
      <trkpt lat="44.57974" lon="0.83706">
        <ele>158</ele>
        <time>2012-11-11T10:23:24Z</time>
      </trkpt>
      <trkpt lat="44.57982" lon="0.83709">
        <ele>158</ele>
        <time>2012-11-11T10:23:26Z</time>
      </trkpt>
      <trkpt lat="44.5799" lon="0.83713">
        <ele>157</ele>
        <time>2012-11-11T10:23:28Z</time>
      </trkpt>
      <trkpt lat="44.57999" lon="0.83716">
        <ele>157</ele>
        <time>2012-11-11T10:23:30Z</time>
      </trkpt>
      <trkpt lat="44.58008" lon="0.8372">
        <ele>157</ele>
        <time>2012-11-11T10:23:32Z</time>
      </trkpt>
      <trkpt lat="44.58018" lon="0.83723">
        <ele>157</ele>
        <time>2012-11-11T10:23:34Z</time>
      </trkpt>
      <trkpt lat="44.58028" lon="0.83725">
        <ele>157</ele>
        <time>2012-11-11T10:23:36Z</time>
      </trkpt>
      <trkpt lat="44.58039" lon="0.83725">
        <ele>155</ele>
        <time>2012-11-11T10:23:38Z</time>
      </trkpt>
      <trkpt lat="44.58051" lon="0.83724">
        <ele>154</ele>
        <time>2012-11-11T10:23:40Z</time>
      </trkpt>
      <trkpt lat="44.58062" lon="0.83724">
        <ele>152</ele>
        <time>2012-11-11T10:23:42Z</time>
      </trkpt>
      <trkpt lat="44.58076" lon="0.83726">
        <ele>150</ele>
        <time>2012-11-11T10:23:44Z</time>
      </trkpt>
      <trkpt lat="44.5809" lon="0.83728">
        <ele>148</ele>
        <time>2012-11-11T10:23:46Z</time>
      </trkpt>
      <trkpt lat="44.58105" lon="0.83731">
        <ele>147</ele>
        <time>2012-11-11T10:23:48Z</time>
      </trkpt>
      <trkpt lat="44.5812" lon="0.83734">
        <ele>147</ele>
        <time>2012-11-11T10:23:50Z</time>
      </trkpt>
      <trkpt lat="44.58134" lon="0.83735">
        <ele>147</ele>
        <time>2012-11-11T10:23:52Z</time>
      </trkpt>
      <trkpt lat="44.58148" lon="0.83735">
        <ele>147</ele>
        <time>2012-11-11T10:23:54Z</time>
      </trkpt>
      <trkpt lat="44.5816" lon="0.83735">
        <ele>147</ele>
        <time>2012-11-11T10:23:56Z</time>
      </trkpt>
      <trkpt lat="44.58171" lon="0.83734">
        <ele>147</ele>
        <time>2012-11-11T10:23:58Z</time>
      </trkpt>
      <trkpt lat="44.58181" lon="0.83735">
        <ele>147</ele>
        <time>2012-11-11T10:24:00Z</time>
      </trkpt>
      <trkpt lat="44.58191" lon="0.83737">
        <ele>147</ele>
        <time>2012-11-11T10:24:02Z</time>
      </trkpt>
      <trkpt lat="44.58195" lon="0.83736">
        <ele>147</ele>
        <time>2012-11-11T10:24:05Z</time>
      </trkpt>
      <trkpt lat="44.58197" lon="0.83735">
        <ele>147</ele>
        <time>2012-11-11T10:24:07Z</time>
      </trkpt>
      <trkpt lat="44.58196" lon="0.83732">
        <ele>147</ele>
        <time>2012-11-11T10:24:09Z</time>
      </trkpt>
      <trkpt lat="44.58195" lon="0.83728">
        <ele>147</ele>
        <time>2012-11-11T10:24:11Z</time>
      </trkpt>
      <trkpt lat="44.58194" lon="0.83727">
        <ele>147</ele>
        <time>2012-11-11T10:24:13Z</time>
      </trkpt>
      <trkpt lat="44.58196" lon="0.83726">
        <ele>147</ele>
        <time>2012-11-11T10:24:18Z</time>
      </trkpt>
      <trkpt lat="44.58197" lon="0.83727">
        <ele>147</ele>
        <time>2012-11-11T10:24:22Z</time>
      </trkpt>
      <trkpt lat="44.58198" lon="0.83728">
        <ele>147</ele>
        <time>2012-11-11T10:24:29Z</time>
      </trkpt>
      <trkpt lat="44.58199" lon="0.8373">
        <ele>147</ele>
        <time>2012-11-11T10:24:36Z</time>
      </trkpt>
      <trkpt lat="44.582" lon="0.83731">
        <ele>147</ele>
        <time>2012-11-11T10:24:43Z</time>
      </trkpt>
      <trkpt lat="44.582" lon="0.83733">
        <ele>147</ele>
        <time>2012-11-11T10:24:49Z</time>
      </trkpt>
      <trkpt lat="44.58201" lon="0.83733">
        <ele>148</ele>
        <time>2012-11-11T10:24:52Z</time>
      </trkpt>
      <trkpt lat="44.582" lon="0.83731">
        <ele>149</ele>
        <time>2012-11-11T10:24:55Z</time>
      </trkpt>
      <trkpt lat="44.58199" lon="0.83729">
        <ele>149</ele>
        <time>2012-11-11T10:24:58Z</time>
      </trkpt>
      <trkpt lat="44.58198" lon="0.83731">
        <ele>149</ele>
        <time>2012-11-11T10:25:02Z</time>
      </trkpt>
      <trkpt lat="44.58198" lon="0.83733">
        <ele>149</ele>
        <time>2012-11-11T10:25:05Z</time>
      </trkpt>
      <trkpt lat="44.58199" lon="0.83735">
        <ele>153</ele>
        <time>2012-11-11T10:25:10Z</time>
      </trkpt>
      <trkpt lat="44.58198" lon="0.83733">
        <ele>158</ele>
        <time>2012-11-11T10:25:26Z</time>
      </trkpt>
      <trkpt lat="44.58197" lon="0.83728">
        <ele>158</ele>
        <time>2012-11-11T10:25:28Z</time>
      </trkpt>
      <trkpt lat="44.58195" lon="0.8372">
        <ele>158</ele>
        <time>2012-11-11T10:25:30Z</time>
      </trkpt>
      <trkpt lat="44.58193" lon="0.8371">
        <ele>158</ele>
        <time>2012-11-11T10:25:32Z</time>
      </trkpt>
      <trkpt lat="44.58191" lon="0.83699">
        <ele>158</ele>
        <time>2012-11-11T10:25:34Z</time>
      </trkpt>
      <trkpt lat="44.58189" lon="0.83686">
        <ele>158</ele>
        <time>2012-11-11T10:25:36Z</time>
      </trkpt>
      <trkpt lat="44.58187" lon="0.83674">
        <ele>158</ele>
        <time>2012-11-11T10:25:38Z</time>
      </trkpt>
      <trkpt lat="44.58185" lon="0.83662">
        <ele>158</ele>
        <time>2012-11-11T10:25:40Z</time>
      </trkpt>
      <trkpt lat="44.58183" lon="0.83651">
        <ele>158</ele>
        <time>2012-11-11T10:25:42Z</time>
      </trkpt>
      <trkpt lat="44.58181" lon="0.83639">
        <ele>158</ele>
        <time>2012-11-11T10:25:44Z</time>
      </trkpt>
      <trkpt lat="44.58179" lon="0.83626">
        <ele>158</ele>
        <time>2012-11-11T10:25:46Z</time>
      </trkpt>
      <trkpt lat="44.58176" lon="0.83614">
        <ele>158</ele>
        <time>2012-11-11T10:25:48Z</time>
      </trkpt>
      <trkpt lat="44.58175" lon="0.83605">
        <ele>158</ele>
        <time>2012-11-11T10:25:50Z</time>
      </trkpt>
      <trkpt lat="44.58173" lon="0.83594">
        <ele>157</ele>
        <time>2012-11-11T10:25:52Z</time>
      </trkpt>
      <trkpt lat="44.58172" lon="0.83583">
        <ele>155</ele>
        <time>2012-11-11T10:25:54Z</time>
      </trkpt>
      <trkpt lat="44.5817" lon="0.83574">
        <ele>153</ele>
        <time>2012-11-11T10:25:56Z</time>
      </trkpt>
      <trkpt lat="44.58169" lon="0.83566">
        <ele>152</ele>
        <time>2012-11-11T10:25:58Z</time>
      </trkpt>
      <trkpt lat="44.58168" lon="0.83557">
        <ele>152</ele>
        <time>2012-11-11T10:26:00Z</time>
      </trkpt>
      <trkpt lat="44.58166" lon="0.83548">
        <ele>152</ele>
        <time>2012-11-11T10:26:02Z</time>
      </trkpt>
      <trkpt lat="44.58165" lon="0.83538">
        <ele>151</ele>
        <time>2012-11-11T10:26:04Z</time>
      </trkpt>
      <trkpt lat="44.58164" lon="0.83528">
        <ele>150</ele>
        <time>2012-11-11T10:26:06Z</time>
      </trkpt>
      <trkpt lat="44.58163" lon="0.83519">
        <ele>150</ele>
        <time>2012-11-11T10:26:08Z</time>
      </trkpt>
      <trkpt lat="44.58162" lon="0.83511">
        <ele>150</ele>
        <time>2012-11-11T10:26:10Z</time>
      </trkpt>
      <trkpt lat="44.5816" lon="0.83501">
        <ele>150</ele>
        <time>2012-11-11T10:26:12Z</time>
      </trkpt>
      <trkpt lat="44.5816" lon="0.83491">
        <ele>150</ele>
        <time>2012-11-11T10:26:14Z</time>
      </trkpt>
      <trkpt lat="44.58159" lon="0.83484">
        <ele>150</ele>
        <time>2012-11-11T10:26:16Z</time>
      </trkpt>
      <trkpt lat="44.58158" lon="0.83475">
        <ele>150</ele>
        <time>2012-11-11T10:26:18Z</time>
      </trkpt>
      <trkpt lat="44.58158" lon="0.8347">
        <ele>149</ele>
        <time>2012-11-11T10:26:20Z</time>
      </trkpt>
      <trkpt lat="44.58157" lon="0.83465">
        <ele>147</ele>
        <time>2012-11-11T10:26:22Z</time>
      </trkpt>
      <trkpt lat="44.58157" lon="0.83459">
        <ele>147</ele>
        <time>2012-11-11T10:26:24Z</time>
      </trkpt>
      <trkpt lat="44.58157" lon="0.83451">
        <ele>146</ele>
        <time>2012-11-11T10:26:26Z</time>
      </trkpt>
      <trkpt lat="44.58156" lon="0.83442">
        <ele>146</ele>
        <time>2012-11-11T10:26:28Z</time>
      </trkpt>
      <trkpt lat="44.58154" lon="0.83433">
        <ele>145</ele>
        <time>2012-11-11T10:26:30Z</time>
      </trkpt>
      <trkpt lat="44.58153" lon="0.83423">
        <ele>145</ele>
        <time>2012-11-11T10:26:32Z</time>
      </trkpt>
      <trkpt lat="44.58151" lon="0.83412">
        <ele>145</ele>
        <time>2012-11-11T10:26:34Z</time>
      </trkpt>
      <trkpt lat="44.5815" lon="0.83401">
        <ele>145</ele>
        <time>2012-11-11T10:26:36Z</time>
      </trkpt>
      <trkpt lat="44.58148" lon="0.8339">
        <ele>145</ele>
        <time>2012-11-11T10:26:38Z</time>
      </trkpt>
      <trkpt lat="44.58147" lon="0.8338">
        <ele>144</ele>
        <time>2012-11-11T10:26:40Z</time>
      </trkpt>
      <trkpt lat="44.58146" lon="0.8337">
        <ele>144</ele>
        <time>2012-11-11T10:26:42Z</time>
      </trkpt>
      <trkpt lat="44.58145" lon="0.83361">
        <ele>144</ele>
        <time>2012-11-11T10:26:44Z</time>
      </trkpt>
      <trkpt lat="44.58144" lon="0.83352">
        <ele>144</ele>
        <time>2012-11-11T10:26:46Z</time>
      </trkpt>
      <trkpt lat="44.58144" lon="0.83344">
        <ele>144</ele>
        <time>2012-11-11T10:26:48Z</time>
      </trkpt>
      <trkpt lat="44.58143" lon="0.83335">
        <ele>144</ele>
        <time>2012-11-11T10:26:50Z</time>
      </trkpt>
      <trkpt lat="44.58141" lon="0.83325">
        <ele>146</ele>
        <time>2012-11-11T10:26:52Z</time>
      </trkpt>
      <trkpt lat="44.58139" lon="0.83315">
        <ele>148</ele>
        <time>2012-11-11T10:26:54Z</time>
      </trkpt>
      <trkpt lat="44.58137" lon="0.83305">
        <ele>150</ele>
        <time>2012-11-11T10:26:56Z</time>
      </trkpt>
      <trkpt lat="44.58135" lon="0.83295">
        <ele>151</ele>
        <time>2012-11-11T10:26:58Z</time>
      </trkpt>
      <trkpt lat="44.58133" lon="0.83286">
        <ele>152</ele>
        <time>2012-11-11T10:27:00Z</time>
      </trkpt>
      <trkpt lat="44.58131" lon="0.83276">
        <ele>154</ele>
        <time>2012-11-11T10:27:02Z</time>
      </trkpt>
      <trkpt lat="44.58128" lon="0.83267">
        <ele>154</ele>
        <time>2012-11-11T10:27:04Z</time>
      </trkpt>
      <trkpt lat="44.58125" lon="0.83256">
        <ele>155</ele>
        <time>2012-11-11T10:27:06Z</time>
      </trkpt>
      <trkpt lat="44.5812" lon="0.83244">
        <ele>155</ele>
        <time>2012-11-11T10:27:08Z</time>
      </trkpt>
      <trkpt lat="44.58117" lon="0.83234">
        <ele>155</ele>
        <time>2012-11-11T10:27:10Z</time>
      </trkpt>
      <trkpt lat="44.58114" lon="0.83223">
        <ele>155</ele>
        <time>2012-11-11T10:27:12Z</time>
      </trkpt>
      <trkpt lat="44.58111" lon="0.83211">
        <ele>155</ele>
        <time>2012-11-11T10:27:14Z</time>
      </trkpt>
      <trkpt lat="44.58108" lon="0.83199">
        <ele>156</ele>
        <time>2012-11-11T10:27:16Z</time>
      </trkpt>
      <trkpt lat="44.58104" lon="0.83185">
        <ele>156</ele>
        <time>2012-11-11T10:27:18Z</time>
      </trkpt>
      <trkpt lat="44.58099" lon="0.83171">
        <ele>156</ele>
        <time>2012-11-11T10:27:20Z</time>
      </trkpt>
      <trkpt lat="44.58094" lon="0.83154">
        <ele>156</ele>
        <time>2012-11-11T10:27:22Z</time>
      </trkpt>
      <trkpt lat="44.58089" lon="0.83139">
        <ele>156</ele>
        <time>2012-11-11T10:27:24Z</time>
      </trkpt>
      <trkpt lat="44.58085" lon="0.83124">
        <ele>156</ele>
        <time>2012-11-11T10:27:26Z</time>
      </trkpt>
      <trkpt lat="44.5808" lon="0.8311">
        <ele>156</ele>
        <time>2012-11-11T10:27:28Z</time>
      </trkpt>
      <trkpt lat="44.58076" lon="0.83096">
        <ele>156</ele>
        <time>2012-11-11T10:27:30Z</time>
      </trkpt>
      <trkpt lat="44.58072" lon="0.83083">
        <ele>156</ele>
        <time>2012-11-11T10:27:32Z</time>
      </trkpt>
      <trkpt lat="44.58071" lon="0.83074">
        <ele>156</ele>
        <time>2012-11-11T10:27:34Z</time>
      </trkpt>
      <trkpt lat="44.58075" lon="0.83064">
        <ele>156</ele>
        <time>2012-11-11T10:27:36Z</time>
      </trkpt>
      <trkpt lat="44.58081" lon="0.83055">
        <ele>155</ele>
        <time>2012-11-11T10:27:38Z</time>
      </trkpt>
      <trkpt lat="44.58089" lon="0.83041">
        <ele>153</ele>
        <time>2012-11-11T10:27:40Z</time>
      </trkpt>
      <trkpt lat="44.58098" lon="0.83029">
        <ele>151</ele>
        <time>2012-11-11T10:27:42Z</time>
      </trkpt>
      <trkpt lat="44.58109" lon="0.83017">
        <ele>149</ele>
        <time>2012-11-11T10:27:44Z</time>
      </trkpt>
      <trkpt lat="44.5812" lon="0.83007">
        <ele>147</ele>
        <time>2012-11-11T10:27:46Z</time>
      </trkpt>
      <trkpt lat="44.58131" lon="0.82996">
        <ele>145</ele>
        <time>2012-11-11T10:27:48Z</time>
      </trkpt>
      <trkpt lat="44.5814" lon="0.82986">
        <ele>143</ele>
        <time>2012-11-11T10:27:50Z</time>
      </trkpt>
      <trkpt lat="44.58148" lon="0.82977">
        <ele>143</ele>
        <time>2012-11-11T10:27:52Z</time>
      </trkpt>
      <trkpt lat="44.58156" lon="0.8297">
        <ele>143</ele>
        <time>2012-11-11T10:27:54Z</time>
      </trkpt>
      <trkpt lat="44.58163" lon="0.82961">
        <ele>143</ele>
        <time>2012-11-11T10:27:56Z</time>
      </trkpt>
      <trkpt lat="44.58168" lon="0.82948">
        <ele>143</ele>
        <time>2012-11-11T10:27:58Z</time>
      </trkpt>
      <trkpt lat="44.58169" lon="0.82936">
        <ele>142</ele>
        <time>2012-11-11T10:28:00Z</time>
      </trkpt>
      <trkpt lat="44.58167" lon="0.82921">
        <ele>141</ele>
        <time>2012-11-11T10:28:02Z</time>
      </trkpt>
      <trkpt lat="44.58163" lon="0.82908">
        <ele>140</ele>
        <time>2012-11-11T10:28:04Z</time>
      </trkpt>
      <trkpt lat="44.58158" lon="0.82897">
        <ele>140</ele>
        <time>2012-11-11T10:28:06Z</time>
      </trkpt>
      <trkpt lat="44.58153" lon="0.82885">
        <ele>140</ele>
        <time>2012-11-11T10:28:08Z</time>
      </trkpt>
      <trkpt lat="44.58148" lon="0.82874">
        <ele>140</ele>
        <time>2012-11-11T10:28:10Z</time>
      </trkpt>
      <trkpt lat="44.58144" lon="0.82862">
        <ele>140</ele>
        <time>2012-11-11T10:28:12Z</time>
      </trkpt>
      <trkpt lat="44.5814" lon="0.8285">
        <ele>140</ele>
        <time>2012-11-11T10:28:14Z</time>
      </trkpt>
      <trkpt lat="44.58135" lon="0.82837">
        <ele>140</ele>
        <time>2012-11-11T10:28:16Z</time>
      </trkpt>
      <trkpt lat="44.5813" lon="0.82823">
        <ele>140</ele>
        <time>2012-11-11T10:28:18Z</time>
      </trkpt>
      <trkpt lat="44.58126" lon="0.82811">
        <ele>140</ele>
        <time>2012-11-11T10:28:20Z</time>
      </trkpt>
      <trkpt lat="44.58127" lon="0.82805">
        <ele>140</ele>
        <time>2012-11-11T10:28:22Z</time>
      </trkpt>
      <trkpt lat="44.58131" lon="0.828">
        <ele>140</ele>
        <time>2012-11-11T10:28:24Z</time>
      </trkpt>
      <trkpt lat="44.58139" lon="0.82794">
        <ele>140</ele>
        <time>2012-11-11T10:28:26Z</time>
      </trkpt>
      <trkpt lat="44.58147" lon="0.82789">
        <ele>140</ele>
        <time>2012-11-11T10:28:28Z</time>
      </trkpt>
      <trkpt lat="44.58155" lon="0.82783">
        <ele>140</ele>
        <time>2012-11-11T10:28:30Z</time>
      </trkpt>
      <trkpt lat="44.58163" lon="0.82778">
        <ele>140</ele>
        <time>2012-11-11T10:28:32Z</time>
      </trkpt>
      <trkpt lat="44.58172" lon="0.82772">
        <ele>140</ele>
        <time>2012-11-11T10:28:34Z</time>
      </trkpt>
      <trkpt lat="44.5818" lon="0.82767">
        <ele>140</ele>
        <time>2012-11-11T10:28:36Z</time>
      </trkpt>
      <trkpt lat="44.58188" lon="0.82762">
        <ele>140</ele>
        <time>2012-11-11T10:28:38Z</time>
      </trkpt>
      <trkpt lat="44.58196" lon="0.82757">
        <ele>140</ele>
        <time>2012-11-11T10:28:40Z</time>
      </trkpt>
      <trkpt lat="44.58205" lon="0.82751">
        <ele>139</ele>
        <time>2012-11-11T10:28:42Z</time>
      </trkpt>
      <trkpt lat="44.58214" lon="0.82746">
        <ele>138</ele>
        <time>2012-11-11T10:28:44Z</time>
      </trkpt>
      <trkpt lat="44.58223" lon="0.8274">
        <ele>136</ele>
        <time>2012-11-11T10:28:46Z</time>
      </trkpt>
      <trkpt lat="44.58234" lon="0.82734">
        <ele>135</ele>
        <time>2012-11-11T10:28:48Z</time>
      </trkpt>
      <trkpt lat="44.58244" lon="0.82728">
        <ele>134</ele>
        <time>2012-11-11T10:28:50Z</time>
      </trkpt>
      <trkpt lat="44.58253" lon="0.82723">
        <ele>134</ele>
        <time>2012-11-11T10:28:52Z</time>
      </trkpt>
      <trkpt lat="44.58264" lon="0.82718">
        <ele>134</ele>
        <time>2012-11-11T10:28:54Z</time>
      </trkpt>
      <trkpt lat="44.58274" lon="0.82714">
        <ele>134</ele>
        <time>2012-11-11T10:28:56Z</time>
      </trkpt>
      <trkpt lat="44.58285" lon="0.8271">
        <ele>134</ele>
        <time>2012-11-11T10:28:58Z</time>
      </trkpt>
      <trkpt lat="44.58295" lon="0.82707">
        <ele>134</ele>
        <time>2012-11-11T10:29:00Z</time>
      </trkpt>
      <trkpt lat="44.58306" lon="0.82704">
        <ele>134</ele>
        <time>2012-11-11T10:29:02Z</time>
      </trkpt>
      <trkpt lat="44.58316" lon="0.82701">
        <ele>134</ele>
        <time>2012-11-11T10:29:04Z</time>
      </trkpt>
      <trkpt lat="44.58327" lon="0.82697">
        <ele>134</ele>
        <time>2012-11-11T10:29:06Z</time>
      </trkpt>
      <trkpt lat="44.58337" lon="0.82693">
        <ele>134</ele>
        <time>2012-11-11T10:29:08Z</time>
      </trkpt>
      <trkpt lat="44.58347" lon="0.82687">
        <ele>134</ele>
        <time>2012-11-11T10:29:10Z</time>
      </trkpt>
      <trkpt lat="44.58357" lon="0.82681">
        <ele>134</ele>
        <time>2012-11-11T10:29:12Z</time>
      </trkpt>
      <trkpt lat="44.58367" lon="0.82674">
        <ele>134</ele>
        <time>2012-11-11T10:29:14Z</time>
      </trkpt>
      <trkpt lat="44.58377" lon="0.82667">
        <ele>134</ele>
        <time>2012-11-11T10:29:16Z</time>
      </trkpt>
      <trkpt lat="44.58387" lon="0.82661">
        <ele>134</ele>
        <time>2012-11-11T10:29:18Z</time>
      </trkpt>
      <trkpt lat="44.58397" lon="0.82654">
        <ele>134</ele>
        <time>2012-11-11T10:29:20Z</time>
      </trkpt>
      <trkpt lat="44.58406" lon="0.82647">
        <ele>133</ele>
        <time>2012-11-11T10:29:22Z</time>
      </trkpt>
      <trkpt lat="44.58415" lon="0.8264">
        <ele>133</ele>
        <time>2012-11-11T10:29:24Z</time>
      </trkpt>
      <trkpt lat="44.58424" lon="0.82633">
        <ele>132</ele>
        <time>2012-11-11T10:29:26Z</time>
      </trkpt>
      <trkpt lat="44.58433" lon="0.82624">
        <ele>132</ele>
        <time>2012-11-11T10:29:28Z</time>
      </trkpt>
      <trkpt lat="44.58442" lon="0.82616">
        <ele>132</ele>
        <time>2012-11-11T10:29:30Z</time>
      </trkpt>
      <trkpt lat="44.58451" lon="0.82607">
        <ele>131</ele>
        <time>2012-11-11T10:29:32Z</time>
      </trkpt>
      <trkpt lat="44.5846" lon="0.82599">
        <ele>131</ele>
        <time>2012-11-11T10:29:34Z</time>
      </trkpt>
      <trkpt lat="44.58469" lon="0.8259">
        <ele>131</ele>
        <time>2012-11-11T10:29:36Z</time>
      </trkpt>
      <trkpt lat="44.58479" lon="0.82581">
        <ele>131</ele>
        <time>2012-11-11T10:29:38Z</time>
      </trkpt>
      <trkpt lat="44.58488" lon="0.82573">
        <ele>131</ele>
        <time>2012-11-11T10:29:40Z</time>
      </trkpt>
      <trkpt lat="44.58496" lon="0.82565">
        <ele>131</ele>
        <time>2012-11-11T10:29:42Z</time>
      </trkpt>
      <trkpt lat="44.58505" lon="0.82557">
        <ele>131</ele>
        <time>2012-11-11T10:29:44Z</time>
      </trkpt>
      <trkpt lat="44.58513" lon="0.82549">
        <ele>131</ele>
        <time>2012-11-11T10:29:46Z</time>
      </trkpt>
      <trkpt lat="44.5852" lon="0.82541">
        <ele>131</ele>
        <time>2012-11-11T10:29:48Z</time>
      </trkpt>
      <trkpt lat="44.58528" lon="0.82533">
        <ele>131</ele>
        <time>2012-11-11T10:29:50Z</time>
      </trkpt>
      <trkpt lat="44.58535" lon="0.82525">
        <ele>131</ele>
        <time>2012-11-11T10:29:52Z</time>
      </trkpt>
      <trkpt lat="44.58543" lon="0.82518">
        <ele>131</ele>
        <time>2012-11-11T10:29:54Z</time>
      </trkpt>
      <trkpt lat="44.5855" lon="0.82511">
        <ele>131</ele>
        <time>2012-11-11T10:29:56Z</time>
      </trkpt>
      <trkpt lat="44.58557" lon="0.82505">
        <ele>131</ele>
        <time>2012-11-11T10:29:58Z</time>
      </trkpt>
      <trkpt lat="44.58563" lon="0.82499">
        <ele>131</ele>
        <time>2012-11-11T10:30:00Z</time>
      </trkpt>
      <trkpt lat="44.58568" lon="0.82494">
        <ele>131</ele>
        <time>2012-11-11T10:30:02Z</time>
      </trkpt>
      <trkpt lat="44.58572" lon="0.82488">
        <ele>131</ele>
        <time>2012-11-11T10:30:04Z</time>
      </trkpt>
      <trkpt lat="44.58573" lon="0.82482">
        <ele>131</ele>
        <time>2012-11-11T10:30:06Z</time>
      </trkpt>
      <trkpt lat="44.58574" lon="0.82476">
        <ele>131</ele>
        <time>2012-11-11T10:30:08Z</time>
      </trkpt>
      <trkpt lat="44.58574" lon="0.82471">
        <ele>131</ele>
        <time>2012-11-11T10:30:10Z</time>
      </trkpt>
      <trkpt lat="44.58572" lon="0.82467">
        <ele>131</ele>
        <time>2012-11-11T10:30:12Z</time>
      </trkpt>
      <trkpt lat="44.58569" lon="0.82465">
        <ele>131</ele>
        <time>2012-11-11T10:30:14Z</time>
      </trkpt>
      <trkpt lat="44.58568" lon="0.82465">
        <ele>131</ele>
        <time>2012-11-11T10:30:17Z</time>
      </trkpt>
      <trkpt lat="44.58568" lon="0.82465">
        <ele>131</ele>
        <time>2012-11-11T10:30:18Z</time>
      </trkpt>
    </trkseg>
  </trk>
</gpx>